# Wetter Temperatur Luftdruck Luftfeuchtigkeit Sichtweite Windgeschwindigkeit Windrichtung Zeit
1 Clouds 11 1022 71 10000 2.57 360 11:47 22.04.2021
2 Clouds 10 1022 71 10000 3.09 360 11:23 22.04.2021
3 Clouds 10 1021 76 10000 4.12 350 10:46 22.04.2021
4 Clouds 10 1021 76 10000 4.63 360 10:26 22.04.2021
5 Clouds 9 1021 76 10000 4.63 350 09:49 22.04.2021
6 Clouds 9 1021 81 10000 5.14 350 09:30 22.04.2021
7 Clouds 8 1020 81 10000 4.12 0 08:41 22.04.2021
8 Clouds 8 1020 81 10000 4.12 340 08:22 22.04.2021
9 Clouds 8 1019 81 10000 3.6 350 07:46 22.04.2021
10 Clouds 7 1019 81 10000 3.6 350 07:24 22.04.2021
11 Clouds 7 1019 81 10000 3.09 320 06:40 22.04.2021
12 Rain 8 1018 76 10000 1.54 300 05:50 22.04.2021
13 Rain 8 1018 76 10000 1.03 0 05:20 22.04.2021
14 Clear 8 1017 66 10000 2.57 290 01:39 22.04.2021
15 Clear 10 1016 58 10000 2.06 350 23:54 21.04.2021
16 Clear 10 1016 58 10000 2.06 350 23:34 21.04.2021
17 Clouds 12 1016 54 10000 2.57 350 22:44 21.04.2021
18 Clouds 12 1016 54 10000 1.03 0 22:25 21.04.2021
19 Clouds 13 1016 50 10000 0.51 0 21:57 21.04.2021
20 Clouds 13 1016 50 10000 0.51 0 21:38 21.04.2021
21 Clouds 14 1015 47 10000 2.06 40 21:18 21.04.2021
22 Clouds 15 1015 39 10000 2.06 350 20:23 21.04.2021
23 Clouds 16 1014 41 10000 3.09 310 19:45 21.04.2021
24 Clouds 17 1014 36 10000 3.09 300 19:26 21.04.2021
25 Clouds 17 1014 36 10000 2.57 0 18:50 21.04.2021
26 Clouds 17 1014 41 10000 2.57 360 18:31 21.04.2021
27 Clouds 17 1014 41 10000 2.57 360 18:31 21.04.2021
28 Clouds 17 1014 34 10000 1.54 0 17:57 21.04.2021
29 Clouds 17 1014 34 10000 1.54 0 17:39 21.04.2021
30 Clouds 18 1014 34 10000 2.57 260 17:19 21.04.2021
31 Clouds 18 1014 36 10000 3.6 330 16:32 21.04.2021
32 Clouds 18 1015 34 10000 2.57 320 15:46 21.04.2021
33 Clouds 18 1015 32 10000 1.54 0 15:20 21.04.2021
34 Clouds 18 1015 32 10000 1.54 0 14:44 21.04.2021
35 Clouds 18 1015 34 10000 1.54 0 14:23 21.04.2021
36 Clouds 17 1015 39 10000 2.57 280 13:48 21.04.2021
37 Clouds 17 1016 36 10000 1.54 0 13:21 21.04.2021
38 Clouds 16 1016 41 10000 1.03 0 12:41 21.04.2021
39 Clouds 16 1016 44 10000 1.54 0 12:18 21.04.2021
40 Clouds 15 1016 51 10000 1.03 0 11:41 21.04.2021
41 Clouds 15 1016 58 10000 1.54 90 11:41 21.04.2021
42 Clouds 15 1016 58 10000 1.54 90 11:22 21.04.2021
43 Clear 12 1016 71 10000 1.54 100 10:39 21.04.2021
44 Clear 11 1016 71 10000 1.03 0 09:56 21.04.2021
45 Clear 9 1016 76 10000 1.03 0 09:21 21.04.2021
46 Clear 7 1016 87 10000 1.03 0 08:46 21.04.2021
47 Clear 6 1016 87 10000 0.51 0 08:24 21.04.2021
48 Clear 5 1015 87 10000 1.03 60 07:52 21.04.2021
49 Clear 3 1015 93 10000 0.51 70 07:28 21.04.2021
50 Clear 3 1015 100 10000 0.51 0 06:21 21.04.2021
51 Clear 5 1016 81 10000 1.03 0 02:28 21.04.2021
52 Rain 6 1016 75 10000 1.03 300 00:20 21.04.2021
53 Rain 7 1016 75 10000 1.03 0 23:39 20.04.2021
54 Clear 8 1016 66 10000 0.51 0 22:49 20.04.2021
55 Clear 9 1015 66 10000 0.51 0 22:24 20.04.2021
56 Clear 9 1015 62 10000 0.51 70 21:57 20.04.2021
57 Clear 10 1015 62 10000 0.51 70 21:39 20.04.2021
58 Clear 10 1015 58 10000 2.06 60 21:21 20.04.2021
59 Clear 12 1015 54 10000 2.06 20 20:39 20.04.2021
60 Clear 13 1015 51 10000 1.54 90 20:20 20.04.2021
61 Clouds 15 1015 44 10000 2.06 130 19:47 20.04.2021
62 Clouds 14 1015 47 10000 1.03 0 19:29 20.04.2021
63 Clouds 14 1015 47 10000 2.06 110 18:47 20.04.2021
64 Clouds 15 1015 51 10000 3.09 110 18:29 20.04.2021
65 Clouds 15 1015 51 10000 3.6 90 17:41 20.04.2021
66 Clouds 15 1015 39 10000 3.09 0 16:53 20.04.2021
67 Clouds 15 1015 39 10000 3.09 0 16:34 20.04.2021
68 Clouds 16 1015 44 10000 2.06 0 15:40 20.04.2021
69 Clouds 15 1016 44 10000 1.54 0 15:19 20.04.2021
70 Clouds 16 1016 44 10000 2.57 90 14:48 20.04.2021
71 Clouds 15 1016 47 10000 2.06 0 14:23 20.04.2021
72 Clouds 15 1016 47 10000 2.06 0 14:23 20.04.2021
73 Clouds 14 1017 47 10000 2.06 70 13:29 20.04.2021
74 Clouds 14 1017 58 10000 0.51 0 12:55 20.04.2021
75 Clouds 13 1017 62 10000 1.54 0 12:27 20.04.2021
76 Clouds 12 1017 71 10000 1.03 0 11:47 20.04.2021
77 Clouds 12 1017 71 10000 1.03 0 11:47 20.04.2021
78 Clouds 11 1017 76 10000 0.51 0 11:28 20.04.2021
79 Fog 9 1017 87 9000 0.51 0 10:48 20.04.2021
80 Fog 8 1018 93 250 1.03 0 10:26 20.04.2021
81 Fog 7 1017 93 200 0.51 0 09:50 20.04.2021
82 Fog 6 1018 93 150 1.03 0 09:19 20.04.2021
83 Fog 4 1017 93 750 0.51 230 08:46 20.04.2021
84 Fog 3 1017 100 400 0.51 0 07:59 20.04.2021
85 Fog 3 1017 93 300 0.51 0 07:32 20.04.2021
86 Fog 2 1017 100 150 1.03 0 05:48 20.04.2021
87 Fog 2 1017 100 100 0.51 0 05:30 20.04.2021
88 Fog 3 1017 100 100 0.51 0 04:24 20.04.2021
89 Clouds 4 1018 93 6000 1.54 330 00:51 20.04.2021
90 Mist 4 1018 100 5000 1.03 0 00:20 20.04.2021
91 Clouds 5 1018 100 10000 2.57 300 23:31 19.04.2021
92 Clouds 5 1018 100 10000 2.06 300 22:45 19.04.2021
93 Clouds 5 1018 100 10000 1.03 0 22:26 19.04.2021
94 Clouds 6 1018 93 10000 0.51 200 21:43 19.04.2021
95 Clouds 7 1018 93 10000 0.51 0 21:20 19.04.2021
96 Clouds 7 1018 87 10000 0.51 0 20:41 19.04.2021
97 Clouds 8 1018 81 10000 0.51 0 20:20 19.04.2021
98 Clouds 9 1018 81 10000 0.51 300 19:50 19.04.2021
99 Clouds 9 1018 81 10000 2.06 290 19:27 19.04.2021
100 Clouds 9 1018 76 10000 1.54 260 18:59 19.04.2021
101 Clouds 9 1018 81 10000 1.54 250 18:40 19.04.2021
102 Clouds 9 1018 81 10000 1.54 250 18:19 19.04.2021
103 Rain 9 1018 87 10000 1.03 0 17:43 19.04.2021
104 Rain 9 1018 87 10000 2.06 240 17:23 19.04.2021
105 Rain 9 1018 87 10000 2.57 240 16:43 19.04.2021
106 Rain 9 1018 81 10000 2.57 250 16:24 19.04.2021
107 Rain 9 1018 81 10000 2.57 240 15:42 19.04.2021
108 Rain 9 1019 81 10000 1.54 230 15:23 19.04.2021
109 Rain 9 1019 81 10000 2.06 250 14:51 19.04.2021
110 Rain 8 1019 81 10000 2.57 270 14:30 19.04.2021
111 Drizzle 8 1019 87 9000 2.06 250 13:50 19.04.2021
112 Rain 8 1019 87 9000 2.06 240 13:28 19.04.2021
113 Rain 7 1019 87 9000 1.54 210 12:48 19.04.2021
114 Rain 8 1019 87 9000 1.54 210 12:48 19.04.2021
115 Rain 7 1019 93 9000 2.06 210 12:27 19.04.2021
116 Rain 7 1019 93 9000 1.54 190 11:59 19.04.2021
117 Rain 6 1019 87 9000 1.03 0 11:27 19.04.2021
118 Rain 6 1019 87 9000 1.03 0 10:55 19.04.2021
119 Rain 6 1019 87 9000 1.03 0 10:36 19.04.2021
120 Rain 6 1019 93 9000 1.03 0 10:18 19.04.2021
121 Rain 6 1019 93 9000 1.03 0 10:18 19.04.2021
122 Rain 5 1019 93 9000 1.03 0 09:39 19.04.2021
123 Rain 5 1019 87 10000 2.06 140 09:21 19.04.2021
124 Rain 5 1019 87 10000 1.03 0 08:32 19.04.2021
125 Rain 4 1018 93 10000 1.03 0 07:49 19.04.2021
126 Rain 4 1018 87 10000 1.03 0 07:21 19.04.2021
127 Clouds 4 1018 87 10000 0.51 0 06:47 19.04.2021
128 Clouds 4 1019 87 10000 0.51 0 04:21 19.04.2021
129 Clouds 6 1020 75 10000 0.51 0 01:49 19.04.2021
130 Clouds 6 1020 75 10000 0.8 230 00:33 19.04.2021
131 Clear 6 1020 75 10000 2.06 250 23:20 18.04.2021
132 Clear 6 1020 75 10000 1.03 0 22:56 18.04.2021
133 Clear 7 1020 70 10000 1.54 250 22:31 18.04.2021
134 Clouds 7 1020 70 10000 3.09 260 21:51 18.04.2021
135 Clouds 7 1020 71 10000 1.54 250 21:28 18.04.2021
136 Clouds 8 1020 66 10000 0.51 0 20:43 18.04.2021
137 Clouds 8 1020 61 10000 0.51 0 20:25 18.04.2021
138 Clouds 8 1019 61 10000 0.51 0 19:56 18.04.2021
139 Clouds 8 1019 61 10000 0.51 0 19:38 18.04.2021
140 Clouds 9 1019 61 10000 2.06 360 19:18 18.04.2021
141 Clouds 9 1019 61 10000 0.51 0 18:44 18.04.2021
142 Clouds 9 1019 61 10000 1.03 40 18:25 18.04.2021
143 Clouds 9 1019 57 10000 1.03 0 17:45 18.04.2021
144 Clouds 9 1019 61 10000 1.54 0 17:27 18.04.2021
145 Clouds 9 1019 57 10000 1.03 0 16:45 18.04.2021
146 Clouds 10 1019 61 10000 1.54 10 16:24 18.04.2021
147 Clouds 9 1019 57 10000 1.54 0 15:43 18.04.2021
148 Clouds 8 1019 57 10000 0.51 210 15:25 18.04.2021
149 Clouds 8 1020 66 10000 1.54 80 14:46 18.04.2021
150 Clouds 8 1020 61 10000 1.54 280 14:21 18.04.2021
151 Clouds 8 1020 61 10000 2.06 10 13:55 18.04.2021
152 Clouds 8 1020 61 10000 2.06 10 13:34 18.04.2021
153 Clouds 7 1020 65 10000 1.03 0 12:50 18.04.2021
154 Clouds 7 1020 70 10000 1.03 0 12:26 18.04.2021
155 Clouds 6 1020 70 10000 1.03 0 11:42 18.04.2021
156 Clouds 6 1020 70 10000 1.03 0 11:21 18.04.2021
157 Clouds 6 1020 81 10000 0.51 0 10:47 18.04.2021
158 Rain 5 1020 81 10000 0.51 0 10:22 18.04.2021
159 Rain 5 1020 87 10000 0.51 0 09:53 18.04.2021
160 Clouds 4 1020 87 10000 0.51 0 09:34 18.04.2021
161 Clouds 4 1020 93 10000 1.03 0 08:57 18.04.2021
162 Clouds 4 1020 93 10000 0.51 60 08:35 18.04.2021
163 Clouds 3 1019 93 10000 1.03 0 07:58 18.04.2021
164 Clouds 3 1019 93 10000 1.03 0 07:38 18.04.2021
165 Rain 3 1019 93 10000 1.54 360 05:42 18.04.2021
166 Rain 3 1019 87 10000 2.06 350 05:24 18.04.2021
167 Clouds 3 1020 87 10000 1.54 330 02:56 18.04.2021
168 Clouds 3 1020 87 10000 2.06 350 02:22 18.04.2021
169 Rain 4 1021 87 10000 3.09 20 00:38 18.04.2021
170 Rain 4 1021 87 10000 3.09 20 23:38 17.04.2021
171 Rain 5 1021 75 10000 3.6 70 22:52 17.04.2021
172 Rain 5 1021 75 10000 4.12 50 22:31 17.04.2021
173 Rain 6 1020 70 10000 3.6 50 21:50 17.04.2021
174 Rain 6 1020 75 10000 3.09 60 21:31 17.04.2021
175 Clouds 6 1020 70 10000 5.14 50 20:51 17.04.2021
176 Clouds 7 1020 65 10000 6.17 60 20:28 17.04.2021
177 Clouds 7 1019 61 10000 3.09 40 19:46 17.04.2021
178 Clouds 8 1019 57 10000 2.57 20 19:22 17.04.2021
179 Clouds 8 1019 57 10000 3.6 50 18:57 17.04.2021
180 Clouds 9 1019 49 10000 2.06 0 18:36 17.04.2021
181 Clouds 9 1019 49 10000 5.14 40 17:58 17.04.2021
182 Clouds 10 1019 43 10000 4.63 30 17:39 17.04.2021
183 Clouds 10 1019 43 10000 2.06 0 16:54 17.04.2021
184 Clouds 10 1020 46 10000 3.09 340 16:28 17.04.2021
185 Clouds 10 1020 46 10000 2.57 60 15:53 17.04.2021
186 Clouds 10 1020 49 10000 2.06 0 14:50 17.04.2021
187 Clouds 10 1020 49 10000 2.06 0 14:32 17.04.2021
188 Clouds 10 1021 49 10000 3.6 360 13:49 17.04.2021
189 Clouds 9 1021 53 10000 1.54 0 13:25 17.04.2021
190 Clouds 8 1021 57 10000 1.54 0 12:42 17.04.2021
191 Clouds 8 1021 57 10000 2.57 50 12:18 17.04.2021
192 Clouds 8 1021 57 10000 1.54 0 11:41 17.04.2021
193 Clouds 8 1022 61 10000 1.03 0 11:22 17.04.2021
194 Clouds 7 1022 65 10000 1.54 0 10:45 17.04.2021
195 Clouds 6 1022 65 10000 1.03 0 10:26 17.04.2021
196 Clouds 5 1022 75 10000 1.03 0 09:27 17.04.2021
197 Clouds 3 1022 87 10000 0.51 90 08:40 17.04.2021
198 Clouds 2 1022 87 10000 0.51 90 08:21 17.04.2021
199 Clouds 1 1022 86 10000 0.51 150 06:47 17.04.2021
200 Clear 1 1022 86 10000 2.06 330 03:55 17.04.2021
201 Clear 1 1022 86 10000 2.06 330 03:37 17.04.2021
202 Clouds 3 1023 75 10000 2.06 20 00:48 17.04.2021
203 Clouds 3 1023 75 10000 0.51 30 00:27 17.04.2021
204 Clouds 3 1023 75 10000 1.54 40 23:46 16.04.2021
205 Clouds 4 1023 70 10000 2.57 40 23:24 16.04.2021
206 Clouds 4 1024 70 10000 1.03 0 22:46 16.04.2021
207 Clouds 4 1024 70 10000 1.54 30 22:21 16.04.2021
208 Clouds 4 1024 70 10000 2.57 30 21:50 16.04.2021
209 Clouds 4 1023 70 10000 3.6 20 21:30 16.04.2021
210 Clouds 4 1023 70 10000 3.6 20 20:50 16.04.2021
211 Clouds 5 1023 70 10000 3.6 20 20:24 16.04.2021
212 Clouds 5 1023 65 10000 5.14 20 19:52 16.04.2021
213 Clouds 5 1023 60 10000 4.63 20 19:28 16.04.2021
214 Clouds 6 1023 52 10000 3.6 30 18:36 16.04.2021
215 Clouds 6 1023 52 10000 3.6 30 18:18 16.04.2021
216 Clouds 6 1023 56 10000 3.09 30 17:37 16.04.2021
217 Clouds 6 1023 56 10000 3.6 30 17:18 16.04.2021
218 Clouds 6 1023 56 10000 3.09 40 16:42 16.04.2021
219 Clouds 6 1023 60 10000 3.09 30 16:23 16.04.2021
220 Clouds 6 1023 60 10000 3.6 40 15:44 16.04.2021
221 Clouds 5 1023 65 10000 4.12 360 15:18 16.04.2021
222 Clouds 5 1023 65 10000 4.12 360 14:42 16.04.2021
223 Clouds 5 1023 60 10000 3.09 20 14:19 16.04.2021
224 Clouds 5 1023 60 10000 2.57 50 13:45 16.04.2021
225 Clouds 5 1023 56 10000 2.57 110 13:20 16.04.2021
226 Clouds 5 1024 65 10000 2.06 10 12:47 16.04.2021
227 Clouds 5 1024 70 10000 3.6 10 12:27 16.04.2021
228 Clouds 4 1024 70 10000 2.57 60 11:52 16.04.2021
229 Clouds 4 1024 70 10000 3.09 50 11:27 16.04.2021
230 Clouds 3 1024 70 10000 3.09 50 10:53 16.04.2021
231 Clouds 3 1024 70 10000 3.09 50 10:35 16.04.2021
232 Clouds 3 1024 75 10000 1.54 70 09:53 16.04.2021
233 Clouds 2 1024 75 10000 2.06 70 09:25 16.04.2021
234 Clear 2 1024 75 10000 1.03 0 08:55 16.04.2021
235 Clear 0 1024 75 10000 0.51 0 08:36 16.04.2021
236 Clear 0 1024 75 10000 0.51 0 08:18 16.04.2021
237 Clear -1 1023 74 10000 1.54 360 07:35 16.04.2021
238 Clear -1 1023 74 10000 1.54 360 07:35 16.04.2021
239 Clear -2 1023 74 10000 0.51 0 06:58 16.04.2021
240 Clear -2 1023 74 10000 0.51 0 05:34 16.04.2021
241 Clear -1 1024 69 10000 1.54 350 04:21 16.04.2021
242 Clear 1 1025 69 10000 1.03 0 00:58 16.04.2021
243 Clear 1 1025 69 10000 1.03 0 00:40 16.04.2021
244 Clear 1 1025 64 10000 2.57 10 00:19 16.04.2021
245 Clear 1 1025 64 10000 2.57 10 23:41 15.04.2021
246 Clear 2 1025 64 10000 2.57 360 23:22 15.04.2021
247 Clear 2 1025 64 10000 2.57 360 23:22 15.04.2021
248 Clear 2 1025 60 10000 3.09 10 22:40 15.04.2021
249 Clouds 3 1025 60 10000 3.09 20 22:21 15.04.2021
250 Clouds 3 1025 60 10000 3.09 30 21:42 15.04.2021
251 Clouds 4 1025 56 10000 5.14 40 21:20 15.04.2021
252 Clouds 5 1024 56 10000 4.63 60 20:44 15.04.2021
253 Clouds 5 1024 56 10000 4.63 60 20:44 15.04.2021
254 Clouds 5 1024 45 10000 2.57 40 20:23 15.04.2021
255 Clouds 6 1024 49 10000 4.12 360 19:44 15.04.2021
256 Clouds 7 1024 49 10000 4.12 360 19:26 15.04.2021
257 Clouds 7 1024 49 10000 6.69 40 18:43 15.04.2021
258 Clouds 8 1024 42 10000 4.12 30 18:21 15.04.2021
259 Rain 8 1024 42 10000 4.12 60 17:55 15.04.2021
260 Clouds 8 1024 42 10000 4.12 60 17:36 15.04.2021
261 Clouds 8 1024 56 10000 4.63 100 17:36 15.04.2021
262 Clouds 8 1025 42 10000 7.2 50 16:59 15.04.2021
263 Clouds 7 1025 42 10000 7.2 50 16:40 15.04.2021
264 Clouds 8 1025 42 10000 4.63 30 16:22 15.04.2021
265 Clouds 8 1025 42 10000 4.63 30 15:45 15.04.2021
266 Clouds 8 1025 49 10000 5.14 40 15:26 15.04.2021
267 Clouds 8 1025 49 10000 3.6 20 14:41 15.04.2021
268 Clouds 7 1026 52 10000 4.12 10 14:23 15.04.2021
269 Clouds 7 1025 49 10000 4.12 350 13:46 15.04.2021
270 Clouds 7 1025 49 10000 4.12 350 13:46 15.04.2021
271 Clouds 7 1026 48 10000 4.63 0 13:23 15.04.2021
272 Clouds 7 1026 49 10000 2.57 0 12:47 15.04.2021
273 Clouds 7 1026 49 10000 4.12 10 12:26 15.04.2021
274 Clouds 7 1026 52 10000 2.57 0 11:47 15.04.2021
275 Clouds 6 1026 60 10000 2.57 60 11:26 15.04.2021
276 Clouds 5 1026 65 10000 1.54 0 10:58 15.04.2021
277 Clouds 4 1026 70 10000 2.06 70 10:34 15.04.2021
278 Clouds 3 1026 69 10000 1.03 0 09:56 15.04.2021
279 Clouds 2 1026 75 10000 1.54 40 09:29 15.04.2021
280 Clouds 1 1026 80 10000 0.51 0 08:52 15.04.2021
281 Fog 0 1026 86 10000 0.51 120 08:29 15.04.2021
282 Fog -3 1026 93 9000 0.51 40 07:33 15.04.2021
283 Fog -3 1025 93 8000 0.51 80 06:56 15.04.2021
284 Fog -3 1025 93 8000 0.51 80 06:33 15.04.2021
285 Fog -3 1025 93 9000 0.88 34 06:33 15.04.2021
286 Clear -3 1025 86 10000 1.54 280 04:54 15.04.2021
287 Clear -2 1025 86 10000 1.03 300 03:58 15.04.2021
288 Clouds 0 1026 86 10000 1.54 300 23:51 14.04.2021
289 Clouds 1 1026 86 10000 1.03 0 23:30 14.04.2021
290 Clouds 1 1026 80 10000 1.54 260 22:47 14.04.2021
291 Clouds 2 1026 80 10000 0.51 0 22:29 14.04.2021
292 Clouds 2 1026 80 10000 2.06 110 21:56 14.04.2021
293 Clouds 3 1026 75 10000 3.6 100 21:37 14.04.2021
294 Clouds 3 1026 75 10000 3.6 100 21:18 14.04.2021
295 Clouds 4 1026 70 10000 1.54 200 20:39 14.04.2021
296 Clouds 4 1026 70 10000 1.54 200 20:20 14.04.2021
297 Clouds 5 1025 52 10000 0.51 0 19:44 14.04.2021
298 Clouds 6 1026 52 10000 2.06 80 19:19 14.04.2021
299 Clouds 7 1026 52 10000 3.6 70 18:50 14.04.2021
300 Clouds 7 1026 52 10000 5.14 50 18:19 14.04.2021
301 Clouds 6 1026 65 10000 6.69 50 17:55 14.04.2021
302 Clouds 6 1026 53 10000 6.17 350 17:24 14.04.2021
303 Clouds 6 1026 45 10000 6.69 360 16:46 14.04.2021
304 Clouds 6 1026 53 10000 6.17 360 16:22 14.04.2021
305 Clouds 7 1026 53 10000 5.66 360 15:41 14.04.2021
306 Clouds 8 1026 39 10000 4.12 50 15:22 14.04.2021
307 Clouds 7 1027 45 10000 3.6 40 14:43 14.04.2021
308 Clouds 7 1027 45 10000 3.6 40 14:43 14.04.2021
309 Clouds 7 1027 49 10000 5.14 20 14:22 14.04.2021
310 Clouds 6 1027 56 10000 6.17 30 13:49 14.04.2021
311 Clouds 6 1027 45 10000 3.09 10 12:59 14.04.2021
312 Clouds 6 1027 45 10000 3.09 10 12:36 14.04.2021
313 Clouds 6 1027 45 10000 3.09 10 12:36 14.04.2021
314 Clouds 7 1027 52 10000 2.57 60 11:43 14.04.2021
315 Clouds 7 1028 60 10000 2.06 0 11:24 14.04.2021
316 Clouds 6 1028 60 10000 2.06 20 10:35 14.04.2021
317 Clear 4 1028 70 10000 0.51 0 09:59 14.04.2021
318 Clear 3 1028 70 10000 0.51 0 09:41 14.04.2021
319 Clear 2 1028 75 10000 1.03 0 09:19 14.04.2021
320 Clouds 0 1028 86 10000 0.51 0 08:34 14.04.2021
321 Clear -1 1028 86 10000 1.03 0 07:58 14.04.2021
322 Clear -3 1028 93 10000 0.51 0 06:48 14.04.2021
323 Clear -3 1027 93 10000 0.51 0 06:23 14.04.2021
324 Clear -2 1028 86 10000 0.51 110 03:59 14.04.2021
325 Clear -1 1029 69 10000 0.51 0 01:42 14.04.2021
326 Clear 1 1029 60 10000 1.54 290 00:34 14.04.2021
327 Clouds 1 1031 76 10000 0.63 345 23:46 13.04.2021
328 Clear 2 1029 56 10000 2.06 310 23:21 13.04.2021
329 Clear 2 1029 52 10000 2.57 350 22:41 13.04.2021
330 Clear 3 1029 52 10000 1.54 360 22:19 13.04.2021
331 Clouds 3 1029 52 10000 2.06 310 21:45 13.04.2021
332 Clouds 3 1029 52 10000 2.06 60 21:27 13.04.2021
333 Clouds 4 1028 52 10000 3.6 80 20:42 13.04.2021
334 Clouds 6 1028 42 10000 3.09 30 20:21 13.04.2021
335 Clouds 6 1028 36 10000 3.6 30 19:43 13.04.2021
336 Clouds 6 1028 45 10000 7.2 330 19:23 13.04.2021
337 Rain 7 1028 42 10000 3.6 30 18:40 13.04.2021
338 Clouds 8 1028 39 10000 3.6 360 17:56 13.04.2021
339 Clouds 8 1028 39 10000 3.6 360 17:36 13.04.2021
340 Clouds 8 1028 36 10000 5.14 290 17:18 13.04.2021
341 Clouds 8 1028 45 10000 4.12 340 16:43 13.04.2021
342 Clouds 8 1028 42 10000 4.63 10 16:20 13.04.2021
343 Clouds 8 1029 39 10000 5.14 60 15:44 13.04.2021
344 Clouds 8 1029 39 10000 5.14 60 15:44 13.04.2021
345 Clouds 8 1029 45 10000 6.69 360 15:22 13.04.2021
346 Clouds 7 1029 39 10000 3.6 20 14:46 13.04.2021
347 Clouds 8 1029 45 10000 5.14 320 14:19 13.04.2021
348 Clouds 7 1029 49 10000 4.12 320 13:45 13.04.2021
349 Clouds 8 1029 45 10000 3.6 360 13:24 13.04.2021
350 Clouds 6 1030 52 10000 3.6 350 12:57 13.04.2021
351 Clouds 6 1030 65 10000 3.6 300 12:30 13.04.2021
352 Clouds 6 1030 70 10000 2.57 0 11:58 13.04.2021
353 Clouds 5 1030 81 10000 4.63 320 11:30 13.04.2021
354 Clouds 5 1030 65 10000 4.12 30 10:55 13.04.2021
355 Clouds 4 1030 65 10000 3.6 20 10:21 13.04.2021
356 Clouds 4 1030 70 10000 1.54 30 09:59 13.04.2021
357 Clouds 3 1030 70 10000 1.54 30 09:39 13.04.2021
358 Clouds 3 1030 75 10000 1.03 0 09:18 13.04.2021
359 Clouds 1 1029 75 10000 0.51 0 08:41 13.04.2021
360 Clouds 1 1029 86 10000 0.51 150 08:41 13.04.2021
361 Clouds 1 1029 86 10000 0.51 150 08:20 13.04.2021
362 Clouds -1 1029 93 10000 0.8 327 07:36 13.04.2021
363 Clear -1 1028 93 10000 0.51 0 06:31 13.04.2021
364 Clouds -1 1028 100 10000 1.03 120 04:50 13.04.2021
365 Clear 0 1028 100 10000 0.51 0 02:37 13.04.2021
366 Clouds 1 1028 80 10000 1.03 0 00:33 13.04.2021
367 Clear 1 1028 75 10000 2.06 280 23:49 12.04.2021
368 Clear 1 1028 75 10000 1.03 0 23:26 12.04.2021
369 Clouds 2 1028 80 10000 1.03 0 22:39 12.04.2021
370 Clouds 2 1028 80 10000 1.03 0 22:18 12.04.2021
371 Clouds 2 1028 80 10000 2.06 260 21:45 12.04.2021
372 Clouds 3 1028 80 10000 2.06 240 21:20 12.04.2021
373 Clouds 4 1027 75 10000 1.54 240 20:41 12.04.2021
374 Clouds 5 1027 70 10000 1.54 230 20:22 12.04.2021
375 Clouds 5 1027 65 10000 3.09 230 19:55 12.04.2021
376 Clouds 6 1027 65 10000 3.09 230 19:37 12.04.2021
377 Clouds 6 1027 60 10000 5.66 260 19:18 12.04.2021
378 Clouds 7 1027 49 10000 5.66 280 18:44 12.04.2021
379 Clouds 7 1026 45 10000 3.09 310 18:25 12.04.2021
380 Clouds 7 1026 45 10000 2.57 320 17:44 12.04.2021
381 Clouds 7 1026 45 10000 5.14 270 17:23 12.04.2021
382 Rain 7 1026 49 10000 4.63 280 16:47 12.04.2021
383 Rain 7 1026 52 10000 3.09 270 16:27 12.04.2021
384 Clouds 7 1026 56 10000 2.06 230 15:49 12.04.2021
385 Clouds 7 1026 56 10000 3.6 260 15:31 12.04.2021
386 Clouds 6 1026 52 10000 4.12 320 14:53 12.04.2021
387 Clouds 6 1026 60 10000 4.12 300 14:35 12.04.2021
388 Clouds 6 1026 56 10000 3.6 310 13:49 12.04.2021
389 Clouds 5 1026 60 10000 3.6 290 13:30 12.04.2021
390 Clouds 5 1026 70 10000 5.14 300 12:56 12.04.2021
391 Clouds 4 1026 70 10000 5.14 300 12:36 12.04.2021
392 Clouds 4 1025 70 10000 4.63 300 12:18 12.04.2021
393 Rain 4 1025 87 10000 5.66 300 11:25 12.04.2021
394 Clouds 3 1025 87 10000 5.14 300 10:49 12.04.2021
395 Rain 3 1024 93 10000 4.63 290 10:27 12.04.2021
396 Snow 2 1024 93 10000 3.6 310 09:51 12.04.2021
397 Snow 2 1024 93 9000 3.6 320 09:23 12.04.2021
398 Snow 2 1023 93 5000 2.57 310 08:40 12.04.2021
399 Snow 2 1022 93 4000 3.6 320 07:42 12.04.2021
400 Snow 2 1022 87 3800 4.63 320 07:22 12.04.2021
401 Snow 2 1020 93 10000 4.63 320 06:28 12.04.2021
402 Snow 2 1020 93 8000 5.14 320 05:45 12.04.2021
403 Rain 4 1017 93 10000 6.17 330 01:42 12.04.2021
404 Rain 5 1016 93 8000 5.14 300 00:27 12.04.2021
405 Rain 6 1015 93 8000 5.66 300 23:51 11.04.2021
406 Rain 6 1014 87 10000 6.69 320 23:31 11.04.2021
407 Rain 7 1014 93 10000 6.69 330 22:49 11.04.2021
408 Rain 8 1013 93 10000 2.57 320 22:27 11.04.2021
409 Rain 9 1013 93 10000 2.57 330 21:58 11.04.2021
410 Rain 9 1013 93 10000 2.57 330 21:32 11.04.2021
411 Rain 10 1013 81 10000 2.57 320 20:59 11.04.2021
412 Rain 10 1012 87 10000 4.63 320 20:39 11.04.2021
413 Rain 10 1012 87 10000 4.63 320 20:20 11.04.2021
414 Rain 10 1012 87 10000 6.69 310 19:41 11.04.2021
415 Rain 11 1011 82 10000 7.2 310 19:19 11.04.2021
416 Rain 11 1010 82 10000 7.72 320 18:55 11.04.2021
417 Rain 12 1010 67 10000 9.77 310 18:37 11.04.2021
418 Rain 12 1010 67 10000 9.77 310 18:18 11.04.2021
419 Rain 15 1009 51 10000 5.14 340 17:37 11.04.2021
420 Clear 18 1008 48 10000 5.14 360 17:18 11.04.2021
421 Clear 18 1008 48 10000 6.17 330 16:40 11.04.2021
422 Clear 18 1008 42 10000 4.12 260 16:20 11.04.2021
423 Clear 18 1008 39 10000 4.12 250 15:43 11.04.2021
424 Clear 19 1008 39 10000 4.12 200 15:22 11.04.2021
425 Clear 19 1008 39 10000 3.09 0 14:51 11.04.2021
426 Clear 18 1009 39 10000 3.09 250 14:21 11.04.2021
427 Clear 18 1009 42 10000 2.06 0 13:42 11.04.2021
428 Clear 18 1009 42 10000 2.57 0 13:23 11.04.2021
429 Clear 17 1009 42 10000 2.06 0 12:40 11.04.2021
430 Clouds 17 1009 44 10000 3.09 230 12:20 11.04.2021
431 Clouds 16 1009 48 10000 2.57 180 11:45 11.04.2021
432 Clouds 16 1009 48 10000 1.54 0 11:20 11.04.2021
433 Clear 15 1009 58 10000 0.51 0 10:45 11.04.2021
434 Clear 14 1009 54 10000 1.03 0 10:23 11.04.2021
435 Clear 13 1009 66 10000 0.51 0 09:50 11.04.2021
436 Clear 11 1009 71 10000 1.03 0 09:29 11.04.2021
437 Clear 11 1009 71 10000 0.51 0 08:40 11.04.2021
438 Clear 10 1010 71 10000 1.03 0 08:40 11.04.2021
439 Clear 10 1009 71 10000 1.03 20 07:57 11.04.2021
440 Clear 9 1009 76 10000 1.03 0 07:21 11.04.2021
441 Clear 9 1009 71 10000 1.03 0 05:55 11.04.2021
442 Clear 10 1009 71 10000 1.03 0 05:37 11.04.2021
443 Rain 10 1009 66 10000 0.51 0 05:18 11.04.2021
444 Rain 10 1010 61 10000 0.51 0 04:33 11.04.2021
445 Clear 12 1011 50 10000 2.06 180 01:31 11.04.2021
446 Clear 12 1011 50 10000 2.06 200 00:32 11.04.2021
447 Clear 12 1011 50 10000 2.06 190 23:46 10.04.2021
448 Clear 13 1011 54 10000 1.03 200 22:58 10.04.2021
449 Clear 13 1011 58 10000 1.54 160 22:31 10.04.2021
450 Clear 13 1011 58 10000 1.03 0 21:57 10.04.2021
451 Clear 13 1011 58 10000 1.03 0 21:57 10.04.2021
452 Clear 13 1011 58 10000 1.03 0 21:37 10.04.2021
453 Clear 13 1011 58 10000 1.03 0 21:19 10.04.2021
454 Clear 13 1011 58 10000 1.03 90 20:41 10.04.2021
455 Clear 14 1011 54 10000 1.54 80 20:22 10.04.2021
456 Clear 15 1011 51 10000 2.06 90 19:43 10.04.2021
457 Clear 15 1011 51 10000 3.6 90 19:25 10.04.2021
458 Clear 16 1011 39 10000 2.57 100 18:44 10.04.2021
459 Clear 16 1011 34 10000 3.09 140 18:25 10.04.2021
460 Clear 17 1012 29 10000 2.57 140 17:37 10.04.2021
461 Clear 17 1012 27 10000 1.54 0 16:57 10.04.2021
462 Clear 16 1013 31 10000 1.54 0 16:26 10.04.2021
463 Clear 15 1013 41 10000 2.06 50 15:53 10.04.2021
464 Clear 14 1014 47 10000 1.54 90 14:58 10.04.2021
465 Clear 14 1014 47 10000 1.54 90 14:38 10.04.2021
466 Clear 13 1014 47 10000 2.06 0 14:18 10.04.2021
467 Clear 12 1015 54 10000 1.54 190 13:40 10.04.2021
468 Clouds 11 1015 58 10000 3.09 220 12:49 10.04.2021
469 Clouds 11 1015 58 10000 4.63 210 12:26 10.04.2021
470 Clouds 11 1015 62 10000 3.09 220 11:47 10.04.2021
471 Clouds 10 1015 66 10000 2.57 230 11:25 10.04.2021
472 Clouds 10 1015 66 10000 2.06 220 10:52 10.04.2021
473 Rain 10 1015 62 10000 3.09 230 10:31 10.04.2021
474 Clouds 10 1015 71 10000 3.6 230 09:48 10.04.2021
475 Rain 10 1015 66 10000 4.12 240 09:20 10.04.2021
476 Clouds 10 1014 71 10000 2.57 230 08:47 10.04.2021
477 Clouds 10 1014 71 10000 6.17 230 08:28 10.04.2021
478 Rain 10 1014 66 10000 5.66 230 07:38 10.04.2021
479 Rain 10 1013 57 10000 5.66 230 07:19 10.04.2021
480 Rain 11 1013 50 10000 5.14 220 06:24 10.04.2021
481 Clear 11 1013 43 10000 3.6 220 03:49 10.04.2021
482 Clear 10 1013 46 10000 1.54 90 02:51 10.04.2021
483 Clear 10 1013 43 10000 2.06 190 02:21 10.04.2021
484 Clear 11 1014 47 10000 2.06 190 00:44 10.04.2021
485 Clear 11 1014 47 10000 2.57 230 00:25 10.04.2021
486 Rain 10 1014 57 10000 2.06 250 23:41 09.04.2021
487 Rain 11 1015 43 10000 1.03 0 22:59 09.04.2021
488 Rain 11 1015 43 10000 1.03 0 22:38 09.04.2021
489 Rain 11 1015 43 10000 1.03 0 22:38 09.04.2021
490 Rain 11 1015 43 10000 1.03 0 22:38 09.04.2021
491 Rain 11 1015 40 10000 1.03 0 21:59 09.04.2021
492 Rain 11 1014 43 10000 1.03 120 21:38 09.04.2021
493 Clear 11 1014 43 10000 1.03 120 21:19 09.04.2021
494 Clear 11 1014 43 10000 1.03 120 21:19 09.04.2021
495 Clear 12 1014 43 10000 1.03 0 20:43 09.04.2021
496 Clear 13 1014 43 10000 2.06 270 20:23 09.04.2021
497 Clear 13 1014 38 10000 2.57 290 19:56 09.04.2021
498 Clear 13 1014 38 10000 2.57 290 19:37 09.04.2021
499 Clear 14 1014 35 10000 3.09 290 19:19 09.04.2021
500 Clear 14 1014 31 10000 5.66 270 18:41 09.04.2021
501 Clear 15 1014 31 10000 4.12 250 18:19 09.04.2021
502 Clear 15 1015 26 10000 4.63 210 17:40 09.04.2021
503 Clear 16 1015 25 10000 5.14 220 16:56 09.04.2021
504 Clear 16 1015 21 10000 5.66 250 16:36 09.04.2021
505 Clear 16 1015 25 10000 5.14 250 15:57 09.04.2021
506 Clear 16 1015 25 10000 5.14 250 15:38 09.04.2021
507 Clear 15 1015 25 10000 4.63 250 15:19 09.04.2021
508 Clear 14 1016 30 10000 3.09 240 14:41 09.04.2021
509 Clear 13 1016 30 10000 3.09 230 13:54 09.04.2021
510 Clear 13 1017 30 10000 3.6 240 13:26 09.04.2021
511 Clear 13 1017 32 10000 3.09 230 12:58 09.04.2021
512 Clear 12 1017 32 10000 1.03 0 12:38 09.04.2021
513 Clear 10 1017 49 10000 1.54 130 11:47 09.04.2021
514 Clear 10 1018 49 10000 1.03 0 11:23 09.04.2021
515 Clear 8 1018 61 10000 1.54 80 10:49 09.04.2021
516 Clear 7 1018 61 10000 0.51 0 10:30 09.04.2021
517 Clear 6 1018 65 10000 1.03 0 09:51 09.04.2021
518 Clear 4 1018 75 10000 1.03 0 09:25 09.04.2021
519 Clear 3 1018 74 10000 2.14 192 08:53 09.04.2021
520 Clear 1 1019 80 10000 0.51 0 08:18 09.04.2021
521 Clear -1 1019 86 10000 0.51 0 07:18 09.04.2021
522 Clear -1 1019 80 10000 1.76 183 06:21 09.04.2021
523 Clear 0 1020 80 10000 0.51 0 03:54 09.04.2021
524 Clear 0 1020 80 10000 1.78 176 02:27 09.04.2021
525 Clear 1 1021 69 10000 1.03 50 00:38 09.04.2021
526 Clear 1 1021 74 10000 1.54 50 00:20 09.04.2021
527 Clear 1 1022 64 10000 0.51 0 23:30 08.04.2021
528 Clear 2 1022 69 10000 1.03 0 22:46 08.04.2021
529 Clear 2 1022 69 10000 0.51 0 22:26 08.04.2021
530 Clear 3 1022 60 10000 0.51 110 21:58 08.04.2021
531 Clear 3 1022 56 10000 0.51 0 21:38 08.04.2021
532 Clear 4 1022 56 10000 0.51 0 21:19 08.04.2021
533 Clear 5 1022 52 10000 1.03 330 20:53 08.04.2021
534 Clear 6 1022 42 10000 2.06 290 20:34 08.04.2021
535 Clear 7 1022 42 10000 1.54 270 19:57 08.04.2021
536 Clouds 8 1022 42 10000 1.54 270 19:24 08.04.2021
537 Clouds 8 1023 39 10000 3.6 270 18:56 08.04.2021
538 Clouds 8 1023 39 10000 4.12 260 18:24 08.04.2021
539 Clouds 8 1023 42 10000 3.09 290 17:52 08.04.2021
540 Clouds 8 1023 42 10000 3.6 270 17:26 08.04.2021
541 Clouds 8 1024 45 10000 4.63 260 16:57 08.04.2021
542 Clouds 8 1024 45 10000 4.63 260 16:36 08.04.2021
543 Clouds 8 1024 45 10000 4.63 260 16:36 08.04.2021
544 Clouds 7 1024 42 10000 5.14 270 15:56 08.04.2021
545 Clouds 7 1024 45 10000 2.57 300 15:37 08.04.2021
546 Clouds 7 1024 45 10000 2.57 300 15:19 08.04.2021
547 Clouds 7 1025 49 10000 3.09 240 14:40 08.04.2021
548 Clouds 7 1025 49 10000 4.12 250 14:40 08.04.2021
549 Clouds 7 1025 49 10000 3.09 240 14:20 08.04.2021
550 Clouds 6 1025 52 10000 3.6 290 13:43 08.04.2021
551 Clouds 6 1025 52 10000 4.12 290 13:23 08.04.2021
552 Clouds 5 1025 52 10000 4.12 250 12:53 08.04.2021
553 Clouds 5 1025 52 10000 3.6 240 12:32 08.04.2021
554 Clouds 4 1025 56 10000 2.57 240 11:56 08.04.2021
555 Clouds 5 1026 56 10000 3.6 260 11:21 08.04.2021
556 Clouds 4 1025 60 10000 3.09 250 10:49 08.04.2021
557 Clouds 3 1025 65 10000 3.6 270 10:25 08.04.2021
558 Clouds 4 1025 65 10000 3.6 260 09:43 08.04.2021
559 Clouds 3 1025 69 10000 3.09 250 09:25 08.04.2021
560 Snow 2 1025 75 10000 3.09 260 08:40 08.04.2021
561 Snow 2 1025 75 10000 3.09 260 08:22 08.04.2021
562 Snow 1 1024 80 10000 2.57 250 07:43 08.04.2021
563 Snow 1 1023 80 10000 3.6 250 05:45 08.04.2021
564 Snow 2 1022 75 10000 4.63 250 01:25 08.04.2021
565 Snow 2 1022 75 10000 3.6 230 00:30 08.04.2021
566 Snow 2 1022 75 10000 3.6 230 00:30 08.04.2021
567 Clouds 2 1022 75 10000 3.6 220 23:48 07.04.2021
568 Snow 2 1022 75 10000 3.6 220 23:25 07.04.2021
569 Clouds 2 1021 75 10000 4.12 220 22:57 07.04.2021
570 Clouds 2 1021 75 10000 4.12 220 22:38 07.04.2021
571 Snow 1 1021 75 10000 3.09 230 22:20 07.04.2021
572 Clouds 1 1021 75 10000 3.09 230 21:34 07.04.2021
573 Snow 1 1021 80 10000 3.09 230 20:56 07.04.2021
574 Clouds 1 1021 93 10000 2.57 230 20:37 07.04.2021
575 Snow 1 1021 93 10000 2.57 230 20:18 07.04.2021
576 Snow 1 1021 93 4800 5.14 230 19:40 07.04.2021
577 Snow 1 1020 93 5000 4.63 240 19:22 07.04.2021
578 Snow 0 1020 93 2500 6.17 250 18:42 07.04.2021
579 Snow 1 1020 93 600 6.69 260 18:18 07.04.2021
580 Snow 1 1020 69 4500 8.75 250 17:47 07.04.2021
581 Snow 2 1020 60 10000 9.77 260 17:28 07.04.2021
582 Clouds 2 1019 60 10000 8.23 270 16:46 07.04.2021
583 Clouds 3 1019 56 10000 9.77 260 16:21 07.04.2021
584 Clouds 3 1019 56 10000 11.83 260 15:54 07.04.2021
585 Clouds 3 1019 56 10000 11.83 260 15:34 07.04.2021
586 Clouds 3 1019 52 10000 8.75 260 14:48 07.04.2021
587 Clouds 3 1019 52 10000 9.26 260 14:25 07.04.2021
588 Clouds 3 1019 56 10000 8.75 260 13:45 07.04.2021
589 Clouds 2 1019 69 10000 6.69 260 13:20 07.04.2021
590 Clouds 3 1018 56 10000 7.72 260 12:48 07.04.2021
591 Snow 2 1018 64 10000 7.72 260 12:21 07.04.2021
592 Snow 1 1018 69 8000 9.26 270 11:45 07.04.2021
593 Snow 1 1018 64 10000 8.23 270 11:24 07.04.2021
594 Snow 1 1018 60 10000 9.26 270 10:50 07.04.2021
595 Clouds 1 1017 60 10000 8.23 270 09:55 07.04.2021
596 Snow 0 1017 64 10000 7.2 270 09:37 07.04.2021
597 Snow 1 1017 64 10000 7.2 270 09:19 07.04.2021
598 Clouds 0 1016 69 10000 6.17 280 08:33 07.04.2021
599 Snow -1 1015 74 10000 5.66 280 07:57 07.04.2021
600 Clouds -1 1014 74 10000 5.14 270 07:29 07.04.2021
601 Snow -1 1014 74 10000 5.66 280 06:59 07.04.2021
602 Snow -1 1014 74 10000 6.17 280 06:18 07.04.2021
603 Snow -1 1012 80 10000 5.66 270 03:54 07.04.2021
604 Clouds 0 1011 74 10000 2.06 240 23:52 06.04.2021
605 Snow 0 1011 74 10000 5.14 330 23:23 06.04.2021
606 Clouds 0 1011 64 10000 3.6 300 22:59 06.04.2021
607 Snow 1 1011 64 10000 3.6 280 22:22 06.04.2021
608 Snow 1 1011 64 10000 5.14 260 21:59 06.04.2021
609 Snow 1 1011 64 10000 5.14 260 21:39 06.04.2021
610 Snow 0 1011 74 10000 3.09 270 21:21 06.04.2021
611 Snow 1 1011 80 10000 4.12 300 20:52 06.04.2021
612 Snow 1 1011 75 10000 9.77 300 20:22 06.04.2021
613 Rain 3 1010 48 10000 8.23 270 19:52 06.04.2021
614 Rain 3 1010 48 10000 8.23 270 19:33 06.04.2021
615 Clouds 4 1010 48 10000 6.17 260 18:51 06.04.2021
616 Clouds 4 1010 48 10000 7.72 270 18:32 06.04.2021
617 Clouds 4 1010 45 10000 7.72 260 17:54 06.04.2021
618 Clouds 4 1010 45 10000 7.72 260 17:36 06.04.2021
619 Clouds 3 1011 69 10000 4.63 280 17:18 06.04.2021
620 Rain 2 1011 45 10000 9.26 270 16:40 06.04.2021
621 Clouds 5 1011 45 10000 9.26 280 15:49 06.04.2021
622 Clouds 5 1012 52 10000 7.2 250 15:24 06.04.2021
623 Clouds 5 1013 54 10000 2.24 272 14:40 06.04.2021
624 Clouds 4 1012 65 10000 7.2 300 14:21 06.04.2021
625 Clouds 3 1013 64 10000 6.69 300 13:46 06.04.2021
626 Clouds 3 1013 64 10000 4.63 320 13:25 06.04.2021
627 Clouds 2 1013 69 10000 5.66 290 12:43 06.04.2021
628 Clouds 2 1013 69 10000 5.66 290 12:43 06.04.2021
629 Snow 1 1013 75 10000 5.14 270 12:24 06.04.2021
630 Clouds 1 1013 75 10000 3.6 230 11:55 06.04.2021
631 Clouds 1 1013 69 10000 3.09 210 11:36 06.04.2021
632 Snow 1 1013 69 10000 3.09 210 11:18 06.04.2021
633 Clouds 0 1013 74 10000 2.57 220 10:39 06.04.2021
634 Clouds 0 1013 74 10000 2.57 230 10:19 06.04.2021
635 Clouds 0 1013 80 10000 4.12 230 09:43 06.04.2021
636 Clouds -1 1013 80 10000 3.6 230 08:57 06.04.2021
637 Clouds -1 1013 80 10000 4.12 220 08:19 06.04.2021
638 Clouds -1 1014 74 10000 3.6 230 07:22 06.04.2021
639 Clouds -1 1013 74 10000 4.12 230 06:47 06.04.2021
640 Clouds -2 1014 80 10000 1.54 220 03:54 06.04.2021
641 Clouds -1 1014 80 10000 4.12 280 00:49 06.04.2021
642 Clouds 0 1013 80 10000 4.63 290 00:22 06.04.2021
643 Clouds 0 1013 86 10000 3.6 300 23:52 05.04.2021
644 Clouds 0 1013 86 10000 3.09 290 23:30 05.04.2021
645 Snow 0 1013 86 10000 3.09 290 22:58 05.04.2021
646 Snow 0 1013 86 10000 2.57 280 22:38 05.04.2021
647 Snow 0 1012 86 10000 3.09 290 21:55 05.04.2021
648 Snow 0 1012 86 10000 3.09 290 21:37 05.04.2021
649 Snow 0 1012 93 8000 4.63 290 21:18 05.04.2021
650 Snow 0 1011 93 2700 5.14 300 20:41 05.04.2021
651 Snow 0 1011 93 2700 5.14 300 20:22 05.04.2021
652 Snow 0 1010 93 1200 8.75 340 19:37 05.04.2021
653 Snow 0 1010 93 1200 8.75 340 19:18 05.04.2021
654 Snow 1 1009 93 1400 7.72 330 18:40 05.04.2021
655 Snow 1 1009 93 1700 9.26 330 18:19 05.04.2021
656 Rain 3 1007 81 10000 10.8 300 17:47 05.04.2021
657 Rain 6 1006 61 10000 12.35 290 17:23 05.04.2021
658 Rain 10 1006 53 10000 13.38 270 16:45 05.04.2021
659 Rain 9 1006 50 10000 8.75 270 16:22 05.04.2021
660 Rain 10 1006 50 10000 7.2 280 15:57 05.04.2021
661 Rain 10 1006 50 10000 7.2 280 15:32 05.04.2021
662 Clouds 11 1006 40 10000 9.77 290 14:59 05.04.2021
663 Clouds 11 1007 40 10000 6.17 250 14:36 05.04.2021
664 Clouds 11 1007 43 10000 4.12 230 13:52 05.04.2021
665 Clouds 11 1008 46 10000 6.17 240 13:27 05.04.2021
666 Clear 11 1008 43 10000 8.75 240 12:46 05.04.2021
667 Clear 11 1008 46 10000 7.72 250 12:25 05.04.2021
668 Clear 11 1008 43 10000 8.75 250 11:48 05.04.2021
669 Clear 11 1009 46 10000 8.23 250 11:28 05.04.2021
670 Clear 10 1009 50 10000 5.66 240 10:55 05.04.2021
671 Clear 10 1009 49 10000 4.63 230 10:35 05.04.2021
672 Clear 7 1009 57 10000 4.12 0 09:48 05.04.2021
673 Clear 7 1009 61 10000 3.09 220 09:26 05.04.2021
674 Clear 5 1010 65 10000 3.09 220 08:47 05.04.2021
675 Clear 4 1010 60 10000 1.54 0 08:27 05.04.2021
676 Clear 3 1011 65 10000 1.03 0 07:58 05.04.2021
677 Clear 4 1011 65 10000 1.03 0 07:33 05.04.2021
678 Clear 2 1014 75 10000 2.06 250 03:42 05.04.2021
679 Clear 4 1017 70 10000 1.03 0 00:56 05.04.2021
680 Clear 4 1017 65 10000 1.03 250 00:19 05.04.2021
681 Clear 5 1017 60 10000 2.06 270 23:32 04.04.2021
682 Clear 5 1018 60 10000 1.03 0 22:58 04.04.2021
683 Clear 5 1018 60 10000 1.03 0 22:40 04.04.2021
684 Clear 6 1018 53 10000 1.03 0 22:21 04.04.2021
685 Clear 8 1018 46 10000 2.06 320 21:22 04.04.2021
686 Clear 8 1018 46 10000 3.09 330 20:43 04.04.2021
687 Clear 9 1018 43 10000 2.57 340 20:23 04.04.2021
688 Clear 11 1018 43 10000 2.06 340 19:41 04.04.2021
689 Clear 12 1018 37 10000 1.54 40 19:20 04.04.2021
690 Clear 12 1019 35 10000 2.57 40 18:51 04.04.2021
691 Clear 13 1019 35 10000 2.06 40 18:25 04.04.2021
692 Clear 13 1019 33 10000 2.06 0 17:59 04.04.2021
693 Clear 13 1019 33 10000 1.54 0 17:25 04.04.2021
694 Clear 13 1020 33 10000 1.54 0 16:57 04.04.2021
695 Clear 13 1020 33 10000 1.54 0 16:39 04.04.2021
696 Clear 13 1021 32 10000 2.57 290 15:54 04.04.2021
697 Clear 13 1021 32 10000 2.57 290 15:32 04.04.2021
698 Clear 12 1021 37 10000 2.06 0 14:42 04.04.2021
699 Clear 12 1022 37 10000 2.06 0 14:24 04.04.2021
700 Clear 11 1022 40 10000 3.09 100 13:28 04.04.2021
701 Clear 11 1022 37 10000 1.54 0 12:52 04.04.2021
702 Clouds 10 1023 37 10000 2.57 0 12:28 04.04.2021
703 Clouds 10 1023 46 10000 1.54 0 11:51 04.04.2021
704 Clouds 9 1023 49 10000 1.03 0 11:31 04.04.2021
705 Clouds 8 1023 57 10000 1.03 0 10:55 04.04.2021
706 Clouds 7 1023 61 10000 0.51 0 10:32 04.04.2021
707 Clear 5 1023 61 10000 0.51 0 09:52 04.04.2021
708 Clear 4 1023 65 10000 0.51 0 09:23 04.04.2021
709 Clear 2 1023 75 10000 0.51 0 08:49 04.04.2021
710 Clear 2 1023 75 10000 0.51 0 08:49 04.04.2021
711 Clear 1 1023 80 10000 1.03 0 08:31 04.04.2021
712 Clear -1 1023 80 10000 1.03 60 07:22 04.04.2021
713 Clear -1 1023 80 10000 0.46 152 06:34 04.04.2021
714 Clear 0 1023 69 10000 1.54 280 04:34 04.04.2021
715 Clear 3 1024 65 10000 1.54 310 01:21 04.04.2021
716 Clear 4 1024 60 10000 1.03 340 00:19 04.04.2021
717 Clear 4 1024 60 10000 0.51 0 23:47 03.04.2021
718 Clear 4 1023 60 10000 1.54 300 23:23 03.04.2021
719 Clear 5 1023 56 10000 1.03 0 22:50 03.04.2021
720 Clear 6 1023 52 10000 0.51 280 22:20 03.04.2021
721 Clear 6 1023 52 10000 0.51 280 22:20 03.04.2021
722 Clear 7 1023 52 10000 0.51 0 21:47 03.04.2021
723 Clear 8 1023 46 10000 0.51 0 21:23 03.04.2021
724 Clear 8 1023 46 10000 1.54 30 20:49 03.04.2021
725 Clear 8 1023 42 10000 1.54 20 20:27 03.04.2021
726 Clear 9 1023 46 10000 2.06 10 19:50 03.04.2021
727 Clear 9 1023 40 10000 3.6 350 19:24 03.04.2021
728 Clear 9 1022 40 10000 3.6 350 18:51 03.04.2021
729 Clear 10 1022 37 10000 3.6 30 18:32 03.04.2021
730 Clear 10 1023 40 10000 3.6 360 17:53 03.04.2021
731 Clear 10 1023 40 10000 4.63 10 17:25 03.04.2021
732 Clear 10 1023 40 10000 4.63 30 16:51 03.04.2021
733 Clear 10 1023 43 10000 4.63 40 16:25 03.04.2021
734 Clear 10 1023 40 10000 4.12 20 15:51 03.04.2021
735 Clear 10 1023 43 10000 3.09 0 15:30 03.04.2021
736 Clouds 9 1023 49 10000 4.63 350 14:44 03.04.2021
737 Clouds 9 1023 49 10000 4.63 30 14:25 03.04.2021
738 Clouds 10 1024 49 10000 4.12 360 13:54 03.04.2021
739 Clouds 9 1024 53 10000 4.12 10 13:29 03.04.2021
740 Clouds 9 1023 53 10000 4.12 10 12:57 03.04.2021
741 Clouds 8 1024 53 10000 5.14 350 12:33 03.04.2021
742 Clouds 8 1023 57 10000 4.63 30 11:41 03.04.2021
743 Clouds 7 1023 61 10000 5.14 10 11:20 03.04.2021
744 Clouds 7 1023 61 10000 5.66 10 10:45 03.04.2021
745 Clouds 7 1023 61 10000 5.14 10 10:26 03.04.2021
746 Clear 6 1023 65 10000 5.14 360 09:36 03.04.2021
747 Clear 5 1022 60 10000 5.66 10 09:18 03.04.2021
748 Clouds 4 1022 65 10000 3.09 350 08:35 03.04.2021
749 Clouds 3 1022 70 10000 2.57 330 07:31 03.04.2021
750 Clouds 4 1021 65 10000 2.06 340 06:56 03.04.2021
751 Clouds 4 1021 70 10000 4.12 360 03:54 03.04.2021
752 Clouds 5 1021 65 10000 6.17 360 02:55 03.04.2021
753 Clouds 5 1021 65 10000 6.17 360 02:30 03.04.2021
754 Clouds 6 1020 70 10000 5.14 320 00:32 03.04.2021
755 Clouds 6 1020 65 10000 3.09 300 23:59 02.04.2021
756 Clouds 6 1020 65 10000 3.09 300 23:38 02.04.2021
757 Clear 6 1020 56 10000 2.06 270 23:18 02.04.2021
758 Clear 7 1020 57 10000 2.06 280 22:43 02.04.2021
759 Clouds 7 1020 53 10000 2.06 300 22:23 02.04.2021
760 Clouds 8 1020 53 10000 3.09 320 21:41 02.04.2021
761 Clouds 8 1019 49 10000 4.12 330 21:19 02.04.2021
762 Clouds 9 1019 57 10000 6.69 330 20:39 02.04.2021
763 Clouds 10 1019 53 10000 5.66 320 20:20 02.04.2021
764 Clouds 11 1018 54 10000 5.66 330 19:42 02.04.2021
765 Clouds 12 1018 50 10000 5.66 340 19:22 02.04.2021
766 Clear 13 1018 47 10000 4.12 360 18:46 02.04.2021
767 Clear 13 1018 44 10000 5.14 340 18:28 02.04.2021
768 Clear 13 1018 44 10000 4.63 360 17:56 02.04.2021
769 Clear 13 1018 41 10000 4.12 360 17:25 02.04.2021
770 Clear 14 1018 44 10000 4.63 340 16:35 02.04.2021
771 Clear 14 1019 44 10000 4.12 320 15:46 02.04.2021
772 Clouds 14 1019 47 10000 4.63 360 15:22 02.04.2021
773 Clouds 13 1019 50 10000 5.14 350 14:33 02.04.2021
774 Clouds 13 1019 50 10000 3.6 0 13:50 02.04.2021
775 Clouds 12 1020 54 10000 4.12 10 13:28 02.04.2021
776 Clouds 12 1020 58 10000 3.6 10 12:58 02.04.2021
777 Clouds 12 1020 58 10000 3.6 10 12:37 02.04.2021
778 Clouds 12 1020 58 10000 3.6 10 12:19 02.04.2021
779 Clear 11 1020 62 10000 3.6 350 11:44 02.04.2021
780 Clear 11 1020 57 10000 2.57 20 11:18 02.04.2021
781 Clear 10 1020 62 10000 3.09 10 10:42 02.04.2021
782 Clear 10 1020 61 10000 3.6 360 10:23 02.04.2021
783 Clear 9 1020 66 10000 2.57 360 09:39 02.04.2021
784 Clear 8 1020 66 10000 3.09 350 09:21 02.04.2021
785 Clear 8 1019 65 10000 3.6 350 08:45 02.04.2021
786 Clear 7 1020 65 10000 3.6 350 08:26 02.04.2021
787 Clear 7 1019 70 10000 3.09 350 07:20 02.04.2021
788 Clear 8 1019 71 10000 3.6 350 06:34 02.04.2021
789 Clear 10 1019 66 10000 3.6 340 03:39 02.04.2021
790 Clear 12 1019 58 10000 3.6 330 01:40 02.04.2021
791 Clear 13 1019 54 10000 3.09 310 00:43 02.04.2021
792 Clear 14 1018 44 10000 5.66 330 23:47 01.04.2021
793 Clear 14 1018 42 10000 5.14 320 23:27 01.04.2021
794 Clear 15 1018 39 10000 5.14 320 22:41 01.04.2021
795 Clear 15 1018 44 10000 2.57 300 22:18 01.04.2021
796 Clear 15 1018 54 10000 2.57 280 21:42 01.04.2021
797 Clear 15 1017 51 10000 2.06 280 21:22 01.04.2021
798 Clear 17 1017 42 10000 2.06 290 20:41 01.04.2021
799 Clear 18 1017 39 10000 3.6 320 20:22 01.04.2021
800 Clear 20 1017 37 10000 5.66 330 19:43 01.04.2021
801 Clear 20 1017 37 10000 5.14 330 19:24 01.04.2021
802 Clear 21 1017 35 10000 5.14 330 18:45 01.04.2021
803 Clear 22 1017 35 10000 6.17 340 18:18 01.04.2021
804 Clear 22 1017 35 10000 6.17 330 17:45 01.04.2021
805 Clear 22 1017 33 10000 5.66 340 17:24 01.04.2021
806 Clear 22 1017 33 10000 5.66 340 17:24 01.04.2021
807 Clear 22 1017 30 10000 5.66 350 16:50 01.04.2021
808 Clear 23 1017 35 10000 6.69 330 16:24 01.04.2021
809 Clear 24 1018 33 10000 2.57 40 15:43 01.04.2021
810 Clear 24 1018 33 10000 2.57 40 15:19 01.04.2021
811 Clear 24 1018 35 10000 2.06 30 14:42 01.04.2021
812 Clear 24 1018 35 10000 2.57 60 14:23 01.04.2021
813 Clear 23 1019 35 10000 1.03 110 13:52 01.04.2021
814 Clear 22 1019 40 10000 2.06 70 13:30 01.04.2021
815 Clear 22 1019 42 10000 2.57 50 12:49 01.04.2021
816 Clear 21 1020 45 10000 3.09 60 12:30 01.04.2021
817 Clear 20 1020 45 10000 2.06 110 11:47 01.04.2021
818 Clear 18 1020 52 10000 1.54 110 11:24 01.04.2021
819 Clear 17 1020 58 10000 1.54 0 10:53 01.04.2021
820 Clear 17 1020 58 10000 1.54 0 10:35 01.04.2021
821 Clear 13 1020 66 10000 1.03 0 09:54 01.04.2021
822 Clear 12 1020 76 10000 1.03 60 09:27 01.04.2021
823 Clear 9 1020 81 10000 1.03 70 08:33 01.04.2021
824 Clear 9 1020 81 10000 0.51 50 07:59 01.04.2021
825 Clear 8 1020 75 10000 0.51 120 07:20 01.04.2021
826 Clear 8 1020 75 10000 0.51 70 06:48 01.04.2021
827 Clear 8 1020 71 10000 0.51 0 03:52 01.04.2021
828 Rain 11 1021 62 10000 1.03 0 01:52 01.04.2021
829 Clear 12 1021 62 10000 1.03 0 23:51 31.03.2021
830 Clear 13 1021 54 10000 1.54 260 23:31 31.03.2021
831 Clear 13 1021 58 10000 1.54 260 22:41 31.03.2021
832 Clear 14 1021 54 10000 1.54 270 22:21 31.03.2021
833 Clear 15 1021 51 10000 1.54 270 21:47 31.03.2021
834 Clear 16 1021 41 10000 2.06 300 21:24 31.03.2021
835 Clear 17 1021 36 10000 0.51 0 20:58 31.03.2021
836 Clear 17 1021 36 10000 0.51 0 20:40 31.03.2021
837 Clear 18 1021 30 10000 1.54 20 20:18 31.03.2021
838 Clear 22 1021 30 10000 1.03 20 19:41 31.03.2021
839 Clear 21 1021 28 10000 1.54 50 19:19 31.03.2021
840 Clear 24 1021 23 10000 1.03 0 18:51 31.03.2021
841 Clear 23 1021 23 10000 1.54 30 18:22 31.03.2021
842 Clear 23 1021 23 10000 2.06 40 17:37 31.03.2021
843 Clear 23 1022 22 10000 1.54 80 17:18 31.03.2021
844 Clear 23 1022 25 10000 1.03 0 16:49 31.03.2021
845 Clear 24 1022 25 10000 2.06 60 16:29 31.03.2021
846 Clear 24 1023 27 10000 1.03 0 15:51 31.03.2021
847 Clear 24 1023 27 10000 2.06 70 15:20 31.03.2021
848 Clear 24 1023 25 10000 1.03 0 14:46 31.03.2021
849 Clear 23 1024 27 10000 1.54 0 14:24 31.03.2021
850 Clear 23 1024 27 10000 1.54 0 14:24 31.03.2021
851 Clear 23 1024 28 10000 1.54 0 13:53 31.03.2021
852 Clear 22 1024 37 10000 1.03 0 13:19 31.03.2021
853 Clear 20 1025 48 10000 1.54 120 12:37 31.03.2021
854 Clear 19 1025 48 10000 1.54 120 12:18 31.03.2021
855 Clear 18 1025 48 10000 1.54 120 12:18 31.03.2021
856 Clear 16 1025 54 10000 1.54 100 11:22 31.03.2021
857 Clear 15 1025 62 10000 1.03 0 10:48 31.03.2021
858 Clear 13 1026 62 10000 1.03 0 10:27 31.03.2021
859 Clear 12 1026 62 10000 1.03 0 09:54 31.03.2021
860 Clear 10 1026 70 10000 0.51 0 09:29 31.03.2021
861 Clear 9 1026 75 10000 1.03 0 08:46 31.03.2021
862 Clear 7 1026 81 10000 0.51 0 08:25 31.03.2021
863 Clear 6 1026 75 10000 1.03 90 07:33 31.03.2021
864 Clear 6 1026 70 10000 0.51 0 04:46 31.03.2021
865 Rain 8 1027 65 10000 2.06 280 02:37 31.03.2021
866 Rain 10 1027 65 10000 0.51 0 00:54 31.03.2021
867 Rain 10 1028 61 10000 0.51 0 00:25 31.03.2021
868 Rain 11 1028 57 10000 0.51 60 23:55 30.03.2021
869 Clear 11 1028 50 10000 1.03 0 23:25 30.03.2021
870 Clear 12 1028 47 10000 1.03 0 22:49 30.03.2021
871 Rain 12 1028 50 10000 1.03 0 22:30 30.03.2021
872 Clear 13 1028 44 10000 2.06 340 21:57 30.03.2021
873 Clear 14 1028 44 10000 0.51 0 21:29 30.03.2021
874 Clear 16 1028 36 10000 1.03 70 20:59 30.03.2021
875 Clear 16 1028 36 10000 1.03 70 20:38 30.03.2021
876 Clear 18 1028 30 10000 1.54 70 20:19 30.03.2021
877 Clear 21 1028 26 10000 2.06 60 19:41 30.03.2021
878 Clear 23 1028 23 10000 3.09 80 18:58 30.03.2021
879 Clear 22 1029 23 10000 3.09 70 18:30 30.03.2021
880 Clear 21 1029 23 10000 2.06 90 17:48 30.03.2021
881 Clear 23 1029 23 10000 2.57 100 17:30 30.03.2021
882 Clear 23 1029 21 10000 1.03 0 16:47 30.03.2021
883 Clear 24 1030 20 10000 2.06 80 16:28 30.03.2021
884 Clear 23 1030 23 10000 2.57 40 15:39 30.03.2021
885 Clear 23 1030 25 10000 1.54 0 15:19 30.03.2021
886 Clear 22 1031 23 10000 1.03 0 14:45 30.03.2021
887 Clear 21 1031 24 10000 2.06 80 14:21 30.03.2021
888 Clear 21 1031 26 10000 2.06 70 13:51 30.03.2021
889 Clear 21 1032 30 10000 1.54 0 13:29 30.03.2021
890 Clear 19 1032 36 10000 1.03 0 12:42 30.03.2021
891 Clear 18 1032 42 10000 1.03 0 12:22 30.03.2021
892 Clear 17 1032 44 10000 1.03 0 11:48 30.03.2021
893 Clear 15 1033 51 10000 1.54 120 11:20 30.03.2021
894 Clear 13 1032 58 10000 1.03 0 10:43 30.03.2021
895 Clear 12 1033 62 10000 1.03 0 10:19 30.03.2021
896 Clear 11 1032 66 10000 1.03 0 09:43 30.03.2021
897 Clear 9 1033 70 10000 1.03 0 09:24 30.03.2021
898 Clear 9 1033 70 10000 0.51 80 08:51 30.03.2021
899 Clear 7 1032 81 10000 1.03 40 08:31 30.03.2021
900 Clear 4 1032 87 10000 1.03 70 07:45 30.03.2021
901 Clear 4 1032 87 10000 0.51 60 06:56 30.03.2021
902 Clear 5 1032 75 10000 0.51 60 05:25 30.03.2021
903 Clear 7 1032 65 10000 1.54 300 02:32 30.03.2021
904 Clear 8 1032 57 10000 1.03 320 00:22 30.03.2021
905 Clear 9 1032 57 10000 1.54 270 23:28 29.03.2021
906 Clear 10 1032 57 10000 1.54 280 22:43 29.03.2021
907 Clear 12 1032 41 10000 1.03 0 21:59 29.03.2021
908 Clear 12 1032 41 10000 1.03 0 21:37 29.03.2021
909 Clear 14 1032 38 10000 1.54 360 20:59 29.03.2021
910 Clear 14 1032 38 10000 1.54 360 20:38 29.03.2021
911 Clear 15 1031 39 10000 0.51 100 20:20 29.03.2021
912 Clear 16 1031 36 10000 0.51 0 19:45 29.03.2021
913 Clear 19 1031 34 10000 1.03 0 19:18 29.03.2021
914 Clear 18 1031 28 10000 2.06 160 18:40 29.03.2021
915 Clear 20 1031 28 10000 2.06 190 18:20 29.03.2021
916 Clear 19 1031 30 10000 2.57 190 17:45 29.03.2021
917 Clear 21 1032 26 10000 1.54 290 16:59 29.03.2021
918 Clear 21 1032 26 10000 1.54 290 16:36 29.03.2021
919 Clear 21 1032 26 10000 2.57 350 15:57 29.03.2021
920 Clear 20 1032 24 10000 2.06 0 15:34 29.03.2021
921 Clear 20 1033 24 10000 1.54 200 14:56 29.03.2021
922 Clear 19 1033 24 10000 1.54 200 14:34 29.03.2021
923 Clear 18 1033 34 10000 2.57 140 13:52 29.03.2021
924 Clear 18 1033 29 10000 2.06 130 13:29 29.03.2021
925 Clear 17 1033 39 10000 1.54 0 12:51 29.03.2021
926 Clear 17 1033 39 10000 1.54 0 12:51 29.03.2021
927 Clear 17 1033 39 10000 1.54 0 12:29 29.03.2021
928 Clear 15 1033 39 10000 1.03 0 11:41 29.03.2021
929 Clear 14 1033 50 10000 1.03 0 11:22 29.03.2021
930 Clear 12 1033 57 10000 1.54 110 10:38 29.03.2021
931 Clear 9 1033 75 10000 1.03 0 09:56 29.03.2021
932 Clear 7 1032 75 10000 0.51 0 08:59 29.03.2021
933 Clear 5 1032 87 10000 1.69 192 08:29 29.03.2021
934 Clear 4 1032 87 10000 0.51 0 07:42 29.03.2021
935 Clear 4 1032 87 10000 1.03 0 06:42 29.03.2021
936 Clear 5 1031 75 10000 0.51 0 05:18 29.03.2021
937 Clear 6 1031 65 10000 0.51 130 02:21 29.03.2021
938 Clear 7 1031 61 10000 1.03 270 00:24 29.03.2021
939 Clear 7 1031 61 10000 1.46 192 23:53 28.03.2021
940 Clear 7 1030 61 10000 0.51 320 23:24 28.03.2021
941 Clear 8 1030 57 10000 1.03 0 22:42 28.03.2021
942 Clear 9 1030 53 10000 1.03 0 22:24 28.03.2021
943 Clear 9 1030 53 10000 1.03 0 22:24 28.03.2021
944 Clear 10 1030 53 10000 1.03 200 21:46 28.03.2021
945 Clear 10 1030 50 10000 1.03 0 21:24 28.03.2021
946 Clear 11 1030 50 10000 1.03 0 20:51 28.03.2021
947 Clear 11 1030 50 10000 1.03 0 20:33 28.03.2021
948 Clear 13 1029 41 10000 3.6 330 19:55 28.03.2021
949 Clear 13 1029 41 10000 3.6 330 19:37 28.03.2021
950 Clear 14 1029 38 10000 4.63 330 19:18 28.03.2021
951 Clear 16 1028 31 10000 3.09 230 18:37 28.03.2021
952 Clear 15 1029 31 10000 3.09 220 17:59 28.03.2021
953 Clear 16 1029 31 10000 3.6 240 17:37 28.03.2021
954 Clear 16 1029 31 10000 3.6 270 16:56 28.03.2021
955 Clear 15 1029 33 10000 3.6 230 16:28 28.03.2021
956 Clear 15 1029 36 10000 3.09 220 15:57 28.03.2021
957 Clear 15 1030 33 10000 3.09 210 15:24 28.03.2021
958 Clear 14 1030 38 10000 4.12 240 14:46 28.03.2021
959 Clear 14 1030 41 10000 4.12 210 14:18 28.03.2021
960 Clear 13 1031 38 10000 3.6 200 13:35 28.03.2021
961 Clear 13 1031 38 10000 2.06 0 12:57 28.03.2021
962 Clear 12 1031 40 10000 2.06 0 12:34 28.03.2021
963 Clear 11 1031 46 10000 2.06 210 11:55 28.03.2021
964 Clear 11 1031 46 10000 2.06 210 11:37 28.03.2021
965 Clear 10 1031 53 10000 1.54 230 10:49 28.03.2021
966 Clear 8 1031 53 10000 1.03 0 10:31 28.03.2021
967 Clear 7 1031 57 10000 1.03 0 09:51 28.03.2021
968 Clear 6 1031 70 10000 1.03 0 09:28 28.03.2021
969 Clear 4 1031 75 10000 0.51 0 08:52 28.03.2021
970 Clear 3 1031 75 10000 0.51 0 08:34 28.03.2021
971 Clear 3 1030 75 10000 0.51 0 07:42 28.03.2021
972 Clear 3 1030 75 10000 0.51 0 06:21 28.03.2021
973 Clear 4 1030 75 10000 2.06 250 03:50 28.03.2021
974 Clear 6 1030 65 10000 1.54 240 00:45 28.03.2021
975 Clear 7 1030 57 10000 1.54 230 23:53 27.03.2021
976 Clear 7 1030 57 10000 2.06 210 23:35 27.03.2021
977 Clear 7 1029 57 10000 1.54 220 22:42 27.03.2021
978 Clear 8 1029 57 10000 2.06 250 22:22 27.03.2021
979 Clear 8 1029 49 10000 2.06 240 21:45 27.03.2021
980 Clear 8 1029 49 10000 2.06 250 21:21 27.03.2021
981 Clear 8 1028 49 10000 3.6 250 20:58 27.03.2021
982 Clear 9 1028 49 10000 4.63 250 20:37 27.03.2021
983 Clear 9 1028 49 10000 3.6 240 19:57 27.03.2021
984 Clear 9 1028 49 10000 3.6 240 19:38 27.03.2021
985 Clear 9 1028 46 10000 4.63 240 19:20 27.03.2021
986 Clear 9 1027 46 10000 4.63 240 18:46 27.03.2021
987 Clear 9 1027 46 10000 7.72 260 18:22 27.03.2021
988 Clear 10 1026 46 10000 6.17 270 17:36 27.03.2021
989 Clouds 10 1026 43 10000 6.17 250 17:18 27.03.2021
990 Clear 11 1026 40 10000 7.2 260 16:43 27.03.2021
991 Clear 11 1026 40 10000 7.2 260 16:23 27.03.2021
992 Clear 11 1026 40 10000 7.2 240 15:45 27.03.2021
993 Clear 11 1025 40 10000 7.72 240 15:18 27.03.2021
994 Clear 11 1025 43 10000 10.29 260 14:39 27.03.2021
995 Clear 11 1025 40 10000 9.77 260 13:39 27.03.2021
996 Clear 10 1025 40 10000 8.75 270 13:19 27.03.2021
997 Clouds 10 1025 40 10000 8.75 270 12:43 27.03.2021
998 Clouds 10 1025 46 10000 8.23 240 11:51 27.03.2021
999 Clouds 10 1025 46 10000 8.23 240 11:32 27.03.2021
1000 Clouds 9 1024 49 10000 9.77 250 10:57 27.03.2021
1001 Clouds 9 1024 57 10000 10.8 260 10:38 27.03.2021
1002 Clouds 8 1023 61 10000 9.77 250 09:50 27.03.2021
1003 Clouds 7 1024 61 10000 7.2 250 09:21 27.03.2021
1004 Clouds 7 1023 70 10000 8.23 260 08:40 27.03.2021
1005 Clouds 6 1022 70 10000 8.23 280 07:54 27.03.2021
1006 Clouds 6 1021 75 10000 5.14 250 07:18 27.03.2021
1007 Clouds 7 1020 87 10000 4.12 250 06:42 27.03.2021
1008 Rain 9 1017 87 10000 5.14 200 04:42 27.03.2021
1009 Rain 10 1017 81 10000 4.12 200 02:45 27.03.2021
1010 Rain 10 1017 66 10000 2.06 260 00:44 27.03.2021
1011 Clear 10 1017 61 10000 1.54 270 00:25 27.03.2021
1012 Clear 10 1017 61 10000 1.54 270 00:25 27.03.2021
1013 Clear 10 1017 58 10000 1.54 220 23:37 26.03.2021
1014 Clear 12 1017 50 10000 3.6 200 22:44 26.03.2021
1015 Clear 12 1017 50 10000 3.09 200 22:24 26.03.2021
1016 Clear 11 1017 66 10000 1.03 0 21:25 26.03.2021
1017 Rain 12 1017 62 10000 1.03 0 20:58 26.03.2021
1018 Rain 12 1017 62 10000 1.03 0 20:58 26.03.2021
1019 Clear 11 1017 62 10000 1.03 0 20:31 26.03.2021
1020 Clear 12 1016 54 10000 1.03 0 19:53 26.03.2021
1021 Clear 14 1016 41 10000 1.54 230 19:34 26.03.2021
1022 Clear 14 1016 41 10000 2.57 230 18:55 26.03.2021
1023 Clear 15 1016 41 10000 2.57 230 18:36 26.03.2021
1024 Clear 15 1016 39 10000 3.09 240 18:18 26.03.2021
1025 Clear 16 1016 39 10000 3.6 250 17:43 26.03.2021
1026 Clear 17 1017 34 10000 3.6 230 16:54 26.03.2021
1027 Clear 17 1017 34 10000 3.6 230 16:30 26.03.2021
1028 Clear 17 1017 36 10000 3.6 230 15:43 26.03.2021
1029 Clear 17 1018 39 10000 4.12 220 14:57 26.03.2021
1030 Clear 17 1018 39 10000 5.14 270 14:23 26.03.2021
1031 Clear 17 1019 39 10000 4.63 240 13:34 26.03.2021
1032 Clouds 16 1019 39 10000 3.6 0 12:49 26.03.2021
1033 Clouds 16 1019 39 10000 3.6 0 12:49 26.03.2021
1034 Clouds 15 1020 47 10000 2.06 120 11:50 26.03.2021
1035 Clouds 14 1021 54 10000 2.06 90 11:31 26.03.2021
1036 Clouds 14 1021 54 10000 2.06 90 11:31 26.03.2021
1037 Clear 13 1021 58 10000 1.03 0 10:46 26.03.2021
1038 Clear 12 1021 66 10000 1.54 110 10:27 26.03.2021
1039 Clear 11 1021 66 10000 1.03 0 09:42 26.03.2021
1040 Clear 9 1021 66 10000 0.51 0 09:18 26.03.2021
1041 Clear 8 1021 81 10000 0.51 0 08:37 26.03.2021
1042 Clear 6 1021 87 10000 0.51 0 07:59 26.03.2021
1043 Rain 4 1021 93 10000 1.03 90 07:23 26.03.2021
1044 Rain 4 1021 93 10000 0.51 110 06:57 26.03.2021
1045 Clear 4 1021 93 10000 0.51 0 06:30 26.03.2021
1046 Clear 4 1021 87 10000 1.03 50 05:26 26.03.2021
1047 Clear 6 1022 75 10000 1.03 0 01:57 26.03.2021
1048 Clear 7 1022 75 10000 1.54 240 00:27 26.03.2021
1049 Clear 8 1022 71 10000 1.03 230 23:44 25.03.2021
1050 Clear 9 1022 62 10000 1.03 0 22:57 25.03.2021
1051 Clear 9 1022 62 10000 1.54 230 22:29 25.03.2021
1052 Clear 9 1022 71 10000 1.03 0 21:53 25.03.2021
1053 Clear 9 1022 71 10000 1.03 0 21:33 25.03.2021
1054 Clear 10 1021 62 10000 2.06 290 20:45 25.03.2021
1055 Clear 10 1021 62 10000 4.12 320 20:25 25.03.2021
1056 Clear 11 1021 58 10000 4.12 300 19:46 25.03.2021
1057 Clear 12 1020 54 10000 3.09 330 19:27 25.03.2021
1058 Clear 13 1020 50 10000 3.09 340 18:49 25.03.2021
1059 Clear 14 1020 47 10000 3.09 350 18:27 25.03.2021
1060 Clear 14 1020 47 10000 4.12 340 17:52 25.03.2021
1061 Clear 15 1020 47 10000 3.09 350 17:33 25.03.2021
1062 Clear 15 1019 44 10000 5.66 350 16:55 25.03.2021
1063 Clear 16 1019 41 10000 3.6 360 16:32 25.03.2021
1064 Clear 16 1020 42 10000 3.6 340 15:46 25.03.2021
1065 Clear 16 1020 41 10000 4.12 10 15:23 25.03.2021
1066 Clear 17 1020 41 10000 1.54 40 14:48 25.03.2021
1067 Clear 17 1020 39 10000 1.03 0 14:29 25.03.2021
1068 Clear 16 1020 41 10000 2.06 60 13:25 25.03.2021
1069 Clear 16 1021 41 10000 2.57 0 12:46 25.03.2021
1070 Clouds 16 1021 44 10000 2.06 50 12:22 25.03.2021
1071 Clouds 15 1021 47 10000 1.54 60 11:53 25.03.2021
1072 Clouds 14 1021 47 10000 1.54 60 11:33 25.03.2021
1073 Clear 13 1021 62 10000 2.06 100 10:58 25.03.2021
1074 Clear 12 1021 62 10000 2.06 100 10:39 25.03.2021
1075 Clear 10 1021 66 10000 2.06 100 10:19 25.03.2021
1076 Clear 9 1021 70 10000 1.54 80 09:43 25.03.2021
1077 Clear 8 1021 81 10000 1.54 80 09:23 25.03.2021
1078 Clear 5 1021 81 10000 1.03 0 08:31 25.03.2021
1079 Clear 3 1021 86 10000 1.03 80 07:43 25.03.2021
1080 Clear 2 1021 93 10000 0.51 0 06:43 25.03.2021
1081 Clear 1 1021 93 10000 1.03 330 06:23 25.03.2021
1082 Clear 2 1021 93 10000 1.54 60 04:52 25.03.2021
1083 Clear 2 1021 80 10000 1.03 330 02:28 25.03.2021
1084 Clear 3 1022 75 10000 1.03 0 00:20 25.03.2021
1085 Clear 4 1022 75 10000 1.03 310 23:40 24.03.2021
1086 Clear 4 1022 75 10000 1.03 310 23:20 24.03.2021
1087 Clear 5 1022 75 10000 1.54 270 22:40 24.03.2021
1088 Clear 6 1022 75 10000 1.54 280 21:59 24.03.2021
1089 Clear 6 1022 75 10000 1.54 280 21:39 24.03.2021
1090 Clear 6 1022 70 10000 1.54 280 21:19 24.03.2021
1091 Clear 7 1022 61 10000 0.51 0 20:41 24.03.2021
1092 Clear 8 1022 57 10000 2.06 330 20:19 24.03.2021
1093 Clear 11 1022 50 10000 1.54 350 19:34 24.03.2021
1094 Clear 11 1022 54 10000 2.06 30 18:57 24.03.2021
1095 Clear 12 1022 54 10000 2.06 30 18:39 24.03.2021
1096 Clear 13 1022 47 10000 1.54 40 18:19 24.03.2021
1097 Clear 14 1022 44 10000 2.06 20 17:40 24.03.2021
1098 Clear 15 1022 41 10000 2.06 30 17:22 24.03.2021
1099 Clear 15 1022 41 10000 1.54 0 16:41 24.03.2021
1100 Clear 15 1022 41 10000 2.06 0 16:22 24.03.2021
1101 Clear 15 1022 41 10000 1.54 40 15:43 24.03.2021
1102 Clear 15 1023 38 10000 2.06 0 15:23 24.03.2021
1103 Clear 14 1023 36 10000 1.54 0 14:42 24.03.2021
1104 Clear 14 1024 41 10000 1.54 0 14:23 24.03.2021
1105 Clear 13 1024 41 10000 2.06 300 13:50 24.03.2021
1106 Clear 12 1024 50 10000 1.03 0 13:25 24.03.2021
1107 Clear 12 1024 50 10000 1.03 0 12:41 24.03.2021
1108 Clear 11 1024 54 10000 1.54 90 12:21 24.03.2021
1109 Clear 9 1025 57 10000 0.51 0 11:42 24.03.2021
1110 Clear 8 1025 65 10000 1.54 110 10:53 24.03.2021
1111 Clear 8 1025 65 10000 1.54 110 10:35 24.03.2021
1112 Clear 6 1025 70 10000 0.51 0 09:58 24.03.2021
1113 Clear 5 1025 75 10000 1.03 0 09:37 24.03.2021
1114 Clear 4 1025 75 10000 1.03 0 09:18 24.03.2021
1115 Clear 3 1025 86 10000 1.54 70 08:46 24.03.2021
1116 Clear 2 1025 86 10000 1.03 80 08:24 24.03.2021
1117 Clear 0 1025 93 9000 1.03 0 07:31 24.03.2021
1118 Clear -1 1025 93 10000 1.03 70 06:51 24.03.2021
1119 Clear -1 1025 93 10000 0.51 0 03:21 24.03.2021
1120 Clear 0 1025 93 10000 0.51 0 00:45 24.03.2021
1121 Clear 0 1026 86 10000 0.51 180 23:56 23.03.2021
1122 Clear 1 1026 86 10000 0.51 270 23:21 23.03.2021
1123 Clear 1 1026 86 10000 1.54 260 22:52 23.03.2021
1124 Clear 1 1025 86 10000 0.51 0 22:28 23.03.2021
1125 Clouds 2 1026 80 10000 2.57 280 21:49 23.03.2021
1126 Clouds 2 1025 75 10000 1.54 300 21:31 23.03.2021
1127 Clouds 3 1025 75 10000 0.51 0 20:47 23.03.2021
1128 Clouds 4 1025 70 10000 0.51 290 20:29 23.03.2021
1129 Clouds 4 1025 70 10000 1.03 0 19:57 23.03.2021
1130 Clouds 5 1025 70 10000 1.03 0 19:37 23.03.2021
1131 Clouds 6 1025 61 10000 0.51 0 19:19 23.03.2021
1132 Clouds 7 1025 57 10000 0.51 0 18:38 23.03.2021
1133 Clouds 7 1025 57 10000 0.51 0 18:18 23.03.2021
1134 Clouds 8 1025 61 10000 0.51 0 17:43 23.03.2021
1135 Clouds 8 1025 61 10000 1.03 0 17:21 23.03.2021
1136 Clouds 8 1025 61 10000 1.03 0 17:21 23.03.2021
1137 Clouds 8 1025 57 10000 0.51 0 16:26 23.03.2021
1138 Clouds 8 1025 57 10000 1.03 0 15:50 23.03.2021
1139 Clouds 8 1025 61 10000 0.51 0 15:24 23.03.2021
1140 Clouds 7 1025 61 10000 0.51 0 14:49 23.03.2021
1141 Clouds 7 1026 61 10000 1.03 0 14:20 23.03.2021
1142 Clouds 7 1026 61 10000 0.51 0 13:48 23.03.2021
1143 Clouds 7 1026 61 10000 1.03 0 13:25 23.03.2021
1144 Clouds 7 1026 65 10000 1.03 0 12:46 23.03.2021
1145 Clouds 7 1026 70 10000 1.03 0 12:26 23.03.2021
1146 Clouds 7 1026 70 10000 0.51 0 11:49 23.03.2021
1147 Clouds 7 1026 70 10000 1.03 0 11:26 23.03.2021
1148 Clouds 6 1026 70 10000 1.03 0 10:43 23.03.2021
1149 Clouds 6 1026 75 10000 1.03 0 10:21 23.03.2021
1150 Clouds 5 1026 75 10000 0.51 0 09:54 23.03.2021
1151 Clouds 5 1026 75 10000 0.51 0 09:25 23.03.2021
1152 Clouds 4 1026 81 10000 0.51 0 08:56 23.03.2021
1153 Clouds 4 1026 81 10000 0.51 0 08:38 23.03.2021
1154 Clouds 4 1025 81 10000 1.03 300 08:19 23.03.2021
1155 Clouds 4 1025 87 10000 1.54 260 07:28 23.03.2021
1156 Clouds 3 1025 87 10000 1.54 260 06:54 23.03.2021
1157 Clouds 4 1024 87 10000 1.54 260 05:48 23.03.2021
1158 Clouds 4 1025 81 10000 1.03 240 03:20 23.03.2021
1159 Clouds 4 1024 75 10000 2.06 260 00:22 23.03.2021
1160 Clouds 4 1025 75 10000 1.54 260 23:23 22.03.2021
1161 Clouds 4 1025 70 10000 2.06 270 22:46 22.03.2021
1162 Clouds 4 1025 75 10000 1.54 300 22:22 22.03.2021
1163 Clouds 4 1025 75 10000 1.54 280 21:52 22.03.2021
1164 Clouds 4 1025 75 10000 2.57 290 21:29 22.03.2021
1165 Clouds 4 1024 75 10000 3.6 280 20:54 22.03.2021
1166 Clouds 4 1024 75 10000 4.12 270 20:30 22.03.2021
1167 Clouds 4 1024 75 10000 3.09 290 19:59 22.03.2021
1168 Clouds 5 1024 75 10000 3.09 290 19:59 22.03.2021
1169 Clouds 5 1024 75 10000 3.09 290 19:40 22.03.2021
1170 Clouds 5 1023 70 10000 2.06 290 19:21 22.03.2021
1171 Clouds 5 1023 70 10000 2.06 290 19:21 22.03.2021
1172 Clouds 5 1023 70 10000 2.57 300 18:45 22.03.2021
1173 Clouds 5 1023 70 10000 4.12 300 18:27 22.03.2021
1174 Clouds 5 1023 65 10000 4.12 310 17:51 22.03.2021
1175 Clouds 5 1022 65 10000 4.63 310 17:24 22.03.2021
1176 Clouds 5 1022 65 10000 4.12 310 16:58 22.03.2021
1177 Clouds 5 1022 65 10000 4.12 310 16:40 22.03.2021
1178 Clouds 5 1022 65 10000 3.09 320 15:58 22.03.2021
1179 Clouds 6 1022 65 10000 3.6 320 15:37 22.03.2021
1180 Clouds 5 1022 65 10000 3.6 320 15:18 22.03.2021
1181 Clouds 5 1022 65 10000 4.63 320 14:49 22.03.2021
1182 Clouds 5 1022 60 10000 3.09 330 14:29 22.03.2021
1183 Clouds 5 1022 65 10000 4.63 300 13:39 22.03.2021
1184 Clouds 5 1022 65 10000 4.63 300 13:19 22.03.2021
1185 Clouds 5 1022 65 10000 2.06 320 12:45 22.03.2021
1186 Clouds 5 1022 65 10000 2.06 320 12:22 22.03.2021
1187 Clouds 4 1022 75 10000 4.12 340 11:46 22.03.2021
1188 Clouds 4 1022 75 10000 4.12 340 11:22 22.03.2021
1189 Clouds 4 1022 65 10000 3.6 340 10:43 22.03.2021
1190 Clouds 4 1022 65 10000 3.6 320 10:24 22.03.2021
1191 Clouds 4 1021 75 10000 3.6 330 09:43 22.03.2021
1192 Clouds 4 1021 75 10000 3.09 320 09:22 22.03.2021
1193 Clouds 3 1021 75 10000 2.57 320 08:44 22.03.2021
1194 Clouds 3 1021 70 10000 4.12 310 08:24 22.03.2021
1195 Clouds 3 1020 70 10000 3.6 330 07:45 22.03.2021
1196 Clouds 3 1020 75 10000 3.6 310 06:57 22.03.2021
1197 Clouds 3 1020 75 10000 3.6 310 06:35 22.03.2021
1198 Clear 3 1020 80 10000 3.6 310 02:33 22.03.2021
1199 Clouds 4 1020 70 10000 6.17 310 00:33 22.03.2021
1200 Clouds 4 1019 70 10000 6.17 310 23:54 21.03.2021
1201 Clear 4 1019 70 10000 6.69 310 23:20 21.03.2021
1202 Clear 4 1019 75 10000 5.66 310 22:56 21.03.2021
1203 Clouds 4 1019 70 10000 5.66 300 22:20 21.03.2021
1204 Clouds 4 1019 70 10000 5.66 300 21:41 21.03.2021
1205 Clouds 4 1019 70 10000 6.17 300 21:22 21.03.2021
1206 Clouds 5 1019 70 10000 6.69 310 20:44 21.03.2021
1207 Clouds 5 1019 70 10000 5.66 300 20:26 21.03.2021
1208 Clouds 5 1018 70 10000 6.17 300 19:56 21.03.2021
1209 Clouds 5 1018 70 10000 5.14 300 19:23 21.03.2021
1210 Clouds 6 1018 70 10000 4.63 290 18:53 21.03.2021
1211 Clouds 6 1018 70 10000 4.12 270 18:31 21.03.2021
1212 Clouds 6 1018 70 10000 5.14 270 17:54 21.03.2021
1213 Clouds 6 1018 70 10000 5.14 270 17:36 21.03.2021
1214 Clouds 6 1018 70 10000 5.14 290 17:18 21.03.2021
1215 Clouds 6 1018 65 10000 4.63 290 16:41 21.03.2021
1216 Clouds 6 1018 75 10000 5.14 290 16:22 21.03.2021
1217 Clouds 6 1018 70 10000 6.17 300 15:42 21.03.2021
1218 Clouds 5 1019 75 10000 5.66 290 15:20 21.03.2021
1219 Clouds 5 1019 70 10000 5.14 280 14:46 21.03.2021
1220 Clouds 5 1019 65 10000 5.14 280 14:27 21.03.2021
1221 Clouds 5 1020 65 10000 3.09 280 13:55 21.03.2021
1222 Clouds 5 1020 65 10000 4.63 280 13:33 21.03.2021
1223 Clouds 5 1020 60 10000 4.63 310 12:42 21.03.2021
1224 Clouds 4 1020 60 10000 6.17 280 12:24 21.03.2021
1225 Clouds 4 1020 60 10000 3.09 250 11:41 21.03.2021
1226 Clouds 4 1020 60 10000 2.57 240 11:20 21.03.2021
1227 Clouds 4 1020 60 10000 2.57 240 11:20 21.03.2021
1228 Clouds 3 1020 60 10000 3.09 210 10:43 21.03.2021
1229 Clouds 3 1020 64 10000 1.54 220 10:25 21.03.2021
1230 Clouds 3 1021 60 10000 1.03 0 09:47 21.03.2021
1231 Clouds 2 1021 60 10000 1.03 0 09:29 21.03.2021
1232 Clouds 2 1021 64 10000 2.06 240 08:47 21.03.2021
1233 Clouds 2 1021 64 10000 1.54 230 08:26 21.03.2021
1234 Clouds 2 1021 60 10000 2.06 250 07:41 21.03.2021
1235 Clouds 1 1021 60 10000 2.06 250 07:21 21.03.2021
1236 Clouds 1 1021 60 10000 3.09 270 05:59 21.03.2021
1237 Clear 1 1023 55 10000 1.03 0 02:46 21.03.2021
1238 Clear 1 1024 55 10000 1.54 220 00:56 21.03.2021
1239 Clear 1 1024 55 10000 1.54 220 00:36 21.03.2021
1240 Clear 1 1024 55 10000 1.03 0 00:18 21.03.2021
1241 Clear 1 1025 51 10000 1.03 0 23:40 20.03.2021
1242 Clear 1 1025 51 10000 1.03 0 23:18 20.03.2021
1243 Clear 1 1025 55 10000 1.54 180 22:24 20.03.2021
1244 Clear 2 1025 60 10000 2.06 150 21:48 20.03.2021
1245 Clear 2 1025 60 10000 1.03 140 21:26 20.03.2021
1246 Clear 2 1025 55 10000 0.51 120 20:49 20.03.2021
1247 Clear 2 1025 64 10000 0.51 0 20:24 20.03.2021
1248 Clear 2 1025 48 10000 1.54 50 19:52 20.03.2021
1249 Clear 2 1025 44 10000 1.03 0 19:29 20.03.2021
1250 Clear 2 1025 44 10000 2.06 10 18:52 20.03.2021
1251 Clear 3 1025 44 10000 2.57 340 18:29 20.03.2021
1252 Clouds 3 1025 44 10000 3.09 330 17:58 20.03.2021
1253 Clouds 3 1025 44 10000 3.09 330 17:40 20.03.2021
1254 Clouds 3 1025 41 10000 3.6 330 17:21 20.03.2021
1255 Clouds 3 1025 44 10000 3.6 350 16:40 20.03.2021
1256 Clouds 3 1025 44 10000 3.09 360 16:19 20.03.2021
1257 Clouds 4 1025 44 10000 2.57 0 15:44 20.03.2021
1258 Clouds 4 1025 45 10000 2.57 350 15:25 20.03.2021
1259 Clear 4 1025 41 10000 4.12 320 14:40 20.03.2021
1260 Clear 4 1025 41 10000 3.6 340 14:19 20.03.2021
1261 Clouds 3 1026 38 10000 3.6 0 13:31 20.03.2021
1262 Clouds 3 1026 41 10000 3.6 330 12:41 20.03.2021
1263 Clouds 3 1026 47 10000 2.06 40 12:23 20.03.2021
1264 Clouds 2 1026 47 10000 2.06 40 12:23 20.03.2021
1265 Clouds 2 1026 51 10000 3.09 360 11:44 20.03.2021
1266 Clouds 2 1026 51 10000 3.09 360 11:23 20.03.2021
1267 Clouds 2 1026 55 10000 2.57 60 10:47 20.03.2021
1268 Clouds 1 1026 64 10000 4.12 70 10:25 20.03.2021
1269 Clouds 1 1026 64 10000 3.09 60 09:53 20.03.2021
1270 Clouds 0 1026 69 10000 3.6 80 09:26 20.03.2021
1271 Clouds 0 1025 74 10000 4.12 40 08:56 20.03.2021
1272 Clouds -1 1025 80 10000 2.57 20 08:28 20.03.2021
1273 Clouds -1 1025 80 10000 2.06 350 07:50 20.03.2021
1274 Clouds -2 1024 80 10000 2.57 360 07:30 20.03.2021
1275 Clouds -2 1024 80 10000 1.54 350 06:46 20.03.2021
1276 Clouds -1 1024 86 10000 1.54 20 05:30 20.03.2021
1277 Clouds -2 1024 80 10000 2.06 300 03:46 20.03.2021
1278 Clouds -2 1024 80 10000 1.54 330 03:46 20.03.2021
1279 Clouds -2 1024 74 10000 1.03 0 02:42 20.03.2021
1280 Clouds -1 1023 74 10000 3.09 20 23:56 19.03.2021
1281 Clouds -1 1023 74 10000 2.06 10 23:22 19.03.2021
1282 Clouds -1 1023 69 10000 1.54 340 22:46 19.03.2021
1283 Clouds -1 1022 69 10000 1.03 0 22:26 19.03.2021
1284 Clouds -1 1022 69 10000 2.06 330 21:52 19.03.2021
1285 Clouds 0 1022 69 10000 2.06 330 21:21 19.03.2021
1286 Clouds 0 1022 69 10000 2.57 330 20:46 19.03.2021
1287 Clouds 0 1021 69 10000 2.57 360 20:27 19.03.2021
1288 Clouds 1 1021 64 10000 4.12 20 19:59 19.03.2021
1289 Clouds 2 1021 64 10000 4.12 20 19:39 19.03.2021
1290 Clouds 3 1021 69 10000 6.17 20 19:19 19.03.2021
1291 Snow 3 1020 75 10000 5.66 20 18:39 19.03.2021
1292 Rain 3 1020 75 10000 3.6 10 18:18 19.03.2021
1293 Clouds 3 1020 75 10000 4.12 20 17:51 19.03.2021
1294 Clouds 3 1019 86 10000 5.14 20 17:27 19.03.2021
1295 Snow 2 1019 86 4500 6.17 20 16:51 19.03.2021
1296 Rain 3 1019 80 8000 4.63 40 16:26 19.03.2021
1297 Snow 3 1019 80 4500 5.66 30 15:46 19.03.2021
1298 Snow 3 1018 80 6000 6.17 20 15:22 19.03.2021
1299 Snow 3 1018 80 4500 6.69 30 14:45 19.03.2021
1300 Rain 3 1018 80 10000 6.17 20 14:26 19.03.2021
1301 Clouds 3 1018 81 10000 5.66 10 13:39 19.03.2021
1302 Clouds 3 1017 81 10000 5.14 20 12:50 19.03.2021
1303 Clouds 3 1017 81 10000 2.57 30 12:32 19.03.2021
1304 Clouds 3 1017 87 9000 3.6 360 11:42 19.03.2021
1305 Snow 2 1017 93 3500 3.09 360 10:53 19.03.2021
1306 Snow 2 1017 93 6000 1.03 0 10:30 19.03.2021
1307 Snow 2 1016 93 6000 0.51 0 09:49 19.03.2021
1308 Snow 1 1016 93 6000 0.51 0 09:30 19.03.2021
1309 Snow 1 1016 93 1800 0.51 90 08:55 19.03.2021
1310 Snow 1 1016 86 3500 0.51 0 08:37 19.03.2021
1311 Snow 1 1016 86 3500 0.51 0 08:18 19.03.2021
1312 Snow 1 1016 93 9000 0.18 228 07:37 19.03.2021
1313 Snow 0 1016 93 10000 0.51 0 06:51 19.03.2021
1314 Snow 1 1016 93 10000 1.03 270 02:45 19.03.2021
1315 Clouds 1 1016 86 10000 0.51 0 00:58 19.03.2021
1316 Clouds 1 1017 80 10000 0.51 0 23:48 18.03.2021
1317 Clouds 1 1017 80 10000 2.06 250 23:25 18.03.2021
1318 Clouds 1 1017 80 10000 1.03 0 22:39 18.03.2021
1319 Clouds 1 1017 80 10000 3.09 260 22:20 18.03.2021
1320 Clouds 1 1018 80 10000 2.57 270 21:39 18.03.2021
1321 Clouds 1 1018 75 10000 2.57 260 20:54 18.03.2021
1322 Clouds 2 1018 69 10000 1.03 0 20:35 18.03.2021
1323 Clouds 1 1018 80 10000 1.54 150 19:58 18.03.2021
1324 Clouds 2 1018 80 10000 1.54 150 19:40 18.03.2021
1325 Clouds 2 1018 65 10000 1.54 170 19:19 18.03.2021
1326 Clouds 4 1019 65 10000 3.6 360 18:35 18.03.2021
1327 Clouds 5 1019 48 10000 2.57 310 17:51 18.03.2021
1328 Clouds 5 1019 49 10000 2.57 10 17:26 18.03.2021
1329 Clouds 5 1019 49 10000 1.54 0 16:49 18.03.2021
1330 Clouds 6 1020 52 10000 3.6 290 16:30 18.03.2021
1331 Clouds 6 1020 56 10000 4.12 280 15:49 18.03.2021
1332 Clouds 6 1020 60 10000 4.12 320 15:29 18.03.2021
1333 Clouds 5 1021 70 9000 5.14 350 14:58 18.03.2021
1334 Clouds 5 1021 70 9000 5.14 350 14:40 18.03.2021
1335 Clouds 5 1021 70 9000 5.14 350 14:40 18.03.2021
1336 Rain 5 1021 52 10000 1.03 0 13:54 18.03.2021
1337 Rain 5 1022 56 10000 2.06 0 13:27 18.03.2021
1338 Clouds 5 1022 60 10000 1.03 0 12:46 18.03.2021
1339 Clouds 4 1022 60 10000 1.54 320 12:28 18.03.2021
1340 Clouds 4 1023 65 10000 2.06 300 11:55 18.03.2021
1341 Clouds 4 1023 65 10000 2.06 300 11:34 18.03.2021
1342 Clouds 4 1023 65 10000 1.03 0 10:51 18.03.2021
1343 Clouds 3 1023 65 10000 1.54 160 10:29 18.03.2021
1344 Clouds 3 1023 70 10000 1.03 0 09:58 18.03.2021
1345 Clouds 3 1023 70 10000 1.54 350 09:30 18.03.2021
1346 Clouds 2 1023 70 10000 1.03 0 08:59 18.03.2021
1347 Snow 2 1023 70 10000 1.03 0 08:41 18.03.2021
1348 Snow 1 1023 80 10000 1.03 290 08:23 18.03.2021
1349 Snow 0 1023 86 10000 1.03 0 07:43 18.03.2021
1350 Snow 0 1023 86 10000 2.06 330 06:40 18.03.2021
1351 Snow 0 1023 86 10000 1.03 0 06:22 18.03.2021
1352 Clouds 0 1023 86 10000 0.51 0 05:25 18.03.2021
1353 Clouds 0 1023 86 10000 1.54 330 00:40 18.03.2021
1354 Clouds 1 1023 86 10000 0.51 0 23:19 17.03.2021
1355 Clouds 1 1023 86 10000 1.54 310 22:38 17.03.2021
1356 Clouds 1 1023 86 10000 2.06 310 22:20 17.03.2021
1357 Clouds 1 1023 86 10000 3.09 320 21:50 17.03.2021
1358 Snow 1 1023 86 10000 1.54 300 21:31 17.03.2021
1359 Snow 1 1023 86 10000 1.54 300 21:31 17.03.2021
1360 Clouds 1 1023 86 10000 3.6 300 20:48 17.03.2021
1361 Snow 1 1023 86 10000 3.6 290 20:27 17.03.2021
1362 Snow 2 1022 87 7000 2.57 350 19:58 17.03.2021
1363 Snow 2 1022 87 7000 2.57 350 19:39 17.03.2021
1364 Rain 2 1022 93 10000 1.03 0 19:19 17.03.2021
1365 Rain 2 1022 93 10000 2.06 360 18:49 17.03.2021
1366 Clouds 2 1021 93 10000 2.57 20 18:31 17.03.2021
1367 Clouds 2 1021 93 10000 2.57 350 17:42 17.03.2021
1368 Clouds 2 1021 93 10000 4.12 360 17:22 17.03.2021
1369 Clouds 3 1021 75 10000 4.12 300 16:43 17.03.2021
1370 Rain 4 1020 81 10000 3.6 300 16:21 17.03.2021
1371 Clouds 4 1020 81 10000 1.03 0 15:46 17.03.2021
1372 Clouds 4 1021 87 10000 0.51 0 15:28 17.03.2021
1373 Clouds 3 1021 93 10000 3.09 10 14:40 17.03.2021
1374 Snow 3 1021 93 7000 3.6 360 14:20 17.03.2021
1375 Rain 4 1021 81 10000 2.57 30 13:55 17.03.2021
1376 Rain 4 1021 75 10000 3.09 60 13:25 17.03.2021
1377 Rain 5 1021 70 10000 5.14 50 12:49 17.03.2021
1378 Rain 5 1021 56 10000 2.06 0 12:28 17.03.2021
1379 Clouds 6 1021 60 10000 3.09 310 11:43 17.03.2021
1380 Clouds 5 1022 61 10000 2.57 270 11:23 17.03.2021
1381 Clouds 5 1022 65 10000 2.06 350 10:53 17.03.2021
1382 Clouds 4 1022 81 10000 2.57 330 10:24 17.03.2021
1383 Clouds 4 1022 87 10000 2.57 340 09:47 17.03.2021
1384 Clouds 3 1022 87 10000 3.09 340 09:21 17.03.2021
1385 Rain 3 1022 93 10000 3.6 350 08:56 17.03.2021
1386 Rain 3 1022 93 10000 3.6 350 08:36 17.03.2021
1387 Clouds 2 1021 93 10000 4.12 330 07:48 17.03.2021
1388 Clouds 2 1021 93 10000 3.09 330 07:30 17.03.2021
1389 Clouds 2 1021 93 10000 3.6 320 06:42 17.03.2021
1390 Clouds 3 1020 93 10000 1.03 0 04:21 17.03.2021
1391 Clouds 3 1020 93 10000 2.57 260 02:50 17.03.2021
1392 Clouds 3 1021 87 10000 2.57 270 00:40 17.03.2021
1393 Clouds 3 1022 87 10000 2.06 260 23:33 16.03.2021
1394 Rain 3 1022 87 10000 1.54 220 22:51 16.03.2021
1395 Rain 3 1022 87 10000 1.54 220 22:33 16.03.2021
1396 Clouds 3 1022 87 10000 2.06 230 21:51 16.03.2021
1397 Rain 3 1022 87 10000 2.06 250 21:32 16.03.2021
1398 Rain 3 1022 87 10000 1.54 250 20:59 16.03.2021
1399 Rain 3 1022 87 10000 1.54 250 20:41 16.03.2021
1400 Rain 3 1022 87 10000 2.57 0 20:18 16.03.2021
1401 Clouds 4 1022 75 10000 2.06 250 19:42 16.03.2021
1402 Clouds 4 1022 81 10000 3.09 280 19:23 16.03.2021
1403 Clouds 4 1022 75 10000 3.09 250 18:45 16.03.2021
1404 Snow 4 1022 75 10000 8.23 270 18:27 16.03.2021
1405 Rain 6 1022 65 10000 5.66 250 17:50 16.03.2021
1406 Rain 6 1022 65 10000 5.66 250 17:32 16.03.2021
1407 Clouds 6 1022 53 10000 6.17 280 16:53 16.03.2021
1408 Clouds 7 1022 56 10000 5.14 270 16:31 16.03.2021
1409 Clouds 7 1022 61 10000 5.66 280 15:47 16.03.2021
1410 Clouds 7 1022 53 10000 4.63 310 15:22 16.03.2021
1411 Clouds 6 1023 56 10000 5.14 310 14:59 16.03.2021
1412 Clouds 6 1023 56 10000 5.14 310 14:40 16.03.2021
1413 Clouds 6 1023 65 10000 4.63 300 14:21 16.03.2021
1414 Clouds 5 1023 70 10000 5.66 300 13:55 16.03.2021
1415 Clouds 5 1023 75 10000 3.6 290 13:28 16.03.2021
1416 Rain 5 1023 75 10000 5.14 310 12:55 16.03.2021
1417 Clouds 5 1023 81 10000 3.6 300 12:36 16.03.2021
1418 Clouds 4 1023 93 10000 4.12 290 11:55 16.03.2021
1419 Clouds 4 1023 87 10000 5.14 310 11:30 16.03.2021
1420 Clouds 4 1023 75 10000 5.66 290 10:46 16.03.2021
1421 Clouds 4 1022 75 10000 5.66 300 10:20 16.03.2021
1422 Clouds 4 1022 81 10000 4.63 300 09:40 16.03.2021
1423 Clouds 3 1023 90 4546 0.89 289 09:20 16.03.2021
1424 Clouds 3 1022 81 10000 7.72 280 08:52 16.03.2021
1425 Rain 3 1021 81 10000 6.69 290 08:33 16.03.2021
1426 Clouds 3 1021 75 10000 6.69 290 07:51 16.03.2021
1427 Clouds 3 1021 75 10000 5.66 290 07:24 16.03.2021
1428 Clouds 3 1020 75 10000 6.69 280 06:38 16.03.2021
1429 Clouds 3 1020 75 10000 6.17 280 05:36 16.03.2021
1430 Clouds 4 1019 75 10000 5.66 300 02:46 16.03.2021
1431 Clouds 4 1019 75 10000 4.12 300 02:25 16.03.2021
1432 Clouds 4 1018 75 10000 6.69 320 00:38 16.03.2021
1433 Clouds 4 1017 81 10000 5.66 290 23:54 15.03.2021
1434 Clouds 4 1017 81 10000 6.17 280 23:19 15.03.2021
1435 Clouds 4 1017 81 10000 5.14 280 22:43 15.03.2021
1436 Clouds 4 1016 81 10000 5.66 280 22:24 15.03.2021
1437 Clouds 4 1016 81 10000 5.66 270 21:49 15.03.2021
1438 Clouds 4 1016 81 10000 5.14 270 21:28 15.03.2021
1439 Clouds 3 1016 81 10000 4.63 270 20:54 15.03.2021
1440 Clouds 3 1016 81 10000 4.63 270 20:36 15.03.2021
1441 Clouds 4 1015 75 10000 4.12 280 20:18 15.03.2021
1442 Clouds 4 1015 87 10000 3.6 290 19:43 15.03.2021
1443 Clouds 4 1015 87 10000 5.14 310 19:22 15.03.2021
1444 Clouds 5 1014 75 10000 6.69 340 18:47 15.03.2021
1445 Clouds 6 1013 61 10000 2.57 300 18:23 15.03.2021
1446 Clouds 7 1013 61 10000 5.66 320 17:55 15.03.2021
1447 Clouds 8 1013 57 10000 7.2 300 17:28 15.03.2021
1448 Clouds 8 1013 57 10000 5.66 320 16:49 15.03.2021
1449 Clouds 8 1012 57 10000 7.2 310 16:20 15.03.2021
1450 Clouds 8 1012 61 10000 7.72 330 15:39 15.03.2021
1451 Clouds 8 1012 61 10000 7.72 320 15:20 15.03.2021
1452 Clouds 7 1011 81 10000 9.26 310 14:41 15.03.2021
1453 Clouds 7 1011 81 10000 9.26 310 14:21 15.03.2021
1454 Clouds 6 1011 81 10000 9.26 310 13:46 15.03.2021
1455 Clouds 6 1011 81 10000 7.2 290 13:24 15.03.2021
1456 Clouds 5 1011 87 10000 7.72 280 12:47 15.03.2021
1457 Clouds 5 1011 93 10000 6.17 260 12:18 15.03.2021
1458 Rain 5 1011 87 10000 6.69 270 11:48 15.03.2021
1459 Clouds 4 1011 93 10000 5.14 250 11:30 15.03.2021
1460 Rain 4 1010 87 10000 5.14 250 10:49 15.03.2021
1461 Clouds 4 1010 87 10000 5.14 240 10:30 15.03.2021
1462 Clouds 3 1010 87 10000 3.6 220 09:52 15.03.2021
1463 Clouds 3 1010 93 7000 4.63 230 09:33 15.03.2021
1464 Rain 3 1010 87 10000 4.12 220 08:52 15.03.2021
1465 Rain 3 1010 87 10000 3.6 200 08:30 15.03.2021
1466 Rain 3 1010 87 10000 3.6 200 08:30 15.03.2021
1467 Rain 3 1011 93 10000 3.6 200 07:53 15.03.2021
1468 Clouds 3 1011 87 10000 3.09 200 07:32 15.03.2021
1469 Snow 3 1011 87 10000 2.57 210 06:40 15.03.2021
1470 Snow 2 1012 93 10000 2.57 220 05:32 15.03.2021
1471 Clouds 3 1015 93 10000 2.06 230 01:31 15.03.2021
1472 Clouds 3 1015 93 10000 3.09 240 23:56 14.03.2021
1473 Clouds 3 1015 93 10000 1.54 0 23:20 14.03.2021
1474 Clouds 3 1015 93 10000 1.54 210 22:46 14.03.2021
1475 Clouds 3 1015 87 10000 1.54 230 22:23 14.03.2021
1476 Clouds 3 1015 87 10000 3.6 250 21:45 14.03.2021
1477 Rain 3 1015 87 10000 3.09 230 21:19 14.03.2021
1478 Clouds 3 1014 87 10000 3.6 240 20:49 14.03.2021
1479 Clouds 3 1014 87 10000 1.54 230 20:26 14.03.2021
1480 Clouds 3 1014 87 10000 1.54 210 19:48 14.03.2021
1481 Clouds 3 1014 81 10000 1.54 230 19:23 14.03.2021
1482 Clouds 4 1014 81 10000 4.12 260 18:49 14.03.2021
1483 Clouds 4 1013 81 10000 5.14 280 18:27 14.03.2021
1484 Clouds 4 1013 81 10000 4.12 280 17:41 14.03.2021
1485 Clouds 4 1013 81 8000 5.66 290 17:22 14.03.2021
1486 Clouds 3 1013 81 10000 5.14 260 16:49 14.03.2021
1487 Clouds 3 1012 87 10000 4.63 270 16:28 14.03.2021
1488 Clouds 4 1012 87 10000 2.06 130 15:56 14.03.2021
1489 Rain 4 1012 87 10000 2.06 180 15:36 14.03.2021
1490 Rain 4 1012 87 10000 2.57 250 14:41 14.03.2021
1491 Rain 4 1012 87 10000 5.14 260 14:23 14.03.2021
1492 Rain 6 1012 65 10000 5.66 250 13:49 14.03.2021
1493 Rain 6 1012 61 10000 5.14 250 13:29 14.03.2021
1494 Clouds 6 1012 61 10000 5.14 260 12:47 14.03.2021
1495 Clouds 6 1012 65 10000 6.69 260 12:28 14.03.2021
1496 Clouds 5 1012 70 10000 5.14 240 11:54 14.03.2021
1497 Clouds 5 1013 75 10000 4.63 250 11:36 14.03.2021
1498 Clouds 5 1012 75 10000 3.6 240 10:58 14.03.2021
1499 Clouds 4 1012 75 10000 3.6 240 10:37 14.03.2021
1500 Clouds 4 1012 75 10000 4.12 240 10:18 14.03.2021
1501 Clouds 4 1012 81 10000 4.63 250 09:44 14.03.2021
1502 Clouds 4 1012 81 10000 3.6 230 09:23 14.03.2021
1503 Clouds 3 1011 87 10000 4.63 250 08:49 14.03.2021
1504 Clouds 3 1011 87 10000 5.14 250 08:31 14.03.2021
1505 Clouds 3 1010 87 10000 3.6 240 07:48 14.03.2021
1506 Clouds 3 1010 87 10000 3.6 240 07:48 14.03.2021
1507 Clouds 2 1009 93 10000 4.12 240 07:20 14.03.2021
1508 Clouds 3 1007 93 10000 2.06 220 05:33 14.03.2021
1509 Clouds 3 1005 87 10000 3.6 210 00:53 14.03.2021
1510 Clouds 3 1005 87 10000 3.6 220 00:20 14.03.2021
1511 Clouds 3 1005 87 10000 6.69 250 23:57 13.03.2021
1512 Rain 4 1005 87 10000 7.2 240 23:36 13.03.2021
1513 Rain 4 1004 81 10000 3.6 220 22:58 13.03.2021
1514 Rain 4 1004 81 10000 3.6 220 22:40 13.03.2021
1515 Clouds 5 1004 81 10000 3.09 220 21:50 13.03.2021
1516 Clouds 5 1005 87 10000 3.09 210 21:27 13.03.2021
1517 Clouds 5 1005 81 10000 3.09 230 20:55 13.03.2021
1518 Clouds 5 1005 81 10000 3.09 230 20:32 13.03.2021
1519 Rain 5 1005 81 10000 4.63 220 19:56 13.03.2021
1520 Rain 5 1005 81 10000 4.63 220 19:36 13.03.2021
1521 Clouds 5 1004 87 10000 5.14 210 19:18 13.03.2021
1522 Clouds 5 1004 87 10000 5.14 210 19:18 13.03.2021
1523 Clouds 5 1004 87 10000 5.66 200 18:40 13.03.2021
1524 Clouds 5 1004 87 10000 6.17 220 18:19 13.03.2021
1525 Clouds 5 1004 81 10000 7.2 210 17:46 13.03.2021
1526 Clouds 5 1005 81 10000 5.66 220 17:27 13.03.2021
1527 Rain 6 1005 81 10000 6.69 230 16:51 13.03.2021
1528 Rain 6 1005 87 10000 8.75 250 16:31 13.03.2021
1529 Rain 6 1005 87 10000 8.23 250 15:47 13.03.2021
1530 Rain 6 1003 66 10000 11.83 250 14:56 13.03.2021
1531 Rain 7 1003 66 10000 11.83 250 14:38 13.03.2021
1532 Rain 11 1002 57 10000 11.32 240 14:18 13.03.2021
1533 Rain 11 1003 50 10000 8.23 230 13:26 13.03.2021
1534 Rain 11 1003 53 10000 7.72 220 12:48 13.03.2021
1535 Clouds 11 1003 53 10000 9.26 230 12:29 13.03.2021
1536 Clouds 10 1003 50 10000 8.75 220 11:52 13.03.2021
1537 Clouds 10 1003 50 10000 8.75 210 11:31 13.03.2021
1538 Clouds 10 1004 50 10000 7.72 220 10:56 13.03.2021
1539 Clouds 10 1004 50 10000 8.75 210 10:31 13.03.2021
1540 Clouds 9 1005 57 10000 8.23 220 09:57 13.03.2021
1541 Clouds 9 1005 61 10000 4.63 190 09:31 13.03.2021
1542 Clouds 9 1006 61 10000 5.66 200 08:53 13.03.2021
1543 Clouds 8 1006 65 10000 5.66 210 08:20 13.03.2021
1544 Clouds 7 1006 65 10000 5.66 210 07:57 13.03.2021
1545 Clouds 7 1007 70 10000 6.69 220 07:28 13.03.2021
1546 Clouds 6 1008 81 10000 4.12 200 04:45 13.03.2021
1547 Rain 4 1010 87 10000 1.54 230 01:22 13.03.2021
1548 Rain 4 1011 87 10000 3.6 280 00:24 13.03.2021
1549 Rain 4 1011 87 10000 8.75 290 23:33 12.03.2021
1550 Rain 6 1010 61 10000 4.63 210 22:57 12.03.2021
1551 Clouds 7 1010 61 10000 5.14 210 22:30 12.03.2021
1552 Clouds 7 1010 61 10000 4.63 210 21:56 12.03.2021
1553 Clouds 7 1010 61 10000 4.63 210 21:37 12.03.2021
1554 Clouds 7 1010 61 10000 5.14 210 21:37 12.03.2021
1555 Clouds 7 1010 61 10000 5.14 210 21:18 12.03.2021
1556 Clouds 7 1010 61 10000 4.12 210 20:47 12.03.2021
1557 Clouds 8 1010 61 10000 3.09 210 20:22 12.03.2021
1558 Clouds 8 1011 61 10000 3.09 210 19:44 12.03.2021
1559 Clouds 8 1011 65 10000 2.57 210 19:25 12.03.2021
1560 Clouds 8 1010 61 10000 3.6 230 18:47 12.03.2021
1561 Clouds 8 1010 61 10000 5.14 240 18:25 12.03.2021
1562 Clouds 9 1011 61 10000 5.14 230 17:44 12.03.2021
1563 Clouds 9 1011 61 10000 5.66 220 17:26 12.03.2021
1564 Clouds 9 1012 66 10000 4.12 240 16:44 12.03.2021
1565 Clouds 10 1012 49 10000 5.66 240 16:24 12.03.2021
1566 Clouds 10 1012 43 10000 5.66 240 15:38 12.03.2021
1567 Clouds 10 1013 53 10000 5.66 220 14:58 12.03.2021
1568 Clouds 10 1013 61 10000 6.69 230 14:38 12.03.2021
1569 Clouds 10 1013 61 10000 6.69 230 14:18 12.03.2021
1570 Clouds 10 1013 61 10000 5.66 220 13:38 12.03.2021
1571 Clouds 10 1013 66 10000 5.14 210 13:19 12.03.2021
1572 Clouds 9 1014 61 10000 6.69 260 12:49 12.03.2021
1573 Clouds 9 1014 66 10000 6.17 260 12:28 12.03.2021
1574 Clouds 8 1014 65 10000 5.66 230 11:54 12.03.2021
1575 Clouds 8 1014 61 10000 5.14 220 11:25 12.03.2021
1576 Clouds 7 1014 65 10000 5.66 230 10:57 12.03.2021
1577 Clouds 7 1014 65 10000 4.63 230 10:28 12.03.2021
1578 Clouds 7 1014 70 10000 3.09 220 09:58 12.03.2021
1579 Clouds 6 1014 70 10000 3.6 230 09:28 12.03.2021
1580 Clouds 6 1014 75 10000 3.6 220 08:51 12.03.2021
1581 Clouds 6 1014 75 10000 3.6 220 08:33 12.03.2021
1582 Clouds 5 1013 70 10000 4.63 250 07:41 12.03.2021
1583 Clouds 5 1013 65 10000 2.57 220 07:19 12.03.2021
1584 Clouds 5 1013 70 10000 5.14 250 06:40 12.03.2021
1585 Clouds 5 1013 70 10000 6.17 280 05:43 12.03.2021
1586 Clouds 6 1010 87 10000 5.14 210 00:52 12.03.2021
1587 Clouds 6 1009 81 10000 4.63 220 23:40 11.03.2021
1588 Rain 7 1009 87 10000 9.26 250 22:58 11.03.2021
1589 Rain 7 1009 87 10000 9.26 250 22:38 11.03.2021
1590 Rain 7 1008 87 8000 11.32 270 22:18 11.03.2021
1591 Rain 7 1008 87 8000 9.77 280 21:46 11.03.2021
1592 Rain 7 1007 81 10000 12.86 290 21:22 11.03.2021
1593 Rain 9 1006 76 10000 8.75 240 20:49 11.03.2021
1594 Clear 10 1005 76 10000 4.63 220 20:22 11.03.2021
1595 Clouds 10 1005 81 10000 4.12 220 19:53 11.03.2021
1596 Clouds 10 1005 76 10000 5.66 220 19:34 11.03.2021
1597 Clouds 10 1005 76 10000 7.2 240 18:52 11.03.2021
1598 Clouds 10 1005 76 10000 8.23 240 18:34 11.03.2021
1599 Rain 10 1005 76 10000 6.69 250 17:53 11.03.2021
1600 Rain 11 1005 76 10000 6.69 250 17:32 11.03.2021
1601 Rain 12 1005 71 10000 9.26 250 16:37 11.03.2021
1602 Rain 13 1005 67 10000 8.75 240 16:19 11.03.2021
1603 Rain 13 1005 71 10000 9.26 240 15:39 11.03.2021
1604 Rain 13 1005 76 10000 6.69 230 15:20 11.03.2021
1605 Rain 13 1006 76 10000 7.72 220 14:44 11.03.2021
1606 Rain 13 1006 76 10000 7.2 220 14:18 11.03.2021
1607 Rain 12 1006 76 10000 6.69 230 13:45 11.03.2021
1608 Rain 13 1007 71 10000 8.23 240 13:22 11.03.2021
1609 Rain 13 1007 58 10000 7.2 230 12:54 11.03.2021
1610 Rain 13 1006 58 10000 7.2 220 12:29 11.03.2021
1611 Clouds 13 1007 58 10000 5.14 210 11:48 11.03.2021
1612 Clouds 13 1007 58 10000 6.69 220 11:30 11.03.2021
1613 Clouds 12 1007 58 10000 6.69 210 10:56 11.03.2021
1614 Clouds 12 1008 58 10000 6.17 200 10:27 11.03.2021
1615 Clouds 12 1008 58 10000 6.69 210 09:52 11.03.2021
1616 Clouds 11 1008 58 10000 6.69 210 09:33 11.03.2021
1617 Clouds 10 1008 62 10000 6.17 220 08:51 11.03.2021
1618 Clouds 10 1008 62 10000 6.17 220 08:32 11.03.2021
1619 Clouds 9 1008 66 10000 6.17 220 07:50 11.03.2021
1620 Clouds 9 1009 66 10000 5.66 220 07:21 11.03.2021
1621 Clouds 9 1009 61 10000 5.14 230 06:47 11.03.2021
1622 Clouds 9 1009 61 10000 4.12 0 06:23 11.03.2021
1623 Clear 6 1013 53 10000 2.06 210 02:31 11.03.2021
1624 -273 0 0 0 0 0 00:33 11.03.2021
1625 -273 0 0 0 0 0 00:33 11.03.2021
1626 Rain 6 1015 65 10000 1.03 160 23:23 10.03.2021
1627 Clear 5 1015 65 10000 2.43 195 22:42 10.03.2021
1628 Clear 5 1015 65 10000 1.03 150 22:21 10.03.2021
1629 Clear 5 1016 65 10000 1.03 100 21:44 10.03.2021
1630 Clear 5 1016 65 10000 1.03 100 21:44 10.03.2021
1631 Clear 5 1016 65 10000 1.03 120 21:23 10.03.2021
1632 Clear 5 1016 65 10000 0.51 0 20:46 10.03.2021
1633 Clear 5 1017 60 10000 0.51 150 20:27 10.03.2021
1634 Clouds 5 1017 60 10000 1.03 120 19:49 10.03.2021
1635 Clouds 6 1017 56 10000 1.03 120 19:28 10.03.2021
1636 Clouds 7 1017 52 10000 0.51 0 18:46 10.03.2021
1637 Clouds 8 1017 53 10000 1.03 260 18:24 10.03.2021
1638 Clouds 8 1017 53 10000 1.03 260 18:24 10.03.2021
1639 Clouds 8 1017 49 10000 1.54 250 17:56 10.03.2021
1640 Clouds 9 1018 43 10000 2.57 230 17:37 10.03.2021
1641 Clouds 9 1018 43 10000 2.57 230 17:19 10.03.2021
1642 Clouds 9 1018 43 10000 2.06 270 16:42 10.03.2021
1643 Clouds 9 1018 46 10000 3.6 270 16:23 10.03.2021
1644 Clouds 9 1018 43 10000 2.57 210 15:46 10.03.2021
1645 Clouds 9 1019 43 10000 1.54 220 15:23 10.03.2021
1646 Clouds 9 1019 49 10000 2.06 260 14:56 10.03.2021
1647 Clouds 9 1019 49 10000 2.57 230 14:20 10.03.2021
1648 Clouds 9 1019 49 10000 3.6 290 13:52 10.03.2021
1649 Clouds 8 1020 49 10000 3.6 250 13:30 10.03.2021
1650 Clouds 8 1020 57 10000 3.09 300 12:46 10.03.2021
1651 Clouds 8 1020 57 10000 3.09 300 12:46 10.03.2021
1652 Clouds 8 1020 57 10000 3.09 260 12:23 10.03.2021
1653 Clouds 8 1020 65 10000 3.09 240 11:47 10.03.2021
1654 Clouds 7 1020 70 10000 3.6 250 11:21 10.03.2021
1655 Clouds 7 1020 75 10000 3.6 240 10:50 10.03.2021
1656 Clouds 6 1020 75 10000 3.09 240 10:31 10.03.2021
1657 Clouds 5 1020 81 10000 3.09 250 09:55 10.03.2021
1658 Clouds 5 1020 81 10000 3.09 250 09:37 10.03.2021
1659 Clouds 4 1020 81 10000 2.06 260 09:18 10.03.2021
1660 Clouds 4 1020 87 10000 2.06 240 08:42 10.03.2021
1661 Clouds 4 1019 87 10000 2.06 260 08:23 10.03.2021
1662 Clouds 4 1019 87 8000 2.06 240 07:42 10.03.2021
1663 Clouds 3 1019 93 8000 1.54 240 07:21 10.03.2021
1664 Clouds 3 1019 93 7000 3.09 260 06:49 10.03.2021
1665 Clouds 3 1018 93 10000 1.54 250 02:43 10.03.2021
1666 Clouds 4 1018 81 10000 2.06 220 00:27 10.03.2021
1667 Clouds 4 1018 81 10000 1.54 220 23:33 09.03.2021
1668 Clouds 4 1018 75 10000 2.06 230 22:52 09.03.2021
1669 Clouds 4 1018 75 10000 3.6 270 22:34 09.03.2021
1670 Clouds 4 1018 70 10000 3.09 280 21:58 09.03.2021
1671 Rain 5 1018 70 10000 4.63 290 21:38 09.03.2021
1672 Rain 5 1018 70 10000 4.63 290 21:20 09.03.2021
1673 Clouds 5 1018 60 10000 4.63 300 20:55 09.03.2021
1674 Rain 5 1018 60 10000 4.63 300 20:36 09.03.2021
1675 Rain 5 1018 60 10000 2.57 310 20:18 09.03.2021
1676 Clouds 6 1017 60 10000 2.06 290 19:43 09.03.2021
1677 Clouds 5 1017 60 10000 1.03 0 19:24 09.03.2021
1678 Clouds 6 1017 56 10000 1.54 10 18:40 09.03.2021
1679 Clouds 6 1017 56 10000 2.57 360 18:18 09.03.2021
1680 Clouds 6 1016 56 10000 2.57 360 17:45 09.03.2021
1681 Clouds 7 1016 56 10000 3.09 20 17:24 09.03.2021
1682 Clouds 7 1016 53 10000 4.12 360 16:40 09.03.2021
1683 Clouds 7 1016 49 10000 2.06 30 16:21 09.03.2021
1684 Clouds 7 1016 45 10000 2.57 0 15:56 09.03.2021
1685 Clouds 8 1016 42 10000 1.03 0 15:25 09.03.2021
1686 Clouds 8 1016 42 10000 1.54 170 14:49 09.03.2021
1687 Clouds 7 1016 45 10000 1.03 0 14:26 09.03.2021
1688 Clouds 7 1017 42 10000 1.03 0 13:42 09.03.2021
1689 Clouds 7 1017 49 10000 1.03 0 13:21 09.03.2021
1690 Clouds 6 1017 53 10000 1.03 0 12:54 09.03.2021
1691 Clouds 5 1017 60 10000 1.03 0 12:35 09.03.2021
1692 Clear 5 1017 65 10000 1.03 0 11:44 09.03.2021
1693 Clear 4 1017 70 10000 1.03 0 11:22 09.03.2021
1694 Clear 4 1018 70 10000 1.03 0 10:59 09.03.2021
1695 Clear 3 1018 70 10000 1.03 0 10:39 09.03.2021
1696 Clear 2 1018 75 10000 0.51 0 10:20 09.03.2021
1697 Clear 2 1018 75 10000 0.51 0 09:46 09.03.2021
1698 Clear 0 1018 80 10000 0.51 0 09:27 09.03.2021
1699 Clear -1 1018 80 10000 0.51 0 08:57 09.03.2021
1700 Clear -2 1017 86 10000 0.51 150 08:33 09.03.2021
1701 Clear -2 1017 86 10000 1.03 0 07:47 09.03.2021
1702 Clear -4 1017 86 10000 0.51 0 07:27 09.03.2021
1703 Clear -3 1017 86 10000 0.51 0 06:59 09.03.2021
1704 Clear -3 1017 86 10000 1.54 280 05:53 09.03.2021
1705 Clear -2 1018 74 10000 1.03 0 01:42 09.03.2021
1706 Clear -1 1019 74 10000 0.51 270 23:58 08.03.2021
1707 Clear 0 1019 74 10000 0.51 270 23:39 08.03.2021
1708 Clear 0 1019 74 10000 0.51 0 23:19 08.03.2021
1709 Clear 0 1019 74 10000 0.51 50 22:40 08.03.2021
1710 Clear 0 1019 74 10000 0.51 50 22:40 08.03.2021
1711 Clear 0 1019 74 10000 1.54 70 22:21 08.03.2021
1712 Clear 1 1019 74 10000 2.57 60 21:50 08.03.2021
1713 Clear 1 1019 74 10000 2.57 60 21:50 08.03.2021
1714 Clear 1 1019 69 10000 2.57 60 21:30 08.03.2021
1715 Clear 2 1019 64 10000 2.57 70 20:44 08.03.2021
1716 Clear 2 1019 64 10000 3.6 30 20:23 08.03.2021
1717 Clear 3 1019 56 10000 2.57 20 19:53 08.03.2021
1718 Clear 3 1019 52 10000 2.57 10 19:27 08.03.2021
1719 Clear 4 1019 52 10000 2.57 10 18:38 08.03.2021
1720 Clear 5 1019 48 10000 3.09 10 18:20 08.03.2021
1721 Clear 6 1019 42 10000 3.6 20 17:50 08.03.2021
1722 Clear 7 1019 39 10000 3.09 20 17:25 08.03.2021
1723 Clouds 7 1019 42 10000 2.57 10 16:46 08.03.2021
1724 Clouds 8 1019 36 10000 2.57 360 16:27 08.03.2021
1725 Clouds 8 1019 42 10000 2.06 360 15:49 08.03.2021
1726 Clouds 7 1019 42 10000 3.09 0 15:26 08.03.2021
1727 Clouds 8 1019 42 10000 2.57 60 14:43 08.03.2021
1728 Clouds 7 1020 42 10000 2.57 30 14:20 08.03.2021
1729 Clouds 7 1020 45 10000 3.6 20 13:38 08.03.2021
1730 Clouds 6 1020 45 10000 1.54 0 13:19 08.03.2021
1731 Clouds 6 1021 52 10000 2.06 0 12:42 08.03.2021
1732 Clouds 6 1021 52 10000 2.06 0 12:42 08.03.2021
1733 Clouds 5 1021 52 10000 2.06 60 12:23 08.03.2021
1734 Clear 5 1021 56 10000 2.57 60 11:40 08.03.2021
1735 Clear 4 1021 60 10000 1.54 0 11:19 08.03.2021
1736 Clear 3 1021 64 10000 2.06 10 10:43 08.03.2021
1737 Clear 2 1021 69 10000 2.06 50 10:24 08.03.2021
1738 Clear 1 1021 69 10000 2.06 20 09:41 08.03.2021
1739 Clear 1 1021 60 10000 1.03 0 09:22 08.03.2021
1740 Clear -2 1020 74 10000 0.51 0 08:28 08.03.2021
1741 Clear -4 1020 80 10000 0.51 0 07:24 08.03.2021
1742 Clear -4 1020 80 10000 1.03 340 06:44 08.03.2021
1743 Clear -3 1019 86 10000 0.51 0 03:39 08.03.2021
1744 Clear -1 1019 69 10000 2.06 270 00:45 08.03.2021
1745 Clouds -1 1020 74 10000 2.06 270 23:59 07.03.2021
1746 Clouds -1 1020 74 10000 2.06 270 23:39 07.03.2021
1747 Clouds -1 1020 74 10000 1.03 0 23:20 07.03.2021
1748 Clouds 0 1020 69 10000 1.03 0 22:44 07.03.2021
1749 Clouds 1 1019 65 10000 1.03 300 22:26 07.03.2021
1750 Clouds 2 1020 65 10000 1.03 300 21:45 07.03.2021
1751 Clouds 2 1019 65 10000 2.06 300 21:26 07.03.2021
1752 Clear 2 1019 60 10000 1.03 270 20:49 07.03.2021
1753 Clear 2 1021 70 10000 0.99 336 20:31 07.03.2021
1754 Clear 3 1019 56 10000 2.57 340 19:57 07.03.2021
1755 Clear 4 1019 52 10000 2.57 330 19:39 07.03.2021
1756 Clear 4 1019 52 10000 2.57 330 19:20 07.03.2021
1757 Clear 6 1019 49 10000 3.09 350 18:44 07.03.2021
1758 Clear 6 1018 49 10000 2.57 10 18:20 07.03.2021
1759 Clear 8 1018 46 10000 3.09 30 17:42 07.03.2021
1760 Clear 8 1019 46 10000 2.57 40 17:21 07.03.2021
1761 Clear 8 1019 46 10000 2.06 40 16:59 07.03.2021
1762 Clear 8 1019 46 10000 2.06 40 16:39 07.03.2021
1763 Clear 8 1019 46 10000 2.06 40 16:39 07.03.2021
1764 Clear 9 1019 43 10000 3.09 10 16:19 07.03.2021
1765 Clear 9 1020 46 10000 2.57 10 15:45 07.03.2021
1766 Clear 9 1020 43 10000 3.6 360 15:24 07.03.2021
1767 Clear 9 1020 43 10000 3.6 20 14:39 07.03.2021
1768 Clear 9 1021 43 10000 3.09 30 14:21 07.03.2021
1769 Clouds 8 1021 49 10000 3.09 50 13:42 07.03.2021
1770 Clouds 8 1021 49 10000 3.09 50 13:23 07.03.2021
1771 Clouds 7 1022 49 10000 1.54 0 12:47 07.03.2021
1772 Clouds 7 1022 49 10000 1.54 0 12:29 07.03.2021
1773 Clouds 6 1022 52 10000 1.03 0 11:49 07.03.2021
1774 Clouds 6 1022 52 10000 1.03 0 11:22 07.03.2021
1775 Clouds 5 1023 56 10000 1.03 0 10:50 07.03.2021
1776 Clouds 4 1023 60 10000 0.51 0 10:31 07.03.2021
1777 Clouds 2 1023 60 10000 0.51 0 09:51 07.03.2021
1778 Clear 1 1023 55 10000 1.03 0 09:26 07.03.2021
1779 Clear 0 1023 59 10000 0.51 0 08:48 07.03.2021
1780 Clear -1 1023 69 10000 1.03 0 08:25 07.03.2021
1781 Clear -3 1023 80 10000 1.03 0 07:51 07.03.2021
1782 Clear -3 1026 68 10000 1.03 0 02:44 07.03.2021
1783 Clear -2 1026 68 10000 1.03 0 01:45 07.03.2021
1784 Clear -2 1027 64 10000 1.03 60 00:24 07.03.2021
1785 Clear -2 1027 64 10000 0.51 350 23:39 06.03.2021
1786 Clear -1 1027 59 10000 1.03 0 22:57 06.03.2021
1787 Clear -1 1027 59 10000 1.03 0 22:38 06.03.2021
1788 Clear -1 1027 59 10000 1.54 360 22:19 06.03.2021
1789 Clear 0 1027 55 10000 0.51 0 21:40 06.03.2021
1790 Clear 0 1027 55 10000 0.51 0 21:20 06.03.2021
1791 Clear 1 1027 59 10000 0.51 0 20:41 06.03.2021
1792 Clear 2 1027 48 10000 1.54 100 19:51 06.03.2021
1793 Clear 2 1028 51 10000 1.54 110 19:25 06.03.2021
1794 Clear 4 1027 45 10000 2.06 130 18:57 06.03.2021
1795 Clear 5 1027 42 10000 3.09 100 18:39 06.03.2021
1796 Clear 5 1027 42 10000 3.09 100 18:20 06.03.2021
1797 Clear 7 1027 36 10000 3.09 90 17:47 06.03.2021
1798 Clear 7 1027 33 10000 3.09 90 17:26 06.03.2021
1799 Clear 7 1028 33 10000 4.63 80 16:53 06.03.2021
1800 Clear 7 1028 33 10000 5.66 80 16:31 06.03.2021
1801 Clear 8 1028 31 10000 3.6 100 15:55 06.03.2021
1802 Clear 8 1028 31 10000 3.6 100 15:34 06.03.2021
1803 Clear 7 1029 31 10000 4.63 100 14:57 06.03.2021
1804 Clear 7 1029 36 10000 6.17 90 14:31 06.03.2021
1805 Clear 7 1029 36 10000 5.14 80 13:50 06.03.2021
1806 Clear 7 1029 36 10000 5.14 80 13:32 06.03.2021
1807 Clear 6 1030 42 10000 5.66 70 12:58 06.03.2021
1808 Clear 6 1030 42 10000 5.66 70 12:38 06.03.2021
1809 Clear 5 1030 45 10000 5.14 80 12:18 06.03.2021
1810 Clear 4 1030 52 10000 5.14 80 11:29 06.03.2021
1811 Clear 3 1030 55 10000 4.12 80 10:59 06.03.2021
1812 Clear 3 1030 55 10000 4.12 80 10:41 06.03.2021
1813 Clouds 2 1030 64 10000 4.12 80 09:56 06.03.2021
1814 Clear 1 1030 64 10000 3.6 80 09:24 06.03.2021
1815 Clear 0 1030 69 10000 1.03 0 08:54 06.03.2021
1816 Clear -1 1030 64 10000 1.03 0 08:30 06.03.2021
1817 Clear -1 1030 64 10000 1.03 0 08:30 06.03.2021
1818 Clear -2 1029 68 10000 0.51 0 07:43 06.03.2021
1819 Clear -4 1029 68 10000 2.06 40 07:21 06.03.2021
1820 Clear -4 1029 68 10000 2.06 60 05:52 06.03.2021
1821 Clear -3 1029 74 10000 1.03 80 03:47 06.03.2021
1822 Clear -2 1030 74 10000 2.57 80 01:33 06.03.2021
1823 Clear -1 1030 74 10000 3.09 50 00:46 06.03.2021
1824 Clear -1 1029 74 10000 3.09 50 23:48 05.03.2021
1825 Clear 0 1029 69 10000 3.6 50 23:19 05.03.2021
1826 Clear 0 1029 69 10000 4.12 40 22:43 05.03.2021
1827 Clear 0 1029 69 10000 3.6 40 22:21 05.03.2021
1828 Clear 0 1028 74 10000 3.6 50 21:51 05.03.2021
1829 Clear 1 1028 75 10000 3.6 40 21:29 05.03.2021
1830 Clear 1 1028 80 10000 3.09 30 20:50 05.03.2021
1831 Clouds 2 1028 75 10000 3.09 40 20:25 05.03.2021
1832 Clouds 2 1027 80 10000 2.57 50 19:54 05.03.2021
1833 Clouds 2 1027 87 10000 2.57 70 19:26 05.03.2021
1834 Clouds 3 1026 80 10000 3.6 80 18:55 05.03.2021
1835 Clouds 3 1026 80 10000 4.12 60 18:36 05.03.2021
1836 Clouds 3 1026 80 10000 4.12 60 18:18 05.03.2021
1837 Rain 3 1025 75 10000 5.66 50 17:33 05.03.2021
1838 Clouds 4 1025 75 10000 3.09 30 16:45 05.03.2021
1839 Clouds 4 1024 75 10000 4.12 360 16:24 05.03.2021
1840 Clouds 4 1024 70 10000 3.09 20 15:56 05.03.2021
1841 Clouds 5 1023 65 10000 3.09 350 15:37 05.03.2021
1842 Clouds 5 1023 65 10000 3.09 350 15:18 05.03.2021
1843 Clouds 5 1023 70 10000 3.09 350 14:38 05.03.2021
1844 Clouds 5 1023 75 10000 3.6 340 13:55 05.03.2021
1845 Clouds 5 1023 75 10000 3.6 340 13:55 05.03.2021
1846 Clouds 4 1023 75 10000 4.63 350 13:22 05.03.2021
1847 Clouds 4 1023 81 10000 3.09 350 12:49 05.03.2021
1848 Clouds 4 1022 87 10000 3.6 350 11:54 05.03.2021
1849 Clouds 4 1022 87 10000 3.6 350 11:36 05.03.2021
1850 Clouds 3 1022 87 10000 3.6 350 11:18 05.03.2021
1851 Rain 3 1022 87 10000 3.6 350 10:40 05.03.2021
1852 Snow 3 1022 87 10000 4.12 360 10:22 05.03.2021
1853 Snow 3 1021 87 10000 4.12 350 09:47 05.03.2021
1854 Clouds 3 1021 93 10000 4.63 350 09:26 05.03.2021
1855 Clouds 3 1021 93 10000 4.12 340 08:41 05.03.2021
1856 Clouds 3 1020 93 10000 4.63 350 08:22 05.03.2021
1857 Clouds 3 1020 93 9000 3.6 330 07:43 05.03.2021
1858 Clouds 3 1020 93 8000 3.6 340 07:19 05.03.2021
1859 Clouds 3 1019 93 7000 4.12 310 06:31 05.03.2021
1860 Clouds 5 1017 93 10000 3.09 260 01:59 05.03.2021
1861 Clouds 7 1017 93 10000 3.09 250 00:34 05.03.2021
1862 Clouds 7 1017 87 10000 4.12 250 23:37 04.03.2021
1863 Rain 7 1017 87 10000 3.09 240 22:40 04.03.2021
1864 Clouds 7 1017 87 10000 4.63 280 22:22 04.03.2021
1865 Rain 7 1017 81 10000 7.2 280 21:47 04.03.2021
1866 Rain 8 1016 76 10000 7.72 290 21:27 04.03.2021
1867 Clouds 9 1016 62 10000 6.17 270 20:41 04.03.2021
1868 Clear 9 1016 57 10000 4.12 240 20:23 04.03.2021
1869 Clear 10 1016 54 10000 3.6 240 19:57 04.03.2021
1870 Clear 10 1016 54 10000 3.6 240 19:38 04.03.2021
1871 Clouds 11 1016 54 10000 3.09 230 19:18 04.03.2021
1872 Clear 11 1016 54 10000 2.06 230 18:41 04.03.2021
1873 Clear 11 1016 54 10000 2.06 230 18:23 04.03.2021
1874 Clear 11 1016 54 10000 2.57 230 17:46 04.03.2021
1875 Clouds 12 1017 50 10000 2.57 210 17:27 04.03.2021
1876 Clouds 13 1017 54 10000 5.14 270 16:46 04.03.2021
1877 Rain 13 1017 50 10000 3.09 250 16:25 04.03.2021
1878 Rain 13 1017 50 10000 4.63 260 15:50 04.03.2021
1879 Rain 13 1017 44 10000 3.6 240 15:31 04.03.2021
1880 Rain 14 1017 41 10000 3.09 230 14:48 04.03.2021
1881 Clear 15 1018 41 10000 3.6 270 14:26 04.03.2021
1882 Clear 15 1018 41 10000 3.6 270 13:47 04.03.2021
1883 Clear 15 1018 41 10000 3.6 270 13:29 04.03.2021
1884 Clear 15 1019 38 10000 3.6 260 12:53 04.03.2021
1885 Rain 15 1019 38 10000 3.6 260 12:35 04.03.2021
1886 Clear 14 1019 44 10000 3.09 220 11:47 04.03.2021
1887 Clear 13 1020 44 10000 3.6 240 11:25 04.03.2021
1888 Clear 12 1020 43 10000 2.57 230 10:47 04.03.2021
1889 Clear 11 1020 46 10000 2.06 240 10:26 04.03.2021
1890 Clouds 10 1021 50 10000 2.06 0 09:42 04.03.2021
1891 Clouds 8 1021 57 10000 1.03 0 09:21 04.03.2021
1892 Clouds 7 1021 61 10000 1.03 230 08:35 04.03.2021
1893 Clear 5 1021 61 10000 1.54 260 07:53 04.03.2021
1894 Clear 5 1021 65 10000 1.03 0 07:29 04.03.2021
1895 Clear 5 1022 70 10000 1.03 0 06:24 04.03.2021
1896 Clear 5 1022 81 10000 1.03 340 05:27 04.03.2021
1897 Clear 6 1024 75 10000 1.03 150 01:41 04.03.2021
1898 Clear 7 1026 70 10000 0.51 0 22:44 03.03.2021
1899 Clear 7 1026 70 10000 0.51 0 22:26 03.03.2021
1900 Clear 8 1026 76 10000 1.03 0 21:45 03.03.2021
1901 Clear 8 1026 71 10000 0.51 0 21:24 03.03.2021
1902 Rain 8 1026 66 10000 0.51 310 20:59 03.03.2021
1903 Rain 8 1026 66 10000 0.51 310 20:41 03.03.2021
1904 Rain 8 1027 76 10000 1.54 300 20:19 03.03.2021
1905 Rain 8 1027 76 10000 1.54 300 20:19 03.03.2021
1906 Clear 8 1027 76 10000 1.54 250 19:42 03.03.2021
1907 Clear 9 1027 66 10000 0.51 0 19:23 03.03.2021
1908 Clear 9 1027 66 10000 0.51 0 18:48 03.03.2021
1909 Clear 10 1027 62 10000 0.51 140 18:29 03.03.2021
1910 Clear 11 1027 66 10000 1.03 0 17:54 03.03.2021
1911 Clear 12 1027 62 10000 0.51 0 17:20 03.03.2021
1912 Clear 12 1027 54 10000 0.51 0 16:44 03.03.2021
1913 Clear 12 1028 50 10000 1.03 0 16:26 03.03.2021
1914 Clear 13 1028 50 10000 1.54 70 15:45 03.03.2021
1915 Clear 13 1028 54 10000 1.03 0 15:27 03.03.2021
1916 Clear 12 1029 58 10000 1.03 0 14:34 03.03.2021
1917 Clear 12 1029 62 10000 1.54 60 13:59 03.03.2021
1918 Clear 11 1029 62 10000 1.54 60 13:38 03.03.2021
1919 Clear 11 1029 66 10000 1.54 80 13:18 03.03.2021
1920 Clear 11 1030 61 10000 1.54 80 12:41 03.03.2021
1921 Clear 10 1030 66 10000 1.54 90 12:22 03.03.2021
1922 Clear 8 1030 75 10000 1.03 0 11:44 03.03.2021
1923 Clear 8 1030 75 10000 1.03 0 11:22 03.03.2021
1924 Clear 6 1030 81 10000 1.03 0 10:44 03.03.2021
1925 Clear 5 1030 87 10000 0.51 0 10:21 03.03.2021
1926 Clear 5 1030 87 10000 1.03 0 09:41 03.03.2021
1927 Clear 5 1030 86 10000 0.51 250 08:51 03.03.2021
1928 Clear 3 1030 93 10000 0.51 0 08:23 03.03.2021
1929 Clear 3 1030 93 10000 0.51 290 07:53 03.03.2021
1930 Clear 2 1030 93 10000 0.51 60 07:26 03.03.2021
1931 Clear 1 1030 93 10000 1.03 60 06:21 03.03.2021
1932 Clear 1 1030 93 10000 0.51 0 05:44 03.03.2021
1933 Clear 3 1030 86 10000 1.03 0 04:36 03.03.2021
1934 Clear 2 1030 86 10000 0.51 0 03:53 03.03.2021
1935 Clear 3 1031 80 10000 2.57 270 00:19 03.03.2021
1936 Clear 4 1031 81 10000 1.54 300 23:34 02.03.2021
1937 Clear 5 1031 75 10000 0.51 0 22:52 02.03.2021
1938 Clear 5 1031 81 10000 1.54 260 22:22 02.03.2021
1939 Clear 4 1031 75 10000 1.03 270 21:51 02.03.2021
1940 Clear 5 1031 70 10000 1.03 250 21:33 02.03.2021
1941 Clear 6 1031 65 10000 1.03 250 20:56 02.03.2021
1942 Clear 6 1031 65 10000 1.03 250 20:38 02.03.2021
1943 Clear 7 1031 65 10000 1.03 0 20:20 02.03.2021
1944 Clear 8 1031 57 10000 2.06 310 19:46 02.03.2021
1945 Clear 9 1031 53 10000 2.06 330 19:28 02.03.2021
1946 Clear 10 1030 43 10000 2.06 340 18:42 02.03.2021
1947 Clear 12 1030 44 10000 2.06 350 18:21 02.03.2021
1948 Clear 12 1030 41 10000 3.09 360 17:57 02.03.2021
1949 Clear 12 1030 41 10000 3.09 360 17:39 02.03.2021
1950 Clear 13 1030 41 10000 3.09 360 17:19 02.03.2021
1951 Clear 13 1030 41 10000 3.09 360 17:19 02.03.2021
1952 Clear 15 1030 36 10000 2.57 20 16:45 02.03.2021
1953 Clear 15 1030 33 10000 1.03 0 15:54 02.03.2021
1954 Clear 15 1030 36 10000 1.03 0 15:27 02.03.2021
1955 Clear 15 1031 33 10000 1.03 0 14:50 02.03.2021
1956 Clear 15 1031 36 10000 1.03 0 14:19 02.03.2021
1957 Clear 14 1031 41 10000 0.51 0 13:47 02.03.2021
1958 Clear 14 1031 47 10000 1.03 0 13:25 02.03.2021
1959 Clear 13 1031 50 10000 1.03 0 12:47 02.03.2021
1960 Clear 12 1032 57 10000 1.54 100 12:25 02.03.2021
1961 Clear 11 1032 57 10000 1.54 0 11:47 02.03.2021
1962 Clear 10 1032 65 10000 1.54 0 11:23 02.03.2021
1963 Clear 8 1032 70 10000 1.54 100 10:53 02.03.2021
1964 Clear 7 1032 70 10000 1.03 0 10:29 02.03.2021
1965 Clear 6 1031 70 10000 1.03 0 09:43 02.03.2021
1966 Clear 4 1031 75 10000 1.03 0 09:24 02.03.2021
1967 Clear 4 1031 75 10000 0.51 70 08:54 02.03.2021
1968 Clear 2 1031 86 10000 0.51 0 08:33 02.03.2021
1969 Clear 1 1031 93 10000 0.51 60 07:46 02.03.2021
1970 Clear -1 1031 93 10000 1.03 80 06:37 02.03.2021
1971 Clear 0 1030 86 10000 0.51 0 05:52 02.03.2021
1972 Clear 0 1030 86 10000 0.51 0 05:32 02.03.2021
1973 Clear 0 1030 86 10000 0.51 0 04:37 02.03.2021
1974 Clear 1 1030 69 10000 1.54 310 01:43 02.03.2021
1975 Clear 2 1030 80 10000 2.06 270 01:21 02.03.2021
1976 Clear 1 1030 80 10000 2.06 270 01:21 02.03.2021
1977 Clear 3 1030 70 10000 1.03 0 23:37 01.03.2021
1978 Clear 3 1030 70 10000 1.03 0 23:19 01.03.2021
1979 Clear 4 1030 70 10000 1.54 270 22:38 01.03.2021
1980 Clear 3 1030 75 10000 2.57 270 22:19 01.03.2021
1981 Clear 5 1030 65 10000 0.51 0 21:41 01.03.2021
1982 Clear 5 1030 61 10000 1.03 0 21:23 01.03.2021
1983 Clear 6 1030 61 10000 2.06 290 20:45 01.03.2021
1984 Clear 6 1030 57 10000 1.03 0 20:26 01.03.2021
1985 Clear 7 1030 57 10000 0.51 0 19:45 01.03.2021
1986 Clear 8 1030 57 10000 2.06 100 19:26 01.03.2021
1987 Clear 9 1029 49 10000 3.6 80 18:43 01.03.2021
1988 Clear 11 1029 43 10000 4.12 90 18:23 01.03.2021
1989 Clear 12 1029 37 10000 5.66 80 17:48 01.03.2021
1990 Clear 12 1029 38 10000 4.63 80 17:23 01.03.2021
1991 Clear 12 1029 38 10000 4.12 80 16:47 01.03.2021
1992 Clear 12 1029 38 10000 4.12 80 16:47 01.03.2021
1993 Clear 14 1029 38 10000 4.63 100 16:29 01.03.2021
1994 Clear 12 1029 38 10000 5.14 90 15:56 01.03.2021
1995 Clear 14 1029 38 10000 5.14 90 15:36 01.03.2021
1996 Clear 13 1029 38 10000 5.14 80 15:18 01.03.2021
1997 Clear 14 1029 35 10000 6.17 80 14:40 01.03.2021
1998 Clear 13 1030 35 10000 6.17 70 14:21 01.03.2021
1999 Clear 12 1030 30 10000 5.14 70 13:38 01.03.2021
2000 Clear 12 1030 35 10000 4.12 80 13:20 01.03.2021
2001 Clear 12 1031 37 10000 4.12 80 12:42 01.03.2021
2002 Clear 11 1031 46 10000 2.57 80 12:24 01.03.2021
2003 Clear 10 1031 49 10000 3.6 80 11:57 01.03.2021
2004 Clear 9 1031 57 10000 3.09 80 11:29 01.03.2021
2005 Clear 6 1031 65 10000 3.09 70 10:42 01.03.2021
2006 Clear 6 1031 70 10000 2.57 70 10:22 01.03.2021
2007 Clear 4 1031 70 10000 0.51 0 09:53 01.03.2021
2008 Clear 4 1031 60 10000 0.51 0 09:34 01.03.2021
2009 Clear 2 1031 69 10000 0.51 0 08:56 01.03.2021
2010 Clear 2 1031 69 10000 0.51 0 08:32 01.03.2021
2011 Clear -1 1031 86 10000 1.03 300 07:33 01.03.2021
2012 Clear -2 1031 86 10000 0.51 320 06:25 01.03.2021
2013 Clear -1 1031 80 10000 1.03 290 02:40 01.03.2021
2014 Clear 1 1031 74 10000 1.54 310 23:49 28.02.2021
2015 Clear 1 1032 80 10000 2.06 280 23:20 28.02.2021
2016 Clear 2 1032 75 10000 1.54 340 22:44 28.02.2021
2017 Clear 3 1032 69 10000 0.51 0 22:21 28.02.2021
2018 Clear 3 1032 70 10000 0.51 0 21:46 28.02.2021
2019 Clear 4 1032 70 10000 1.03 70 21:23 28.02.2021
2020 Clear 4 1032 65 10000 1.54 80 20:49 28.02.2021
2021 Clear 5 1032 60 10000 1.54 80 20:30 28.02.2021
2022 Clear 6 1032 60 10000 2.57 60 19:47 28.02.2021
2023 Clear 6 1031 61 10000 4.12 40 19:27 28.02.2021
2024 Clear 8 1031 57 10000 4.12 40 18:47 28.02.2021
2025 Clear 8 1031 53 10000 4.63 40 18:28 28.02.2021
2026 Clear 10 1031 46 10000 4.63 50 17:58 28.02.2021
2027 Clear 10 1031 46 10000 4.63 50 17:38 28.02.2021
2028 Clear 10 1031 46 10000 4.12 50 17:20 28.02.2021
2029 Clear 11 1031 40 10000 4.12 60 16:48 28.02.2021
2030 Clear 11 1031 43 10000 4.12 70 16:29 28.02.2021
2031 Clear 11 1031 43 10000 4.63 60 15:52 28.02.2021
2032 Clear 11 1031 43 10000 4.63 60 15:52 28.02.2021
2033 Clear 11 1032 46 10000 4.63 60 15:28 28.02.2021
2034 Clear 11 1032 46 10000 3.6 40 14:58 28.02.2021
2035 Clear 11 1032 46 10000 3.6 40 14:35 28.02.2021
2036 Clear 10 1033 53 10000 2.06 0 13:59 28.02.2021
2037 Clear 10 1033 53 10000 2.06 0 13:38 28.02.2021
2038 Clear 10 1033 53 10000 4.12 50 13:19 28.02.2021
2039 Clear 9 1033 57 10000 6.17 80 12:53 28.02.2021
2040 Clear 9 1033 57 10000 6.17 80 12:35 28.02.2021
2041 Clear 8 1034 65 10000 7.2 70 11:58 28.02.2021
2042 Clear 7 1034 65 10000 7.2 70 11:40 28.02.2021
2043 Clear 6 1034 70 10000 4.63 80 11:21 28.02.2021
2044 Clear 5 1034 70 10000 4.12 80 10:43 28.02.2021
2045 Clear 4 1034 75 10000 3.09 70 10:25 28.02.2021
2046 Clear 3 1034 80 10000 1.54 30 09:40 28.02.2021
2047 Clear 2 1034 80 10000 1.54 30 09:20 28.02.2021
2048 Clear 2 1034 75 10000 0.51 0 08:45 28.02.2021
2049 Clear 0 1034 86 10000 1.03 0 08:25 28.02.2021
2050 Clear -1 1034 93 10000 0.51 0 07:46 28.02.2021
2051 Clear -2 1034 93 10000 2.06 10 07:25 28.02.2021
2052 Clear -2 1034 93 10000 2.06 10 06:24 28.02.2021
2053 Clear -1 1034 86 10000 1.54 10 05:21 28.02.2021
2054 Clear 0 1035 86 10000 3.09 40 02:29 28.02.2021
2055 Clear 1 1035 86 10000 3.09 30 01:35 28.02.2021
2056 Clear 1 1035 86 10000 2.57 50 00:43 28.02.2021
2057 Clear 2 1035 80 10000 3.09 70 00:21 28.02.2021
2058 Clear 2 1035 86 10000 4.63 60 23:44 27.02.2021
2059 Clear 3 1035 80 10000 4.63 60 23:18 27.02.2021
2060 Clear 3 1035 80 10000 4.63 60 22:43 27.02.2021
2061 Clear 3 1035 75 10000 3.6 60 22:18 27.02.2021
2062 Clear 3 1035 70 10000 3.6 50 21:40 27.02.2021
2063 Clear 3 1035 75 10000 1.03 0 21:22 27.02.2021
2064 Clear 4 1035 70 10000 3.09 40 20:47 27.02.2021
2065 Clear 4 1035 70 10000 3.6 50 20:27 27.02.2021
2066 Clear 5 1035 70 10000 4.12 50 19:45 27.02.2021
2067 Clear 6 1035 65 10000 4.63 50 19:26 27.02.2021
2068 Clear 6 1035 65 10000 4.63 70 18:44 27.02.2021
2069 Clear 7 1035 57 10000 4.12 80 18:21 27.02.2021
2070 Clear 8 1035 53 10000 5.14 50 17:55 27.02.2021
2071 Clear 8 1035 53 10000 5.14 50 17:36 27.02.2021
2072 Clear 9 1035 46 10000 5.14 60 17:18 27.02.2021
2073 Clouds 9 1035 46 10000 5.14 50 16:48 27.02.2021
2074 Clouds 9 1035 49 10000 5.66 40 16:25 27.02.2021
2075 Clouds 10 1035 46 10000 5.14 50 15:41 27.02.2021
2076 Clouds 10 1035 46 10000 4.63 50 14:57 27.02.2021
2077 Clouds 10 1035 46 10000 4.63 50 14:39 27.02.2021
2078 Clouds 10 1036 46 10000 5.14 50 14:19 27.02.2021
2079 Clouds 9 1036 49 10000 5.66 50 13:39 27.02.2021
2080 Clouds 9 1036 49 10000 5.14 40 13:18 27.02.2021
2081 Clouds 8 1036 53 10000 5.66 30 12:45 27.02.2021
2082 Clouds 8 1036 57 10000 5.66 50 12:22 27.02.2021
2083 Clouds 7 1036 61 10000 6.69 30 11:46 27.02.2021
2084 Clouds 7 1036 61 10000 6.17 40 11:27 27.02.2021
2085 Clouds 7 1036 65 10000 5.14 30 10:50 27.02.2021
2086 Clouds 6 1036 70 10000 3.6 40 10:32 27.02.2021
2087 Clouds 4 1036 81 10000 3.09 40 09:52 27.02.2021
2088 Clouds 4 1036 87 10000 1.54 30 09:31 27.02.2021
2089 Clouds 3 1036 93 10000 1.54 360 08:43 27.02.2021
2090 Clouds 2 1035 93 10000 1.03 0 08:22 27.02.2021
2091 Clouds 2 1035 93 10000 0.51 0 07:43 27.02.2021
2092 Clouds 1 1035 93 10000 2.57 330 06:33 27.02.2021
2093 Clouds 4 1034 87 10000 2.57 350 01:22 27.02.2021
2094 Clouds 5 1034 87 10000 2.57 350 23:58 26.02.2021
2095 Clouds 5 1033 87 10000 3.09 350 23:40 26.02.2021
2096 Clouds 5 1033 87 10000 3.09 350 23:40 26.02.2021
2097 Clouds 5 1034 87 10000 4.12 350 23:18 26.02.2021
2098 Clouds 6 1033 93 10000 4.63 350 22:33 26.02.2021
2099 Clouds 6 1033 93 10000 6.17 350 21:53 26.02.2021
2100 Clouds 6 1033 93 10000 6.17 350 21:35 26.02.2021
2101 Rain 6 1032 93 6000 5.14 330 20:55 26.02.2021
2102 Rain 6 1032 93 8000 6.69 330 20:36 26.02.2021
2103 Rain 6 1032 93 8000 6.69 330 20:18 26.02.2021
2104 Clouds 7 1031 87 10000 5.66 320 19:26 26.02.2021
2105 Clouds 7 1031 87 10000 6.17 320 18:52 26.02.2021
2106 Clouds 9 1030 81 10000 6.17 310 18:24 26.02.2021
2107 Clouds 8 1030 87 10000 5.66 340 17:56 26.02.2021
2108 Clouds 8 1030 87 10000 5.66 340 17:36 26.02.2021
2109 Clouds 10 1030 81 8000 5.66 310 16:59 26.02.2021
2110 Clouds 10 1030 81 8000 5.66 310 16:41 26.02.2021
2111 Rain 11 1029 76 9000 5.66 330 16:22 26.02.2021
2112 Clear 12 1029 66 10000 5.66 330 15:43 26.02.2021
2113 Clear 12 1029 58 10000 6.17 340 15:23 26.02.2021
2114 Clear 13 1029 51 10000 4.12 340 14:52 26.02.2021
2115 Clear 14 1029 51 10000 4.12 340 14:34 26.02.2021
2116 Clear 14 1029 51 10000 5.14 360 13:52 26.02.2021
2117 Clear 14 1029 47 10000 3.6 10 13:33 26.02.2021
2118 Clear 15 1029 51 10000 2.57 60 12:57 26.02.2021
2119 Clear 14 1029 54 10000 1.03 0 12:28 26.02.2021
2120 Clear 13 1029 62 10000 1.54 110 11:43 26.02.2021
2121 Clear 12 1029 62 10000 1.54 110 11:20 26.02.2021
2122 Clear 11 1030 71 10000 1.03 0 10:37 26.02.2021
2123 Clear 8 1030 75 10000 1.03 0 09:48 26.02.2021
2124 Clear 7 1030 81 10000 1.03 0 09:28 26.02.2021
2125 Clear 7 1030 81 10000 1.03 90 08:39 26.02.2021
2126 Clear 4 1029 93 10000 0.51 80 07:58 26.02.2021
2127 Clear 5 1029 87 10000 1.03 0 07:24 26.02.2021
2128 Clear 4 1029 93 10000 0.51 0 06:35 26.02.2021
2129 Clear 6 1029 87 10000 1.54 30 05:20 26.02.2021
2130 Clear 6 1030 70 10000 0.51 0 02:41 26.02.2021
2131 Clear 6 1029 81 10000 1.03 0 00:33 26.02.2021
2132 Clear 7 1029 81 10000 2.57 270 23:41 25.02.2021
2133 Clear 7 1029 81 10000 2.06 280 23:21 25.02.2021
2134 Clear 7 1029 81 10000 2.57 250 22:42 25.02.2021
2135 Clear 8 1029 71 10000 2.57 250 21:56 25.02.2021
2136 Clear 9 1029 71 10000 2.57 250 21:35 25.02.2021
2137 Clear 9 1028 71 10000 1.54 250 20:58 25.02.2021
2138 Clear 9 1028 71 10000 1.54 250 20:38 25.02.2021
2139 Clear 10 1028 66 10000 1.03 0 20:20 25.02.2021
2140 Clear 11 1028 66 10000 1.54 290 19:49 25.02.2021
2141 Clear 13 1028 58 10000 1.54 310 19:21 25.02.2021
2142 Clear 14 1028 54 10000 1.54 330 18:56 25.02.2021
2143 Clear 15 1028 51 10000 2.57 350 18:19 25.02.2021
2144 Clear 17 1027 37 10000 1.54 250 17:46 25.02.2021
2145 Clear 19 1027 30 10000 0.51 0 17:25 25.02.2021
2146 Clear 19 1027 37 10000 1.03 0 16:42 25.02.2021
2147 Clear 20 1027 35 10000 1.54 130 16:24 25.02.2021
2148 Clear 20 1028 40 10000 2.06 130 15:30 25.02.2021
2149 Clear 20 1028 40 10000 3.09 140 14:49 25.02.2021
2150 Clear 19 1028 42 10000 2.57 130 14:22 25.02.2021
2151 Clear 19 1029 48 10000 1.54 90 13:51 25.02.2021
2152 Clear 18 1029 51 10000 1.54 130 13:25 25.02.2021
2153 Clear 17 1030 55 10000 1.54 130 12:50 25.02.2021
2154 Clear 16 1030 58 10000 1.03 0 12:21 25.02.2021
2155 Clear 15 1030 58 10000 1.03 0 11:45 25.02.2021
2156 Clear 14 1030 66 10000 1.03 0 11:19 25.02.2021
2157 Clear 13 1030 71 10000 0.51 120 10:44 25.02.2021
2158 Clear 11 1030 71 10000 0.51 0 10:23 25.02.2021
2159 Clear 10 1030 76 10000 0.51 0 09:42 25.02.2021
2160 Clear 6 1030 87 10000 0.51 0 08:55 25.02.2021
2161 Clear 5 1030 93 10000 0.51 120 08:25 25.02.2021
2162 Clear 5 1030 93 10000 1.03 0 07:56 25.02.2021
2163 Clear 5 1030 93 10000 1.54 60 07:31 25.02.2021
2164 Clear 4 1030 100 10000 1.03 80 06:53 25.02.2021
2165 Clear 7 1030 70 10000 1.03 220 01:59 25.02.2021
2166 Clear 8 1030 70 10000 1.03 220 01:37 25.02.2021
2167 Clear 7 1030 81 10000 0.51 150 00:41 25.02.2021
2168 Clear 8 1030 75 10000 2.06 270 23:53 24.02.2021
2169 Clear 9 1030 71 10000 1.54 300 23:28 24.02.2021
2170 Clear 9 1031 76 10000 1.54 270 22:45 24.02.2021
2171 Clear 9 1031 76 10000 1.54 280 22:25 24.02.2021
2172 Clear 9 1031 76 10000 0.51 0 21:46 24.02.2021
2173 Clear 11 1031 58 10000 1.54 80 20:59 24.02.2021
2174 Clear 11 1031 58 10000 1.54 80 20:40 24.02.2021
2175 Clear 12 1031 58 10000 1.54 60 20:20 24.02.2021
2176 Clear 13 1031 58 10000 2.06 160 19:36 24.02.2021
2177 Clear 13 1031 58 10000 2.06 160 19:18 24.02.2021
2178 Clear 14 1031 62 10000 1.54 150 18:39 24.02.2021
2179 Clear 15 1031 59 10000 1.03 140 18:21 24.02.2021
2180 Clear 18 1031 52 10000 1.03 100 17:38 24.02.2021
2181 Clear 18 1031 52 10000 1.54 100 17:19 24.02.2021
2182 Clear 20 1031 45 10000 1.54 70 16:44 24.02.2021
2183 Clear 20 1031 45 10000 1.54 90 16:19 24.02.2021
2184 Clear 20 1031 42 10000 1.54 90 15:40 24.02.2021
2185 Clear 20 1032 45 10000 1.54 130 14:57 24.02.2021
2186 Clear 20 1032 45 10000 1.54 130 14:35 24.02.2021
2187 Clear 19 1033 45 10000 1.54 110 13:59 24.02.2021
2188 Clear 19 1033 45 10000 1.54 110 13:40 24.02.2021
2189 Clear 18 1033 51 10000 1.54 130 13:21 24.02.2021
2190 Clear 17 1033 59 10000 1.54 90 12:45 24.02.2021
2191 Clear 16 1034 63 10000 1.54 100 12:26 24.02.2021
2192 Clear 15 1034 67 10000 1.03 0 11:47 24.02.2021
2193 Clear 13 1035 76 10000 1.03 0 10:57 24.02.2021
2194 Clear 10 1035 76 10000 1.03 0 10:32 24.02.2021
2195 Clear 10 1035 87 10000 0.51 0 09:50 24.02.2021
2196 Clear 8 1035 87 10000 0.51 0 09:20 24.02.2021
2197 Clear 8 1035 93 10000 0.51 0 08:35 24.02.2021
2198 Clear 6 1035 93 10000 1.03 0 07:57 24.02.2021
2199 Clear 6 1035 100 10000 0.51 80 07:20 24.02.2021
2200 Clear 6 1035 100 10000 1.03 60 06:42 24.02.2021
2201 Clear 8 1035 93 10000 0.51 90 03:40 24.02.2021
2202 Clear 8 1035 87 10000 0.51 0 00:43 24.02.2021
2203 Clear 8 1035 81 10000 1.03 280 23:29 23.02.2021
2204 Clear 8 1035 81 10000 0.51 0 22:40 23.02.2021
2205 Clear 10 1035 81 10000 1.03 0 22:20 23.02.2021
2206 Clear 9 1035 76 10000 1.54 310 21:46 23.02.2021
2207 Clear 9 1035 76 10000 0.51 0 21:24 23.02.2021
2208 Clear 10 1035 76 10000 1.54 280 20:49 23.02.2021
2209 Clear 11 1035 71 10000 1.03 0 20:30 23.02.2021
2210 Clear 11 1034 76 10000 1.54 280 19:49 23.02.2021
2211 Clear 11 1034 76 10000 2.06 270 19:29 23.02.2021
2212 Clear 13 1034 62 10000 0.51 0 18:59 23.02.2021
2213 Clear 13 1034 62 10000 0.51 0 18:41 23.02.2021
2214 Clear 14 1033 55 10000 0.51 0 18:20 23.02.2021
2215 Clear 16 1033 51 10000 0.51 300 17:46 23.02.2021
2216 Clear 18 1034 39 10000 1.03 310 17:25 23.02.2021
2217 Clear 19 1034 42 10000 1.54 360 16:43 23.02.2021
2218 Clear 19 1034 45 10000 1.03 0 16:20 23.02.2021
2219 Clear 19 1034 48 10000 1.54 70 15:44 23.02.2021
2220 Clear 19 1034 48 10000 1.54 90 15:25 23.02.2021
2221 Clear 19 1034 48 10000 1.54 70 14:46 23.02.2021
2222 Clear 19 1034 48 10000 1.54 100 14:27 23.02.2021
2223 Clear 18 1034 48 10000 1.03 0 13:59 23.02.2021
2224 Clear 18 1034 48 10000 1.03 0 13:34 23.02.2021
2225 Clear 17 1035 58 10000 1.03 0 12:57 23.02.2021
2226 Clear 15 1035 58 10000 0.51 0 12:23 23.02.2021
2227 Clear 15 1035 62 10000 1.03 0 11:52 23.02.2021
2228 Clear 13 1035 71 10000 1.03 0 11:26 23.02.2021
2229 Clear 12 1035 76 10000 1.03 0 10:54 23.02.2021
2230 Clear 11 1035 76 10000 1.03 0 10:36 23.02.2021
2231 Clear 9 1034 81 10000 0.51 0 09:57 23.02.2021
2232 Clear 7 1034 87 10000 0.51 0 09:36 23.02.2021
2233 Clear 7 1034 87 10000 0.51 0 09:18 23.02.2021
2234 Clear 6 1034 87 10000 0.51 60 08:43 23.02.2021
2235 Clear 5 1034 93 10000 0.51 70 08:20 23.02.2021
2236 Clear 4 1033 100 10000 1.03 0 06:52 23.02.2021
2237 Clear 3 1032 100 10000 0.51 0 05:22 23.02.2021
2238 Clear 5 1030 93 10000 1.03 0 02:37 23.02.2021
2239 Clear 5 1030 87 10000 0.51 310 01:55 23.02.2021
2240 Clear 6 1029 87 10000 2.06 280 00:19 23.02.2021
2241 Clear 6 1028 81 10000 1.03 210 23:28 22.02.2021
2242 Clear 6 1028 87 10000 1.54 310 22:42 22.02.2021
2243 Clear 7 1028 81 10000 1.03 0 22:21 22.02.2021
2244 Clear 7 1027 81 10000 1.54 270 21:56 22.02.2021
2245 Clear 7 1027 81 10000 2.06 350 21:38 22.02.2021
2246 Clear 8 1027 81 10000 2.06 350 21:19 22.02.2021
2247 Clear 7 1026 81 10000 2.06 290 20:43 22.02.2021
2248 Clear 8 1026 76 10000 1.54 280 20:24 22.02.2021
2249 Clear 9 1025 71 10000 1.54 290 19:44 22.02.2021
2250 Clear 10 1025 66 10000 2.06 290 19:26 22.02.2021
2251 Clear 11 1024 58 10000 1.54 300 18:47 22.02.2021
2252 Clear 13 1024 62 10000 0.51 0 18:29 22.02.2021
2253 Clear 13 1023 51 10000 2.06 350 17:49 22.02.2021
2254 Clear 15 1023 45 10000 2.57 360 17:20 22.02.2021
2255 Clear 16 1022 39 10000 2.06 360 16:48 22.02.2021
2256 Clear 16 1022 42 10000 2.06 50 16:29 22.02.2021
2257 Clear 17 1022 39 10000 1.54 90 15:31 22.02.2021
2258 Clear 17 1022 36 10000 0.51 0 14:53 22.02.2021
2259 Clear 16 1022 36 10000 0.51 0 14:35 22.02.2021
2260 Clear 15 1022 47 10000 1.03 0 13:54 22.02.2021
2261 Clear 14 1022 47 10000 1.03 0 13:33 22.02.2021
2262 Clear 12 1022 66 10000 1.54 100 12:48 22.02.2021
2263 Clear 12 1022 66 10000 1.54 90 12:23 22.02.2021
2264 Clear 11 1022 71 10000 1.54 70 11:52 22.02.2021
2265 Clear 10 1022 71 10000 1.54 60 11:31 22.02.2021
2266 Clear 9 1022 75 10000 1.03 0 10:59 22.02.2021
2267 Clear 8 1022 75 10000 1.03 0 10:39 22.02.2021
2268 Clear 6 1022 81 10000 1.03 0 10:19 22.02.2021
2269 Clear 5 1022 87 10000 0.51 0 09:37 22.02.2021
2270 Clear 4 1021 93 10000 0.51 0 09:19 22.02.2021
2271 Clear 4 1021 93 10000 1.03 0 08:49 22.02.2021
2272 Clear 3 1021 100 10000 1.03 0 08:20 22.02.2021
2273 Clear 2 1020 100 10000 1.03 0 07:42 22.02.2021
2274 Fog 2 1020 100 10000 0.51 0 07:20 22.02.2021
2275 Clear 2 1020 100 10000 0.51 0 06:26 22.02.2021
2276 Clear 4 1019 100 10000 2.06 70 04:25 22.02.2021
2277 Clear 4 1019 93 10000 0.51 360 03:22 22.02.2021
2278 Clear 5 1018 87 10000 0.51 0 00:54 22.02.2021
2279 Clear 5 1017 87 10000 0.51 0 00:29 22.02.2021
2280 Clear 6 1017 87 10000 0.51 0 23:55 21.02.2021
2281 Clear 6 1017 81 10000 1.54 100 23:23 21.02.2021
2282 Clear 7 1017 75 10000 1.54 100 22:30 21.02.2021
2283 Clear 7 1017 75 10000 1.54 90 21:52 21.02.2021
2284 Clear 7 1017 75 10000 1.54 90 21:52 21.02.2021
2285 Clear 8 1017 75 10000 1.54 90 21:34 21.02.2021
2286 Clear 8 1017 70 10000 1.54 70 21:34 21.02.2021
2287 Clear 9 1017 70 10000 2.57 70 20:58 21.02.2021
2288 Clear 9 1017 70 10000 2.57 70 20:38 21.02.2021
2289 Clear 10 1016 70 10000 2.57 70 20:18 21.02.2021
2290 Clear 9 1016 61 10000 2.57 80 19:44 21.02.2021
2291 Clear 10 1016 57 10000 3.09 80 19:24 21.02.2021
2292 Clear 11 1016 54 10000 3.6 90 18:39 21.02.2021
2293 Clear 12 1016 54 10000 3.6 90 18:21 21.02.2021
2294 Clear 17 1016 39 10000 4.12 80 17:28 21.02.2021
2295 Clear 18 1016 45 10000 4.12 90 16:55 21.02.2021
2296 Clear 20 1016 32 10000 3.6 70 16:33 21.02.2021
2297 Clear 19 1016 39 10000 3.09 90 15:54 21.02.2021
2298 Clear 19 1017 34 10000 2.06 70 15:21 21.02.2021
2299 Clear 18 1017 36 10000 1.54 70 14:42 21.02.2021
2300 Clear 18 1017 36 10000 1.54 70 14:42 21.02.2021
2301 Clear 18 1017 42 10000 1.54 80 14:22 21.02.2021
2302 Clear 17 1017 44 10000 1.54 90 13:46 21.02.2021
2303 Clear 16 1018 41 10000 1.54 90 13:23 21.02.2021
2304 Clear 14 1018 62 10000 1.03 0 12:31 21.02.2021
2305 Clear 12 1019 71 10000 1.03 0 11:45 21.02.2021
2306 Clear 11 1019 76 10000 1.03 0 11:20 21.02.2021
2307 Clear 8 1019 81 10000 1.03 0 10:25 21.02.2021
2308 Clear 6 1019 81 10000 1.03 80 09:57 21.02.2021
2309 Clear 6 1019 81 10000 1.03 80 09:35 21.02.2021
2310 Clear 4 1019 87 10000 0.51 0 08:59 21.02.2021
2311 Clear 3 1018 100 10000 1.03 50 08:30 21.02.2021
2312 Clear 3 1018 100 10000 0.51 40 07:40 21.02.2021
2313 Clear 2 1018 100 10000 1.03 60 07:19 21.02.2021
2314 Clear 5 1018 93 10000 1.03 110 04:54 21.02.2021
2315 Clear 6 1018 87 10000 0.51 0 02:31 21.02.2021
2316 Clear 5 1018 81 10000 1.54 280 00:52 21.02.2021
2317 Clear 6 1018 81 10000 1.03 300 00:20 21.02.2021
2318 Clear 7 1018 75 10000 1.03 0 23:29 20.02.2021
2319 Clear 7 1018 75 10000 0.51 0 22:54 20.02.2021
2320 Clear 7 1018 70 10000 0.51 0 22:31 20.02.2021
2321 Clear 8 1018 61 10000 0.51 0 21:47 20.02.2021
2322 Clear 8 1018 66 10000 0.51 0 21:27 20.02.2021
2323 Clear 9 1018 61 10000 0.51 0 20:54 20.02.2021
2324 Clear 9 1018 66 10000 1.03 0 20:35 20.02.2021
2325 Clear 10 1017 57 10000 0.51 0 19:59 20.02.2021
2326 Clear 10 1017 57 10000 0.51 0 19:40 20.02.2021
2327 Clear 11 1017 47 10000 1.54 160 18:48 20.02.2021
2328 Clear 12 1016 47 10000 2.06 150 18:29 20.02.2021
2329 Clear 15 1017 44 10000 2.06 160 17:47 20.02.2021
2330 Clear 16 1016 42 10000 2.06 150 17:28 20.02.2021
2331 Clear 18 1016 39 10000 3.6 150 16:48 20.02.2021
2332 Clear 19 1017 37 10000 3.6 150 16:23 20.02.2021
2333 Clear 19 1017 45 10000 2.06 150 15:41 20.02.2021
2334 Clear 17 1017 48 10000 1.03 0 14:52 20.02.2021
2335 Clear 17 1017 51 10000 1.03 0 14:25 20.02.2021
2336 Clear 16 1018 51 10000 1.54 80 13:58 20.02.2021
2337 Clear 16 1018 51 10000 1.54 80 13:39 20.02.2021
2338 Clear 15 1018 58 10000 1.54 130 13:20 20.02.2021
2339 Clear 13 1019 66 10000 1.54 130 12:36 20.02.2021
2340 Clear 12 1019 71 10000 1.54 130 11:54 20.02.2021
2341 Clear 12 1019 71 10000 1.54 130 11:35 20.02.2021
2342 Clear 10 1019 87 10000 1.03 0 10:52 20.02.2021
2343 Clear 9 1019 87 10000 0.51 0 10:27 20.02.2021
2344 Clear 7 1019 93 10000 0.51 0 09:47 20.02.2021
2345 Clear 5 1019 100 10000 0.51 0 08:56 20.02.2021
2346 Fog 4 1019 100 10000 1.03 280 08:25 20.02.2021
2347 Fog 2 1018 100 2500 1.03 310 07:50 20.02.2021
2348 Clear 5 1019 100 10000 0.51 0 02:32 20.02.2021
2349 Clear 5 1019 100 10000 0.51 70 02:32 20.02.2021
2350 Clear 5 1019 93 10000 1.03 270 01:59 20.02.2021
2351 Clear 6 1019 100 10000 0.51 0 01:18 20.02.2021
2352 Clear 6 1019 93 10000 0.51 30 00:39 20.02.2021
2353 Clear 7 1019 93 10000 0.51 0 23:41 19.02.2021
2354 Clear 6 1019 100 10000 0.51 0 22:48 19.02.2021
2355 Clear 6 1019 93 10000 0.51 80 22:26 19.02.2021
2356 Clear 6 1019 93 10000 0.51 0 21:47 19.02.2021
2357 Clear 6 1019 93 10000 0.51 0 21:28 19.02.2021
2358 Clear 6 1018 93 10000 1.03 90 20:47 19.02.2021
2359 Clear 7 1019 87 10000 1.03 0 20:27 19.02.2021
2360 Clear 8 1019 87 10000 0.51 0 19:50 19.02.2021
2361 Clear 8 1019 87 10000 0.51 0 19:20 19.02.2021
2362 Clear 9 1018 81 10000 1.03 140 18:54 19.02.2021
2363 Clear 9 1018 81 10000 1.03 140 18:31 19.02.2021
2364 Clear 11 1018 71 10000 2.06 150 17:48 19.02.2021
2365 Clouds 12 1019 66 10000 2.06 230 16:51 19.02.2021
2366 Clouds 12 1019 66 10000 2.57 190 16:23 19.02.2021
2367 Clouds 12 1019 66 10000 2.57 200 15:57 19.02.2021
2368 Clouds 12 1019 66 10000 2.57 200 15:57 19.02.2021
2369 Clouds 12 1019 66 10000 2.06 160 15:31 19.02.2021
2370 Clouds 12 1019 66 10000 2.06 150 14:56 19.02.2021
2371 Clouds 12 1019 66 10000 2.06 150 14:36 19.02.2021
2372 Clouds 11 1020 71 10000 1.54 190 13:58 19.02.2021
2373 Clouds 11 1020 71 10000 1.54 190 13:39 19.02.2021
2374 Clouds 11 1020 71 10000 1.54 140 13:19 19.02.2021
2375 Clouds 11 1020 71 10000 2.06 130 12:41 19.02.2021
2376 Clouds 10 1020 71 10000 2.06 140 12:22 19.02.2021
2377 Clouds 9 1020 81 10000 2.57 150 11:48 19.02.2021
2378 Clouds 9 1020 71 10000 1.54 170 11:22 19.02.2021
2379 Clouds 8 1020 76 10000 1.54 180 10:47 19.02.2021
2380 Clouds 7 1020 81 10000 0.51 0 10:21 19.02.2021
2381 Clouds 6 1020 87 10000 1.03 0 09:40 19.02.2021
2382 Clouds 6 1020 87 10000 1.03 0 09:22 19.02.2021
2383 Rain 6 1020 87 10000 2.06 190 08:50 19.02.2021
2384 Clouds 5 1019 93 10000 2.06 170 08:22 19.02.2021
2385 Clouds 5 1019 93 10000 1.54 170 07:48 19.02.2021
2386 Clouds 5 1019 93 10000 1.03 0 07:27 19.02.2021
2387 Clouds 6 1019 93 10000 1.03 0 06:53 19.02.2021
2388 Rain 6 1018 87 10000 1.54 240 05:27 19.02.2021
2389 Clouds 6 1018 87 10000 3.6 280 04:41 19.02.2021
2390 Clouds 9 1016 76 10000 4.12 220 01:47 19.02.2021
2391 Rain 8 1016 71 10000 3.6 230 00:37 19.02.2021
2392 Rain 8 1015 57 10000 2.57 240 23:55 18.02.2021
2393 Rain 8 1015 57 10000 3.6 220 23:35 18.02.2021
2394 Clear 8 1014 49 10000 2.06 220 22:50 18.02.2021
2395 Clear 7 1013 53 10000 1.54 220 22:29 18.02.2021
2396 Clear 7 1013 61 10000 1.54 240 21:48 18.02.2021
2397 Clear 7 1012 61 10000 1.03 0 21:25 18.02.2021
2398 Clear 8 1012 53 10000 1.03 0 20:44 18.02.2021
2399 Clear 8 1012 61 10000 2.57 160 20:24 18.02.2021
2400 Clear 9 1012 53 10000 1.54 120 19:47 18.02.2021
2401 Clouds 9 1012 49 10000 0.51 0 19:28 18.02.2021
2402 Clear 10 1012 50 10000 1.54 140 18:54 18.02.2021
2403 Clear 11 1012 53 10000 4.12 160 18:31 18.02.2021
2404 Clear 11 1013 47 10000 3.6 180 17:53 18.02.2021
2405 Clear 12 1013 50 10000 3.09 170 17:28 18.02.2021
2406 Clear 12 1013 54 10000 1.54 170 16:59 18.02.2021
2407 Clear 12 1013 54 10000 1.54 170 16:40 18.02.2021
2408 Clear 12 1013 71 10000 1.54 140 16:21 18.02.2021
2409 Clear 12 1014 76 10000 1.03 0 15:39 18.02.2021
2410 Clear 12 1014 76 10000 1.03 0 15:21 18.02.2021
2411 Clear 12 1014 71 10000 1.54 90 14:49 18.02.2021
2412 Clear 11 1015 66 10000 1.03 0 14:29 18.02.2021
2413 Clear 11 1015 66 10000 1.54 80 13:46 18.02.2021
2414 Clear 10 1015 71 10000 1.54 80 13:20 18.02.2021
2415 Clear 10 1016 76 10000 1.03 0 12:47 18.02.2021
2416 Clear 9 1016 76 10000 1.03 0 12:23 18.02.2021
2417 Clear 8 1016 75 10000 0.51 0 11:46 18.02.2021
2418 Clear 7 1017 87 10000 1.03 0 11:27 18.02.2021
2419 Clear 5 1017 87 10000 1.03 0 10:52 18.02.2021
2420 Clear 4 1017 93 10000 0.51 0 10:31 18.02.2021
2421 Clear 3 1017 100 10000 0.51 0 09:50 18.02.2021
2422 Clear 1 1017 93 10000 0.51 100 09:26 18.02.2021
2423 Clear 2 1017 100 10000 0.51 100 08:48 18.02.2021
2424 Clear 0 1018 100 10000 0.51 0 08:29 18.02.2021
2425 Clear 1 1018 100 10000 0.51 0 07:35 18.02.2021
2426 Clear 0 1018 100 10000 1.85 173 06:59 18.02.2021
2427 Clear 0 1019 100 10000 0.51 0 04:48 18.02.2021
2428 Clear 2 1021 93 10000 1.54 50 23:57 17.02.2021
2429 Clear 2 1021 93 10000 1.54 50 23:38 17.02.2021
2430 Clear 4 1021 87 10000 0.51 0 22:56 17.02.2021
2431 Clear 4 1021 87 10000 1.03 0 22:38 17.02.2021
2432 Clear 4 1021 87 10000 1.03 0 22:18 17.02.2021
2433 Clear 5 1021 81 10000 1.03 190 21:41 17.02.2021
2434 Clear 5 1021 81 10000 0.51 0 21:19 17.02.2021
2435 Clear 6 1021 81 10000 2.57 260 20:40 17.02.2021
2436 Clouds 7 1021 70 10000 1.03 250 19:56 17.02.2021
2437 Clouds 6 1021 70 10000 1.03 250 19:36 17.02.2021
2438 Clouds 8 1021 71 10000 1.54 250 18:57 17.02.2021
2439 Clouds 8 1021 71 10000 1.54 250 18:34 17.02.2021
2440 Clouds 9 1021 66 10000 3.09 260 17:47 17.02.2021
2441 Clouds 10 1021 58 10000 2.06 230 17:22 17.02.2021
2442 Clouds 10 1021 58 10000 3.09 240 16:52 17.02.2021
2443 Clouds 11 1021 58 10000 4.63 240 16:29 17.02.2021
2444 Clouds 11 1021 58 10000 3.6 250 15:59 17.02.2021
2445 Clouds 11 1021 58 10000 3.6 250 15:40 17.02.2021
2446 Clouds 12 1021 54 10000 5.14 240 15:21 17.02.2021
2447 Clouds 11 1021 58 10000 5.14 260 14:44 17.02.2021
2448 Clouds 10 1021 58 10000 5.66 250 14:25 17.02.2021
2449 Clouds 10 1021 58 10000 5.14 240 13:43 17.02.2021
2450 Clouds 10 1021 66 10000 4.12 220 12:59 17.02.2021
2451 Clouds 9 1022 71 10000 4.12 220 12:26 17.02.2021
2452 Clouds 9 1021 71 10000 4.12 210 11:59 17.02.2021
2453 Clouds 9 1021 71 10000 4.12 210 11:36 17.02.2021
2454 Clouds 8 1021 76 10000 4.63 220 11:18 17.02.2021
2455 Clouds 8 1021 76 10000 3.6 210 10:43 17.02.2021
2456 Clouds 7 1021 81 10000 3.6 200 10:21 17.02.2021
2457 Clouds 7 1021 81 10000 2.57 200 09:41 17.02.2021
2458 Clouds 7 1021 81 10000 2.57 210 09:19 17.02.2021
2459 Clouds 7 1021 81 10000 2.57 190 08:42 17.02.2021
2460 Clouds 6 1020 87 10000 1.54 250 08:21 17.02.2021
2461 Clouds 6 1020 87 10000 2.57 240 07:26 17.02.2021
2462 Clouds 7 1019 81 10000 3.09 230 05:53 17.02.2021
2463 Clouds 7 1018 87 10000 1.54 280 02:34 17.02.2021
2464 Rain 7 1017 81 10000 1.03 0 01:55 17.02.2021
2465 Clouds 6 1016 70 10000 1.03 0 00:33 17.02.2021
2466 Clouds 6 1016 70 10000 0.51 0 23:54 16.02.2021
2467 Clouds 5 1016 70 10000 0.51 0 23:34 16.02.2021
2468 Clear 4 1016 70 10000 3.09 270 22:43 16.02.2021
2469 Clear 4 1016 75 10000 1.03 0 22:25 16.02.2021
2470 Clear 4 1016 75 10000 1.03 0 21:54 16.02.2021
2471 Clear 4 1016 75 10000 1.03 0 21:36 16.02.2021
2472 Clear 5 1015 75 10000 1.03 0 21:18 16.02.2021
2473 Clear 5 1016 75 10000 1.54 290 20:41 16.02.2021
2474 Clear 5 1016 81 10000 2.06 240 20:20 16.02.2021
2475 Clear 6 1015 75 10000 2.06 230 19:42 16.02.2021
2476 Clear 7 1016 71 10000 2.57 190 19:23 16.02.2021
2477 Clear 9 1015 66 10000 2.57 180 18:40 16.02.2021
2478 Clear 9 1016 71 10000 2.06 190 18:22 16.02.2021
2479 Clear 9 1016 76 10000 1.54 150 17:52 16.02.2021
2480 Clear 10 1016 71 10000 0.51 0 17:27 16.02.2021
2481 Clear 10 1016 71 10000 1.03 0 16:51 16.02.2021
2482 Clear 10 1017 76 10000 1.54 80 16:29 16.02.2021
2483 Clear 11 1018 71 10000 1.54 120 15:47 16.02.2021
2484 Clear 12 1018 66 10000 2.06 140 15:29 16.02.2021
2485 Clear 12 1019 66 10000 2.06 130 14:56 16.02.2021
2486 Clear 11 1019 66 10000 2.06 130 14:38 16.02.2021
2487 Clear 11 1019 71 10000 1.54 140 14:19 16.02.2021
2488 Clouds 10 1020 71 10000 1.54 150 13:38 16.02.2021
2489 Clouds 10 1020 71 10000 1.54 140 12:52 16.02.2021
2490 Clear 9 1021 70 10000 2.06 140 12:26 16.02.2021
2491 Clouds 8 1021 81 10000 1.54 150 11:58 16.02.2021
2492 Clouds 8 1021 81 10000 1.54 150 11:38 16.02.2021
2493 Clouds 7 1022 81 10000 1.03 0 11:19 16.02.2021
2494 Clouds 5 1022 81 10000 1.54 140 10:45 16.02.2021
2495 Clouds 4 1022 87 10000 0.51 0 10:26 16.02.2021
2496 Clouds 4 1023 93 10000 0.51 0 09:50 16.02.2021
2497 Rain 4 1023 93 10000 1.03 70 09:26 16.02.2021
2498 Clouds 3 1023 93 10000 1.03 80 08:51 16.02.2021
2499 Clouds 3 1023 93 10000 1.03 70 08:26 16.02.2021
2500 Clouds 3 1023 93 10000 1.03 70 07:42 16.02.2021
2501 Clouds 3 1024 81 10000 1.54 60 06:25 16.02.2021
2502 Clouds 2 1026 93 10000 0.51 0 02:38 16.02.2021
2503 Rain 3 1026 75 10000 1.03 0 23:52 15.02.2021
2504 Clouds 2 1026 75 10000 0.51 0 23:27 15.02.2021
2505 Clouds 2 1026 80 10000 1.03 60 22:47 15.02.2021
2506 Clouds 2 1026 87 10000 1.03 0 22:27 15.02.2021
2507 Rain 2 1026 93 10000 2.06 170 21:44 15.02.2021
2508 Snow 2 1026 87 10000 1.03 0 21:24 15.02.2021
2509 Clouds 2 1026 87 10000 1.54 190 20:54 15.02.2021
2510 Clouds 1 1027 86 10000 1.54 270 20:36 15.02.2021
2511 Rain 2 1027 86 10000 1.03 80 19:51 15.02.2021
2512 Rain 2 1027 80 10000 0.51 0 19:26 15.02.2021
2513 Rain 2 1026 86 10000 2.57 150 18:57 15.02.2021
2514 Clouds 2 1027 75 10000 1.54 170 18:29 15.02.2021
2515 Rain 2 1027 70 10000 2.06 180 17:58 15.02.2021
2516 Rain 3 1027 70 10000 2.06 180 17:40 15.02.2021
2517 Rain 3 1028 60 10000 2.06 160 17:21 15.02.2021
2518 Rain 3 1028 60 10000 1.03 0 16:45 15.02.2021
2519 Rain 3 1028 60 10000 1.54 140 16:22 15.02.2021
2520 Rain 3 1028 60 10000 3.6 160 15:43 15.02.2021
2521 Rain 3 1029 60 10000 1.54 120 15:19 15.02.2021
2522 Rain 3 1029 52 10000 0.51 0 14:48 15.02.2021
2523 Clear 3 1029 52 10000 1.03 0 14:21 15.02.2021
2524 Clear 2 1030 55 10000 1.54 190 13:49 15.02.2021
2525 Clouds 2 1030 64 10000 2.06 130 13:22 15.02.2021
2526 Clouds 1 1031 55 10000 1.03 0 12:51 15.02.2021
2527 Clouds 1 1031 64 10000 2.06 140 12:27 15.02.2021
2528 Snow 0 1031 59 10000 2.06 140 11:53 15.02.2021
2529 Snow 0 1032 55 10000 1.54 100 11:27 15.02.2021
2530 Snow 0 1032 51 10000 1.03 0 10:56 15.02.2021
2531 Snow 0 1032 51 10000 1.03 0 10:38 15.02.2021
2532 Clear -1 1032 55 10000 0.51 0 10:20 15.02.2021
2533 Clear -2 1032 63 10000 1.67 167 09:51 15.02.2021
2534 Clouds -2 1034 65 10000 0.89 94 09:31 15.02.2021
2535 Clouds -4 1035 69 10000 0.45 92 08:23 15.02.2021
2536 Clear -5 1032 68 10000 0.51 0 07:27 15.02.2021
2537 Clear -6 1032 73 10000 0.51 120 06:42 15.02.2021
2538 Clouds -5 1036 71 10000 1.59 164 04:41 15.02.2021
2539 Clear -3 1034 58 10000 2.57 80 02:21 15.02.2021
2540 Clouds -2 1037 60 10000 0.45 110 00:22 15.02.2021
2541 Clear -2 1034 54 10000 1.03 100 23:29 14.02.2021
2542 Clouds -2 1037 55 10000 0.45 197 22:47 14.02.2021
2543 Clouds -2 1037 54 10000 0.89 147 22:29 14.02.2021
2544 Clear -2 1035 63 10000 0.51 0 21:55 14.02.2021
2545 Clouds -2 1037 55 10000 0.89 122 21:32 14.02.2021
2546 Clear -3 1035 63 10000 3.09 90 20:56 14.02.2021
2547 Clear -2 1035 54 10000 3.09 70 20:31 14.02.2021
2548 Clear -2 1035 54 10000 2.06 100 19:57 14.02.2021
2549 Clear -2 1035 54 10000 2.06 100 19:36 14.02.2021
2550 Clear -1 1035 50 10000 3.6 80 18:47 14.02.2021
2551 Clear -1 1035 46 10000 4.63 80 18:28 14.02.2021
2552 Clear 0 1036 43 10000 2.57 70 17:45 14.02.2021
2553 Clear 1 1036 43 10000 4.12 80 17:26 14.02.2021
2554 Clear 1 1036 40 10000 4.12 90 16:42 14.02.2021
2555 Clear 2 1036 41 10000 5.14 80 16:23 14.02.2021
2556 Clear 2 1036 32 10000 4.12 100 15:45 14.02.2021
2557 Clear 3 1036 32 10000 4.63 80 15:25 14.02.2021
2558 Clear 3 1037 44 10000 5.66 70 14:33 14.02.2021
2559 Clear 3 1037 44 10000 6.69 80 13:59 14.02.2021
2560 Clear 2 1037 44 10000 6.69 80 13:38 14.02.2021
2561 Clear 2 1037 47 10000 5.66 70 13:20 14.02.2021
2562 Clear 2 1037 47 10000 5.66 80 12:23 14.02.2021
2563 Clear 1 1037 51 10000 4.12 80 11:52 14.02.2021
2564 Clear 0 1037 59 10000 3.09 70 11:28 14.02.2021
2565 Clear -1 1037 54 10000 3.6 70 10:59 14.02.2021
2566 Clear -3 1037 63 10000 3.6 80 10:23 14.02.2021
2567 Clear -4 1037 54 10000 1.54 110 09:40 14.02.2021
2568 Clear -5 1037 63 10000 1.03 0 09:21 14.02.2021
2569 Clear -7 1037 73 10000 0.51 0 08:56 14.02.2021
2570 Clear -9 1037 85 10000 1.54 100 07:59 14.02.2021
2571 Clear -10 1036 85 10000 1.03 0 06:59 14.02.2021
2572 Clear -8 1036 79 10000 2.06 70 05:44 14.02.2021
2573 Clear -7 1036 68 10000 1.03 0 03:57 14.02.2021
2574 Clear -8 1037 79 10000 0.51 0 02:29 14.02.2021
2575 Clear -9 1037 73 10000 0.51 0 00:59 14.02.2021
2576 Clear -9 1037 73 10000 0.51 0 00:41 14.02.2021
2577 Clear -8 1036 73 10000 1.54 60 23:49 13.02.2021
2578 Clear -7 1040 79 10000 2.41 84 23:25 13.02.2021
2579 Clear -7 1037 79 10000 1.54 70 22:51 13.02.2021
2580 Clear -7 1037 73 10000 0.51 0 22:22 13.02.2021
2581 Clear -7 1037 73 10000 0.51 0 21:49 13.02.2021
2582 Clear -6 1037 73 10000 2.06 70 21:26 13.02.2021
2583 Clear -6 1037 73 10000 2.06 70 21:26 13.02.2021
2584 Clear -6 1036 62 10000 2.57 50 20:44 13.02.2021
2585 Clear -6 1036 58 10000 3.09 80 20:26 13.02.2021
2586 Clear -5 1036 58 10000 4.12 80 19:48 13.02.2021
2587 Clear -5 1035 54 10000 5.66 80 19:23 13.02.2021
2588 Clear -5 1035 53 10000 4.12 90 18:49 13.02.2021
2589 Clear -4 1035 50 10000 5.14 80 18:27 13.02.2021
2590 Clear -4 1034 54 10000 5.14 90 17:44 13.02.2021
2591 Clear -3 1034 46 10000 5.66 80 17:25 13.02.2021
2592 Clear -3 1034 46 10000 5.66 90 16:52 13.02.2021
2593 Clear -2 1034 46 10000 6.17 90 16:31 13.02.2021
2594 Clear -2 1034 46 10000 8.23 90 15:43 13.02.2021
2595 Clear -2 1034 42 10000 8.23 80 15:25 13.02.2021
2596 Clear -2 1034 39 10000 8.75 90 14:40 13.02.2021
2597 Clear -2 1034 42 10000 8.23 80 13:49 13.02.2021
2598 Clear -2 1034 50 10000 8.23 90 13:27 13.02.2021
2599 Clear -3 1034 54 10000 7.2 90 12:52 13.02.2021
2600 Clouds -4 1034 58 10000 8.75 90 12:21 13.02.2021
2601 Clouds -4 1034 58 10000 7.72 80 11:55 13.02.2021
2602 Clouds -4 1034 63 10000 7.2 80 11:22 13.02.2021
2603 Clouds -5 1034 63 10000 5.66 80 10:59 13.02.2021
2604 Clouds -5 1034 63 10000 5.66 80 10:41 13.02.2021
2605 Clouds -5 1034 63 10000 5.14 80 10:22 13.02.2021
2606 Clouds -7 1034 62 10000 3.6 70 09:46 13.02.2021
2607 Clear -8 1034 62 10000 3.09 30 09:25 13.02.2021
2608 Clear -10 1033 67 10000 3.09 50 08:47 13.02.2021
2609 Clear -11 1033 79 10000 2.57 50 08:18 13.02.2021
2610 Clear -11 1033 79 10000 3.6 40 06:50 13.02.2021
2611 Clear -11 1032 73 10000 3.6 30 06:24 13.02.2021
2612 Clear -10 1031 73 10000 4.63 50 04:31 13.02.2021
2613 Clear -9 1031 73 10000 5.14 50 02:37 13.02.2021
2614 Clear -9 1030 67 10000 5.14 40 00:54 13.02.2021
2615 Clear -8 1030 73 10000 5.14 40 00:18 13.02.2021
2616 Clear -8 1030 73 10000 4.63 40 23:44 12.02.2021
2617 Clear -8 1030 73 10000 4.12 40 23:18 12.02.2021
2618 Clear -8 1029 73 10000 4.63 50 22:32 12.02.2021
2619 Clear -7 1029 73 10000 5.14 50 21:58 12.02.2021
2620 Clear -7 1029 73 10000 5.14 50 21:39 12.02.2021
2621 Clear -7 1029 73 10000 5.14 50 21:21 12.02.2021
2622 Clear -7 1029 73 10000 4.63 50 20:40 12.02.2021
2623 Clear -7 1029 68 10000 4.63 60 20:21 12.02.2021
2624 Clear -6 1029 68 10000 5.66 60 19:49 12.02.2021
2625 Clear -6 1028 68 10000 5.66 60 19:28 12.02.2021
2626 Clear -6 1028 63 10000 5.66 60 18:35 12.02.2021
2627 Clouds -5 1027 63 10000 7.2 60 17:54 12.02.2021
2628 Clouds -5 1027 63 10000 7.2 60 17:35 12.02.2021
2629 Clouds -4 1027 50 10000 5.66 80 16:53 12.02.2021
2630 Clouds -3 1026 46 10000 6.69 80 16:18 12.02.2021
2631 Clouds -3 1026 50 10000 6.69 80 15:41 12.02.2021
2632 Clouds -2 1026 50 10000 5.66 80 15:19 12.02.2021
2633 Clouds -3 1026 54 10000 5.14 90 14:34 12.02.2021
2634 Clouds -3 1027 54 10000 8.23 80 13:49 12.02.2021
2635 Clouds -3 1027 58 10000 7.72 80 13:29 12.02.2021
2636 Clear -4 1027 63 10000 6.17 80 12:53 12.02.2021
2637 Clear -3 1027 63 10000 5.66 70 12:35 12.02.2021
2638 Clear -4 1027 68 10000 4.63 80 11:48 12.02.2021
2639 Clear -5 1027 73 10000 5.14 70 11:22 12.02.2021
2640 Clouds -6 1027 73 10000 4.12 70 10:50 12.02.2021
2641 Clear -7 1027 79 10000 2.57 70 10:31 12.02.2021
2642 Clear -8 1027 79 10000 0.51 0 09:42 12.02.2021
2643 Clear -9 1027 73 10000 0.51 80 09:23 12.02.2021
2644 Clouds -10 1027 79 10000 0.51 0 08:46 12.02.2021
2645 Clouds -11 1026 92 10000 0.51 0 08:25 12.02.2021
2646 Clouds -12 1026 92 10000 0.51 360 07:52 12.02.2021
2647 Clouds -13 1026 92 10000 0.51 330 07:27 12.02.2021
2648 Clouds -13 1026 92 10000 0.51 330 07:27 12.02.2021
2649 Clear -13 1026 100 10000 0.51 0 06:54 12.02.2021
2650 Clear -12 1026 92 10000 0.51 0 05:39 12.02.2021
2651 Clear -12 1027 85 10000 2.06 10 03:48 12.02.2021
2652 Clear -10 1027 92 10000 1.54 30 00:35 12.02.2021
2653 Clear -10 1027 92 10000 2.06 80 23:39 11.02.2021
2654 Clear -10 1027 100 10000 2.06 70 23:20 11.02.2021
2655 Clear -9 1027 92 10000 1.03 0 22:44 11.02.2021
2656 Clear -9 1027 92 10000 2.06 70 22:23 11.02.2021
2657 Clear -8 1027 92 10000 2.06 60 21:46 11.02.2021
2658 Clear -8 1027 92 10000 2.06 80 21:26 11.02.2021
2659 Clear -8 1027 85 10000 2.57 90 20:59 11.02.2021
2660 Clear -8 1027 85 10000 2.57 90 20:40 11.02.2021
2661 Clouds -8 1027 85 10000 1.54 90 20:21 11.02.2021
2662 Clouds -7 1027 73 10000 2.57 70 19:47 11.02.2021
2663 Clouds -7 1027 79 10000 1.03 90 19:27 11.02.2021
2664 Clouds -6 1027 68 10000 2.06 90 18:45 11.02.2021
2665 Clouds -6 1027 73 10000 2.06 90 18:24 11.02.2021
2666 Clouds -5 1026 63 10000 2.57 100 17:50 11.02.2021
2667 Clouds -4 1026 63 10000 2.57 90 17:22 11.02.2021
2668 Clouds -3 1026 58 10000 3.09 90 16:49 11.02.2021
2669 Clouds -3 1026 58 10000 2.57 110 16:30 11.02.2021
2670 Clouds -3 1026 58 10000 3.09 100 15:49 11.02.2021
2671 Clouds -3 1026 58 10000 3.6 100 15:29 11.02.2021
2672 Clouds -3 1026 58 10000 3.09 110 14:58 11.02.2021
2673 Clouds -3 1026 58 10000 3.09 110 14:38 11.02.2021
2674 Clouds -3 1026 58 10000 3.09 100 14:19 11.02.2021
2675 Clouds -4 1026 58 10000 2.57 110 13:37 11.02.2021
2676 Clouds -3 1026 50 10000 3.09 70 13:18 11.02.2021
2677 Clouds -3 1026 47 10000 1.03 0 12:37 11.02.2021
2678 Clouds -5 1026 63 10000 1.03 0 11:58 11.02.2021
2679 Clouds -5 1026 63 10000 1.03 0 11:40 11.02.2021
2680 Clouds -6 1026 54 10000 0.51 0 11:20 11.02.2021
2681 Clouds -7 1025 68 10000 0.51 0 10:42 11.02.2021
2682 Clouds -7 1025 68 10000 0.51 0 10:22 11.02.2021
2683 Clouds -9 1025 73 10000 1.27 136 09:42 11.02.2021
2684 Clouds -10 1025 79 10000 1.03 290 09:19 11.02.2021
2685 Clouds -11 1024 85 10000 1.03 0 08:50 11.02.2021
2686 Snow -12 1024 92 10000 0.51 340 07:58 11.02.2021
2687 Snow -12 1024 92 10000 0.51 340 07:58 11.02.2021
2688 Clouds -12 1023 85 10000 1.03 0 06:51 11.02.2021
2689 Clouds -12 1022 85 10000 1.03 280 06:32 11.02.2021
2690 Clouds -11 1020 79 10000 1.03 290 03:54 11.02.2021
2691 Snow -10 1019 73 10000 3.09 20 02:28 11.02.2021
2692 Snow -9 1018 79 10000 4.63 10 00:46 11.02.2021
2693 Clouds -8 1017 67 10000 4.12 360 00:18 11.02.2021
2694 Clouds -8 1016 73 10000 5.66 360 23:39 10.02.2021
2695 Snow -7 1015 73 10000 4.12 350 22:51 10.02.2021
2696 Snow -7 1015 73 10000 3.6 360 22:27 10.02.2021
2697 Snow -7 1014 79 10000 4.12 360 21:55 10.02.2021
2698 Snow -7 1014 79 10000 4.12 360 21:37 10.02.2021
2699 Snow -7 1014 79 10000 3.09 350 21:37 10.02.2021
2700 Snow -7 1014 79 10000 3.09 350 21:18 10.02.2021
2701 Snow -7 1013 79 10000 3.09 350 20:40 10.02.2021
2702 Snow -7 1013 79 10000 3.6 350 20:22 10.02.2021
2703 Snow -8 1012 79 10000 4.63 350 19:44 10.02.2021
2704 Snow -8 1011 86 8000 4.63 350 19:23 10.02.2021
2705 Snow -8 1011 86 2400 4.63 360 18:40 10.02.2021
2706 Snow -8 1010 86 2500 4.63 350 18:21 10.02.2021
2707 Snow -7 1009 86 2200 5.14 340 17:50 10.02.2021
2708 Snow -7 1008 86 2000 4.12 350 17:22 10.02.2021
2709 Snow -7 1008 79 2500 5.66 340 16:52 10.02.2021
2710 Snow -7 1007 86 10000 5.66 340 16:29 10.02.2021
2711 Snow -6 1007 79 8000 4.12 340 15:47 10.02.2021
2712 Snow -6 1006 79 2500 5.14 330 15:22 10.02.2021
2713 Snow -6 1005 79 4000 5.14 340 14:42 10.02.2021
2714 Snow -5 1005 79 4000 5.14 330 14:21 10.02.2021
2715 Snow -6 1005 79 3500 4.63 340 13:50 10.02.2021
2716 Snow -5 1004 80 2500 4.63 340 13:27 10.02.2021
2717 Snow -5 1004 80 1000 3.6 340 12:48 10.02.2021
2718 Snow -5 1004 86 1000 3.6 340 12:29 10.02.2021
2719 Snow -5 1003 86 1200 3.6 340 11:47 10.02.2021
2720 Snow -5 1003 86 1200 3.6 350 11:29 10.02.2021
2721 Snow -6 1002 86 1600 3.09 350 10:49 10.02.2021
2722 Snow -5 1002 86 1000 3.6 340 10:20 10.02.2021
2723 Snow -6 1002 86 1400 3.6 350 09:43 10.02.2021
2724 Snow -6 1001 86 1800 3.6 340 09:22 10.02.2021
2725 Snow -6 1001 86 1600 3.6 350 08:50 10.02.2021
2726 Snow -6 1001 86 1400 3.6 350 08:29 10.02.2021
2727 Mist -6 1000 93 2000 2.57 340 07:22 10.02.2021
2728 Snow -5 1000 86 2000 4.12 350 04:54 10.02.2021
2729 Mist -5 1002 86 4800 2.57 350 01:20 10.02.2021
2730 Snow -4 1002 93 3800 4.12 350 23:40 09.02.2021
2731 Snow -4 1002 93 3800 2.57 340 23:19 09.02.2021
2732 Snow -4 1003 93 4500 3.09 350 22:41 09.02.2021
2733 Snow -4 1003 93 5000 3.6 360 22:23 09.02.2021
2734 Snow -4 1003 86 6000 2.57 360 21:42 09.02.2021
2735 Snow -4 1003 86 6000 3.6 350 21:19 09.02.2021
2736 Snow -4 1003 86 7000 3.09 360 20:42 09.02.2021
2737 Snow -4 1003 86 7000 2.57 10 20:24 09.02.2021
2738 Clouds -4 1003 93 7000 2.57 10 19:42 09.02.2021
2739 Clouds -4 1003 93 7000 2.57 10 19:22 09.02.2021
2740 Clouds -4 1003 86 8000 2.06 360 18:44 09.02.2021
2741 Snow -4 1003 86 7000 3.6 10 18:26 09.02.2021
2742 Snow -3 1003 93 7000 2.57 350 17:49 09.02.2021
2743 Drizzle -3 1003 93 5000 3.09 360 17:27 09.02.2021
2744 Drizzle -3 1003 86 4500 3.09 360 16:53 09.02.2021
2745 Snow -3 1003 93 3500 4.12 10 16:20 09.02.2021
2746 Drizzle -3 1003 93 3000 4.63 350 15:58 09.02.2021
2747 Drizzle -2 1003 93 3000 4.63 350 15:39 09.02.2021
2748 Snow -2 1003 93 4000 4.12 10 15:20 09.02.2021
2749 Drizzle -2 1003 93 4500 3.6 10 14:42 09.02.2021
2750 Snow -2 1002 93 6000 2.06 30 14:21 09.02.2021
2751 Snow -2 1002 80 8000 0.51 0 13:41 09.02.2021
2752 Snow -2 1002 80 8000 1.03 0 13:20 09.02.2021
2753 Snow -2 1002 80 8000 0.51 0 12:43 09.02.2021
2754 Snow -2 1002 80 7000 0.51 0 12:24 09.02.2021
2755 Snow -2 1002 86 7000 1.03 0 11:44 09.02.2021
2756 Snow -2 1002 86 6000 1.03 0 11:21 09.02.2021
2757 Snow -2 1002 86 6000 1.54 60 10:57 09.02.2021
2758 Snow -2 1001 86 6000 1.03 0 10:21 09.02.2021
2759 Snow -3 1001 93 6000 2.06 20 09:54 09.02.2021
2760 Clouds -3 1001 93 7000 2.57 10 09:26 09.02.2021
2761 Clouds -3 1001 86 8000 3.09 10 08:57 09.02.2021
2762 Clouds -3 1000 93 8000 2.06 340 08:29 09.02.2021
2763 Clouds -3 1000 93 8000 2.57 330 07:53 09.02.2021
2764 Mist -3 999 93 4500 2.57 10 05:35 09.02.2021
2765 Mist -2 998 100 5000 1.54 10 03:49 09.02.2021
2766 Snow -2 998 93 4000 1.03 0 01:56 09.02.2021
2767 Snow -2 998 93 4500 1.03 0 00:31 09.02.2021
2768 Snow -2 998 93 4500 1.54 30 23:44 08.02.2021
2769 Snow -2 997 93 4800 1.03 0 23:19 08.02.2021
2770 Snow -2 997 93 6000 2.06 30 22:43 08.02.2021
2771 Snow -2 997 93 7000 2.06 360 22:22 08.02.2021
2772 Snow -2 997 93 7000 1.54 30 21:46 08.02.2021
2773 Clouds -2 997 86 10000 2.57 60 21:23 08.02.2021
2774 Clouds -2 997 86 10000 3.09 320 20:55 08.02.2021
2775 Clouds -2 997 86 10000 3.09 320 20:36 08.02.2021
2776 Clouds -2 996 86 10000 3.6 310 20:18 08.02.2021
2777 Snow -1 996 100 7000 5.14 290 19:41 08.02.2021
2778 Snow -1 996 100 7000 5.14 290 19:21 08.02.2021
2779 Snow -1 995 93 2500 3.09 310 18:44 08.02.2021
2780 Snow -1 995 93 2000 3.09 330 18:19 08.02.2021
2781 Snow 0 995 93 2300 4.12 300 17:43 08.02.2021
2782 Snow -1 994 93 3300 5.14 330 17:23 08.02.2021
2783 Snow 1 994 87 10000 3.09 220 16:43 08.02.2021
2784 Snow 1 994 75 9000 4.12 220 16:21 08.02.2021
2785 Snow 2 994 81 10000 2.57 230 15:42 08.02.2021
2786 Snow 3 994 87 10000 6.17 250 15:20 08.02.2021
2787 Rain 4 993 70 10000 3.6 220 14:51 08.02.2021
2788 Clouds 3 993 70 10000 3.09 220 14:31 08.02.2021
2789 Clouds 4 994 70 10000 2.57 210 13:56 08.02.2021
2790 Clouds 4 994 70 10000 2.57 210 13:32 08.02.2021
2791 Clouds 4 994 70 10000 3.09 190 12:55 08.02.2021
2792 Clouds 4 994 75 10000 2.06 190 12:36 08.02.2021
2793 Clouds 4 995 75 10000 1.03 0 11:48 08.02.2021
2794 Clouds 3 995 81 10000 1.03 0 11:22 08.02.2021
2795 Clouds 3 995 81 10000 0.51 0 10:45 08.02.2021
2796 Clouds 2 995 93 10000 1.03 0 10:24 08.02.2021
2797 Clouds 2 995 93 10000 1.03 0 09:53 08.02.2021
2798 Clouds 2 995 93 10000 1.03 0 09:35 08.02.2021
2799 Rain 2 995 93 10000 1.54 10 08:47 08.02.2021
2800 Rain 2 995 93 10000 1.03 0 08:21 08.02.2021
2801 Rain 2 995 93 10000 0.51 0 07:35 08.02.2021
2802 Clouds 2 995 87 10000 0.51 0 06:29 08.02.2021
2803 Rain 3 996 93 10000 1.03 0 02:37 08.02.2021
2804 Clouds 3 996 87 10000 0.51 0 01:50 08.02.2021
2805 Clouds 3 996 93 10000 1.03 0 00:23 08.02.2021
2806 Clouds 3 996 93 10000 1.54 210 23:52 07.02.2021
2807 Clouds 3 997 87 10000 1.03 0 23:27 07.02.2021
2808 Rain 3 997 87 10000 1.54 250 22:46 07.02.2021
2809 Clouds 3 997 87 10000 1.54 310 22:28 07.02.2021
2810 Rain 3 997 87 10000 3.6 320 21:57 07.02.2021
2811 Rain 3 997 87 10000 3.6 320 21:39 07.02.2021
2812 Rain 3 997 87 8000 5.14 290 21:19 07.02.2021
2813 Rain 3 997 93 8000 5.66 290 20:44 07.02.2021
2814 Rain 3 996 87 8000 5.14 290 20:26 07.02.2021
2815 Rain 4 996 93 8000 4.12 280 19:42 07.02.2021
2816 Rain 4 996 93 8000 3.6 310 19:22 07.02.2021
2817 Rain 5 996 93 8000 2.06 320 18:43 07.02.2021
2818 Rain 5 995 87 6000 3.09 280 18:25 07.02.2021
2819 Rain 5 995 87 6000 3.6 290 17:44 07.02.2021
2820 Rain 5 995 93 6000 3.6 280 17:22 07.02.2021
2821 Rain 6 995 87 8000 3.6 290 16:58 07.02.2021
2822 Rain 6 995 87 8000 3.6 290 16:39 07.02.2021
2823 Rain 6 995 87 10000 3.09 300 16:19 07.02.2021
2824 Rain 6 995 87 10000 4.12 300 15:42 07.02.2021
2825 Clouds 6 995 87 10000 4.12 300 15:21 07.02.2021
2826 Rain 7 995 93 10000 3.6 310 14:43 07.02.2021
2827 Rain 7 995 93 10000 3.09 340 14:25 07.02.2021
2828 Clouds 7 995 87 10000 0.51 0 13:44 07.02.2021
2829 Rain 8 995 81 10000 0.51 0 13:26 07.02.2021
2830 Rain 8 995 81 10000 1.03 0 12:40 07.02.2021
2831 Clouds 8 996 81 10000 1.54 90 12:21 07.02.2021
2832 Clear 7 996 87 10000 1.54 110 11:43 07.02.2021
2833 Clouds 7 996 88 10000 0.89 109 11:24 07.02.2021
2834 Fog 5 996 100 7000 1.03 100 10:31 07.02.2021
2835 Clouds 4 997 97 10000 0.89 148 09:57 07.02.2021
2836 Fog 3 996 100 2800 1.54 120 09:39 07.02.2021
2837 Fog 3 996 100 2800 1.54 120 09:20 07.02.2021
2838 Fog 3 996 100 1500 1.03 80 08:19 07.02.2021
2839 Clear 4 996 93 10000 1.03 0 06:33 07.02.2021
2840 Mist 4 996 100 5000 0.51 0 05:56 07.02.2021
2841 Fog 5 997 100 500 2.06 70 03:39 07.02.2021
2842 Clouds 6 1000 100 6000 2.06 40 01:24 07.02.2021
2843 Clear 6 1000 93 10000 3.6 310 00:29 07.02.2021
2844 Clear 6 1000 93 10000 4.63 290 23:42 06.02.2021
2845 Clear 7 999 93 10000 1.03 0 22:40 06.02.2021
2846 Clear 6 1000 93 10000 3.09 50 21:39 06.02.2021
2847 Clear 6 1000 93 10000 4.12 70 21:21 06.02.2021
2848 Clear 7 1000 93 10000 2.57 30 20:50 06.02.2021
2849 Rain 7 1000 93 10000 2.57 70 20:25 06.02.2021
2850 Clouds 7 1001 100 9000 1.54 0 19:56 06.02.2021
2851 Clouds 7 1001 100 6000 2.06 330 19:30 06.02.2021
2852 Clouds 7 1001 93 6000 1.54 30 18:47 06.02.2021
2853 Mist 7 1001 100 4000 1.03 0 18:28 06.02.2021
2854 Mist 8 1002 100 2500 1.54 350 17:46 06.02.2021
2855 Mist 8 1002 100 3500 0.51 0 17:22 06.02.2021
2856 Mist 8 1002 100 3500 0.51 0 17:22 06.02.2021
2857 Rain 8 1003 100 4800 0.51 0 16:59 06.02.2021
2858 Rain 8 1003 100 4800 0.51 0 16:37 06.02.2021
2859 Fog 8 1003 100 4200 1.03 0 16:19 06.02.2021
2860 Fog 8 1004 93 6000 1.03 80 15:41 06.02.2021
2861 Fog 9 1004 93 8000 0.51 100 15:20 06.02.2021
2862 Rain 9 1004 93 7000 0.51 0 14:45 06.02.2021
2863 Rain 9 1004 93 7000 1.03 0 14:25 06.02.2021
2864 Clouds 9 1005 93 7000 1.03 50 13:48 06.02.2021
2865 Clouds 8 1005 87 8000 1.03 0 13:21 06.02.2021
2866 Fog 8 1006 93 7000 1.54 360 12:22 06.02.2021
2867 Fog 8 1006 100 5000 1.54 330 11:48 06.02.2021
2868 Fog 7 1006 100 4000 0.51 0 11:22 06.02.2021
2869 Fog 7 1006 100 1800 0.51 220 10:57 06.02.2021
2870 Fog 7 1006 100 1800 0.51 220 10:39 06.02.2021
2871 Fog 6 1007 100 800 1.03 0 10:20 06.02.2021
2872 Fog 6 1007 100 300 1.03 0 09:37 06.02.2021
2873 Fog 6 1007 100 400 1.03 0 09:18 06.02.2021
2874 Fog 6 1007 100 400 1.03 0 09:18 06.02.2021
2875 Fog 6 1007 100 250 0.51 0 08:39 06.02.2021
2876 Fog 6 1007 100 500 1.03 0 08:20 06.02.2021
2877 Fog 6 1008 100 200 1.54 300 06:29 06.02.2021
2878 Fog 6 1009 100 400 2.06 280 04:37 06.02.2021
2879 Mist 7 1009 100 2500 1.03 0 02:34 06.02.2021
2880 Fog 7 1010 100 3500 0.51 60 00:49 06.02.2021
2881 Mist 7 1011 100 4000 0.51 0 00:21 06.02.2021
2882 Mist 7 1011 100 4000 2.06 40 23:50 05.02.2021
2883 Clouds 8 1011 100 3500 1.03 10 23:27 05.02.2021
2884 Rain 8 1011 100 2800 1.54 10 22:49 05.02.2021
2885 Rain 8 1011 100 3500 0.51 0 22:24 05.02.2021
2886 Rain 8 1011 100 5000 1.03 60 21:52 05.02.2021
2887 Rain 8 1011 100 7000 2.06 50 21:30 05.02.2021
2888 Rain 8 1012 100 10000 1.03 40 20:48 05.02.2021
2889 Rain 8 1012 93 10000 1.03 0 19:57 05.02.2021
2890 Rain 8 1012 93 10000 0.51 0 19:25 05.02.2021
2891 Clouds 8 1012 93 10000 2.57 10 18:55 05.02.2021
2892 Clouds 9 1012 87 10000 2.57 350 18:29 05.02.2021
2893 Clouds 9 1012 87 10000 1.03 0 17:56 05.02.2021
2894 Clouds 9 1012 93 10000 1.03 70 17:34 05.02.2021
2895 Clouds 9 1012 87 10000 1.03 0 16:58 05.02.2021
2896 Clouds 9 1012 87 10000 1.03 0 16:39 05.02.2021
2897 Clouds 10 1012 93 10000 1.54 70 16:20 05.02.2021
2898 Clouds 10 1012 86 10000 0.31 280 15:44 05.02.2021
2899 Clouds 10 1012 87 10000 1.54 100 15:22 05.02.2021
2900 Clouds 10 1012 81 10000 1.03 0 14:38 05.02.2021
2901 Clouds 10 1012 81 10000 1.03 0 14:19 05.02.2021
2902 Clouds 10 1012 81 10000 0.51 0 13:48 05.02.2021
2903 Clouds 9 1012 76 10000 0.51 0 13:30 05.02.2021
2904 Clouds 9 1012 76 10000 0.51 0 13:30 05.02.2021
2905 Clouds 9 1012 87 10000 0.51 0 12:44 05.02.2021
2906 Clouds 8 1013 93 10000 1.03 0 12:23 05.02.2021
2907 Clouds 8 1013 93 10000 1.03 90 11:39 05.02.2021
2908 Clouds 8 1013 93 10000 0.51 0 11:20 05.02.2021
2909 Clouds 7 1013 93 10000 0.51 0 10:49 05.02.2021
2910 Clouds 7 1013 93 10000 0.51 0 10:25 05.02.2021
2911 Clouds 6 1013 100 10000 0.51 0 09:43 05.02.2021
2912 Clouds 6 1013 100 10000 0.51 0 09:24 05.02.2021
2913 Clouds 6 1013 100 10000 0.51 0 08:45 05.02.2021
2914 Rain 6 1012 93 10000 1.03 220 07:52 05.02.2021
2915 Clouds 6 1012 100 10000 0.51 240 07:34 05.02.2021
2916 Rain 6 1012 93 10000 1.54 310 06:42 05.02.2021
2917 Clouds 6 1012 100 10000 0.51 0 05:35 05.02.2021
2918 Clouds 6 1012 93 10000 2.57 30 02:27 05.02.2021
2919 Clouds 6 1013 100 10000 1.03 0 01:59 05.02.2021
2920 Rain 6 1013 93 10000 1.03 0 00:38 05.02.2021
2921 Rain 6 1013 93 10000 0.51 0 00:19 05.02.2021
2922 Rain 6 1013 93 10000 0.51 0 23:55 04.02.2021
2923 Rain 6 1013 93 10000 0.51 0 23:36 04.02.2021
2924 Rain 6 1013 93 10000 0.51 0 23:18 04.02.2021
2925 Rain 7 1013 87 10000 1.03 0 22:43 04.02.2021
2926 Rain 7 1013 81 10000 1.03 0 22:25 04.02.2021
2927 Rain 7 1013 81 10000 0.51 0 21:42 04.02.2021
2928 Rain 7 1014 87 10000 1.03 0 21:19 04.02.2021
2929 Rain 7 1014 81 10000 1.03 0 20:46 04.02.2021
2930 Rain 7 1014 81 10000 1.02 100 20:26 04.02.2021
2931 Clear 7 1014 76 10000 1.03 0 19:42 04.02.2021
2932 Clear 7 1014 81 10000 1.03 0 18:56 04.02.2021
2933 Clear 8 1015 76 10000 1.03 0 18:25 04.02.2021
2934 Clear 8 1015 81 10000 1.03 110 17:53 04.02.2021
2935 Rain 9 1015 76 10000 1.54 90 17:26 04.02.2021
2936 Rain 9 1015 71 10000 2.57 70 16:56 04.02.2021
2937 Clear 10 1015 66 10000 1.03 0 16:38 04.02.2021
2938 Clear 10 1015 66 10000 1.03 0 16:18 04.02.2021
2939 Clouds 10 1015 62 10000 1.54 90 15:39 04.02.2021
2940 Clouds 10 1015 62 10000 1.54 90 15:20 04.02.2021
2941 Clouds 10 1015 66 10000 1.54 130 14:42 04.02.2021
2942 Clouds 10 1015 66 10000 2.06 130 14:20 04.02.2021
2943 Clouds 10 1016 62 10000 2.06 110 13:45 04.02.2021
2944 Clouds 10 1016 62 10000 2.06 150 13:25 04.02.2021
2945 Clouds 9 1016 57 10000 1.03 0 12:52 04.02.2021
2946 Clouds 9 1016 66 10000 1.03 0 11:57 04.02.2021
2947 Clouds 9 1016 66 10000 1.03 0 11:37 04.02.2021
2948 Clouds 9 1016 71 10000 2.57 280 11:18 04.02.2021
2949 Clouds 8 1016 71 10000 2.06 230 10:34 04.02.2021
2950 Clouds 6 1016 87 10000 2.06 230 09:45 04.02.2021
2951 Clouds 5 1015 93 10000 1.03 0 09:23 04.02.2021
2952 Clouds 4 1015 87 10000 0.51 0 08:51 04.02.2021
2953 Clouds 4 1014 93 10000 1.03 0 08:26 04.02.2021
2954 Clouds 5 1014 87 10000 2.06 240 07:57 04.02.2021
2955 Clouds 5 1014 87 10000 2.06 240 07:34 04.02.2021
2956 Clouds 5 1014 87 10000 1.54 230 06:52 04.02.2021
2957 Clouds 5 1014 87 10000 1.54 230 06:34 04.02.2021
2958 Clouds 7 1012 75 10000 4.63 250 02:41 04.02.2021
2959 Clouds 7 1011 70 10000 6.69 250 02:23 04.02.2021
2960 Clouds 8 1008 81 10000 8.75 250 00:29 04.02.2021
2961 Clouds 9 1006 81 10000 12.35 260 23:34 03.02.2021
2962 Rain 10 1005 71 10000 6.69 220 22:40 03.02.2021
2963 Rain 10 1004 71 10000 6.69 220 22:21 03.02.2021
2964 Rain 10 1004 71 10000 6.17 220 21:55 03.02.2021
2965 Clouds 10 1004 71 10000 6.69 220 21:25 03.02.2021
2966 Clear 10 1003 71 10000 6.17 220 20:58 03.02.2021
2967 Clear 10 1003 71 10000 6.17 220 20:37 03.02.2021
2968 Clear 10 1003 71 10000 5.66 220 20:18 03.02.2021
2969 Clear 9 1003 76 10000 5.14 200 19:41 03.02.2021
2970 Clear 10 1003 76 10000 5.14 200 19:18 03.02.2021
2971 Clear 10 1002 76 10000 4.63 210 18:41 03.02.2021
2972 Clear 10 1003 76 10000 4.63 210 18:19 03.02.2021
2973 Clouds 10 1002 76 10000 5.14 220 17:49 03.02.2021
2974 Clouds 10 1002 71 10000 6.17 210 17:30 03.02.2021
2975 Clouds 10 1002 76 10000 5.14 210 16:53 03.02.2021
2976 Rain 10 1002 76 10000 5.66 210 16:29 03.02.2021
2977 Rain 9 1002 81 10000 4.12 220 15:45 03.02.2021
2978 Rain 9 1002 87 10000 8.75 270 15:25 03.02.2021
2979 Rain 9 1002 81 7000 7.72 290 14:53 03.02.2021
2980 Rain 10 1001 87 10000 4.12 220 14:26 03.02.2021
2981 Rain 11 1001 87 10000 3.6 210 13:54 03.02.2021
2982 Rain 11 1001 87 10000 4.12 200 13:28 03.02.2021
2983 Rain 10 1001 93 10000 2.06 180 12:49 03.02.2021
2984 Rain 10 1001 93 10000 2.06 170 12:27 03.02.2021
2985 Rain 10 1002 93 10000 2.06 170 11:54 03.02.2021
2986 Rain 10 1002 93 10000 2.06 170 11:36 03.02.2021
2987 Rain 10 1002 93 10000 1.03 0 10:56 03.02.2021
2988 Clouds 10 1002 87 10000 1.54 130 10:22 03.02.2021
2989 Rain 10 1002 87 10000 2.06 160 09:48 03.02.2021
2990 Clouds 10 1003 93 10000 1.54 130 09:29 03.02.2021
2991 Clouds 9 1003 93 10000 1.03 0 08:54 03.02.2021
2992 Clouds 9 1003 93 10000 1.03 0 08:54 03.02.2021
2993 Clouds 10 1003 93 10000 1.03 0 08:34 03.02.2021
2994 Rain 9 1004 93 10000 1.03 0 07:42 03.02.2021
2995 Clouds 9 1004 93 10000 1.54 120 06:42 03.02.2021
2996 Clouds 10 1005 87 10000 2.57 190 04:55 03.02.2021
2997 Clouds 9 1005 87 10000 3.09 200 04:34 03.02.2021
2998 Rain 9 1005 93 10000 2.06 190 03:48 03.02.2021
2999 Clouds 9 1006 93 10000 0.51 0 02:37 03.02.2021
3000 Clouds 9 1006 93 10000 1.54 250 01:20 03.02.2021
3001 Clouds 9 1006 93 10000 1.03 0 00:23 03.02.2021
3002 Clouds 10 1005 87 10000 1.03 0 23:41 02.02.2021
3003 Clouds 10 1005 87 10000 1.03 0 23:41 02.02.2021
3004 Clouds 10 1005 87 10000 2.06 190 23:22 02.02.2021
3005 Clouds 10 1005 87 10000 2.06 210 22:39 02.02.2021
3006 Clouds 10 1005 87 10000 2.06 200 22:19 02.02.2021
3007 Clouds 10 1005 87 10000 2.06 200 22:19 02.02.2021
3008 Clouds 10 1005 87 10000 2.06 230 21:44 02.02.2021
3009 Clouds 10 1005 93 10000 2.57 200 21:23 02.02.2021
3010 Clouds 10 1005 93 10000 2.57 200 20:48 02.02.2021
3011 Clouds 10 1005 93 10000 2.57 210 20:21 02.02.2021
3012 Clouds 10 1004 93 10000 4.63 200 19:50 02.02.2021
3013 Clouds 10 1004 93 10000 2.57 190 19:32 02.02.2021
3014 Clouds 10 1004 93 10000 1.54 210 18:56 02.02.2021
3015 Clouds 11 1004 93 7000 5.14 230 18:37 02.02.2021
3016 Clouds 11 1004 93 7000 5.14 230 18:19 02.02.2021
3017 Rain 11 1003 82 10000 3.09 200 17:38 02.02.2021
3018 Clouds 11 1003 87 10000 3.6 210 17:19 02.02.2021
3019 Clouds 11 1003 93 10000 2.57 200 16:44 02.02.2021
3020 Clouds 11 1003 93 10000 2.57 200 16:25 02.02.2021
3021 Clouds 10 1003 93 10000 3.6 210 15:53 02.02.2021
3022 Clouds 10 1003 87 10000 4.63 220 15:29 02.02.2021
3023 Clouds 10 1002 82 10000 5.14 220 14:52 02.02.2021
3024 Clouds 10 1002 82 10000 5.14 220 14:33 02.02.2021
3025 Clouds 10 1002 81 10000 5.14 220 13:58 02.02.2021
3026 Rain 10 1002 81 10000 5.14 220 13:40 02.02.2021
3027 Rain 9 1002 81 10000 4.63 210 13:22 02.02.2021
3028 Clouds 8 1002 87 10000 2.57 180 12:47 02.02.2021
3029 Clouds 8 1003 87 10000 2.06 140 11:55 02.02.2021
3030 Rain 8 1003 87 10000 2.06 140 11:36 02.02.2021
3031 Clouds 7 1004 87 10000 2.06 160 11:18 02.02.2021
3032 Rain 7 1004 93 10000 1.54 180 10:42 02.02.2021
3033 Rain 7 1004 87 10000 0.51 0 10:22 02.02.2021
3034 Rain 6 1005 93 10000 0.51 0 09:39 02.02.2021
3035 Rain 5 1005 93 10000 1.54 150 09:20 02.02.2021
3036 Clouds 5 1005 100 10000 1.54 150 08:34 02.02.2021
3037 Clouds 5 1005 93 10000 1.03 0 07:44 02.02.2021
3038 Clouds 5 1005 100 10000 0.51 0 06:47 02.02.2021
3039 Clouds 5 1005 100 10000 0.51 0 06:29 02.02.2021
3040 Clouds 5 1005 93 10000 1.54 210 05:50 02.02.2021
3041 Clouds 5 1004 93 10000 2.57 240 02:57 02.02.2021
3042 Clear 6 1004 87 10000 2.06 260 02:24 02.02.2021
3043 Clouds 7 1002 81 10000 3.6 240 00:38 02.02.2021
3044 Clouds 7 1002 93 10000 2.57 240 23:47 01.02.2021
3045 Clouds 7 1001 93 10000 2.57 250 22:57 01.02.2021
3046 Rain 7 1001 93 10000 2.57 250 22:38 01.02.2021
3047 Clouds 7 1000 93 10000 2.57 250 22:19 01.02.2021
3048 Clouds 7 1000 93 10000 2.06 250 21:42 01.02.2021
3049 Rain 7 999 100 9000 3.09 310 21:21 01.02.2021
3050 Rain 7 999 93 10000 1.54 230 20:41 01.02.2021
3051 Rain 7 999 93 10000 1.54 230 20:41 01.02.2021
3052 Rain 8 998 93 10000 2.06 260 20:23 01.02.2021
3053 Rain 8 998 93 10000 1.54 230 19:42 01.02.2021
3054 Rain 8 997 93 10000 1.54 210 19:21 01.02.2021
3055 Rain 8 997 93 10000 1.54 220 18:51 01.02.2021
3056 Clouds 8 997 93 10000 2.06 240 18:29 01.02.2021
3057 Rain 8 996 93 10000 1.54 220 17:48 01.02.2021
3058 Clouds 8 995 93 10000 1.54 230 17:27 01.02.2021
3059 Clouds 8 995 93 10000 2.06 290 16:58 01.02.2021
3060 Clouds 8 995 93 8000 2.06 310 16:33 01.02.2021
3061 Rain 8 994 93 8000 2.57 210 15:50 01.02.2021
3062 Rain 8 994 81 10000 3.6 210 15:21 01.02.2021
3063 Rain 8 994 81 10000 3.09 210 14:57 01.02.2021
3064 Clouds 8 994 81 10000 3.09 210 14:39 01.02.2021
3065 Rain 8 993 93 10000 2.57 200 13:56 01.02.2021
3066 Clouds 7 993 93 10000 1.03 0 13:38 01.02.2021
3067 Rain 7 993 93 10000 2.57 200 13:38 01.02.2021
3068 Clouds 7 993 93 10000 1.03 0 13:20 01.02.2021
3069 Rain 7 993 93 10000 1.03 0 12:44 01.02.2021
3070 Rain 6 993 93 10000 1.54 170 12:23 01.02.2021
3071 Rain 6 993 93 10000 1.54 160 11:42 01.02.2021
3072 Rain 6 993 93 10000 1.54 150 11:20 01.02.2021
3073 Rain 6 993 100 10000 1.03 0 10:46 01.02.2021
3074 Rain 5 992 93 10000 1.03 110 10:20 01.02.2021
3075 Rain 5 992 100 10000 2.73 167 09:45 01.02.2021
3076 Rain 4 992 93 10000 0.51 0 09:24 01.02.2021
3077 Clouds 4 992 100 10000 1.03 120 08:54 01.02.2021
3078 Rain 4 992 100 8000 1.03 70 07:53 01.02.2021
3079 Rain 4 992 93 10000 1.03 80 06:37 01.02.2021
3080 Clouds 3 993 93 10000 0.89 109 04:32 01.02.2021
3081 Rain 3 994 93 10000 1.03 90 01:46 01.02.2021
3082 Clouds 3 995 93 10000 3.09 90 23:46 31.01.2021
3083 Clouds 3 995 93 10000 2.06 70 22:56 31.01.2021
3084 Clouds 3 995 93 10000 2.06 70 22:36 31.01.2021
3085 Clouds 3 996 93 10000 2.06 90 22:18 31.01.2021
3086 Clouds 3 996 93 10000 2.06 80 21:41 31.01.2021
3087 Clouds 3 997 93 10000 2.06 90 21:19 31.01.2021
3088 Clouds 3 997 93 10000 2.06 100 20:41 31.01.2021
3089 Clouds 3 997 87 10000 2.06 100 20:19 31.01.2021
3090 Clouds 3 998 87 10000 1.54 100 19:37 31.01.2021
3091 Clouds 3 998 87 10000 1.54 100 19:19 31.01.2021
3092 Clouds 3 998 87 10000 2.06 100 18:44 31.01.2021
3093 Clouds 3 999 87 10000 2.06 90 18:24 31.01.2021
3094 Clouds 3 999 87 10000 2.06 80 17:57 31.01.2021
3095 Clouds 3 999 87 10000 2.57 80 17:38 31.01.2021
3096 Clouds 3 999 87 10000 2.57 80 17:19 31.01.2021
3097 Clouds 3 999 93 10000 2.57 80 16:40 31.01.2021
3098 Clouds 3 999 87 10000 3.09 80 16:20 31.01.2021
3099 Clouds 3 999 87 10000 2.57 90 15:48 31.01.2021
3100 Clouds 4 1000 87 10000 3.09 70 15:18 31.01.2021
3101 Clouds 4 1000 87 10000 3.6 90 14:36 31.01.2021
3102 Clouds 4 1000 87 10000 3.6 90 14:18 31.01.2021
3103 Drizzle 4 1000 87 10000 3.6 80 13:39 31.01.2021
3104 Clouds 3 1001 87 10000 3.09 80 13:18 31.01.2021
3105 Clouds 3 1001 87 10000 3.6 70 12:45 31.01.2021
3106 Clouds 3 1001 93 10000 4.12 90 12:20 31.01.2021
3107 Clouds 3 1001 87 10000 3.6 70 11:39 31.01.2021
3108 Clouds 2 1001 93 10000 4.12 80 11:20 31.01.2021
3109 Clouds 2 1001 87 10000 3.6 70 10:45 31.01.2021
3110 Clouds 2 1001 93 10000 3.6 80 10:26 31.01.2021
3111 Clouds 2 1000 87 10000 3.6 70 09:41 31.01.2021
3112 Clouds 2 1000 93 10000 2.06 50 08:52 31.01.2021
3113 Clouds 1 1000 100 10000 2.06 40 08:30 31.01.2021
3114 Clouds 1 999 100 10000 2.06 50 06:47 31.01.2021
3115 Drizzle 2 998 93 9000 2.06 30 03:53 31.01.2021
3116 Drizzle 3 997 100 5000 3.6 20 00:28 31.01.2021
3117 Clouds 3 997 93 4000 3.09 30 23:59 30.01.2021
3118 Clouds 3 997 100 4000 1.54 30 23:28 30.01.2021
3119 Clouds 4 997 100 9000 1.54 50 22:43 30.01.2021
3120 Clouds 4 997 100 6000 2.57 60 22:23 30.01.2021
3121 Rain 4 996 100 4500 2.57 70 21:39 30.01.2021
3122 Rain 4 996 100 3000 3.09 70 21:20 30.01.2021
3123 Rain 4 996 100 5000 2.06 80 20:43 30.01.2021
3124 Drizzle 4 996 100 5000 2.06 80 20:24 30.01.2021
3125 Drizzle 5 996 100 6000 1.54 80 19:42 30.01.2021
3126 Drizzle 5 996 100 8000 2.57 80 19:24 30.01.2021
3127 Rain 5 996 100 10000 2.57 80 18:40 30.01.2021
3128 Rain 5 996 100 10000 2.06 80 18:21 30.01.2021
3129 Clouds 5 996 93 10000 2.06 100 17:53 30.01.2021
3130 Clouds 5 996 93 10000 1.54 120 17:19 30.01.2021
3131 Rain 6 997 93 10000 2.06 150 16:43 30.01.2021
3132 Rain 6 997 87 10000 2.06 150 16:23 30.01.2021
3133 Rain 7 997 87 10000 2.06 170 15:50 30.01.2021
3134 Rain 7 997 87 10000 2.06 190 15:25 30.01.2021
3135 Rain 7 998 93 10000 3.09 170 14:59 30.01.2021
3136 Rain 7 998 93 10000 3.09 170 14:40 30.01.2021
3137 Rain 7 998 87 10000 2.06 150 14:19 30.01.2021
3138 Rain 8 999 81 10000 2.06 200 13:25 30.01.2021
3139 Rain 7 1000 81 10000 1.54 200 12:48 30.01.2021
3140 Rain 8 1000 81 10000 3.09 230 12:28 30.01.2021
3141 Rain 8 1000 81 10000 3.09 220 11:54 30.01.2021
3142 Rain 8 1000 76 10000 2.57 210 11:25 30.01.2021
3143 Rain 7 1001 81 10000 2.06 210 10:46 30.01.2021
3144 Clouds 6 1001 81 10000 3.09 200 09:44 30.01.2021
3145 Clouds 6 1001 81 10000 2.57 230 09:26 30.01.2021
3146 Clouds 6 1001 81 10000 2.57 230 08:47 30.01.2021
3147 Clouds 6 1002 87 10000 2.57 210 07:48 30.01.2021
3148 Clouds 6 1002 87 10000 3.6 210 06:49 30.01.2021
3149 Clouds 6 1003 87 10000 3.09 240 04:59 30.01.2021
3150 Clouds 7 1003 81 10000 3.6 230 03:35 30.01.2021
3151 Clouds 6 1003 81 10000 3.09 240 02:24 30.01.2021
3152 Clouds 7 1003 87 10000 6.17 260 01:29 30.01.2021
3153 Clouds 7 1003 93 10000 4.63 240 00:39 30.01.2021
3154 Clouds 7 1003 93 10000 3.09 220 00:20 30.01.2021
3155 Clouds 7 1002 87 10000 3.6 240 23:45 29.01.2021
3156 Clouds 7 1002 87 10000 4.12 230 23:21 29.01.2021
3157 Clouds 7 1002 87 10000 2.57 220 22:44 29.01.2021
3158 Clouds 7 1002 87 10000 3.6 220 22:20 29.01.2021
3159 Clouds 7 1001 87 10000 3.6 220 21:28 29.01.2021
3160 Clouds 6 1001 87 10000 3.09 220 20:46 29.01.2021
3161 Clouds 6 1001 93 10000 3.09 220 20:28 29.01.2021
3162 Clouds 6 1001 87 10000 3.09 220 19:57 29.01.2021
3163 Clouds 6 1001 87 10000 3.09 220 19:38 29.01.2021
3164 Rain 6 1001 87 10000 2.57 210 19:18 29.01.2021
3165 Clouds 6 1001 87 10000 2.57 220 18:30 29.01.2021
3166 Rain 7 1001 87 6000 12.35 260 17:40 29.01.2021
3167 Rain 7 1001 87 10000 3.6 220 17:22 29.01.2021
3168 Clouds 8 1001 81 10000 4.63 240 16:46 29.01.2021
3169 Clouds 8 1001 71 10000 5.14 230 16:24 29.01.2021
3170 Clouds 9 1000 71 10000 5.66 240 15:51 29.01.2021
3171 Clouds 9 1001 71 10000 5.66 240 15:31 29.01.2021
3172 Clouds 10 1001 71 10000 7.72 250 14:48 29.01.2021
3173 Clouds 10 1001 71 10000 4.12 230 14:18 29.01.2021
3174 Clouds 10 1001 71 10000 7.2 240 13:44 29.01.2021
3175 Clouds 10 1001 71 10000 7.2 250 13:26 29.01.2021
3176 Clouds 10 1001 76 10000 8.23 250 12:29 29.01.2021
3177 Clouds 10 1001 71 10000 9.77 250 11:51 29.01.2021
3178 Clouds 10 1000 71 10000 7.2 260 11:20 29.01.2021
3179 Clouds 10 1000 76 10000 6.69 250 10:53 29.01.2021
3180 Clouds 10 999 76 10000 4.63 250 10:35 29.01.2021
3181 Clouds 9 999 81 10000 6.17 250 09:50 29.01.2021
3182 Clouds 9 999 76 10000 5.14 230 09:29 29.01.2021
3183 Clouds 9 999 76 10000 7.72 250 08:48 29.01.2021
3184 Clouds 9 998 93 10000 7.2 240 08:25 29.01.2021
3185 Rain 8 998 87 10000 4.12 210 07:43 29.01.2021
3186 Rain 9 998 87 10000 4.63 210 07:22 29.01.2021
3187 Rain 8 999 93 10000 4.63 200 06:34 29.01.2021
3188 Clouds 8 1002 93 10000 3.09 210 03:53 29.01.2021
3189 Clouds 9 1005 81 10000 3.09 220 00:47 29.01.2021
3190 Clouds 9 1005 81 10000 3.6 200 00:22 29.01.2021
3191 Clouds 9 1005 81 10000 3.6 200 00:22 29.01.2021
3192 Clouds 9 1006 87 10000 2.57 210 23:47 28.01.2021
3193 Clouds 9 1005 87 10000 3.09 210 23:27 28.01.2021
3194 Clouds 9 1006 87 10000 3.09 200 22:59 28.01.2021
3195 Clouds 9 1006 87 10000 3.09 200 22:39 28.01.2021
3196 Clouds 9 1006 87 10000 2.06 210 22:21 28.01.2021
3197 Clouds 9 1005 87 10000 2.57 220 21:42 28.01.2021
3198 Clouds 10 1006 87 10000 3.6 210 21:22 28.01.2021
3199 Clouds 10 1005 87 10000 3.6 200 20:45 28.01.2021
3200 Clouds 11 1005 87 10000 3.09 220 20:19 28.01.2021
3201 Clouds 11 1005 87 10000 3.6 240 19:52 28.01.2021
3202 Clouds 10 1004 87 10000 4.12 240 19:28 28.01.2021
3203 Clouds 10 1004 87 10000 4.63 240 18:50 28.01.2021
3204 Clouds 10 1004 87 10000 4.63 240 18:31 28.01.2021
3205 Clouds 10 1003 93 10000 5.66 240 17:54 28.01.2021
3206 Clouds 10 1003 93 10000 5.66 240 17:35 28.01.2021
3207 Clouds 10 1003 93 10000 6.69 240 16:59 28.01.2021
3208 Clouds 10 1002 87 10000 4.63 230 16:40 28.01.2021
3209 Clouds 10 1002 87 10000 4.63 230 16:20 28.01.2021
3210 Clouds 9 1002 87 10000 5.14 230 15:32 28.01.2021
3211 Clouds 8 1002 93 10000 5.14 230 14:49 28.01.2021
3212 Clouds 8 1002 87 10000 5.14 220 14:27 28.01.2021
3213 Clouds 7 1002 93 10000 4.12 210 13:59 28.01.2021
3214 Rain 7 1002 93 10000 4.12 210 13:39 28.01.2021
3215 Clouds 6 1003 93 10000 3.6 210 12:51 28.01.2021
3216 Rain 5 1003 93 10000 3.6 210 12:33 28.01.2021
3217 Rain 5 1004 93 10000 3.6 220 11:58 28.01.2021
3218 Rain 4 1004 93 10000 3.6 220 11:39 28.01.2021
3219 Rain 4 1004 93 10000 2.57 200 11:18 28.01.2021
3220 Rain 4 1005 93 10000 0.51 150 10:49 28.01.2021
3221 Rain 3 1005 100 10000 1.03 0 10:27 28.01.2021
3222 Rain 3 1006 100 9000 2.06 150 09:44 28.01.2021
3223 Rain 3 1007 93 9000 1.54 140 09:22 28.01.2021
3224 Rain 3 1007 93 10000 2.57 170 08:48 28.01.2021
3225 Rain 2 1008 100 10000 1.03 0 08:18 28.01.2021
3226 Rain 2 1008 93 10000 2.57 200 07:42 28.01.2021
3227 Rain 2 1009 87 10000 1.54 200 06:49 28.01.2021
3228 Clouds 2 1011 87 10000 3.09 220 05:28 28.01.2021
3229 Clouds 2 1014 96 10000 1.71 201 03:49 28.01.2021
3230 Clouds 2 1014 93 10000 1.54 0 00:58 28.01.2021
3231 Clouds 2 1014 93 10000 2.06 240 23:47 27.01.2021
3232 Snow 1 1014 87 10000 1.54 220 23:23 27.01.2021
3233 Clouds 1 1014 87 10000 1.03 0 22:41 27.01.2021
3234 Clouds 1 1014 93 10000 1.03 0 22:21 27.01.2021
3235 Snow 1 1014 93 10000 0.51 0 21:42 27.01.2021
3236 Clouds 1 1014 93 10000 1.54 210 21:22 27.01.2021
3237 Snow 1 1014 93 10000 1.03 0 20:50 27.01.2021
3238 Snow 1 1014 93 7000 1.03 0 20:23 27.01.2021
3239 Snow 1 1014 93 10000 1.03 0 19:49 27.01.2021
3240 Snow 1 1014 93 8000 1.03 0 19:22 27.01.2021
3241 Clouds 1 1013 86 10000 1.03 0 18:45 27.01.2021
3242 Snow 1 1013 86 10000 1.03 0 18:24 27.01.2021
3243 Snow 1 1013 86 10000 1.03 0 17:52 27.01.2021
3244 Snow 1 1013 86 10000 1.03 0 17:34 27.01.2021
3245 Snow 1 1013 86 10000 1.54 200 16:57 27.01.2021
3246 Snow 1 1013 86 10000 1.54 200 16:38 27.01.2021
3247 Snow 1 1013 86 10000 3.09 180 16:20 27.01.2021
3248 Snow 1 1013 86 10000 2.57 190 15:48 27.01.2021
3249 Snow 1 1014 93 10000 3.6 180 15:27 27.01.2021
3250 Snow 1 1015 93 5000 1.54 170 14:24 27.01.2021
3251 Snow 1 1015 93 5000 3.09 180 13:53 27.01.2021
3252 Snow 0 1015 93 5000 3.09 180 13:35 27.01.2021
3253 Snow 0 1015 93 2500 2.57 180 12:42 27.01.2021
3254 Snow 0 1015 93 4000 2.57 170 12:23 27.01.2021
3255 Snow 0 1016 93 2000 2.57 170 11:47 27.01.2021
3256 Snow 0 1016 93 2800 2.57 200 11:23 27.01.2021
3257 Snow 0 1016 86 3500 2.06 190 10:45 27.01.2021
3258 Snow -1 1016 93 4500 1.54 200 10:22 27.01.2021
3259 Snow -1 1016 93 6000 2.06 230 09:53 27.01.2021
3260 Snow -1 1016 80 4000 3.09 220 09:28 27.01.2021
3261 Snow -1 1016 74 10000 3.09 210 08:42 27.01.2021
3262 Snow -1 1016 93 10000 1.98 204 07:49 27.01.2021
3263 Snow -1 1016 86 10000 1.03 100 07:30 27.01.2021
3264 Snow -1 1016 80 10000 1.03 0 06:26 27.01.2021
3265 Snow -1 1017 80 10000 1.03 0 05:53 27.01.2021
3266 Snow -1 1017 80 10000 1.03 0 05:33 27.01.2021
3267 Clear -1 1019 86 10000 1.03 0 02:46 27.01.2021
3268 Clear -1 1019 86 10000 2.57 200 02:20 27.01.2021
3269 Clear -1 1020 86 10000 2.06 220 00:58 27.01.2021
3270 Clouds 0 1020 80 10000 3.6 230 00:22 27.01.2021
3271 Clouds 0 1020 80 10000 3.6 230 23:40 26.01.2021
3272 Clouds 0 1020 80 10000 3.09 220 23:19 26.01.2021
3273 Clear 0 1021 80 10000 2.57 220 22:39 26.01.2021
3274 Clear 0 1020 80 10000 1.03 260 22:19 26.01.2021
3275 Clear 1 1020 80 10000 2.06 270 21:51 26.01.2021
3276 Clear 1 1020 74 10000 2.57 230 21:24 26.01.2021
3277 Clear 1 1020 74 10000 1.54 220 20:54 26.01.2021
3278 Clear 1 1020 74 10000 1.54 220 20:36 26.01.2021
3279 Clouds 1 1020 74 10000 3.09 250 20:18 26.01.2021
3280 Clouds 1 1020 74 10000 3.09 250 20:18 26.01.2021
3281 Clouds 1 1020 69 10000 4.63 260 19:40 26.01.2021
3282 Clouds 2 1020 69 10000 3.6 250 19:19 26.01.2021
3283 Snow 2 1019 69 10000 5.14 260 18:42 26.01.2021
3284 Clouds 2 1019 69 10000 5.14 250 18:23 26.01.2021
3285 Clouds 2 1019 64 10000 6.17 260 17:47 26.01.2021
3286 Clouds 2 1019 64 10000 6.69 260 17:23 26.01.2021
3287 Clouds 2 1018 69 10000 6.17 260 16:51 26.01.2021
3288 Clouds 2 1018 69 10000 6.17 250 16:21 26.01.2021
3289 Clouds 3 1018 65 10000 5.14 250 15:53 26.01.2021
3290 Clouds 3 1018 65 10000 5.14 250 15:35 26.01.2021
3291 Clouds 3 1018 69 10000 8.23 260 14:49 26.01.2021
3292 Clouds 3 1018 69 10000 7.2 260 14:30 26.01.2021
3293 Clouds 3 1018 65 10000 5.14 250 13:51 26.01.2021
3294 Clouds 2 1018 69 10000 6.69 250 13:28 26.01.2021
3295 Clouds 2 1018 75 10000 7.2 260 12:46 26.01.2021
3296 Clouds 2 1018 75 10000 7.2 260 12:46 26.01.2021
3297 Clouds 2 1018 69 10000 7.2 260 12:26 26.01.2021
3298 Clouds 2 1018 75 10000 7.72 260 11:59 26.01.2021
3299 Clouds 2 1018 75 10000 7.72 260 11:40 26.01.2021
3300 Snow 1 1018 80 10000 4.63 230 10:59 26.01.2021
3301 Snow 1 1018 80 10000 4.63 230 10:34 26.01.2021
3302 Snow 1 1017 80 10000 4.12 240 09:51 26.01.2021
3303 Snow 0 1016 80 5000 4.12 230 09:32 26.01.2021
3304 Snow 0 1016 80 10000 5.14 230 08:56 26.01.2021
3305 Snow 0 1016 80 10000 5.14 230 08:38 26.01.2021
3306 Snow 0 1015 80 10000 6.17 230 07:54 26.01.2021
3307 Snow 0 1015 86 10000 5.14 220 06:56 26.01.2021
3308 Snow 0 1015 80 10000 4.63 220 05:46 26.01.2021
3309 Snow -1 1015 80 10000 4.12 210 05:25 26.01.2021
3310 Clouds -1 1015 80 10000 3.6 240 03:31 26.01.2021
3311 Clouds 0 1013 86 10000 2.57 280 00:59 26.01.2021
3312 Snow 0 1012 93 9000 3.6 300 23:47 25.01.2021
3313 Snow 0 1012 93 9000 5.14 310 23:26 25.01.2021
3314 Snow 0 1011 93 9000 3.6 280 22:43 25.01.2021
3315 Snow 0 1011 93 10000 4.12 260 22:25 25.01.2021
3316 Snow 0 1010 93 10000 3.09 250 21:41 25.01.2021
3317 Clouds 0 1010 93 10000 3.6 270 21:18 25.01.2021
3318 Snow 0 1009 93 10000 2.57 260 20:40 25.01.2021
3319 Snow 0 1009 93 10000 3.6 290 20:20 25.01.2021
3320 Snow 0 1008 93 3500 4.63 280 19:47 25.01.2021
3321 Snow 0 1008 86 10000 2.57 280 19:22 25.01.2021
3322 Snow 1 1007 86 10000 1.54 320 18:44 25.01.2021
3323 Snow 1 1007 86 10000 2.57 280 18:24 25.01.2021
3324 Clouds 1 1006 86 10000 3.09 300 17:48 25.01.2021
3325 Snow 1 1006 86 10000 5.14 290 17:24 25.01.2021
3326 Snow 1 1005 86 10000 5.66 290 16:49 25.01.2021
3327 Snow 1 1005 86 10000 5.66 290 16:49 25.01.2021
3328 Snow 1 1005 80 5000 3.09 290 16:25 25.01.2021
3329 Snow 1 1004 93 10000 3.09 280 15:55 25.01.2021
3330 Snow 1 1004 93 10000 3.09 280 15:36 25.01.2021
3331 Snow 2 1003 87 4500 2.06 280 14:59 25.01.2021
3332 Snow 2 1003 87 4500 2.06 280 14:38 25.01.2021
3333 Snow 2 1003 93 2000 2.57 260 14:18 25.01.2021
3334 Snow 1 1003 87 10000 1.54 230 13:43 25.01.2021
3335 Snow 1 1003 87 8000 2.06 240 13:20 25.01.2021
3336 Snow 1 1002 93 2000 2.06 240 12:41 25.01.2021
3337 Snow 1 1002 80 6000 1.03 0 12:18 25.01.2021
3338 Snow 0 1001 86 6000 0.51 0 11:29 25.01.2021
3339 Snow 0 1001 86 2000 0.51 0 10:52 25.01.2021
3340 Snow 0 1001 93 1600 0.51 0 10:22 25.01.2021
3341 Snow -1 1000 93 2000 2.27 223 09:54 25.01.2021
3342 Snow -1 1000 100 6000 2.27 223 09:31 25.01.2021
3343 Mist -1 1000 100 2000 2.41 210 08:48 25.01.2021
3344 Mist -2 999 100 1500 0.51 120 08:23 25.01.2021
3345 Snow -1 999 100 1400 1.03 70 07:29 25.01.2021
3346 Snow -1 998 100 4200 0.51 80 06:47 25.01.2021
3347 Clouds -1 998 86 10000 1.03 0 02:59 25.01.2021
3348 Snow -2 1000 86 10000 1.03 0 00:48 25.01.2021
3349 Snow -2 1000 86 10000 0.51 0 23:40 24.01.2021
3350 Clear -2 1000 80 10000 0.51 0 23:19 24.01.2021
3351 Clear -1 1000 74 10000 1.03 190 22:41 24.01.2021
3352 Clear -2 1001 74 10000 1.03 0 22:20 24.01.2021
3353 Clear -1 1001 80 10000 1.54 120 21:44 24.01.2021
3354 Clouds -1 1001 80 10000 1.54 180 21:23 24.01.2021
3355 Clouds -1 1001 69 10000 1.54 210 20:44 24.01.2021
3356 Clouds -1 1001 74 10000 1.54 170 20:20 24.01.2021
3357 Clouds -1 1001 74 10000 2.06 160 19:51 24.01.2021
3358 Clouds 0 1002 74 10000 1.54 170 19:26 24.01.2021
3359 Clouds 0 1002 69 10000 1.54 190 18:57 24.01.2021
3360 Clouds 1 1002 69 10000 1.54 190 18:38 24.01.2021
3361 Clouds 0 1002 74 10000 1.03 0 18:20 24.01.2021
3362 Clouds 1 1002 64 10000 2.06 260 17:49 24.01.2021
3363 Clouds 1 1002 64 10000 3.09 280 17:25 24.01.2021
3364 Clouds 1 1001 64 10000 5.66 290 16:57 24.01.2021
3365 Clouds 1 1001 64 10000 5.66 290 16:37 24.01.2021
3366 Clouds 2 1001 60 10000 6.17 270 16:18 24.01.2021
3367 Clouds 2 1001 64 10000 7.2 280 15:43 24.01.2021
3368 Clouds 2 1001 64 10000 10.8 270 15:18 24.01.2021
3369 Clouds 2 1001 64 10000 9.77 270 14:39 24.01.2021
3370 Clouds 2 1001 64 10000 9.26 250 13:48 24.01.2021
3371 Clouds 2 1001 64 10000 8.75 250 13:27 24.01.2021
3372 Clouds 2 1000 69 10000 7.72 250 12:49 24.01.2021
3373 Clouds 2 1000 69 10000 8.23 250 12:20 24.01.2021
3374 Clouds 1 1000 75 10000 6.69 240 11:51 24.01.2021
3375 Snow 1 1000 80 5000 5.14 240 11:24 24.01.2021
3376 Snow 1 1000 74 10000 5.66 230 10:49 24.01.2021
3377 Clouds 1 999 74 10000 5.14 230 10:29 24.01.2021
3378 Clouds 1 999 74 10000 4.63 230 09:44 24.01.2021
3379 Clouds 0 999 74 10000 5.14 230 09:18 24.01.2021
3380 Snow 0 998 74 10000 4.12 230 08:26 24.01.2021
3381 Clouds 2 994 87 10000 3.09 220 03:37 24.01.2021
3382 Clouds 2 993 87 10000 2.57 200 02:18 24.01.2021
3383 Snow 2 993 93 10000 1.03 220 00:28 24.01.2021
3384 Clouds 2 993 93 10000 1.03 220 23:59 23.01.2021
3385 Clouds 2 993 93 10000 1.03 220 23:59 23.01.2021
3386 Clouds 2 993 93 10000 1.03 220 23:33 23.01.2021
3387 Rain 1 993 93 10000 0.51 0 22:58 23.01.2021
3388 Rain 2 993 93 10000 0.51 0 22:40 23.01.2021
3389 Snow 2 993 93 10000 2.57 170 21:59 23.01.2021
3390 Snow 2 993 93 5000 3.6 190 21:23 23.01.2021
3391 Snow 2 993 86 10000 1.54 140 20:51 23.01.2021
3392 Snow 2 993 86 10000 2.57 170 20:33 23.01.2021
3393 Clouds 2 994 80 10000 3.09 170 19:56 23.01.2021
3394 Clouds 2 994 80 10000 3.09 170 19:38 23.01.2021
3395 Clouds 2 994 80 10000 2.57 160 19:20 23.01.2021
3396 Clouds 2 994 80 10000 2.06 160 18:42 23.01.2021
3397 Clear 2 995 87 10000 2.57 160 18:20 23.01.2021
3398 Rain 2 995 80 10000 3.09 150 17:36 23.01.2021
3399 Clouds 3 995 81 10000 2.57 140 17:18 23.01.2021
3400 Clouds 3 995 81 10000 2.57 130 16:42 23.01.2021
3401 Clouds 4 995 81 10000 2.06 130 15:56 23.01.2021
3402 Clouds 4 996 81 10000 3.09 150 15:29 23.01.2021
3403 Clouds 4 996 81 10000 3.09 230 14:46 23.01.2021
3404 Clouds 4 996 81 10000 4.12 240 14:25 23.01.2021
3405 Clouds 4 997 75 10000 3.09 220 13:49 23.01.2021
3406 Clouds 4 997 75 10000 2.06 210 13:24 23.01.2021
3407 Clouds 4 998 87 10000 2.06 200 12:45 23.01.2021
3408 Clear 4 998 81 10000 1.54 210 12:25 23.01.2021
3409 Clear 3 999 81 10000 1.54 0 11:42 23.01.2021
3410 Clear 2 999 87 10000 1.03 0 11:18 23.01.2021
3411 Clouds 2 999 86 10000 3.09 220 10:27 23.01.2021
3412 Clouds 1 1000 93 10000 2.57 230 09:54 23.01.2021
3413 Clouds 1 1000 93 10000 2.06 220 09:29 23.01.2021
3414 Clear 1 1000 93 10000 2.06 210 08:44 23.01.2021
3415 Clouds 1 1000 93 10000 3.09 200 07:50 23.01.2021
3416 Clouds 1 1000 93 10000 2.06 220 06:59 23.01.2021
3417 Snow 1 998 93 6000 4.63 280 03:34 23.01.2021
3418 Snow 1 995 100 1800 4.63 300 00:34 23.01.2021
3419 Rain 3 994 93 10000 7.2 320 23:36 22.01.2021
3420 Rain 4 993 93 10000 4.12 310 22:45 22.01.2021
3421 Rain 4 993 93 10000 4.12 310 22:22 22.01.2021
3422 Rain 4 993 93 10000 4.12 340 21:45 22.01.2021
3423 Rain 4 993 93 10000 3.09 340 21:25 22.01.2021
3424 Rain 4 993 93 10000 3.09 10 20:54 22.01.2021
3425 Rain 4 993 93 10000 3.09 10 20:32 22.01.2021
3426 Rain 4 994 100 10000 2.06 360 19:48 22.01.2021
3427 Rain 4 993 100 10000 3.6 360 19:21 22.01.2021
3428 Rain 4 994 93 10000 2.57 350 18:48 22.01.2021
3429 Rain 4 994 100 10000 3.6 340 18:26 22.01.2021
3430 Clouds 5 994 93 10000 4.12 340 17:52 22.01.2021
3431 Rain 5 994 93 10000 4.12 340 17:33 22.01.2021
3432 Rain 5 994 93 10000 5.14 330 16:56 22.01.2021
3433 Rain 6 993 87 10000 8.75 330 16:31 22.01.2021
3434 Rain 8 992 50 10000 2.57 230 15:53 22.01.2021
3435 Rain 9 992 47 10000 2.57 210 15:25 22.01.2021
3436 Clouds 12 992 50 10000 3.09 210 14:43 22.01.2021
3437 Rain 13 993 50 10000 3.6 210 14:24 22.01.2021
3438 Clouds 13 993 50 10000 3.6 210 13:46 22.01.2021
3439 Clouds 13 993 50 10000 4.63 210 13:26 22.01.2021
3440 Clear 12 994 54 10000 4.12 210 12:40 22.01.2021
3441 Clear 12 994 58 10000 4.63 210 12:18 22.01.2021
3442 Clear 11 994 54 10000 6.69 210 11:39 22.01.2021
3443 Clouds 11 994 62 10000 5.14 210 10:48 22.01.2021
3444 Clouds 10 994 62 10000 6.69 200 10:29 22.01.2021
3445 Clouds 9 994 62 10000 6.17 200 09:46 22.01.2021
3446 Clouds 9 994 61 10000 6.17 200 08:59 22.01.2021
3447 Clouds 9 994 61 10000 6.17 200 08:32 22.01.2021
3448 Clouds 9 994 66 10000 7.2 200 08:00 22.01.2021
3449 Clouds 8 994 66 10000 7.2 210 07:23 22.01.2021
3450 Clouds 9 996 71 10000 7.2 200 02:38 22.01.2021
3451 Clouds 9 997 62 10000 6.69 180 00:31 22.01.2021
3452 Clouds 9 997 71 10000 7.2 190 23:50 21.01.2021
3453 Clouds 8 998 76 10000 6.17 210 23:22 21.01.2021
3454 Rain 8 998 71 10000 4.12 200 22:48 21.01.2021
3455 Rain 9 998 66 10000 2.06 200 22:21 21.01.2021
3456 Rain 9 998 66 10000 3.6 180 21:43 21.01.2021
3457 Clouds 9 998 66 10000 4.63 180 21:19 21.01.2021
3458 Rain 10 999 66 10000 4.12 180 20:47 21.01.2021
3459 Clouds 10 999 66 10000 3.09 190 20:26 21.01.2021
3460 Clouds 10 999 71 10000 3.6 160 19:51 21.01.2021
3461 Clouds 9 1000 66 10000 3.09 190 19:28 21.01.2021
3462 Clouds 9 1000 66 10000 5.66 210 18:56 21.01.2021
3463 Clouds 9 1000 66 10000 5.66 210 18:38 21.01.2021
3464 Clouds 9 1000 66 10000 4.12 200 18:19 21.01.2021
3465 Clouds 9 1000 66 10000 3.6 200 17:42 21.01.2021
3466 Clouds 9 1000 66 10000 4.12 200 17:19 21.01.2021
3467 Clouds 10 1001 62 10000 4.12 200 16:42 21.01.2021
3468 Clouds 10 1001 62 10000 5.14 210 16:24 21.01.2021
3469 Clouds 10 1001 66 10000 4.12 220 15:58 21.01.2021
3470 Clouds 10 1001 66 10000 4.12 220 15:33 21.01.2021
3471 Clouds 12 1001 58 10000 4.63 220 14:52 21.01.2021
3472 Clouds 12 1001 54 10000 3.6 200 14:34 21.01.2021
3473 Rain 12 1001 54 10000 4.12 210 13:48 21.01.2021
3474 Clouds 12 1001 54 10000 5.66 210 13:27 21.01.2021
3475 Clouds 11 1001 54 10000 5.66 220 12:55 21.01.2021
3476 Clouds 11 1001 54 10000 5.66 220 12:37 21.01.2021
3477 Rain 11 1001 54 10000 5.66 210 12:18 21.01.2021
3478 Rain 12 1001 54 10000 7.72 200 11:43 21.01.2021
3479 Clouds 11 1001 54 10000 6.17 200 11:22 21.01.2021
3480 Clear 11 1001 54 10000 6.69 210 10:45 21.01.2021
3481 Clear 10 1001 57 10000 8.75 200 10:24 21.01.2021
3482 Clear 10 1001 53 10000 7.2 200 09:40 21.01.2021
3483 Rain 8 1001 53 10000 6.69 200 09:21 21.01.2021
3484 Clear 8 1001 50 10000 7.72 210 08:36 21.01.2021
3485 Clear 9 1001 46 10000 7.2 200 07:54 21.01.2021
3486 Clear 9 1001 46 10000 4.12 210 07:26 21.01.2021
3487 Clear 6 1001 46 10000 4.12 200 06:43 21.01.2021
3488 Clouds 4 1001 56 10000 2.57 200 04:58 21.01.2021
3489 Clear 2 1002 86 10000 1.54 0 02:24 21.01.2021
3490 Clear 2 1003 86 10000 1.54 60 00:44 21.01.2021
3491 Clear 3 1003 80 10000 0.51 0 23:52 20.01.2021
3492 Clear 2 1004 80 10000 1.03 0 23:31 20.01.2021
3493 Clear 2 1004 80 10000 0.51 0 22:57 20.01.2021
3494 Clear 2 1004 80 10000 0.51 0 22:36 20.01.2021
3495 Clear 3 1004 70 10000 1.54 220 21:56 20.01.2021
3496 Clear 3 1004 75 10000 1.03 0 21:24 20.01.2021
3497 Clear 3 1004 70 10000 1.03 0 20:58 20.01.2021
3498 Clear 3 1004 75 10000 1.03 0 20:36 20.01.2021
3499 Clear 3 1004 75 10000 1.03 0 20:18 20.01.2021
3500 Clear 3 1004 80 10000 0.51 0 19:41 20.01.2021
3501 Clear 3 1004 75 10000 1.54 260 19:22 20.01.2021
3502 Clear 3 1004 75 10000 1.03 0 18:42 20.01.2021
3503 Clear 4 1004 70 10000 1.54 160 17:57 20.01.2021
3504 Clear 5 1004 70 10000 1.54 160 17:37 20.01.2021
3505 Clear 6 1005 57 10000 1.54 240 16:57 20.01.2021
3506 Clear 6 1005 57 10000 1.54 240 16:38 20.01.2021
3507 Clear 7 1005 57 10000 1.03 0 15:52 20.01.2021
3508 Clear 7 1005 61 10000 1.03 0 15:34 20.01.2021
3509 Clear 7 1006 65 10000 1.03 0 14:50 20.01.2021
3510 Clear 7 1006 61 10000 1.03 0 14:23 20.01.2021
3511 Clear 6 1007 65 10000 1.54 150 13:48 20.01.2021
3512 Clear 6 1007 65 10000 1.54 160 13:26 20.01.2021
3513 Clear 5 1008 65 10000 1.03 0 12:42 20.01.2021
3514 Clear 5 1008 60 10000 2.06 190 11:58 20.01.2021
3515 Clear 4 1009 65 10000 2.57 180 11:38 20.01.2021
3516 Clear 4 1009 70 10000 3.09 170 10:56 20.01.2021
3517 Clear 4 1009 70 10000 3.09 170 10:34 20.01.2021
3518 Clear 4 1009 70 10000 1.03 0 09:55 20.01.2021
3519 Clear 3 1010 70 10000 2.57 170 09:30 20.01.2021
3520 Clear 3 1010 70 10000 1.03 0 08:58 20.01.2021
3521 Clear 3 1010 70 10000 2.06 190 08:33 20.01.2021
3522 Clear 2 1010 75 10000 2.06 180 07:59 20.01.2021
3523 Clear 2 1010 75 10000 2.06 180 07:37 20.01.2021
3524 Clear 2 1010 80 10000 1.54 210 06:39 20.01.2021
3525 Clear 2 1011 75 10000 1.54 200 03:30 20.01.2021
3526 Clear 2 1012 75 10000 2.06 210 01:50 20.01.2021
3527 Clear 3 1012 64 10000 1.54 40 00:47 20.01.2021
3528 Clear 3 1013 65 10000 2.06 110 23:50 19.01.2021
3529 Clear 3 1013 56 10000 3.09 210 23:27 19.01.2021
3530 Clear 4 1013 60 10000 4.12 190 22:58 19.01.2021
3531 Clear 3 1013 60 10000 4.12 190 22:37 19.01.2021
3532 Clear 4 1013 60 10000 1.54 200 22:19 19.01.2021
3533 Clear 3 1013 60 10000 3.09 200 21:52 19.01.2021
3534 Clear 3 1013 65 10000 3.6 200 21:28 19.01.2021
3535 Clear 4 1014 65 10000 2.06 200 20:49 19.01.2021
3536 Rain 4 1014 70 10000 1.03 0 20:26 19.01.2021
3537 Rain 4 1014 70 10000 1.03 0 19:56 19.01.2021
3538 Clouds 4 1014 70 10000 1.54 240 19:31 19.01.2021
3539 Clouds 4 1014 70 10000 3.09 230 18:50 19.01.2021
3540 Clouds 4 1014 70 10000 2.57 220 18:31 19.01.2021
3541 Clouds 4 1014 70 10000 4.63 230 17:55 19.01.2021
3542 Clouds 4 1014 65 10000 4.63 230 17:37 19.01.2021
3543 Clouds 4 1014 65 10000 4.63 230 17:18 19.01.2021
3544 Clouds 4 1014 65 10000 5.14 230 16:38 19.01.2021
3545 Clouds 4 1014 65 10000 6.17 230 16:18 19.01.2021
3546 Clouds 4 1013 65 10000 6.69 230 15:47 19.01.2021
3547 Clouds 4 1014 65 10000 6.17 230 15:29 19.01.2021
3548 Clouds 4 1014 65 10000 4.63 220 14:42 19.01.2021
3549 Clouds 3 1014 65 10000 4.12 220 14:23 19.01.2021
3550 Rain 3 1014 65 10000 3.09 220 13:49 19.01.2021
3551 Rain 3 1015 65 10000 3.09 200 13:22 19.01.2021
3552 Rain 2 1015 69 10000 2.57 190 12:49 19.01.2021
3553 Rain 2 1016 69 10000 2.57 170 12:30 19.01.2021
3554 Snow 2 1017 75 10000 3.09 170 11:51 19.01.2021
3555 Snow 2 1017 75 10000 3.09 170 11:51 19.01.2021
3556 Snow 1 1017 69 10000 2.06 160 11:28 19.01.2021
3557 Snow 1 1018 74 10000 3.09 160 10:53 19.01.2021
3558 Snow 1 1018 74 10000 3.09 160 10:32 19.01.2021
3559 Clear 0 1018 74 10000 1.54 180 09:54 19.01.2021
3560 Clouds 0 1019 74 10000 1.03 0 09:36 19.01.2021
3561 Clouds -1 1019 74 10000 1.03 0 08:59 19.01.2021
3562 Clouds -1 1019 74 10000 2.06 190 08:26 19.01.2021
3563 Clouds 0 1019 80 10000 2.57 190 07:51 19.01.2021
3564 Clouds 0 1020 80 10000 2.06 190 06:55 19.01.2021
3565 Clouds 0 1023 80 10000 2.57 230 03:20 19.01.2021
3566 Clouds 0 1023 74 10000 2.57 220 02:21 19.01.2021
3567 Clouds 1 1024 80 10000 3.6 200 00:23 19.01.2021
3568 Clouds 1 1024 75 10000 2.57 210 23:41 18.01.2021
3569 Clouds 1 1024 80 10000 3.09 210 23:22 18.01.2021
3570 Clouds 1 1024 80 10000 3.6 230 22:41 18.01.2021
3571 Clouds 2 1024 80 10000 3.6 220 22:20 18.01.2021
3572 Clouds 2 1024 80 10000 2.57 210 21:43 18.01.2021
3573 Clouds 1 1025 80 10000 3.09 210 21:22 18.01.2021
3574 Clouds 1 1025 80 10000 3.6 210 20:53 18.01.2021
3575 Clouds 2 1025 80 10000 3.6 210 20:33 18.01.2021
3576 Clouds 2 1025 75 10000 3.6 220 19:52 18.01.2021
3577 Clouds 2 1025 75 10000 3.6 220 19:34 18.01.2021
3578 Clouds 2 1025 75 10000 3.09 230 18:48 18.01.2021
3579 Clouds 2 1025 80 10000 4.12 250 18:25 18.01.2021
3580 Clouds 2 1024 75 10000 3.6 220 17:46 18.01.2021
3581 Clouds 2 1024 80 10000 3.09 210 17:26 18.01.2021
3582 Clouds 2 1024 87 10000 3.09 210 16:49 18.01.2021
3583 Clouds 3 1024 87 10000 2.57 220 16:23 18.01.2021
3584 Clouds 3 1024 87 10000 4.12 250 15:51 18.01.2021
3585 Clouds 3 1025 81 10000 2.06 240 15:27 18.01.2021
3586 Clouds 3 1025 81 10000 3.09 240 14:56 18.01.2021
3587 Clouds 3 1025 81 10000 3.09 240 14:38 18.01.2021
3588 Clouds 3 1025 81 10000 3.09 230 14:19 18.01.2021
3589 Clouds 3 1025 81 10000 3.6 230 13:44 18.01.2021
3590 Clouds 3 1025 81 10000 2.57 220 13:20 18.01.2021
3591 Clouds 3 1025 87 10000 3.09 230 12:45 18.01.2021
3592 Clouds 2 1025 87 10000 1.54 220 12:18 18.01.2021
3593 Clouds 2 1026 87 10000 2.57 230 11:42 18.01.2021
3594 Clouds 2 1026 80 10000 2.57 240 11:23 18.01.2021
3595 Clouds 2 1026 86 10000 2.57 250 10:47 18.01.2021
3596 Clouds 2 1026 86 10000 2.57 250 10:47 18.01.2021
3597 Clouds 2 1026 86 10000 2.06 250 10:26 18.01.2021
3598 Clouds 1 1025 93 10000 2.06 230 09:39 18.01.2021
3599 Clouds 1 1025 86 10000 2.57 240 09:18 18.01.2021
3600 Clouds 1 1025 86 10000 1.54 230 08:26 18.01.2021
3601 Clouds 1 1024 93 10000 2.57 240 07:54 18.01.2021
3602 Snow 1 1024 86 10000 2.57 240 06:35 18.01.2021
3603 Clouds 1 1024 93 10000 3.09 250 04:43 18.01.2021
3604 Clouds 1 1024 93 10000 2.06 250 04:25 18.01.2021
3605 Clouds 1 1023 93 10000 2.06 250 03:50 18.01.2021
3606 Snow 1 1023 93 10000 2.06 240 03:27 18.01.2021
3607 Snow 1 1023 93 10000 1.54 220 02:58 18.01.2021
3608 Snow 1 1023 93 10000 1.54 210 02:19 18.01.2021
3609 Clouds 1 1023 93 10000 1.54 210 00:41 18.01.2021
3610 Snow 1 1023 93 10000 1.03 0 23:57 17.01.2021
3611 Snow 1 1023 93 10000 1.03 0 23:39 17.01.2021
3612 Snow 1 1023 93 10000 2.06 240 23:19 17.01.2021
3613 Snow 1 1022 93 10000 1.54 240 22:24 17.01.2021
3614 Snow 1 1022 93 9000 1.54 230 21:57 17.01.2021
3615 Snow 1 1022 93 9000 1.54 230 21:37 17.01.2021
3616 Snow 1 1022 93 9000 1.03 0 21:18 17.01.2021
3617 Snow 0 1022 93 9000 1.54 240 20:40 17.01.2021
3618 Snow 0 1021 93 7000 1.03 0 20:18 17.01.2021
3619 Snow 0 1021 93 3500 1.03 230 19:40 17.01.2021
3620 Snow 0 1021 100 1800 0.51 0 18:59 17.01.2021
3621 Snow 0 1020 100 1200 0.51 250 18:31 17.01.2021
3622 Snow 0 1020 100 700 2.08 306 17:56 17.01.2021
3623 Fog 0 1020 100 700 2.08 306 17:37 17.01.2021
3624 Snow 0 1019 100 400 1.03 40 17:19 17.01.2021
3625 Snow 0 1019 100 450 0.51 70 16:42 17.01.2021
3626 Snow 0 1019 100 700 1.54 70 16:19 17.01.2021
3627 Snow 0 1018 93 900 0.51 0 15:38 17.01.2021
3628 Snow 0 1018 86 700 0.51 0 15:20 17.01.2021
3629 Snow 0 1017 93 4000 0.51 130 14:46 17.01.2021
3630 Snow 0 1020 95 70 2 309 14:25 17.01.2021
3631 Snow 0 1017 86 2000 0.51 190 13:44 17.01.2021
3632 Snow 0 1017 86 1300 1.72 298 13:26 17.01.2021
3633 Mist 0 1017 93 1500 1.03 70 12:47 17.01.2021
3634 Mist 0 1017 86 1500 0.51 30 12:28 17.01.2021
3635 Snow -1 1017 86 1500 0.51 0 11:48 17.01.2021
3636 Snow -1 1017 86 1800 1.29 274 11:22 17.01.2021
3637 Snow -1 1017 93 1200 1.29 274 10:44 17.01.2021
3638 Snow -2 1016 93 1800 0.51 90 10:20 17.01.2021
3639 Snow -2 1016 93 2300 0.51 0 09:20 17.01.2021
3640 Snow -3 1016 93 2200 0.51 0 08:43 17.01.2021
3641 Snow -3 1015 100 7000 0.51 0 06:52 17.01.2021
3642 Snow -3 1015 100 3000 0.51 0 04:28 17.01.2021
3643 Snow -3 1016 100 2000 1.03 0 02:42 17.01.2021
3644 Snow -2 1018 86 3000 1.54 210 00:47 17.01.2021
3645 Snow -3 1018 80 10000 2.06 230 00:18 17.01.2021
3646 Snow -3 1018 80 10000 1.54 190 23:48 16.01.2021
3647 Snow -3 1019 80 10000 2.06 210 23:19 16.01.2021
3648 Snow -3 1020 80 10000 2.57 240 22:36 16.01.2021
3649 Snow -3 1020 80 10000 2.57 230 21:58 16.01.2021
3650 Clear -3 1020 74 10000 3.09 240 21:25 16.01.2021
3651 Clear -3 1021 74 10000 2.57 250 20:59 16.01.2021
3652 Clear -3 1021 74 10000 2.57 250 20:41 16.01.2021
3653 Clear -3 1021 74 10000 2.06 230 20:19 16.01.2021
3654 Clouds -2 1021 80 10000 2.06 230 19:42 16.01.2021
3655 Clouds -2 1022 80 10000 2.57 240 19:24 16.01.2021
3656 Clouds -2 1022 80 10000 2.06 230 18:42 16.01.2021
3657 Clouds -2 1022 74 10000 0.51 110 18:24 16.01.2021
3658 Clouds -2 1023 80 10000 0.51 0 17:46 16.01.2021
3659 Clouds -1 1022 80 10000 2.57 360 17:28 16.01.2021
3660 Clouds -1 1023 80 10000 2.57 30 16:45 16.01.2021
3661 Clouds -1 1023 74 10000 2.06 10 16:26 16.01.2021
3662 Clouds 0 1023 64 10000 2.57 290 15:51 16.01.2021
3663 Clouds 0 1023 64 10000 3.09 250 15:20 16.01.2021
3664 Clouds 0 1024 55 10000 3.6 310 14:22 16.01.2021
3665 Clouds 0 1024 51 10000 3.09 280 13:48 16.01.2021
3666 Clouds 0 1024 55 10000 2.57 260 13:24 16.01.2021
3667 Clouds 0 1025 64 10000 3.09 250 12:39 16.01.2021
3668 Clouds 0 1025 74 10000 1.54 240 12:20 16.01.2021
3669 Clouds -1 1026 80 10000 1.54 230 11:48 16.01.2021
3670 Clouds -1 1026 80 9000 1.54 260 11:25 16.01.2021
3671 Snow -1 1026 80 6000 1.54 230 10:47 16.01.2021
3672 Snow -1 1026 93 5000 1.54 250 10:24 16.01.2021
3673 Snow -1 1026 86 9000 2.06 250 09:39 16.01.2021
3674 Snow -1 1026 86 9000 2.06 250 09:19 16.01.2021
3675 Clouds -1 1026 93 10000 2.06 250 07:51 16.01.2021
3676 Snow -1 1026 93 10000 2.06 250 06:44 16.01.2021
3677 Snow -1 1026 86 10000 1.54 290 04:40 16.01.2021
3678 Clouds -1 1026 86 10000 1.54 320 02:56 16.01.2021
3679 Clouds -1 1026 86 10000 2.06 290 02:21 16.01.2021
3680 Snow -1 1026 86 10000 1.54 320 00:43 16.01.2021
3681 Snow -1 1027 86 10000 2.06 320 00:19 16.01.2021
3682 Snow -1 1026 86 10000 1.54 340 23:28 15.01.2021
3683 Snow -1 1026 86 10000 2.06 330 22:27 15.01.2021
3684 Snow -1 1026 86 10000 2.57 340 21:48 15.01.2021
3685 Snow -1 1026 86 10000 3.09 340 21:30 15.01.2021
3686 Snow -1 1026 86 10000 3.6 350 20:43 15.01.2021
3687 Snow -1 1026 86 10000 3.09 350 20:23 15.01.2021
3688 Snow 0 1025 74 10000 2.57 350 19:45 15.01.2021
3689 Snow 0 1025 74 10000 3.09 350 19:25 15.01.2021
3690 Clear 0 1025 80 10000 2.57 330 18:45 15.01.2021
3691 Clear 0 1025 80 10000 2.06 310 18:20 15.01.2021
3692 Clear -1 1025 80 10000 2.06 310 18:20 15.01.2021
3693 Clear 0 1024 74 10000 2.57 310 17:56 15.01.2021
3694 Clear 0 1024 74 10000 2.57 310 17:38 15.01.2021
3695 Clouds 0 1024 69 10000 3.09 350 17:19 15.01.2021
3696 Clouds 0 1024 69 10000 3.09 350 17:19 15.01.2021
3697 Clouds 1 1024 74 10000 2.57 340 16:43 15.01.2021
3698 Clouds 1 1023 69 10000 4.12 350 16:23 15.01.2021
3699 Clouds 1 1023 69 10000 3.6 350 15:41 15.01.2021
3700 Clouds 1 1022 64 10000 4.12 350 15:19 15.01.2021
3701 Clouds 1 1022 64 10000 3.09 360 14:42 15.01.2021
3702 Clouds 1 1022 64 10000 3.09 360 14:24 15.01.2021
3703 Clouds 1 1022 64 10000 2.57 20 13:41 15.01.2021
3704 Clouds 1 1022 64 10000 2.06 10 13:20 15.01.2021
3705 Clouds 1 1022 69 10000 2.06 30 12:49 15.01.2021
3706 Clouds 1 1022 69 10000 2.06 30 12:30 15.01.2021
3707 Clear 0 1022 69 10000 2.06 50 11:43 15.01.2021
3708 Clear -1 1021 69 10000 2.57 60 11:23 15.01.2021
3709 Clear -1 1021 74 10000 2.06 60 10:53 15.01.2021
3710 Clear -2 1021 74 10000 2.57 60 10:33 15.01.2021
3711 Clear -2 1020 80 10000 2.57 60 09:53 15.01.2021
3712 Clear -3 1020 80 10000 2.57 60 09:34 15.01.2021
3713 Clear -4 1019 80 10000 3.09 30 08:42 15.01.2021
3714 Clear -4 1019 80 10000 2.57 40 08:19 15.01.2021
3715 Clear -4 1019 80 10000 3.09 20 07:41 15.01.2021
3716 Clear -3 1018 80 10000 2.57 30 07:19 15.01.2021
3717 Clouds -2 1017 80 10000 3.6 70 04:33 15.01.2021
3718 Clouds -1 1016 86 10000 4.12 80 01:39 15.01.2021
3719 Clouds -1 1016 86 10000 3.09 80 23:55 14.01.2021
3720 Clouds -1 1016 93 10000 3.09 80 23:23 14.01.2021
3721 Clouds -1 1016 93 10000 3.09 90 22:44 14.01.2021
3722 Clouds 0 1016 93 10000 2.57 80 22:25 14.01.2021
3723 Clouds 0 1016 93 10000 2.57 90 21:48 14.01.2021
3724 Snow 0 1016 93 10000 2.57 80 21:21 14.01.2021
3725 Snow 0 1017 93 10000 2.06 80 20:51 14.01.2021
3726 Snow 0 1017 93 10000 1.03 0 20:26 14.01.2021
3727 Snow 0 1017 93 10000 1.54 130 19:46 14.01.2021
3728 Snow 0 1017 93 10000 0.51 0 19:27 14.01.2021
3729 Snow 0 1017 93 10000 1.03 120 18:55 14.01.2021
3730 Snow 0 1017 93 10000 1.03 0 18:31 14.01.2021
3731 Snow 0 1018 86 10000 1.03 0 17:53 14.01.2021
3732 Snow 0 1018 80 10000 1.54 190 17:27 14.01.2021
3733 Snow 1 1018 80 10000 1.03 0 16:46 14.01.2021
3734 Clouds 1 1018 86 10000 1.54 190 16:26 14.01.2021
3735 Snow 1 1018 86 10000 2.06 200 15:46 14.01.2021
3736 Snow 1 1018 86 10000 2.06 240 15:23 14.01.2021
3737 Snow 1 1018 86 10000 3.09 260 14:39 14.01.2021
3738 Snow 1 1018 86 10000 2.06 220 14:20 14.01.2021
3739 Snow 1 1018 80 10000 2.06 240 13:54 14.01.2021
3740 Snow 1 1018 80 10000 3.09 270 13:23 14.01.2021
3741 Snow 1 1018 80 10000 2.57 270 12:56 14.01.2021
3742 Snow 1 1018 80 10000 3.09 260 12:21 14.01.2021
3743 Snow 1 1018 80 10000 2.57 250 11:53 14.01.2021
3744 Snow 1 1018 86 10000 2.06 260 11:25 14.01.2021
3745 Snow 1 1017 86 10000 1.54 270 10:57 14.01.2021
3746 Snow 1 1017 86 10000 1.54 270 10:38 14.01.2021
3747 Snow 1 1017 86 10000 2.57 270 10:18 14.01.2021
3748 Snow 1 1017 93 10000 2.57 280 09:42 14.01.2021
3749 Snow 1 1017 93 10000 3.6 300 09:20 14.01.2021
3750 Snow 1 1016 93 10000 4.63 280 08:30 14.01.2021
3751 Snow 1 1016 93 10000 2.57 290 07:53 14.01.2021
3752 Snow 1 1016 93 7000 2.06 270 07:30 14.01.2021
3753 Snow 1 1015 93 3800 1.54 250 06:33 14.01.2021
3754 Snow 2 1014 93 10000 3.09 250 04:56 14.01.2021
3755 Snow 3 1013 87 10000 5.14 240 23:59 13.01.2021
3756 Snow 3 1012 87 10000 4.12 250 23:28 13.01.2021
3757 Snow 2 1012 87 10000 4.12 230 22:48 13.01.2021
3758 Snow 2 1013 87 10000 4.63 230 22:21 13.01.2021
3759 Clouds 2 1012 87 10000 4.12 240 21:43 13.01.2021
3760 Clouds 2 1013 87 10000 3.6 240 21:22 13.01.2021
3761 Clouds 2 1013 87 10000 2.06 210 20:51 13.01.2021
3762 Clouds 2 1014 80 10000 2.06 190 20:25 13.01.2021
3763 Clouds 2 1014 80 10000 2.57 200 19:49 13.01.2021
3764 Clouds 2 1014 75 10000 2.57 210 19:27 13.01.2021
3765 Clouds 2 1014 75 10000 2.57 210 18:52 13.01.2021
3766 Clouds 2 1014 75 10000 2.57 210 18:33 13.01.2021
3767 Clouds 2 1015 75 10000 1.54 230 17:50 13.01.2021
3768 Clouds 2 1016 69 10000 3.09 240 17:18 13.01.2021
3769 Clouds 2 1016 69 10000 3.6 230 16:46 13.01.2021
3770 Clouds 3 1016 65 10000 3.6 230 16:21 13.01.2021
3771 Clouds 3 1017 70 10000 4.12 230 15:49 13.01.2021
3772 Clouds 3 1017 69 10000 4.63 240 15:31 13.01.2021
3773 Clouds 3 1017 70 10000 3.6 230 14:33 13.01.2021
3774 Clouds 3 1018 75 10000 3.09 230 13:49 13.01.2021
3775 Clouds 3 1018 87 10000 3.6 230 13:25 13.01.2021
3776 Clouds 2 1019 80 10000 4.12 230 12:46 13.01.2021
3777 Clouds 2 1019 80 10000 3.6 220 12:27 13.01.2021
3778 Clouds 2 1019 75 10000 3.09 240 11:53 13.01.2021
3779 Clouds 1 1019 80 10000 4.12 240 11:34 13.01.2021
3780 Clouds 1 1019 86 10000 3.09 230 10:50 13.01.2021
3781 Clouds 1 1019 80 10000 2.57 230 10:30 13.01.2021
3782 Clouds 1 1019 80 10000 2.57 230 09:53 13.01.2021
3783 Clouds 0 1018 93 10000 2.06 230 09:30 13.01.2021
3784 Clouds 0 1018 86 10000 1.54 230 08:50 13.01.2021
3785 Clouds 0 1018 93 10000 2.06 250 08:28 13.01.2021
3786 Clouds 0 1018 86 10000 1.03 0 07:34 13.01.2021
3787 Clouds 0 1018 93 10000 1.54 250 06:53 13.01.2021
3788 Clouds 1 1017 86 10000 1.03 0 04:20 13.01.2021
3789 Clouds 0 1017 93 10000 1.54 270 03:44 13.01.2021
3790 Clouds 1 1017 86 10000 3.09 280 03:24 13.01.2021
3791 Clouds 0 1016 86 10000 2.06 250 01:19 13.01.2021
3792 Clouds 1 1015 86 10000 5.14 310 23:54 12.01.2021
3793 Clouds 1 1015 93 10000 4.63 300 23:22 12.01.2021
3794 Clouds 2 1014 87 10000 5.66 310 22:46 12.01.2021
3795 Snow 2 1014 87 10000 6.17 310 22:23 12.01.2021
3796 Clouds 2 1013 93 7000 5.66 280 21:49 12.01.2021
3797 Clouds 2 1012 93 7000 3.6 250 21:30 12.01.2021
3798 Clouds 2 1012 93 10000 4.12 250 20:49 12.01.2021
3799 Clouds 2 1011 93 10000 3.09 240 20:27 12.01.2021
3800 Snow 2 1011 93 10000 4.12 240 19:55 12.01.2021
3801 Snow 2 1011 93 10000 4.12 240 19:35 12.01.2021
3802 Clouds 2 1010 87 10000 3.6 230 18:46 12.01.2021
3803 Snow 2 1010 87 10000 3.6 230 18:24 12.01.2021
3804 Clouds 2 1010 87 10000 4.63 220 17:48 12.01.2021
3805 Clouds 2 1010 87 10000 5.66 230 17:30 12.01.2021
3806 Snow 2 1009 87 6000 6.17 230 16:44 12.01.2021
3807 Snow 2 1009 87 5000 5.66 230 16:24 12.01.2021
3808 Snow 2 1009 93 4000 6.69 230 15:45 12.01.2021
3809 Snow 2 1009 87 4000 6.17 230 15:21 12.01.2021
3810 Snow 2 1009 87 6000 6.17 220 14:44 12.01.2021
3811 Snow 2 1009 93 4500 6.17 220 14:25 12.01.2021
3812 Snow 2 1009 93 6000 6.17 220 13:52 12.01.2021
3813 Snow 2 1010 93 6000 5.66 210 13:29 12.01.2021
3814 Snow 2 1011 93 6000 6.17 220 12:29 12.01.2021
3815 Snow 2 1011 87 10000 7.2 220 11:42 12.01.2021
3816 Rain 2 1012 80 10000 5.14 210 10:59 12.01.2021
3817 Rain 2 1012 80 10000 5.14 210 10:40 12.01.2021
3818 Snow 2 1012 80 10000 5.66 210 10:19 12.01.2021
3819 Rain 2 1012 75 10000 5.66 210 09:43 12.01.2021
3820 Snow 1 1012 80 10000 6.17 210 09:20 12.01.2021
3821 Snow 1 1013 75 10000 5.14 210 08:26 12.01.2021
3822 Snow 1 1014 80 10000 5.14 200 07:41 12.01.2021
3823 Snow 1 1014 74 10000 4.12 220 07:21 12.01.2021
3824 Snow 1 1015 74 10000 6.17 210 05:40 12.01.2021
3825 Clouds -1 1017 74 10000 5.66 200 03:46 12.01.2021
3826 Clouds -1 1017 69 10000 5.66 200 03:19 12.01.2021
3827 Clouds -2 1018 74 10000 1.54 0 01:51 12.01.2021
3828 Clouds -3 1019 80 10000 1.54 200 00:33 12.01.2021
3829 Clear -3 1019 80 10000 1.54 0 23:41 11.01.2021
3830 Clouds -3 1019 80 10000 1.54 210 23:19 11.01.2021
3831 Clear -3 1019 74 10000 1.03 0 22:46 11.01.2021
3832 Clear -3 1019 80 10000 1.03 0 22:27 11.01.2021
3833 Clear -3 1020 74 10000 1.54 210 21:46 11.01.2021
3834 Clear -2 1020 74 10000 1.03 170 21:25 11.01.2021
3835 Clear -2 1020 74 10000 0.51 0 20:59 11.01.2021
3836 Clear -2 1020 74 10000 0.51 0 20:39 11.01.2021
3837 Clear -2 1020 74 10000 0.51 0 20:39 11.01.2021
3838 Clear -2 1020 74 10000 0.51 0 20:20 11.01.2021
3839 Clear -2 1020 74 10000 1.03 0 19:49 11.01.2021
3840 Clear -2 1020 74 10000 0.51 0 19:22 11.01.2021
3841 Clear -2 1020 74 10000 1.54 190 18:43 11.01.2021
3842 Clear -2 1020 74 10000 2.57 200 18:23 11.01.2021
3843 Clear -2 1020 74 10000 3.09 170 17:42 11.01.2021
3844 Clear -2 1020 74 10000 2.57 180 17:24 11.01.2021
3845 Clear -1 1020 69 10000 3.09 180 16:49 11.01.2021
3846 Clear -1 1021 69 10000 2.57 170 16:29 11.01.2021
3847 Clear -1 1021 64 10000 2.57 170 15:58 11.01.2021
3848 Clear -1 1021 64 10000 2.57 170 15:37 11.01.2021
3849 Clear -1 1021 59 10000 2.06 150 14:58 11.01.2021
3850 Clear -1 1021 59 10000 2.06 150 14:38 11.01.2021
3851 Clear -1 1021 64 10000 1.54 0 13:48 11.01.2021
3852 Clear -2 1022 64 10000 2.06 150 13:24 11.01.2021
3853 Clear -2 1022 69 10000 1.03 0 12:45 11.01.2021
3854 Clear -2 1022 74 10000 1.03 0 12:27 11.01.2021
3855 Clear -3 1022 74 10000 2.06 170 11:50 11.01.2021
3856 Clear -3 1023 68 10000 1.54 170 11:26 11.01.2021
3857 Clear -4 1022 80 10000 2.06 180 10:42 11.01.2021
3858 Clear -5 1023 80 10000 2.06 170 10:24 11.01.2021
3859 Clear -6 1022 93 10000 1.03 90 09:39 11.01.2021
3860 Clear -7 1022 93 10000 1.03 90 09:20 11.01.2021
3861 Clear -7 1022 93 10000 0.51 100 08:44 11.01.2021
3862 Clouds -8 1022 93 10000 0.51 0 08:18 11.01.2021
3863 Clouds -8 1022 93 10000 0.51 0 07:27 11.01.2021
3864 Clouds -7 1022 93 10000 1.03 180 06:58 11.01.2021
3865 Clear -7 1022 86 10000 1.54 340 03:51 11.01.2021
3866 Clouds -6 1022 100 10000 0.51 0 01:30 11.01.2021
3867 Clouds -5 1022 93 10000 1.03 0 23:59 10.01.2021
3868 Clouds -5 1022 93 10000 1.03 0 23:35 10.01.2021
3869 Clouds -4 1023 86 10000 1.03 0 22:48 10.01.2021
3870 Clouds -4 1023 86 10000 0.89 138 22:24 10.01.2021
3871 Clouds -4 1023 86 10000 0.89 138 22:24 10.01.2021
3872 Clouds -4 1022 86 10000 1.54 110 21:46 10.01.2021
3873 Clouds -4 1022 93 10000 1.03 0 21:21 10.01.2021
3874 Clouds -4 1022 86 10000 1.54 20 20:56 10.01.2021
3875 Clear -4 1022 80 10000 1.54 10 20:33 10.01.2021
3876 Clear -3 1022 80 10000 2.06 60 19:58 10.01.2021
3877 Clear -3 1022 80 10000 2.06 60 19:36 10.01.2021
3878 Clouds -3 1022 80 10000 2.57 60 19:18 10.01.2021
3879 Clouds -3 1022 86 10000 3.09 60 18:41 10.01.2021
3880 Clouds -2 1022 86 10000 2.57 60 18:19 10.01.2021
3881 Clouds -1 1022 80 10000 4.12 60 17:22 10.01.2021
3882 Clouds 0 1021 74 10000 2.06 50 16:43 10.01.2021
3883 Clouds 0 1021 74 10000 3.6 50 16:25 10.01.2021
3884 Clouds 1 1021 69 10000 3.6 70 15:26 10.01.2021
3885 Clouds 1 1021 69 10000 3.6 70 14:52 10.01.2021
3886 Clouds 1 1021 69 10000 3.09 100 14:34 10.01.2021
3887 Clouds 1 1021 69 10000 3.09 100 13:56 10.01.2021
3888 Clouds 1 1021 74 10000 3.09 100 13:38 10.01.2021
3889 Clouds 0 1021 74 10000 3.09 100 13:20 10.01.2021
3890 Clouds 1 1022 69 10000 3.09 90 12:50 10.01.2021
3891 Clouds 1 1022 69 10000 3.09 90 12:32 10.01.2021
3892 Clouds 0 1022 69 10000 2.06 60 11:48 10.01.2021
3893 Clouds -1 1022 74 10000 3.09 50 11:20 10.01.2021
3894 Clouds -1 1022 74 10000 3.09 60 10:47 10.01.2021
3895 Clouds -2 1022 86 10000 1.03 0 10:22 10.01.2021
3896 Clouds -3 1022 93 10000 1.03 0 09:36 10.01.2021
3897 Clouds -3 1022 80 10000 1.03 0 08:26 10.01.2021
3898 Clouds -3 1022 86 10000 2.06 30 07:38 10.01.2021
3899 Clouds -4 1022 93 10000 1.03 0 06:21 10.01.2021
3900 Clouds -4 1022 93 10000 0.51 0 05:45 10.01.2021
3901 Clouds -4 1022 93 10000 0.51 0 05:27 10.01.2021
3902 Clouds -4 1022 86 10000 0.51 80 01:30 10.01.2021
3903 Clouds -3 1022 93 10000 0.51 0 00:19 10.01.2021
3904 Clouds -3 1022 86 10000 1.54 70 23:41 09.01.2021
3905 Clouds -3 1022 86 10000 2.57 60 23:20 09.01.2021
3906 Clouds -3 1022 86 10000 2.57 30 22:21 09.01.2021
3907 Clouds -3 1022 80 10000 2.57 10 21:58 09.01.2021
3908 Clouds -3 1022 80 10000 2.57 10 21:39 09.01.2021
3909 Clouds -3 1022 86 10000 1.54 10 21:21 09.01.2021
3910 Clouds -3 1022 86 10000 1.03 0 20:56 09.01.2021
3911 Clouds -3 1021 86 10000 1.54 10 20:32 09.01.2021
3912 Clouds -3 1021 86 10000 1.03 50 19:40 09.01.2021
3913 Clouds -2 1021 80 10000 2.57 30 19:21 09.01.2021
3914 Clouds -2 1021 80 10000 3.6 20 18:38 09.01.2021
3915 Clouds -2 1021 80 10000 2.57 10 18:38 09.01.2021
3916 Clouds -2 1021 80 10000 3.6 20 18:19 09.01.2021
3917 Clouds -1 1021 80 10000 3.09 20 17:42 09.01.2021
3918 Clouds -1 1021 80 10000 3.09 20 17:22 09.01.2021
3919 Clouds 0 1021 74 10000 3.6 30 16:29 09.01.2021
3920 Clouds 0 1020 74 10000 3.09 30 15:47 09.01.2021
3921 Clouds 1 1020 74 10000 3.6 30 15:27 09.01.2021
3922 Clouds 1 1020 75 10000 4.12 40 14:38 09.01.2021
3923 Clouds 1 1020 75 10000 3.6 40 14:20 09.01.2021
3924 Clouds 1 1020 80 10000 3.6 10 13:47 09.01.2021
3925 Clouds 1 1020 75 10000 3.09 30 13:28 09.01.2021
3926 Clouds 1 1020 80 10000 3.09 350 12:48 09.01.2021
3927 Clouds 1 1020 86 10000 3.09 350 12:22 09.01.2021
3928 Clouds 1 1020 86 10000 2.57 20 11:50 09.01.2021
3929 Clouds 1 1020 93 7000 1.54 20 11:29 09.01.2021
3930 Snow 0 1020 93 7000 1.03 40 10:52 09.01.2021
3931 Snow 0 1020 93 6000 1.54 60 10:30 09.01.2021
3932 Snow 0 1020 100 7000 1.54 40 09:46 09.01.2021
3933 Snow 0 1019 93 8000 1.54 60 09:25 09.01.2021
3934 Snow 0 1019 93 10000 0.51 80 08:28 09.01.2021
3935 Snow 0 1018 86 10000 1.03 80 06:57 09.01.2021
3936 Snow -1 1018 86 10000 1.03 80 06:39 09.01.2021
3937 Clouds 0 1018 93 10000 0.51 190 04:47 09.01.2021
3938 Clouds 0 1018 86 10000 1.54 270 03:21 09.01.2021
3939 Clouds 0 1018 86 10000 1.03 280 02:30 09.01.2021
3940 Snow 0 1018 86 10000 0.51 0 01:45 09.01.2021
3941 Snow 0 1018 93 10000 1.03 0 00:35 09.01.2021
3942 Snow 0 1018 80 10000 1.03 0 23:57 08.01.2021
3943 Snow 0 1017 80 10000 1.54 250 22:57 08.01.2021
3944 Snow 0 1017 80 10000 1.54 250 22:18 08.01.2021
3945 Clouds 0 1017 80 10000 1.03 260 21:37 08.01.2021
3946 Clouds 0 1017 80 10000 1.54 260 20:46 08.01.2021
3947 Clouds 0 1017 80 10000 1.03 0 20:25 08.01.2021
3948 Clouds 0 1016 80 10000 1.54 250 19:55 08.01.2021
3949 Clouds 0 1016 80 10000 2.06 240 19:22 08.01.2021
3950 Snow 0 1016 80 10000 1.54 240 18:36 08.01.2021
3951 Snow 0 1016 80 5000 2.06 240 18:18 08.01.2021
3952 Snow 0 1016 80 10000 2.57 260 17:44 08.01.2021
3953 Snow 0 1015 80 10000 2.06 280 17:20 08.01.2021
3954 Snow 1 1015 75 10000 3.6 260 16:33 08.01.2021
3955 Snow 1 1014 75 10000 2.06 260 15:43 08.01.2021
3956 Clouds 1 1014 75 10000 3.09 260 14:56 08.01.2021
3957 Clouds 1 1014 75 10000 3.09 260 14:35 08.01.2021
3958 Clouds 1 1014 75 10000 3.09 240 13:41 08.01.2021
3959 Clouds 1 1014 75 10000 3.6 250 13:18 08.01.2021
3960 Snow 1 1014 75 10000 3.6 250 12:46 08.01.2021
3961 Clouds 1 1014 80 10000 4.63 260 12:19 08.01.2021
3962 Snow 1 1014 80 10000 3.6 240 11:43 08.01.2021
3963 Snow 1 1014 80 10000 3.6 230 11:25 08.01.2021
3964 Snow 0 1014 86 10000 2.57 210 10:50 08.01.2021
3965 Snow 0 1014 86 10000 2.06 210 10:26 08.01.2021
3966 Clouds 0 1014 86 10000 2.06 200 09:45 08.01.2021
3967 Snow 0 1013 86 10000 2.57 200 09:25 08.01.2021
3968 Snow 0 1013 86 10000 2.06 200 08:33 08.01.2021
3969 Clouds 0 1013 93 10000 2.06 200 07:26 08.01.2021
3970 Snow 0 1013 93 10000 2.06 200 05:51 08.01.2021
3971 Clouds 0 1013 93 10000 1.03 0 23:47 07.01.2021
3972 Clouds 0 1013 93 10000 1.03 0 23:29 07.01.2021
3973 Clouds 0 1013 86 10000 1.03 0 22:46 07.01.2021
3974 Clouds 0 1013 86 10000 1.54 210 22:26 07.01.2021
3975 Clouds 1 1013 86 10000 2.57 240 21:45 07.01.2021
3976 Clouds 1 1013 93 10000 1.54 230 21:26 07.01.2021
3977 Clouds 1 1013 93 10000 1.54 220 20:47 07.01.2021
3978 Clouds -1 1013 93 10000 1.03 0 20:28 07.01.2021
3979 Clouds 0 1013 93 10000 1.54 180 19:45 07.01.2021
3980 Clouds 1 1013 93 10000 1.03 0 19:21 07.01.2021
3981 Clouds 1 1013 93 10000 2.06 270 18:30 07.01.2021
3982 Clouds 1 1013 86 10000 2.06 200 17:58 07.01.2021
3983 Clouds 1 1013 86 10000 3.09 210 17:28 07.01.2021
3984 Clouds 1 1013 80 10000 3.6 200 16:53 07.01.2021
3985 Snow 1 1013 86 10000 2.06 210 16:30 07.01.2021
3986 Snow 1 1013 86 10000 2.06 210 16:30 07.01.2021
3987 Snow 2 1013 86 10000 1.54 200 15:47 07.01.2021
3988 Snow 2 1013 86 10000 1.03 0 15:29 07.01.2021
3989 Snow 2 1013 86 10000 1.03 0 15:29 07.01.2021
3990 Snow 2 1013 80 10000 1.54 210 14:27 07.01.2021
3991 Clouds 2 1013 80 10000 1.54 210 13:47 07.01.2021
3992 Clouds 2 1013 80 10000 1.03 0 13:19 07.01.2021
3993 Clouds 2 1014 86 10000 1.5 240 12:51 07.01.2021
3994 Clouds 1 1014 86 10000 1.5 240 11:59 07.01.2021
3995 Snow 1 1014 86 10000 1.5 250 11:38 07.01.2021
3996 Snow 1 1014 92 4500 1.5 260 10:54 07.01.2021
3997 Snow 1 1014 92 4500 1.5 260 10:35 07.01.2021
3998 Snow 0 1013 96 10000 0.5 0 09:50 07.01.2021
3999 Snow 0 1013 97 10000 0.5 0 09:32 07.01.2021
4000 Snow 0 1013 97 10000 0.5 10 08:31 07.01.2021
4001 Snow 0 1013 97 10000 0.5 0 07:57 07.01.2021
4002 Snow 0 1013 97 10000 1 0 07:38 07.01.2021
4003 Snow 0 1013 98 10000 0.5 0 05:46 07.01.2021
4004 Snow 0 1013 96 10000 2.1 240 01:34 07.01.2021
4005 Snow 0 1013 96 10000 1.5 240 23:58 06.01.2021
4006 Snow 0 1013 95 9000 1.5 250 22:51 06.01.2021
4007 Snow 0 1013 100 9000 1 0 22:20 06.01.2021
4008 Snow 0 1013 94 9000 1 240 21:41 06.01.2021
4009 Snow 0 1013 94 9000 1 240 21:41 06.01.2021
4010 Snow 0 1013 94 7000 1.5 250 21:22 06.01.2021
4011 Snow 0 1013 94 9000 1 240 21:22 06.01.2021
4012 Snow 0 1013 94 7000 1.5 250 20:42 06.01.2021
4013 Snow 0 1012 95 6000 1.5 260 20:22 06.01.2021
4014 Snow 0 1012 95 6000 2.1 270 19:47 06.01.2021
4015 Snow 0 1012 94 6000 2.1 270 19:27 06.01.2021
4016 Snow 0 1012 94 5000 0.5 260 18:46 06.01.2021
4017 Snow 0 1011 94 2000 1.5 280 18:28 06.01.2021
4018 Snow 0 1011 94 1800 1.5 290 17:46 06.01.2021
4019 Snow 0 1011 94 1800 1.5 280 17:27 06.01.2021
4020 Mist 0 1011 94 1800 1.5 280 16:57 06.01.2021
4021 Snow 0 1011 93 1800 1.5 270 16:21 06.01.2021
4022 Snow 0 1011 93 1800 1.5 270 15:59 06.01.2021
4023 Snow 0 1011 93 1800 1.5 270 15:39 06.01.2021
4024 Snow 0 1011 93 1800 1.5 270 15:21 06.01.2021
4025 Snow 0 1011 93 1400 1 280 14:31 06.01.2021
4026 Snow 0 1011 91 1400 1 280 13:55 06.01.2021
4027 Snow 0 1011 91 2000 1.5 300 13:27 06.01.2021
4028 Snow 0 1011 91 2000 1.5 310 12:58 06.01.2021
4029 Snow 0 1011 91 2000 2.1 310 12:30 06.01.2021
4030 Snow 0 1011 91 6000 2.6 330 11:44 06.01.2021
4031 Snow 0 1011 93 6000 2.6 330 11:21 06.01.2021
4032 Snow 0 1011 93 4000 2.1 320 10:43 06.01.2021
4033 Snow 0 1010 96 4500 2.1 330 09:52 06.01.2021
4034 Snow 0 1010 96 4500 2.1 330 09:32 06.01.2021
4035 Snow 0 1010 97 4500 3.6 350 08:52 06.01.2021
4036 Snow 0 1010 98 4500 2.6 330 08:19 06.01.2021
4037 Snow 0 1010 98 4500 2.6 330 07:52 06.01.2021
4038 Snow 0 1010 97 4500 2.6 350 06:44 06.01.2021
4039 Snow 0 1010 94 4100 2.6 340 05:30 06.01.2021
4040 Snow 1 1010 93 4500 2.6 340 04:18 06.01.2021
4041 Snow 1 1010 100 4200 3.1 360 02:43 06.01.2021
4042 Snow 1 1010 100 2900 3.1 340 02:21 06.01.2021
4043 Snow 1 1010 100 3200 2.6 350 23:51 05.01.2021
4044 Snow 1 1010 100 5000 2.6 350 22:57 05.01.2021
4045 Snow 1 1010 100 5000 2.6 350 22:39 05.01.2021
4046 Drizzle 1 1011 100 4000 2.6 360 22:19 05.01.2021
4047 Snow 1 1011 93 3800 2.6 10 21:34 05.01.2021
4048 Clouds 1 1011 93 9000 2.6 360 20:31 05.01.2021
4049 Clouds 1 1011 93 9000 2.1 360 19:59 05.01.2021
4050 Clouds 1 1011 93 7000 2.1 350 19:40 05.01.2021
4051 Drizzle 1 1010 93 7000 2.6 360 19:21 05.01.2021
4052 Drizzle 1 1011 93 7000 3.6 360 18:42 05.01.2021
4053 Drizzle 1 1010 92 7000 2.6 10 18:21 05.01.2021
4054 Clouds 1 1010 92 7000 3.1 10 17:47 05.01.2021
4055 Clouds 1 1010 92 7000 3.1 10 17:26 05.01.2021
4056 Snow 1 1010 92 8000 3.1 360 16:51 05.01.2021
4057 Clouds 2 1010 90 9000 2.6 350 16:21 05.01.2021
4058 Clouds 2 1010 90 9000 2.1 360 15:50 05.01.2021
4059 Snow 2 1010 90 8000 2.6 350 14:56 05.01.2021
4060 Snow 2 1010 88 8000 1.5 20 14:26 05.01.2021
4061 Snow 1 1010 88 8000 1.5 20 13:49 05.01.2021
4062 Snow 1 1010 88 8000 1.5 20 13:26 05.01.2021
4063 Clouds 1 1011 88 8000 1.5 40 12:49 05.01.2021
4064 Snow 1 1011 90 7000 1 40 12:26 05.01.2021
4065 Snow 1 1011 90 6000 1.5 30 11:39 05.01.2021
4066 Snow 1 1011 90 6000 2.1 360 10:56 05.01.2021
4067 Snow 1 1011 92 4700 2.6 360 10:37 05.01.2021
4068 Snow 0 1011 92 4700 2.6 360 09:50 05.01.2021
4069 Snow 0 1011 94 6000 1.5 340 09:30 05.01.2021
4070 Clouds 0 1011 95 10000 1 0 08:29 05.01.2021
4071 Clouds 0 1011 95 10000 1 0 08:29 05.01.2021
4072 Snow 0 1010 95 10000 2.1 310 07:50 05.01.2021
4073 Clouds 0 1010 97 10000 2.1 360 05:29 05.01.2021
4074 Clouds 0 1010 95 10000 3.1 20 02:36 05.01.2021
4075 Clouds 0 1010 86 10000 1.5 40 00:22 05.01.2021
4076 Clouds 0 1010 86 10000 2.6 70 23:39 04.01.2021
4077 Clouds 0 1010 86 10000 3.1 70 23:20 04.01.2021
4078 Clouds 0 1011 86 10000 4.1 80 22:44 04.01.2021
4079 Clouds 0 1011 86 10000 3.6 80 21:57 04.01.2021
4080 Clouds 0 1010 86 10000 3.1 90 21:39 04.01.2021
4081 Clouds 0 1011 90 10000 3.6 80 20:58 04.01.2021
4082 Clouds 0 1011 90 10000 4.1 80 20:34 04.01.2021
4083 Clouds 0 1011 87 10000 4.1 70 19:59 04.01.2021
4084 Clouds 0 1011 87 10000 4.1 70 19:40 04.01.2021
4085 Clouds 0 1011 85 10000 4.1 70 19:19 04.01.2021
4086 Clouds 0 1011 85 10000 4.1 70 18:43 04.01.2021
4087 Clouds 0 1011 84 10000 3.6 70 17:48 04.01.2021
4088 Clouds 0 1011 83 10000 4.1 70 17:28 04.01.2021
4089 Clouds 0 1011 83 10000 3.6 60 16:58 04.01.2021
4090 Clouds 0 1011 83 10000 3.6 60 16:39 04.01.2021
4091 Clouds 1 1011 81 10000 3.6 60 16:21 04.01.2021
4092 Clouds 1 1011 81 10000 3.6 70 15:47 04.01.2021
4093 Clouds 1 1011 80 10000 3.6 60 15:21 04.01.2021
4094 Clouds 1 1011 74 10000 3.1 70 13:57 04.01.2021
4095 Clouds 1 1011 74 10000 3.1 70 13:36 04.01.2021
4096 Clouds 1 1011 86 10000 3.6 90 12:55 04.01.2021
4097 Clouds 1 1012 86 10000 2.1 80 12:30 04.01.2021
4098 Clouds 1 1012 81 9000 2.1 60 11:41 04.01.2021
4099 Clouds 1 1012 86 9000 1.5 60 11:18 04.01.2021
4100 Clouds 0 1012 86 8000 0.5 0 10:44 04.01.2021
4101 Clouds 0 1012 92 8000 0.5 0 10:22 04.01.2021
4102 Clouds 0 1012 92 8000 0.5 60 09:44 04.01.2021
4103 Clouds 0 1011 96 8000 0.5 0 09:18 04.01.2021
4104 Clouds 0 1011 96 9000 0.5 0 08:32 04.01.2021
4105 Clouds 0 1011 96 10000 0.5 0 07:47 04.01.2021
4106 Clouds 0 1011 96 7000 1.5 30 06:56 04.01.2021
4107 Clouds 0 1011 97 6000 0.5 0 05:21 04.01.2021
4108 Mist 0 1011 97 4500 1 60 02:31 04.01.2021
4109 Clouds 0 1011 97 6000 0.5 0 00:29 04.01.2021
4110 Mist 0 1011 97 4000 1 50 23:47 03.01.2021
4111 Snow 0 1011 97 4000 1 70 23:19 03.01.2021
4112 Snow 0 1011 97 4000 0.5 90 22:49 03.01.2021
4113 Snow 0 1011 97 4000 1 70 22:30 03.01.2021
4114 Snow 0 1011 97 4500 1 80 21:47 03.01.2021
4115 Snow 0 1011 96 4500 1 80 21:25 03.01.2021
4116 Snow 0 1011 96 4800 0.5 0 20:43 03.01.2021
4117 Snow 0 1010 95 7000 0.5 80 20:23 03.01.2021
4118 Snow 0 1010 95 7000 1 100 19:54 03.01.2021
4119 Snow 0 1010 95 7000 1 100 19:34 03.01.2021
4120 Snow 0 1010 94 7000 0.5 0 18:54 03.01.2021
4121 Snow 0 1010 94 7000 0.5 0 18:36 03.01.2021
4122 Snow 0 1010 94 8000 1 70 17:59 03.01.2021
4123 Snow 0 1010 94 8000 1 70 17:40 03.01.2021
4124 Clouds 0 1010 93 10000 1 50 17:22 03.01.2021
4125 Clouds 0 1010 93 10000 1.5 30 16:42 03.01.2021
4126 Clouds 1 1009 86 10000 2.1 50 16:19 03.01.2021
4127 Clouds 1 1009 86 10000 1 0 15:45 03.01.2021
4128 Clouds 1 1009 80 10000 0.5 0 15:23 03.01.2021
4129 Clouds 1 1009 80 10000 0.72 331 14:45 03.01.2021
4130 Clouds 1 1009 80 10000 0.72 327 14:24 03.01.2021
4131 Clouds 1 1009 80 10000 0.5 0 13:39 03.01.2021
4132 Clouds 0 1009 80 10000 0.5 0 13:21 03.01.2021
4133 Clouds 0 1009 89 10000 1 290 12:24 03.01.2021
4134 Clouds 0 1010 92 8000 2.1 280 11:40 03.01.2021
4135 Clouds 0 1009 92 8000 1.5 310 11:22 03.01.2021
4136 Snow 0 1009 92 7000 2.1 320 10:34 03.01.2021
4137 Snow 0 1009 100 6000 1.5 330 09:55 03.01.2021
4138 Snow -1 1009 92 6000 2.1 330 09:33 03.01.2021
4139 Snow -1 1008 92 8000 2.6 360 08:57 03.01.2021
4140 Snow -1 1008 92 10000 2.1 340 07:26 03.01.2021
4141 Snow -1 1008 92 3200 2.6 340 05:42 03.01.2021
4142 Clouds 0 1008 96 10000 2.6 360 02:27 03.01.2021
4143 Clouds 0 1008 96 10000 2.6 360 02:27 03.01.2021
4144 Clouds 0 1009 94 10000 2.6 350 00:59 03.01.2021
4145 Clouds 1 1009 93 10000 2.1 20 23:54 02.01.2021
4146 Clouds 1 1009 91 10000 2.1 20 23:26 02.01.2021
4147 Clouds 1 1009 91 10000 3.6 50 22:50 02.01.2021
4148 Clouds 1 1009 80 10000 4.1 40 22:31 02.01.2021
4149 Clouds 1 1009 80 10000 3.6 50 21:49 02.01.2021
4150 Snow 1 1009 80 10000 3.6 50 21:30 02.01.2021
4151 Snow 1 1010 80 10000 3.1 50 20:49 02.01.2021
4152 Clouds 1 1010 80 10000 3.1 50 20:28 02.01.2021
4153 Clouds 1 1009 80 10000 3.6 40 19:50 02.01.2021
4154 Clouds 1 1009 80 10000 3.6 40 19:20 02.01.2021
4155 Clouds 1 1010 80 10000 3.1 40 18:53 02.01.2021
4156 Clouds 1 1010 80 10000 2.6 30 18:33 02.01.2021
4157 Clouds 1 1010 80 10000 3.1 30 17:57 02.01.2021
4158 Clouds 1 1010 80 10000 3.1 30 17:38 02.01.2021
4159 Clouds 1 1010 74 10000 4.6 20 16:53 02.01.2021
4160 Clouds 1 1010 74 10000 4.6 20 16:23 02.01.2021
4161 Clouds 1 1010 80 10000 4.1 10 15:53 02.01.2021
4162 Clouds 2 1010 86 10000 4.1 10 15:31 02.01.2021
4163 Clouds 1 1010 86 10000 2.6 20 14:55 02.01.2021
4164 Clouds 1 1010 86 10000 2.6 20 14:34 02.01.2021
4165 Clouds 1 1011 86 10000 2.6 10 13:49 02.01.2021
4166 Clouds 1 1011 86 9000 3.1 350 13:18 02.01.2021
4167 Clouds 1 1011 78 8000 1.5 340 12:43 02.01.2021
4168 Clouds 1 1011 81 8000 1.5 340 12:24 02.01.2021
4169 Clouds 0 1012 81 7000 1.5 40 11:43 02.01.2021
4170 Clouds 0 1011 85 7000 1 0 11:21 02.01.2021
4171 Clouds 0 1011 85 7000 0.5 0 10:42 02.01.2021
4172 Clouds 0 1011 90 7000 0.5 0 10:24 02.01.2021
4173 Mist 0 1011 100 5000 0.5 0 09:43 02.01.2021
4174 Fog 0 1011 95 5000 0.5 0 09:22 02.01.2021
4175 Mist -1 1011 95 4000 2.1 30 08:49 02.01.2021
4176 Mist 0 1011 95 4000 3.6 350 08:24 02.01.2021
4177 Mist -1 1011 100 5000 1 0 07:43 02.01.2021
4178 Clouds -1 1011 100 6000 0.5 120 07:20 02.01.2021
4179 Clouds -1 1011 100 7000 0.5 0 06:28 02.01.2021
4180 Clouds -1 1011 100 9000 0.5 140 04:44 02.01.2021
4181 Clouds -1 1010 92 10000 1.5 290 00:56 02.01.2021
4182 Clouds -1 1010 92 10000 1.5 290 00:35 02.01.2021
4183 Clouds -2 1010 92 10000 1 280 23:51 01.01.2021
4184 Clouds -1 1010 92 10000 1 280 23:21 01.01.2021
4185 Clouds -1 1010 100 10000 0.5 0 22:47 01.01.2021
4186 Clouds -1 1010 100 10000 0.5 0 22:24 01.01.2021
4187 Clouds -1 1010 100 10000 0.5 0 21:44 01.01.2021
4188 Clouds -1 1009 92 10000 2.1 310 21:22 01.01.2021
4189 Clouds -1 1009 92 10000 2.1 310 21:22 01.01.2021
4190 Clouds -1 1009 92 10000 2.1 310 20:53 01.01.2021
4191 Clouds 0 1009 100 10000 2.1 310 20:22 01.01.2021
4192 Clouds 0 1009 100 10000 2.1 310 19:59 01.01.2021
4193 Clouds 0 1009 87 10000 1 0 19:40 01.01.2021
4194 Clouds 0 1009 87 10000 1 0 19:20 01.01.2021
4195 Clouds 0 1008 90 10000 1 0 18:41 01.01.2021
4196 Clouds 0 1008 88 10000 0.5 90 18:22 01.01.2021
4197 Clouds 1 1008 88 10000 1 90 17:43 01.01.2021
4198 Clouds 1 1008 86 10000 1 0 17:23 01.01.2021
4199 Clouds 3 1008 93 10000 1.5 70 16:45 01.01.2021
4200 Clouds 3 1008 81 10000 0.5 0 15:57 01.01.2021
4201 Clouds 3 1008 81 10000 1 0 15:39 01.01.2021
4202 Clouds 3 1007 86 10000 1.5 140 14:44 01.01.2021
4203 Clouds 3 1007 76 10000 1 0 14:25 01.01.2021
4204 Clouds 3 1007 76 10000 1 0 13:38 01.01.2021
4205 Clouds 3 1008 86 10000 1 0 12:51 01.01.2021
4206 Clouds 3 1008 86 10000 1 0 12:27 01.01.2021
4207 Clouds 2 1007 86 10000 0.5 0 11:43 01.01.2021
4208 Clouds 2 1007 89 10000 0.5 0 11:22 01.01.2021
4209 Clouds 2 1007 89 10000 1 0 10:56 01.01.2021
4210 Snow 2 1007 100 10000 1 0 10:30 01.01.2021
4211 Snow 1 1006 90 10000 1 0 09:39 01.01.2021
4212 Snow 1 1006 100 7000 0.5 0 08:52 01.01.2021
4213 Snow 1 1005 100 7000 0.85 324 08:25 01.01.2021
4214 Snow 2 1004 90 10000 2.1 280 04:52 01.01.2021
4215 Clouds 2 1003 86 10000 2.1 240 02:25 01.01.2021
4216 Clouds 2 1004 85 10000 1.5 270 00:38 01.01.2021
4217 Clouds 2 1004 84 10000 0.5 170 00:20 01.01.2021
4218 Clouds 2 1004 93 10000 2.1 260 23:22 31.12.2020
4219 Clouds 2 1004 93 10000 2.1 260 22:56 31.12.2020
4220 Clouds 2 1004 82 10000 2.1 270 22:37 31.12.2020
4221 Clouds 2 1004 93 10000 1 0 22:19 31.12.2020
4222 Clouds 2 1003 93 10000 1.5 250 21:44 31.12.2020
4223 Clouds 2 1003 93 10000 1.5 200 21:21 31.12.2020
4224 Clouds 2 1003 89 10000 1 190 20:47 31.12.2020
4225 Clouds 2 1003 92 10000 2.6 180 20:18 31.12.2020
4226 Clouds 2 1003 92 10000 2.1 180 19:45 31.12.2020
4227 Snow 2 1003 90 10000 1.5 200 19:24 31.12.2020
4228 Clouds 3 1003 92 10000 2.6 180 18:42 31.12.2020
4229 Clouds 3 1003 80 10000 2.6 180 18:23 31.12.2020
4230 Rain 3 1003 80 10000 0.5 120 17:44 31.12.2020
4231 Clouds 3 1003 77 10000 0.5 0 17:22 31.12.2020
4232 Rain 3 1003 73 10000 1.5 170 16:40 31.12.2020
4233 Clouds 4 1003 73 10000 2.6 160 16:21 31.12.2020
4234 Clouds 4 1003 73 10000 2.6 170 15:45 31.12.2020
4235 Clouds 4 1003 70 10000 2.6 180 15:22 31.12.2020
4236 Clouds 4 1003 70 10000 2.6 180 14:56 31.12.2020
4237 Clouds 3 1003 70 10000 3.6 180 14:37 31.12.2020
4238 Rain 3 1003 70 10000 3.1 190 14:19 31.12.2020
4239 Rain 3 1003 70 10000 3.1 190 14:19 31.12.2020
4240 Clouds 3 1004 74 8000 4.1 180 13:38 31.12.2020
4241 Clouds 3 1004 80 5000 2.6 180 13:19 31.12.2020
4242 Snow 3 1005 69 7000 4.1 180 12:53 31.12.2020
4243 Clouds 3 1005 69 7000 4.1 180 12:35 31.12.2020
4244 Rain 2 1005 74 10000 1.5 180 11:52 31.12.2020
4245 Clouds 2 1005 74 10000 1.5 180 11:32 31.12.2020
4246 Snow 1 1005 78 10000 1 0 10:49 31.12.2020
4247 Snow 1 1005 84 10000 1 0 10:29 31.12.2020
4248 Snow 0 1005 84 10000 1.5 130 09:57 31.12.2020
4249 Snow 0 1005 84 10000 1.5 130 09:35 31.12.2020
4250 Snow -1 1005 86 10000 2.1 140 08:51 31.12.2020
4251 Clear -1 1005 86 10000 2.1 140 08:32 31.12.2020
4252 Clear -1 1006 80 10000 2.6 160 07:59 31.12.2020
4253 Clear 0 1006 94 10000 1.5 170 07:29 31.12.2020
4254 Clouds 0 1007 94 10000 0.5 0 05:56 31.12.2020
4255 Clouds 0 1007 92 10000 0.5 0 05:28 31.12.2020
4256 Clouds 1 1008 86 10000 1.5 170 02:56 31.12.2020
4257 Clouds 2 1008 80 10000 1 190 02:25 31.12.2020
4258 Clouds 2 1008 92 10000 1 0 01:46 31.12.2020
4259 Clouds 2 1008 92 10000 1 0 01:27 31.12.2020
4260 Clouds 2 1008 91 10000 1.5 240 00:48 31.12.2020
4261 Snow 2 1008 90 10000 2.6 260 23:52 30.12.2020
4262 Rain 2 1007 90 10000 2.1 280 23:20 30.12.2020
4263 Rain 2 1007 90 10000 1.5 220 22:51 30.12.2020
4264 Rain 2 1007 89 10000 1.5 220 22:31 30.12.2020
4265 Clouds 3 1007 89 10000 1 0 21:47 30.12.2020
4266 Clouds 3 1007 88 10000 1 0 21:25 30.12.2020
4267 Clear 3 1007 74 10000 2.6 240 20:51 30.12.2020
4268 Clear 3 1007 91 10000 3.1 240 20:22 30.12.2020
4269 Clear 3 1006 91 10000 2.6 230 19:42 30.12.2020
4270 Clear 3 1006 89 10000 2.6 230 19:23 30.12.2020
4271 Clear 3 1006 86 10000 1.5 190 18:56 30.12.2020
4272 Clear 3 1006 86 10000 1.5 190 18:37 30.12.2020
4273 Clear 3 1006 93 10000 1 210 18:18 30.12.2020
4274 Clouds 3 1005 89 10000 2.1 270 17:41 30.12.2020
4275 Clouds 3 1005 86 10000 4.1 270 17:20 30.12.2020
4276 Clouds 3 1005 86 10000 4.1 270 17:20 30.12.2020
4277 Clouds 3 1005 86 10000 4.1 270 16:41 30.12.2020
4278 Rain 5 1004 78 10000 4.1 240 15:50 30.12.2020
4279 Clouds 5 1004 79 10000 4.1 230 15:29 30.12.2020
4280 Clouds 5 1003 80 10000 3.6 220 14:45 30.12.2020
4281 Clouds 5 1003 80 10000 3.6 220 14:26 30.12.2020
4282 Clouds 5 1003 86 10000 3.1 230 13:53 30.12.2020
4283 Clouds 4 1003 74 10000 1 0 12:56 30.12.2020
4284 Clouds 3 1003 80 10000 0.5 0 12:26 30.12.2020
4285 Clouds 3 1003 80 10000 0.5 0 11:39 30.12.2020
4286 Clouds 3 1003 80 10000 0.5 0 11:21 30.12.2020
4287 Clouds 3 1003 80 10000 0.5 0 10:56 30.12.2020
4288 Clear 2 1003 86 10000 1.5 180 10:37 30.12.2020
4289 Clear 2 1002 86 10000 2.1 190 10:18 30.12.2020
4290 Clear 1 1002 86 10000 3.6 200 09:41 30.12.2020
4291 Clear 1 1001 86 10000 2.6 200 08:36 30.12.2020
4292 Clear 1 1001 80 10000 2.1 210 07:50 30.12.2020
4293 Clear 1 1000 86 10000 2.6 240 07:24 30.12.2020
4294 Clear 1 1000 86 10000 1.5 200 06:40 30.12.2020
4295 Clouds 2 1000 80 10000 2.1 200 05:47 30.12.2020
4296 Clouds 2 1000 80 10000 2.1 200 05:28 30.12.2020
4297 Clouds 2 999 87 10000 2.1 200 03:29 30.12.2020
4298 Clouds 2 999 80 10000 1 200 02:52 30.12.2020
4299 Snow 2 999 80 10000 1 200 02:31 30.12.2020
4300 Clouds 1 998 86 10000 1.5 190 01:44 30.12.2020
4301 Clouds 2 999 86 10000 2.1 170 01:26 30.12.2020
4302 Clouds 1 998 86 10000 1 0 00:40 30.12.2020
4303 Clouds 1 998 86 10000 1 0 00:21 30.12.2020
4304 Clouds 2 998 80 10000 0.5 0 23:42 29.12.2020
4305 Clouds 2 998 80 10000 1 200 23:24 29.12.2020
4306 Clouds 2 998 86 10000 1 0 22:49 29.12.2020
4307 Clouds 2 998 86 10000 1 0 22:31 29.12.2020
4308 Clouds 2 997 92 10000 1 0 21:56 29.12.2020
4309 Clouds 1 997 88 10000 1 0 21:36 29.12.2020
4310 Clouds 1 997 88 10000 1.5 210 20:57 29.12.2020
4311 Clouds 1 997 88 10000 1.5 250 20:39 29.12.2020
4312 Clouds 2 997 85 10000 1.5 220 20:20 29.12.2020
4313 Clouds 2 996 86 10000 1 0 19:42 29.12.2020
4314 Clouds 2 996 86 10000 1 0 19:21 29.12.2020
4315 Clouds 3 996 85 10000 1 0 18:49 29.12.2020
4316 Clouds 3 996 84 10000 1 0 18:28 29.12.2020
4317 Clouds 3 995 80 10000 2.1 200 17:45 29.12.2020
4318 Clouds 4 995 86 10000 1.5 190 17:21 29.12.2020
4319 Clouds 4 994 80 10000 1.5 220 16:54 29.12.2020
4320 Clouds 4 994 86 10000 2.1 190 16:26 29.12.2020
4321 Clouds 5 994 86 10000 1.5 180 15:39 29.12.2020
4322 Clouds 5 994 86 10000 1.5 200 15:20 29.12.2020
4323 Clouds 4 993 80 10000 1.5 210 14:40 29.12.2020
4324 Clouds 4 993 80 10000 2.1 220 14:20 29.12.2020
4325 Clouds 4 993 80 10000 2.1 220 13:54 29.12.2020
4326 Clouds 4 993 80 10000 3.6 240 13:23 29.12.2020
4327 Clouds 4 992 86 10000 5.1 250 12:45 29.12.2020
4328 Clouds 4 992 86 10000 5.1 250 12:26 29.12.2020
4329 Clouds 4 992 86 10000 5.7 240 11:58 29.12.2020
4330 Rain 3 991 100 10000 3.1 250 11:31 29.12.2020
4331 Rain 3 989 86 10000 4.1 220 10:40 29.12.2020
4332 Rain 3 989 86 10000 3.6 210 10:19 29.12.2020
4333 Clouds 3 988 86 10000 5.1 200 09:39 29.12.2020
4334 Clouds 3 987 86 10000 6.2 200 09:18 29.12.2020
4335 Clouds 3 986 86 10000 6.7 200 08:45 29.12.2020
4336 Clouds 3 985 93 10000 6.2 210 07:35 29.12.2020
4337 Rain 4 984 86 10000 6.2 200 06:58 29.12.2020
4338 Clouds 3 983 86 10000 4.6 210 05:40 29.12.2020
4339 Clouds 3 981 74 10000 4.1 200 01:46 29.12.2020
4340 Clouds 2 981 80 10000 2.6 170 00:24 29.12.2020
4341 Clouds 2 981 80 10000 2.6 160 00:24 29.12.2020
4342 Clouds 2 981 86 10000 2.6 160 23:37 28.12.2020
4343 Snow 1 981 80 10000 1 0 22:48 28.12.2020
4344 Clear 1 981 88 10000 1 0 21:57 28.12.2020
4345 Clear 1 981 86 10000 1.5 110 21:39 28.12.2020
4346 Clear 1 981 88 10000 1 0 21:19 28.12.2020
4347 Clear 1 981 86 10000 1 0 20:40 28.12.2020
4348 Clouds 2 981 80 10000 1.5 150 20:20 28.12.2020
4349 Clouds 3 981 85 10000 1 0 19:41 28.12.2020
4350 Clouds 3 981 82 10000 1 0 19:22 28.12.2020
4351 Clouds 3 981 82 10000 3.1 210 18:49 28.12.2020
4352 Clouds 3 981 83 10000 3.1 210 18:27 28.12.2020
4353 Clouds 4 981 80 10000 3.6 200 17:41 28.12.2020
4354 Clouds 4 981 80 10000 3.6 220 17:18 28.12.2020
4355 Clouds 4 980 80 10000 3.1 230 16:33 28.12.2020
4356 Clouds 4 980 80 10000 3.6 230 15:59 28.12.2020
4357 Clouds 5 980 80 10000 3.6 230 15:41 28.12.2020
4358 Clouds 4 980 86 10000 3.1 210 14:49 28.12.2020
4359 Rain 4 979 86 10000 2.1 150 13:54 28.12.2020
4360 Clouds 4 980 86 10000 2.1 190 13:25 28.12.2020
4361 Clouds 4 980 86 10000 2.1 190 13:25 28.12.2020
4362 Clouds 4 980 86 10000 4.1 160 12:41 28.12.2020
4363 Rain 4 981 86 10000 3.6 170 12:20 28.12.2020
4364 Clouds 4 981 93 10000 2.6 140 11:45 28.12.2020
4365 Clouds 4 981 93 10000 2.6 140 11:23 28.12.2020
4366 Rain 4 981 86 10000 5.1 160 10:45 28.12.2020
4367 Rain 1 980 93 10000 6.7 260 10:27 28.12.2020
4368 Rain 3 981 93 10000 1.5 0 09:46 28.12.2020
4369 Rain 3 981 93 10000 1.5 170 09:19 28.12.2020
4370 Rain 4 981 93 10000 4.1 180 07:35 28.12.2020
4371 Rain 2 981 93 10000 2.1 200 06:50 28.12.2020
4372 Clouds 4 982 86 10000 3.1 170 04:37 28.12.2020
4373 Clouds 3 982 80 10000 4.1 160 02:27 28.12.2020
4374 Rain 5 983 70 10000 5.1 180 00:53 28.12.2020
4375 Rain 5 984 73 10000 4.6 190 23:46 27.12.2020
4376 Rain 6 984 71 10000 4.6 190 23:19 27.12.2020
4377 Rain 5 984 60 10000 5.1 180 21:58 27.12.2020
4378 Rain 5 985 52 10000 3.6 180 21:27 27.12.2020
4379 Rain 5 986 55 10000 4.1 180 20:48 27.12.2020
4380 Rain 3 987 55 10000 6.2 170 19:48 27.12.2020
4381 Rain 3 988 55 10000 2.6 170 19:22 27.12.2020
4382 Rain 2 989 59 10000 3.6 160 18:47 27.12.2020
4383 Rain 2 990 59 10000 4.1 160 18:20 27.12.2020
4384 Snow 2 991 64 10000 5.1 160 17:49 27.12.2020
4385 Snow 2 991 64 10000 5.1 160 17:30 27.12.2020
4386 Snow 2 991 64 10000 4.1 160 16:54 27.12.2020
4387 Snow 1 993 69 10000 1.5 90 16:21 27.12.2020
4388 Clear 1 995 69 10000 1.5 120 15:22 27.12.2020
4389 Clear 2 996 74 10000 3.1 130 14:45 27.12.2020
4390 Clear 2 996 74 10000 3.1 130 14:27 27.12.2020
4391 Clear 1 998 68 10000 2.6 120 13:30 27.12.2020
4392 Clear 0 999 68 10000 2.1 140 12:52 27.12.2020
4393 Clear 0 1000 71 10000 2.6 150 12:24 27.12.2020
4394 Clear 0 1003 68 10000 2.1 160 11:41 27.12.2020
4395 Clear -1 1004 74 10000 1 0 11:18 27.12.2020
4396 Clear -1 1004 74 10000 2.6 190 10:40 27.12.2020
4397 Clear -2 1004 74 10000 1.5 190 10:19 27.12.2020
4398 Clear -3 1005 73 10000 1 0 09:36 27.12.2020
4399 Clear -3 1007 73 10000 2.1 160 08:28 27.12.2020
4400 Clear -3 1008 73 10000 3.1 200 07:28 27.12.2020
4401 Clear -3 1009 73 10000 1.5 160 05:56 27.12.2020
4402 Clear -3 1011 73 10000 1.5 180 05:38 27.12.2020
4403 Clear -2 1014 74 10000 1 0 03:24 27.12.2020
4404 Clear -2 1016 74 10000 1 0 01:56 27.12.2020
4405 Clear -2 1018 74 10000 1 0 00:38 27.12.2020
4406 Clear -2 1019 74 10000 1 0 23:43 26.12.2020
4407 Clear -2 1019 79 10000 2.1 180 23:23 26.12.2020
4408 Clear -1 1020 74 10000 3.1 180 22:45 26.12.2020
4409 Clear -1 1020 74 10000 1.5 190 22:19 26.12.2020
4410 Clouds -1 1021 80 10000 2.1 210 21:53 26.12.2020
4411 Clouds -1 1021 80 10000 2.1 210 21:29 26.12.2020
4412 Clouds -1 1021 90 10000 2.6 190 20:45 26.12.2020
4413 Clouds -1 1021 89 10000 2.6 190 20:24 26.12.2020
4414 Clouds -1 1022 89 10000 2.1 180 19:42 26.12.2020
4415 Clouds -1 1022 87 10000 2.1 180 19:20 26.12.2020
4416 Clouds 0 1023 74 10000 2.1 200 18:35 26.12.2020
4417 Clouds 1 1023 74 10000 2.6 190 17:48 26.12.2020
4418 Clouds 1 1023 74 10000 2.6 190 17:29 26.12.2020
4419 Clouds 2 1023 74 10000 3.1 200 16:40 26.12.2020
4420 Clouds 2 1024 64 10000 2.1 220 16:19 26.12.2020
4421 Clouds 3 1024 64 10000 3.1 270 15:23 26.12.2020
4422 Clouds 3 1024 64 10000 2.6 240 14:44 26.12.2020
4423 Clouds 3 1024 64 10000 2.6 210 14:20 26.12.2020
4424 Clouds 3 1024 69 10000 2.6 190 13:39 26.12.2020
4425 Clouds 3 1025 69 10000 3.1 210 13:20 26.12.2020
4426 Clouds 2 1025 74 10000 2.6 210 12:42 26.12.2020
4427 Clouds 2 1025 74 10000 2.6 210 12:20 26.12.2020
4428 Clouds 2 1026 80 10000 1.5 190 11:51 26.12.2020
4429 Clouds 1 1025 80 10000 2.1 200 11:21 26.12.2020
4430 Clear 1 1025 83 10000 2.6 190 10:51 26.12.2020
4431 Clear 0 1025 88 10000 2.6 190 10:27 26.12.2020
4432 Clouds -1 1025 100 10000 0.5 140 09:49 26.12.2020
4433 Clouds -1 1025 100 10000 0.5 140 09:24 26.12.2020
4434 Snow -1 1025 92 10000 1.5 190 08:21 26.12.2020
4435 Snow -1 1025 92 10000 0.5 0 07:49 26.12.2020
4436 Clouds -1 1025 92 10000 1 0 06:29 26.12.2020
4437 Clouds -1 1023 92 10000 0.5 0 02:49 26.12.2020
4438 Clouds -2 1023 92 10000 1.5 290 00:44 26.12.2020
4439 Clouds -2 1023 92 10000 1.5 290 00:25 26.12.2020
4440 Clouds -2 1023 92 10000 1 280 23:39 25.12.2020
4441 Clouds -2 1023 92 10000 1 260 23:21 25.12.2020
4442 Clouds -1 1023 86 10000 1.5 260 22:40 25.12.2020
4443 Clouds -1 1023 86 10000 1 300 21:54 25.12.2020
4444 Clouds -1 1023 90 10000 1.5 300 21:34 25.12.2020
4445 Clouds -1 1023 90 10000 1.5 350 20:50 25.12.2020
4446 Clouds 0 1023 90 10000 1.5 350 20:31 25.12.2020
4447 Clouds 0 1022 74 10000 2.1 360 19:47 25.12.2020
4448 Clouds 0 1022 80 10000 1 0 19:20 25.12.2020
4449 Clouds 1 1022 80 10000 1 0 18:39 25.12.2020
4450 Clouds 1 1021 80 10000 3.6 350 17:47 25.12.2020
4451 Clouds 1 1021 80 10000 4.1 330 17:28 25.12.2020
4452 Clouds 1 1020 80 10000 6.2 320 16:33 25.12.2020
4453 Clouds 2 1020 80 10000 3.1 350 15:59 25.12.2020
4454 Clouds 2 1020 80 10000 3.1 350 15:36 25.12.2020
4455 Clouds 2 1019 80 10000 5.1 350 14:54 25.12.2020
4456 Clouds 2 1019 77 10000 6.2 340 14:29 25.12.2020
4457 Clouds 2 1019 77 10000 6.2 330 13:45 25.12.2020
4458 Clouds 2 1019 79 10000 6.2 330 13:26 25.12.2020
4459 Clouds 2 1019 93 10000 6.7 340 12:46 25.12.2020
4460 Clouds 2 1019 93 10000 6.7 340 12:46 25.12.2020
4461 Clouds 2 1019 93 10000 5.1 340 12:23 25.12.2020
4462 Clouds 2 1019 93 10000 3.6 330 11:44 25.12.2020
4463 Clouds 2 1019 93 10000 4.6 310 11:20 25.12.2020
4464 Snow 2 1018 100 8000 4.1 320 10:30 25.12.2020
4465 Snow 1 1018 89 6000 4.1 300 09:47 25.12.2020
4466 Snow 2 1017 93 10000 5.1 300 08:49 25.12.2020
4467 Snow 2 1017 93 10000 5.1 300 08:28 25.12.2020
4468 Snow 2 1016 93 10000 5.1 290 06:48 25.12.2020
4469 Snow 2 1015 93 10000 6.7 300 04:47 25.12.2020
4470 Snow 1 1013 91 8000 6.7 300 02:19 25.12.2020
4471 Snow 1 1012 90 8000 6.7 300 00:19 25.12.2020
4472 Rain 2 1011 93 5000 8.2 300 23:29 24.12.2020
4473 Rain 3 1011 93 5000 8.2 300 22:53 24.12.2020
4474 Rain 4 1010 93 8000 4.1 260 22:24 24.12.2020
4475 Clouds 5 1010 86 10000 3.1 240 21:43 24.12.2020
4476 Clouds 5 1010 86 10000 2.1 230 20:53 24.12.2020
4477 Rain 6 1009 87 10000 2.6 230 19:41 24.12.2020
4478 Rain 6 1009 75 10000 4.6 240 18:21 24.12.2020
4479 Clouds 7 1009 75 10000 3.1 220 17:38 24.12.2020
4480 Clouds 7 1010 75 10000 4.1 230 17:20 24.12.2020
4481 Clouds 8 1009 70 10000 5.7 240 16:25 24.12.2020
4482 Clouds 8 1009 70 10000 5.7 240 15:45 24.12.2020
4483 Clouds 8 1009 70 10000 6.7 240 15:23 24.12.2020
4484 Clouds 8 1009 70 10000 6.7 240 14:56 24.12.2020
4485 Clouds 8 1009 70 10000 7.7 240 14:24 24.12.2020
4486 Clouds 8 1010 70 10000 6.7 230 13:49 24.12.2020
4487 Clouds 9 1010 70 10000 6.7 230 13:30 24.12.2020
4488 Clouds 8 1010 70 10000 5.7 230 12:58 24.12.2020
4489 Clouds 8 1010 70 10000 5.7 230 12:38 24.12.2020
4490 Clouds 8 1010 75 10000 7.7 230 12:18 24.12.2020
4491 Clouds 8 1009 75 10000 8.2 220 11:38 24.12.2020
4492 Clouds 8 1009 75 10000 6.7 220 11:19 24.12.2020
4493 Clouds 8 1009 75 10000 9.3 230 10:43 24.12.2020
4494 Rain 8 1010 70 10000 4.6 220 09:58 24.12.2020
4495 Rain 8 1010 70 10000 4.6 220 09:40 24.12.2020
4496 Clouds 8 1010 75 10000 3.6 200 08:48 24.12.2020
4497 Clouds 7 1011 87 10000 2.6 190 07:54 24.12.2020
4498 Clouds 7 1011 81 10000 2.6 200 07:35 24.12.2020
4499 Clouds 7 1011 87 10000 4.6 200 06:23 24.12.2020
4500 Clouds 9 1013 87 10000 3.1 0 03:50 24.12.2020
4501 Rain 10 1012 71 10000 5.1 230 01:51 24.12.2020
4502 Clouds 10 1012 87 10000 4.1 200 01:20 24.12.2020
4503 Rain 10 1012 87 10000 4.1 190 00:31 24.12.2020
4504 Rain 10 1013 87 10000 3.1 190 23:59 23.12.2020
4505 Clouds 11 1013 81 10000 3.6 190 23:39 23.12.2020
4506 Rain 11 1013 81 10000 3.1 190 23:20 23.12.2020
4507 Rain 11 1013 81 10000 2.1 220 22:43 23.12.2020
4508 Clouds 11 1014 87 10000 3.6 260 22:23 23.12.2020
4509 Rain 11 1013 93 8000 3.1 280 21:46 23.12.2020
4510 Clouds 11 1013 93 10000 2.6 300 21:22 23.12.2020
4511 Clouds 11 1013 93 10000 2.6 260 20:46 23.12.2020
4512 Rain 12 1013 87 10000 2.6 220 20:28 23.12.2020
4513 Clouds 12 1013 87 10000 4.1 230 19:45 23.12.2020
4514 Clouds 12 1013 87 10000 4.1 230 19:24 23.12.2020
4515 Rain 12 1013 81 10000 5.1 240 18:56 23.12.2020
4516 Clear 12 1013 81 10000 4.1 230 18:36 23.12.2020
4517 Clouds 12 1012 81 10000 4.1 220 17:58 23.12.2020
4518 Clouds 13 1012 76 10000 4.1 220 17:36 23.12.2020
4519 Rain 13 1012 76 10000 4.1 220 17:18 23.12.2020
4520 Rain 13 1013 76 10000 3.6 220 16:40 23.12.2020
4521 Rain 13 1013 71 10000 4.6 230 16:22 23.12.2020
4522 Rain 13 1013 62 10000 3.1 220 15:46 23.12.2020
4523 Rain 13 1013 62 10000 2.6 220 15:26 23.12.2020
4524 Rain 13 1013 62 10000 2.6 220 14:58 23.12.2020
4525 Rain 13 1013 62 10000 3.1 220 14:37 23.12.2020
4526 Clouds 14 1014 67 10000 3.1 220 14:19 23.12.2020
4527 Rain 14 1014 67 10000 2.6 0 13:43 23.12.2020
4528 Clouds 14 1014 67 10000 2.1 230 13:19 23.12.2020
4529 Rain 14 1015 71 10000 2.6 210 12:47 23.12.2020
4530 Rain 14 1015 71 10000 2.6 210 12:24 23.12.2020
4531 Clear 14 1016 76 10000 2.6 220 11:46 23.12.2020
4532 Clear 13 1016 71 10000 2.6 240 11:19 23.12.2020
4533 Rain 13 1016 71 10000 2.6 240 10:43 23.12.2020
4534 Clear 13 1016 71 10000 2.6 240 10:25 23.12.2020
4535 Clouds 13 1016 71 10000 1.5 240 09:35 23.12.2020
4536 Clouds 12 1016 81 10000 1.5 230 08:48 23.12.2020
4537 Clear 12 1016 81 10000 1.5 190 08:20 23.12.2020
4538 Clear 12 1016 81 10000 1 0 07:27 23.12.2020
4539 Clouds 12 1017 81 10000 1.5 200 06:41 23.12.2020
4540 Rain 13 1017 76 10000 1.5 200 05:39 23.12.2020
4541 Clouds 13 1017 76 10000 2.6 230 04:58 23.12.2020
4542 Clouds 12 1018 87 10000 3.1 230 00:48 23.12.2020
4543 Clouds 13 1018 82 10000 3.6 210 00:21 23.12.2020
4544 Clouds 13 1018 82 10000 3.6 210 00:21 23.12.2020
4545 Clouds 12 1018 82 10000 3.6 210 00:21 23.12.2020
4546 Clouds 13 1019 82 10000 3.1 210 23:36 22.12.2020
4547 Clouds 13 1019 82 10000 3.6 210 23:18 22.12.2020
4548 Clouds 13 1019 82 10000 4.6 210 22:41 22.12.2020
4549 Clouds 13 1019 82 10000 3.1 210 22:20 22.12.2020
4550 Clouds 13 1019 87 10000 2.6 220 21:44 22.12.2020
4551 Clouds 13 1019 87 10000 3.6 210 21:20 22.12.2020
4552 Clouds 13 1019 87 10000 3.6 210 20:49 22.12.2020
4553 Clouds 13 1019 87 10000 4.6 200 20:22 22.12.2020
4554 Clouds 13 1019 87 10000 3.6 200 19:49 22.12.2020
4555 Clouds 13 1019 87 10000 3.6 200 19:26 22.12.2020
4556 Clouds 13 1019 93 10000 3.6 210 18:56 22.12.2020
4557 Clouds 13 1019 93 10000 3.1 200 18:38 22.12.2020
4558 Clouds 13 1019 93 10000 4.1 210 18:19 22.12.2020
4559 Clouds 12 1019 93 10000 3.6 220 17:36 22.12.2020
4560 Clouds 12 1019 93 10000 3.6 220 17:18 22.12.2020
4561 Clouds 12 1019 93 6000 3.6 220 16:46 22.12.2020
4562 Clouds 13 1019 93 10000 4.1 220 16:19 22.12.2020
4563 Clouds 13 1019 93 8000 4.1 220 15:45 22.12.2020
4564 Rain 13 1019 93 8000 4.1 220 15:27 22.12.2020
4565 Rain 13 1019 87 10000 5.1 220 14:55 22.12.2020
4566 Clouds 13 1019 87 10000 5.1 220 14:37 22.12.2020
4567 Clouds 13 1019 82 10000 5.1 230 14:18 22.12.2020
4568 Clouds 13 1019 82 10000 5.1 230 13:42 22.12.2020
4569 Clouds 13 1019 76 10000 6.7 220 13:18 22.12.2020
4570 Clouds 13 1019 76 10000 5.7 230 12:44 22.12.2020
4571 Clouds 13 1019 76 10000 5.7 230 12:26 22.12.2020
4572 Clouds 13 1019 82 10000 6.2 230 11:57 22.12.2020
4573 Clouds 13 1019 87 10000 5.7 220 11:39 22.12.2020
4574 Clouds 13 1019 76 10000 6.7 230 11:19 22.12.2020
4575 Rain 13 1018 76 10000 6.2 230 10:51 22.12.2020
4576 Rain 13 1018 76 10000 5.7 220 10:24 22.12.2020
4577 Clouds 13 1018 76 10000 5.7 220 09:56 22.12.2020
4578 Clouds 13 1017 81 10000 4.6 220 09:23 22.12.2020
4579 Clouds 12 1017 81 10000 4.6 220 08:53 22.12.2020
4580 Clouds 12 1017 81 10000 5.1 220 08:30 22.12.2020
4581 Clouds 12 1017 81 10000 5.1 230 07:48 22.12.2020
4582 Clouds 12 1017 87 10000 4.1 230 06:58 22.12.2020
4583 Clouds 11 1017 81 10000 4.6 220 05:48 22.12.2020
4584 Clouds 10 1017 87 10000 3.1 0 03:46 22.12.2020
4585 Clouds 9 1017 87 10000 3.6 220 01:35 22.12.2020
4586 Clouds 8 1017 87 10000 2.6 180 23:55 21.12.2020
4587 Rain 8 1017 87 10000 2.6 180 23:37 21.12.2020
4588 Rain 8 1017 87 10000 1.5 160 22:59 21.12.2020
4589 Clouds 8 1017 93 10000 2.1 180 22:36 21.12.2020
4590 Rain 8 1018 93 10000 2.1 180 22:18 21.12.2020
4591 Rain 8 1018 87 10000 2.1 180 21:41 21.12.2020
4592 Rain 7 1018 87 10000 2.1 180 21:22 21.12.2020
4593 Rain 7 1018 87 10000 2.1 180 20:42 21.12.2020
4594 Rain 8 1018 81 10000 2.1 180 20:20 21.12.2020
4595 Clouds 8 1018 81 10000 3.1 180 19:46 21.12.2020
4596 Rain 8 1018 75 10000 2.6 180 19:20 21.12.2020
4597 Clouds 8 1018 75 10000 3.6 170 18:55 21.12.2020
4598 Clouds 8 1018 75 10000 3.6 170 18:36 21.12.2020
4599 Clear 8 1019 75 10000 3.6 180 18:18 21.12.2020
4600 Rain 8 1019 75 10000 4.1 180 17:42 21.12.2020
4601 Clouds 8 1019 87 10000 1 0 17:22 21.12.2020
4602 Rain 8 1019 87 10000 1 0 16:39 21.12.2020
4603 Rain 7 1020 100 10000 0.5 0 16:19 21.12.2020
4604 Clear 7 1020 93 10000 1 0 15:41 21.12.2020
4605 Clouds 7 1020 93 10000 2.1 90 14:58 21.12.2020
4606 Clouds 7 1022 87 10000 0.5 0 14:22 21.12.2020
4607 Clouds 7 1022 87 10000 0.5 0 13:52 21.12.2020
4608 Rain 6 1023 93 10000 0.5 0 13:33 21.12.2020
4609 Rain 6 1022 93 10000 0.5 0 12:59 21.12.2020
4610 Fog 6 1023 100 10000 0.5 0 12:39 21.12.2020
4611 Rain 6 1023 93 10000 0.5 0 12:19 21.12.2020
4612 Fog 5 1023 100 10000 1.9 165 11:43 21.12.2020
4613 Fog 5 1023 100 10000 1.7 172 11:22 21.12.2020
4614 Fog 4 1023 100 10000 1 0 10:57 21.12.2020
4615 Fog 4 1023 100 10000 1 0 10:38 21.12.2020
4616 Fog 3 1023 100 1000 1 0 09:55 21.12.2020
4617 Fog 3 1023 100 500 1.5 90 09:37 21.12.2020
4618 Fog 3 1023 100 800 0.5 0 09:19 21.12.2020
4619 Fog 3 1023 100 5000 0.5 300 08:26 21.12.2020
4620 Fog 3 1023 100 400 0.5 0 07:19 21.12.2020
4621 Fog 3 1024 100 500 0.5 0 05:39 21.12.2020
4622 Fog 4 1024 100 800 1 0 04:30 21.12.2020
4623 Clouds 6 1024 100 8000 1 0 00:37 21.12.2020
4624 Clouds 6 1024 100 8000 1 60 23:50 20.12.2020
4625 Clouds 6 1024 93 10000 1.5 90 23:21 20.12.2020
4626 Clouds 6 1023 93 10000 1.5 80 22:45 20.12.2020
4627 Clouds 7 1023 93 10000 1.5 80 22:25 20.12.2020
4628 Rain 7 1023 93 10000 1 70 21:58 20.12.2020
4629 Rain 7 1023 93 10000 0.5 0 21:38 20.12.2020
4630 Rain 7 1023 87 10000 1 0 21:18 20.12.2020
4631 Rain 7 1023 87 10000 0.5 0 20:44 20.12.2020
4632 Rain 7 1022 81 10000 0.5 0 20:21 20.12.2020
4633 Rain 7 1022 81 10000 1 0 19:43 20.12.2020
4634 Rain 7 1022 81 10000 1 0 19:22 20.12.2020
4635 Clouds 8 1022 81 10000 2.1 350 18:54 20.12.2020
4636 Clouds 8 1022 81 10000 2.1 350 18:36 20.12.2020
4637 Clouds 8 1021 75 10000 1 0 17:55 20.12.2020
4638 Clouds 8 1021 81 10000 0.5 100 17:36 20.12.2020
4639 Clouds 8 1021 81 10000 1.5 70 17:18 20.12.2020
4640 Clouds 8 1021 81 10000 1.5 70 16:43 20.12.2020
4641 Clear 9 1020 75 10000 1 70 16:23 20.12.2020
4642 Clear 9 1020 75 10000 1.5 60 15:40 20.12.2020
4643 Clear 9 1020 75 10000 1.5 60 15:22 20.12.2020
4644 Clouds 9 1020 70 10000 1.5 70 14:48 20.12.2020
4645 Clouds 9 1020 70 10000 1.5 70 14:29 20.12.2020
4646 Clear 9 1020 70 10000 1 0 13:44 20.12.2020
4647 Clear 9 1020 70 10000 0.5 0 13:23 20.12.2020
4648 Clear 9 1020 70 10000 0.5 0 12:51 20.12.2020
4649 Clear 9 1020 75 10000 1.03 182 12:26 20.12.2020
4650 Clear 8 1020 70 10000 0.5 0 11:57 20.12.2020
4651 Clear 8 1020 70 10000 1 0 11:38 20.12.2020
4652 Clear 7 1020 80 10000 1 0 10:55 20.12.2020
4653 Clear 7 1020 80 10000 1 0 10:37 20.12.2020
4654 Clear 6 1020 86 10000 1 100 10:19 20.12.2020
4655 Clear 6 1020 80 10000 1 70 09:42 20.12.2020
4656 Rain 6 1020 80 10000 1 90 09:24 20.12.2020
4657 Rain 6 1020 80 10000 1 90 08:50 20.12.2020
4658 Rain 6 1020 80 10000 1 0 08:32 20.12.2020
4659 Clear 6 1019 86 10000 1 100 07:23 20.12.2020
4660 Clear 6 1019 86 10000 1 0 05:44 20.12.2020
4661 Clear 6 1020 80 10000 1 0 01:32 20.12.2020
4662 Clear 6 1020 80 10000 1.5 60 00:22 20.12.2020
4663 Clear 6 1020 80 10000 1.5 100 23:19 19.12.2020
4664 Clear 7 1020 80 10000 1.5 100 22:56 19.12.2020
4665 Clear 6 1020 86 10000 2.1 90 22:37 19.12.2020
4666 Clear 7 1020 86 10000 1.5 80 22:18 19.12.2020
4667 Clear 7 1020 86 10000 1.5 90 21:41 19.12.2020
4668 Clear 6 1020 86 10000 1.5 90 21:23 19.12.2020
4669 Clear 7 1020 86 10000 2.1 80 20:44 19.12.2020
4670 Clear 7 1020 81 10000 1.5 80 20:21 19.12.2020
4671 Clear 7 1020 75 10000 0.5 100 19:51 19.12.2020
4672 Clear 7 1020 75 10000 0.5 100 19:33 19.12.2020
4673 Clear 8 1019 81 10000 1 0 18:41 19.12.2020
4674 Clear 8 1019 81 10000 1 0 18:23 19.12.2020
4675 Clear 9 1019 61 10000 1 0 17:48 19.12.2020
4676 Clear 9 1019 61 10000 1 0 17:48 19.12.2020
4677 Clear 9 1019 66 10000 1.5 130 17:24 19.12.2020
4678 Clear 9 1019 66 10000 1.5 130 16:55 19.12.2020
4679 Clear 10 1019 57 10000 1.5 170 16:36 19.12.2020
4680 Clear 10 1019 58 10000 1 0 16:18 19.12.2020
4681 Clear 11 1019 54 10000 1.5 330 15:47 19.12.2020
4682 Clear 11 1019 66 10000 1 0 14:44 19.12.2020
4683 Clear 11 1019 66 10000 0.5 0 14:23 19.12.2020
4684 Clear 9 1019 70 10000 1 0 13:42 19.12.2020
4685 Clear 9 1019 75 10000 1 0 13:21 19.12.2020
4686 Clear 9 1020 81 10000 0.5 0 12:55 19.12.2020
4687 Clear 8 1020 81 10000 0.5 0 12:37 19.12.2020
4688 Clear 7 1020 80 10000 1 0 12:18 19.12.2020
4689 Clouds 7 1020 80 10000 0.5 0 11:41 19.12.2020
4690 Clear 5 1020 66 10000 0.5 0 10:48 19.12.2020
4691 Clear 4 1020 100 10000 2.22 189 10:28 19.12.2020
4692 Clear 4 1020 100 10000 2.22 189 09:59 19.12.2020
4693 Clouds 3 1020 100 10000 1 70 09:40 19.12.2020
4694 Fog 3 1019 100 10000 0.5 0 08:57 19.12.2020
4695 Fog 2 1019 100 10000 1 330 08:18 19.12.2020
4696 Fog 2 1019 73 10000 1 50 07:19 19.12.2020
4697 Clear 2 1019 73 10000 0.5 0 06:44 19.12.2020
4698 Clear 2 1020 74 10000 0.5 100 05:21 19.12.2020
4699 Clear 3 1020 74 10000 0.5 0 03:48 19.12.2020
4700 Clear 4 1021 93 10000 1.5 260 00:42 19.12.2020
4701 Clear 4 1021 93 10000 1.5 260 00:21 19.12.2020
4702 Clear 4 1021 93 10000 1 0 23:51 18.12.2020
4703 Clear 3 1021 93 10000 1 0 23:29 18.12.2020
4704 Clear 4 1022 93 10000 1 0 22:59 18.12.2020
4705 Clear 4 1022 93 10000 1 0 22:41 18.12.2020
4706 Clear 4 1022 93 10000 1.5 80 22:19 18.12.2020
4707 Clear 5 1022 93 10000 1.5 80 21:46 18.12.2020
4708 Clear 4 1022 86 10000 0.5 0 21:25 18.12.2020
4709 Clear 5 1022 93 10000 1 280 20:26 18.12.2020
4710 Clear 5 1022 93 10000 0.5 180 19:51 18.12.2020
4711 Clear 5 1022 93 10000 0.5 180 19:25 18.12.2020
4712 Clear 5 1022 93 10000 0.5 180 19:25 18.12.2020
4713 Clear 5 1022 93 10000 0.5 0 18:48 18.12.2020
4714 Clear 6 1022 93 10000 0.5 0 18:28 18.12.2020
4715 Clear 6 1022 93 10000 1.31 153 17:59 18.12.2020
4716 Clouds 7 1023 81 10000 1 70 17:21 18.12.2020
4717 Clouds 8 1023 71 10000 1 70 16:48 18.12.2020
4718 Clear 9 1023 81 10000 1.5 80 16:26 18.12.2020
4719 Clear 9 1023 81 10000 1.5 80 15:54 18.12.2020
4720 Clear 10 1023 71 10000 1.5 100 15:36 18.12.2020
4721 Clear 10 1023 71 10000 1.5 130 15:18 18.12.2020
4722 Clear 10 1023 71 10000 1.5 130 14:51 18.12.2020
4723 Clear 9 1023 76 10000 1.5 110 14:19 18.12.2020
4724 Clouds 9 1024 76 10000 1.5 100 13:45 18.12.2020
4725 Clouds 9 1024 76 10000 1 0 13:23 18.12.2020
4726 Clouds 9 1024 81 10000 0.5 0 12:46 18.12.2020
4727 Clouds 9 1024 81 10000 0.5 0 12:46 18.12.2020
4728 Clouds 7 1025 87 10000 0.5 0 11:45 18.12.2020
4729 Clouds 6 1025 93 10000 0.5 0 11:22 18.12.2020
4730 Clouds 5 1025 93 10000 0.5 0 10:39 18.12.2020
4731 Clouds 5 1025 100 10000 0.5 0 10:20 18.12.2020
4732 Clouds 5 1025 100 10000 0.5 0 10:20 18.12.2020
4733 Fog 4 1025 100 10000 0.5 0 09:38 18.12.2020
4734 Clouds 4 1025 93 10000 1 0 09:20 18.12.2020
4735 Clouds 3 1025 100 10000 1 0 08:53 18.12.2020
4736 Clouds 3 1025 100 10000 1 0 08:29 18.12.2020
4737 Fog 3 1025 100 10000 1 90 07:39 18.12.2020
4738 Fog 3 1025 100 10000 1 0 07:18 18.12.2020
4739 Fog 3 1025 100 10000 0.5 0 06:46 18.12.2020
4740 Fog 3 1025 100 10000 2.1 20 05:41 18.12.2020
4741 Fog 3 1025 100 10000 0.5 0 04:51 18.12.2020
4742 Clear 3 1025 100 10000 0.5 0 01:58 18.12.2020
4743 Clouds 3 1025 100 10000 1 0 01:38 18.12.2020
4744 Clouds 4 1025 100 10000 1.5 350 23:58 17.12.2020
4745 Clouds 4 1025 100 10000 0.5 0 23:25 17.12.2020
4746 Clouds 4 1025 100 10000 0.5 0 22:58 17.12.2020
4747 Clouds 4 1025 100 10000 0.5 0 22:40 17.12.2020
4748 Clouds 4 1025 100 10000 0.5 0 22:40 17.12.2020
4749 Clouds 5 1025 93 10000 0.5 0 22:22 17.12.2020
4750 Clouds 5 1025 93 10000 0.5 0 21:42 17.12.2020
4751 Clouds 5 1025 93 10000 0.5 0 21:42 17.12.2020
4752 Clouds 6 1025 93 10000 0.5 0 21:19 17.12.2020
4753 Clouds 6 1025 93 10000 0.5 0 20:42 17.12.2020
4754 Clouds 6 1025 93 10000 1 0 20:19 17.12.2020
4755 Clouds 6 1025 93 10000 0.5 0 19:48 17.12.2020
4756 Clouds 6 1024 93 10000 1.5 180 19:24 17.12.2020
4757 Clouds 6 1024 93 10000 1.5 50 18:44 17.12.2020
4758 Clouds 7 1024 93 10000 1.5 50 18:26 17.12.2020
4759 Clouds 7 1024 81 10000 1.5 260 17:57 17.12.2020
4760 Clouds 8 1024 81 10000 1.5 260 17:36 17.12.2020
4761 Clouds 8 1024 81 10000 0.5 0 17:18 17.12.2020
4762 Clouds 9 1024 81 10000 1 0 16:37 17.12.2020
4763 Clouds 9 1023 81 10000 0.5 0 16:18 17.12.2020
4764 Clouds 9 1023 81 10000 1 0 15:41 17.12.2020
4765 Clouds 9 1023 81 10000 1.5 160 15:20 17.12.2020
4766 Clouds 9 1023 81 10000 1.5 160 14:47 17.12.2020
4767 Clouds 9 1023 76 10000 2.6 200 14:20 17.12.2020
4768 Clouds 8 1023 81 10000 2.6 190 13:42 17.12.2020
4769 Clouds 8 1023 75 10000 3.1 210 13:18 17.12.2020
4770 Clouds 8 1023 75 10000 3.6 200 12:40 17.12.2020
4771 Clear 7 1023 81 10000 3.1 190 12:21 17.12.2020
4772 Clear 7 1023 93 10000 1 0 11:42 17.12.2020
4773 Clear 6 1022 93 10000 0.5 0 11:21 17.12.2020
4774 Clear 5 1022 93 10000 1 0 10:44 17.12.2020
4775 Clear 3 1022 71 10000 0.5 0 09:37 17.12.2020
4776 Fog 3 1021 100 10000 1.5 100 08:52 17.12.2020
4777 Fog 2 1020 100 10000 0.5 0 07:44 17.12.2020
4778 Fog 2 1020 100 10000 0.5 0 07:25 17.12.2020
4779 Fog 2 1020 100 10000 1 90 06:49 17.12.2020
4780 Fog 2 1020 100 10000 1 90 06:30 17.12.2020
4781 Fog 3 1019 82 10000 1 0 03:30 17.12.2020
4782 Fog 3 1019 100 600 0.5 0 00:28 17.12.2020
4783 Fog 4 1019 100 150 1 0 23:42 16.12.2020
4784 Fog 3 1019 100 1900 1 100 23:19 16.12.2020
4785 Fog 4 1019 100 10000 0.5 0 22:49 16.12.2020
4786 Fog 4 1019 100 10000 0.5 0 22:31 16.12.2020
4787 Fog 4 1019 100 10000 1.5 80 21:45 16.12.2020
4788 Fog 4 1019 100 10000 1.5 80 21:25 16.12.2020
4789 Clear 4 1019 93 10000 1 0 20:52 16.12.2020
4790 Clear 4 1018 100 10000 0.5 330 20:20 16.12.2020
4791 Clear 5 1018 100 10000 1 0 19:45 16.12.2020
4792 Clear 5 1018 100 10000 1 0 19:18 16.12.2020
4793 Clear 6 1018 93 10000 0.5 0 18:52 16.12.2020
4794 Clear 6 1018 93 10000 0.5 0 18:26 16.12.2020
4795 Clear 7 1018 100 10000 1 120 17:42 16.12.2020
4796 Clear 8 1018 93 10000 1 110 16:58 16.12.2020
4797 Clear 9 1018 93 10000 1 110 16:38 16.12.2020
4798 Clear 10 1018 81 10000 0.5 0 16:19 16.12.2020
4799 Clear 11 1018 81 10000 0.5 0 15:48 16.12.2020
4800 Clear 11 1017 76 10000 1.5 80 15:23 16.12.2020
4801 Clear 11 1017 76 10000 1 0 14:46 16.12.2020
4802 Clear 11 1017 76 10000 1 0 14:27 16.12.2020
4803 Clear 11 1018 81 10000 2.1 80 13:42 16.12.2020
4804 Clear 10 1018 81 10000 2.1 80 13:21 16.12.2020
4805 Clear 9 1018 87 10000 1.5 100 12:46 16.12.2020
4806 Clear 9 1018 87 10000 1.5 100 12:25 16.12.2020
4807 Clouds 8 1018 87 10000 1 0 11:38 16.12.2020
4808 Clouds 7 1018 93 10000 0.5 0 11:19 16.12.2020
4809 Clouds 6 1018 100 10000 1 0 10:43 16.12.2020
4810 Clouds 6 1018 100 10000 1 0 10:18 16.12.2020
4811 Fog 5 1018 100 4000 1.5 90 09:39 16.12.2020
4812 Fog 4 1018 100 4000 0.5 70 08:27 16.12.2020
4813 Fog 4 1017 100 2500 0.5 0 07:49 16.12.2020
4814 Fog 4 1017 100 2500 0.5 0 07:30 16.12.2020
4815 Fog 5 1017 100 1600 1.5 130 06:41 16.12.2020
4816 Fog 5 1016 100 750 0.5 0 02:26 16.12.2020
4817 Fog 6 1016 100 10000 1 0 00:23 16.12.2020
4818 Fog 6 1016 100 10000 0.5 0 23:44 15.12.2020
4819 Fog 6 1016 100 10000 0.5 0 22:46 15.12.2020
4820 Fog 6 1016 100 10000 0.5 0 22:24 15.12.2020
4821 Clouds 7 1016 100 10000 1 0 21:57 15.12.2020
4822 Clouds 7 1016 100 10000 1 0 21:37 15.12.2020
4823 Clouds 7 1016 100 10000 1 80 21:18 15.12.2020
4824 Clouds 7 1016 100 10000 1 80 20:42 15.12.2020
4825 Rain 8 1016 93 10000 0.5 0 20:23 15.12.2020
4826 Rain 8 1015 93 10000 0.5 0 19:42 15.12.2020
4827 Clouds 8 1015 93 10000 0.5 0 19:23 15.12.2020
4828 Rain 8 1015 93 10000 1 0 18:39 15.12.2020
4829 Rain 8 1015 87 10000 1.5 260 18:21 15.12.2020
4830 Rain 8 1015 87 10000 1.5 260 18:21 15.12.2020
4831 Rain 8 1015 87 10000 1 0 17:44 15.12.2020
4832 Rain 8 1014 87 10000 1.5 130 17:23 15.12.2020
4833 Rain 8 1014 93 10000 1 0 16:39 15.12.2020
4834 Rain 9 1014 87 10000 2.1 160 16:21 15.12.2020
4835 Clouds 9 1013 93 10000 1 0 15:37 15.12.2020
4836 Clouds 9 1013 87 10000 1 0 15:18 15.12.2020
4837 Clouds 8 1013 81 10000 1 0 14:41 15.12.2020
4838 Clouds 8 1013 81 10000 1 0 14:41 15.12.2020
4839 Clouds 8 1013 87 10000 1.5 80 14:19 15.12.2020
4840 Rain 8 1013 87 10000 1 0 13:49 15.12.2020
4841 Rain 8 1013 87 10000 1 0 13:24 15.12.2020
4842 Clouds 7 1013 87 10000 1 0 12:46 15.12.2020
4843 Rain 7 1013 93 10000 1.5 120 12:19 15.12.2020
4844 Clouds 7 1013 86 10000 1 0 11:52 15.12.2020
4845 Clouds 6 1013 86 10000 1 0 11:24 15.12.2020
4846 Clouds 6 1013 86 10000 1 0 10:49 15.12.2020
4847 Clouds 5 1013 93 10000 0.5 0 10:21 15.12.2020
4848 Rain 5 1012 100 10000 1 0 09:45 15.12.2020
4849 Clear 5 1012 93 10000 1.5 70 09:27 15.12.2020
4850 Rain 5 1012 93 10000 1 0 08:47 15.12.2020
4851 Clear 5 1012 93 10000 0.5 0 08:24 15.12.2020
4852 Clear 5 1012 93 10000 1.5 80 07:49 15.12.2020
4853 Clear 4 1012 93 10000 1.5 80 07:23 15.12.2020
4854 Clear 4 1012 93 10000 1.5 0 06:27 15.12.2020
4855 Clear 3 1012 100 10000 0.5 220 01:27 15.12.2020
4856 Clear 3 1012 93 10000 1 0 00:34 15.12.2020
4857 Clear 4 1013 93 10000 0.5 0 23:23 14.12.2020
4858 Clear 4 1012 100 10000 0.5 0 22:55 14.12.2020
4859 Clear 4 1012 100 10000 0.5 0 22:32 14.12.2020
4860 Clear 4 1012 93 10000 1.09 170 21:45 14.12.2020
4861 Clear 5 1012 86 10000 0.5 110 21:22 14.12.2020
4862 Clouds 5 1013 88 10000 0.45 93 20:51 14.12.2020
4863 Clouds 5 1013 87 10000 0.45 91 20:30 14.12.2020
4864 Clouds 5 1013 87 10000 0.89 131 19:53 14.12.2020
4865 Clear 5 1012 93 10000 1.5 80 19:29 14.12.2020
4866 Clear 5 1012 86 10000 1 0 18:50 14.12.2020
4867 Clear 5 1012 86 10000 2.1 90 18:30 14.12.2020
4868 Clear 6 1012 86 10000 1.5 90 17:46 14.12.2020
4869 Clouds 6 1013 85 10000 0.89 128 17:24 14.12.2020
4870 Clear 7 1013 87 10000 0.5 0 16:50 14.12.2020
4871 Clouds 7 1012 75 10000 1.5 140 16:29 14.12.2020
4872 Clouds 8 1012 70 10000 2.1 140 15:40 14.12.2020
4873 Clouds 8 1013 70 10000 2.1 130 15:20 14.12.2020
4874 Clouds 8 1013 70 10000 2.6 140 14:42 14.12.2020
4875 Clouds 8 1013 70 10000 2.6 140 14:24 14.12.2020
4876 Clouds 8 1013 66 10000 2.6 140 13:43 14.12.2020
4877 Clouds 8 1013 66 10000 3.1 170 13:20 14.12.2020
4878 Clouds 7 1013 66 10000 3.1 170 12:52 14.12.2020
4879 Clear 6 1014 75 10000 1.5 120 12:28 14.12.2020
4880 Clear 5 1014 86 10000 1 0 11:35 14.12.2020
4881 Clear 4 1014 70 10000 1 0 10:40 14.12.2020
4882 Clear 3 1013 74 10000 1 110 10:21 14.12.2020
4883 Clear 2 1013 74 10000 1 0 09:44 14.12.2020
4884 Clear 1 1013 81 10000 1 0 08:48 14.12.2020
4885 Clear 1 1013 83 10000 1 0 08:30 14.12.2020
4886 Clear 1 1013 83 10000 1.5 190 07:45 14.12.2020
4887 Clear 1 1013 84 10000 1.5 210 06:48 14.12.2020
4888 Clear 1 1013 84 10000 1.5 210 06:48 14.12.2020
4889 Clear 1 1013 100 10000 0.5 0 05:36 14.12.2020
4890 Clear 2 1013 93 10000 1.5 140 02:39 14.12.2020
4891 Clear 3 1013 93 10000 1 0 00:56 14.12.2020
4892 Clear 3 1013 93 10000 1 0 00:34 14.12.2020
4893 Clear 4 1014 93 10000 1.5 110 23:58 13.12.2020
4894 Clear 4 1014 93 10000 1.5 110 23:40 13.12.2020
4895 Clear 4 1014 86 10000 1 160 22:51 13.12.2020
4896 Clear 4 1014 86 10000 1 0 22:21 13.12.2020
4897 Clear 4 1014 86 10000 2.6 160 21:50 13.12.2020
4898 Clear 4 1014 86 10000 2.6 160 21:29 13.12.2020
4899 Clouds 4 1013 93 10000 1.5 140 20:42 13.12.2020
4900 Clear 4 1013 93 10000 1.5 140 20:23 13.12.2020
4901 Clouds 5 1014 86 10000 1 0 19:43 13.12.2020
4902 Clouds 6 1014 87 10000 1.5 200 19:22 13.12.2020
4903 Clouds 5 1014 86 10000 1 0 19:22 13.12.2020
4904 Clouds 6 1014 87 10000 1.5 190 18:44 13.12.2020
4905 Clouds 6 1014 87 10000 1 0 18:21 13.12.2020
4906 Clouds 6 1014 87 10000 1 0 17:59 13.12.2020
4907 Clouds 6 1013 87 10000 0.5 0 17:41 13.12.2020
4908 Clouds 6 1013 81 10000 1 0 17:18 13.12.2020
4909 Clouds 7 1013 81 10000 1 160 16:42 13.12.2020
4910 Clouds 7 1013 81 10000 1 160 16:21 13.12.2020
4911 Clouds 7 1013 81 10000 1 340 15:45 13.12.2020
4912 Clouds 7 1013 81 10000 1 340 15:45 13.12.2020
4913 Clouds 7 1013 81 10000 1 340 15:45 13.12.2020
4914 Clouds 7 1013 81 10000 1 340 15:45 13.12.2020
4915 Clouds 7 1013 81 10000 1 340 15:45 13.12.2020
4916 Clouds 7 1013 81 10000 1 340 15:45 13.12.2020
4917 Clouds 7 1013 81 10000 1 340 15:25 13.12.2020
4918 Clouds 7 1013 75 10000 2.1 280 14:46 13.12.2020
4919 Clouds 7 1013 75 10000 2.1 280 14:28 13.12.2020
4920 Clouds 7 1013 81 10000 3.6 270 13:46 13.12.2020
4921 Clouds 7 1013 81 10000 3.6 270 13:27 13.12.2020
4922 Clouds 7 1013 70 10000 5.7 280 12:55 13.12.2020
4923 Clouds 7 1013 70 10000 5.7 280 12:24 13.12.2020
4924 Clouds 7 1013 81 10000 1.5 230 11:53 13.12.2020
4925 Clouds 7 1013 81 10000 1.5 230 11:28 13.12.2020
4926 Clouds 6 1012 93 10000 2.1 260 10:42 13.12.2020
4927 Clouds 6 1011 93 10000 2.6 260 10:18 13.12.2020
4928 Clouds 6 1011 93 10000 3.1 240 09:37 13.12.2020
4929 Clouds 6 1010 87 10000 2.1 240 08:47 13.12.2020
4930 Clouds 6 1010 87 10000 2.1 240 08:23 13.12.2020
4931 Clouds 5 1009 93 10000 1.5 250 06:28 13.12.2020
4932 Clouds 5 1007 93 10000 0.5 0 02:44 13.12.2020
4933 Clouds 5 1006 100 10000 1.5 270 01:59 13.12.2020
4934 Clouds 5 1006 100 10000 1.5 270 01:34 13.12.2020
4935 Clouds 5 1006 93 10000 1 0 00:44 13.12.2020
4936 Rain 5 1005 100 9000 1.5 240 23:37 12.12.2020
4937 Clouds 6 1005 87 10000 1.5 230 23:19 12.12.2020
4938 Clouds 6 1004 87 10000 1.5 240 22:34 12.12.2020
4939 Rain 6 1004 87 10000 2.1 230 21:46 12.12.2020
4940 Clouds 6 1004 87 10000 2.1 230 21:20 12.12.2020
4941 Clouds 6 1003 87 10000 2.6 230 20:45 12.12.2020
4942 Clouds 6 1003 87 10000 2.6 230 20:21 12.12.2020
4943 Clouds 6 1003 87 10000 2.6 230 19:52 12.12.2020
4944 Clouds 6 1003 87 10000 2.6 230 19:33 12.12.2020
4945 Rain 6 1002 87 10000 2.6 210 18:56 12.12.2020
4946 Clouds 6 1002 87 10000 2.6 210 18:38 12.12.2020
4947 Clouds 6 1001 87 10000 2.1 210 18:20 12.12.2020
4948 Rain 6 1001 87 10000 2.1 210 17:41 12.12.2020
4949 Clouds 6 1000 81 10000 1.5 210 16:44 12.12.2020
4950 Clouds 6 1000 81 10000 1.5 210 16:44 12.12.2020
4951 Clouds 6 999 87 10000 2.1 210 15:58 12.12.2020
4952 Clouds 6 1000 93 10000 1.5 220 15:58 12.12.2020
4953 Clouds 6 1000 93 10000 1.5 220 15:58 12.12.2020
4954 Clouds 6 999 87 10000 2.1 210 15:39 12.12.2020
4955 Rain 6 999 87 10000 2.6 210 14:54 12.12.2020
4956 Rain 6 999 87 10000 2.6 210 14:35 12.12.2020
4957 Clouds 6 998 87 10000 1.5 200 13:46 12.12.2020
4958 Clouds 6 998 87 10000 1.5 200 13:26 12.12.2020
4959 Rain 6 998 81 10000 1 0 12:37 12.12.2020
4960 Clouds 5 998 86 10000 1.5 190 11:39 12.12.2020
4961 Clouds 5 997 86 10000 1 0 10:51 12.12.2020
4962 Clouds 3 996 93 10000 0.5 0 09:25 12.12.2020
4963 Clouds 3 995 93 10000 0.5 0 08:42 12.12.2020
4964 Clouds 3 994 93 10000 1 0 02:28 12.12.2020
4965 Clouds 3 995 86 10000 2.6 190 23:40 11.12.2020
4966 Clouds 3 995 83 10000 2.1 190 22:21 11.12.2020
4967 Clouds 3 995 86 10000 3.6 180 20:25 11.12.2020
4968 Rain 3 996 84 10000 1.5 130 17:40 11.12.2020
4969 Clear 3 997 74 10000 1.5 130 14:40 11.12.2020
4970 Clear 3 997 80 10000 1.5 160 13:58 11.12.2020
4971 Clouds 2 999 74 10000 2.1 180 12:49 11.12.2020
4972 Clouds 2 999 80 10000 2.1 160 11:57 11.12.2020
4973 Clouds 1 999 80 10000 1.5 180 11:38 11.12.2020
4974 Clouds 1 1000 83 10000 1 0 10:44 11.12.2020
4975 Clouds -1 1000 86 10000 2.6 120 08:43 11.12.2020
4976 Clouds 0 1002 94 10000 1.5 210 05:40 11.12.2020
4977 Clouds 0 1002 94 10000 2.1 150 04:51 11.12.2020
4978 Clouds 1 1005 86 10000 2.1 170 01:32 11.12.2020
4979 Clouds 1 1006 86 10000 1 0 00:20 11.12.2020
4980 Clouds 1 1006 86 10000 1.5 140 22:44 10.12.2020
4981 Clouds 1 1006 95 10000 0.5 0 21:36 10.12.2020
4982 Clouds 1 1006 88 10000 1.5 170 20:41 10.12.2020
4983 Clouds 2 1006 86 10000 1 0 19:37 10.12.2020
4984 Clouds 1 1006 86 10000 2.1 180 18:53 10.12.2020
4985 Clouds 1 1006 94 8000 1 0 17:52 10.12.2020
4986 Clouds 2 1006 91 10000 0.5 0 16:30 10.12.2020
4987 Clouds 2 1005 85 10000 0.5 0 15:27 10.12.2020
4988 Clouds 2 1005 86 10000 1 0 14:50 10.12.2020
4989 Clouds 2 1005 86 8000 0.5 0 14:27 10.12.2020
4990 Clouds 1 1006 86 7000 1 0 12:47 10.12.2020
4991 Clouds 1 1006 86 6000 1.5 100 11:39 10.12.2020
4992 Mist 0 1006 97 4500 1.5 80 08:52 10.12.2020
4993 Clouds 0 1006 98 6000 2.1 90 07:48 10.12.2020
4994 Clouds 0 1006 97 8000 1.5 60 06:41 10.12.2020
4995 Snow 0 1008 97 5000 2.1 30 03:36 10.12.2020
4996 Snow 0 1009 95 2500 2.1 60 02:23 10.12.2020
4997 Snow 0 1009 93 5000 0.5 0 00:22 10.12.2020
4998 Snow 1 1010 93 8000 0.5 0 22:48 09.12.2020
4999 Snow 1 1009 92 4000 0.5 0 20:30 09.12.2020
5000 Snow 1 1009 92 3000 0.5 0 19:32 09.12.2020
5001 Snow 1 1009 92 2000 1 240 17:44 09.12.2020
5002 Snow 1 1009 92 3000 0.5 0 16:52 09.12.2020
5003 Mist 1 1009 88 3000 0.5 0 16:23 09.12.2020
5004 Snow 1 1008 100 3000 1.5 330 15:31 09.12.2020
5005 Snow 2 1008 93 4000 4.1 320 14:40 09.12.2020
5006 Snow 2 1008 93 4000 2.1 340 14:18 09.12.2020
5007 Snow 2 1008 93 3000 1.5 310 13:19 09.12.2020
5008 Drizzle 2 1009 93 3200 2.6 310 12:45 09.12.2020
5009 Snow 2 1009 93 3800 2.1 330 11:53 09.12.2020
5010 Drizzle 1 1009 93 3500 1.5 330 11:23 09.12.2020
5011 Snow 1 1008 100 1800 0.5 0 09:39 09.12.2020
5012 Snow 1 1007 90 3000 1 0 07:57 09.12.2020
5013 Snow 1 1006 91 3700 1 160 05:55 09.12.2020
5014 Snow 1 1006 89 4400 1 110 04:20 09.12.2020
5015 Snow 1 1005 90 4200 1.5 300 01:59 09.12.2020
5016 Snow 1 1004 89 7000 1 0 23:44 08.12.2020
5017 Snow 0 1004 88 7000 0.5 240 23:18 08.12.2020
5018 Clear 0 1003 87 10000 2.6 280 21:30 08.12.2020
5019 Clear 0 1003 86 10000 0.5 0 19:46 08.12.2020
5020 Clouds 0 1002 86 10000 2.1 320 18:59 08.12.2020
5021 Clear 0 1002 86 10000 1 10 18:27 08.12.2020
5022 Clear 3 1000 74 10000 0.5 0 15:54 08.12.2020
5023 Clear 4 1000 74 10000 1.5 100 14:31 08.12.2020
5024 Clear 4 1001 69 10000 2.1 80 13:35 08.12.2020
5025 Clear 3 1001 74 10000 2.1 80 12:32 08.12.2020
5026 Clear 3 1001 74 10000 2.1 80 11:52 08.12.2020
5027 Clouds 2 1001 86 9000 1 0 10:49 08.12.2020
5028 Clouds 1 1001 92 9000 1 0 10:29 08.12.2020
5029 Clear 0 1000 91 10000 1 0 08:53 08.12.2020
5030 Clouds 0 1000 94 10000 0.5 0 07:25 08.12.2020
5031 Clouds 1 1000 91 10000 1 90 03:43 08.12.2020
5032 Clouds 1 1001 93 10000 2.1 80 01:36 08.12.2020
5033 Clouds 1 1001 93 10000 2.1 80 00:43 08.12.2020
5034 Clouds 1 1001 91 10000 1.5 100 22:48 07.12.2020
5035 Clouds 1 1001 89 10000 2.1 100 21:58 07.12.2020
5036 Clouds 2 1002 88 10000 2.1 100 20:45 07.12.2020
5037 Clouds 2 1001 80 10000 2.6 140 18:48 07.12.2020
5038 Clouds 3 1001 78 10000 2.6 150 17:31 07.12.2020
5039 Clouds 3 1001 78 10000 1.5 170 16:56 07.12.2020
5040 Clouds 4 1001 76 10000 2.6 150 16:19 07.12.2020
5041 Clouds 4 1001 72 10000 1.5 160 15:24 07.12.2020
5042 Clouds 4 1001 70 10000 3.6 160 14:26 07.12.2020
5043 Clouds 4 1001 70 10000 2.6 160 13:34 07.12.2020
5044 Clouds 4 1001 75 10000 2.6 180 11:52 07.12.2020
5045 Clouds 4 1001 74 10000 2.6 150 11:32 07.12.2020
5046 Clouds 3 1000 86 10000 1.5 190 10:22 07.12.2020
5047 Clouds 2 999 86 10000 0.5 0 08:32 07.12.2020
5048 Rain 2 999 93 10000 0.5 0 07:23 07.12.2020
5049 Snow 2 998 93 10000 2.6 190 05:26 07.12.2020
5050 Snow 1 997 100 10000 2.6 200 03:43 07.12.2020
5051 Snow 1 997 92 10000 1.5 220 00:33 07.12.2020
5052 Snow 1 998 92 4400 1 0 22:46 06.12.2020
5053 Snow 2 998 93 4000 2.6 230 21:44 06.12.2020
5054 Rain 3 998 86 10000 1 0 20:35 06.12.2020
5055 Rain 3 998 86 10000 2.1 250 19:57 06.12.2020
5056 Clouds 3 998 93 10000 2.6 280 19:20 06.12.2020
5057 Rain 3 998 100 9000 0.5 0 17:28 06.12.2020
5058 Rain 3 998 93 9000 1.5 290 16:33 06.12.2020
5059 Clouds 4 998 86 8000 1.5 230 14:49 06.12.2020
5060 Mist 3 998 93 5000 2.6 250 12:59 06.12.2020
5061 Mist 3 998 93 5000 2.1 250 12:30 06.12.2020
5062 Mist 3 998 93 4500 2.1 230 11:42 06.12.2020
5063 Mist 2 998 100 2000 1.5 250 11:23 06.12.2020
5064 Drizzle 2 998 100 900 0.5 0 10:34 06.12.2020
5065 Fog 2 998 100 350 0.5 0 08:59 06.12.2020
5066 Rain 2 997 100 300 2.1 330 07:26 06.12.2020
5067 Rain 2 998 100 3900 0.5 0 04:47 06.12.2020
5068 Rain 2 999 100 3000 0.5 0 00:45 06.12.2020
5069 Rain 2 999 100 1300 0.5 0 00:26 06.12.2020
5070 Rain 2 999 100 1300 0.5 0 23:55 05.12.2020
5071 Rain 2 999 100 8000 1 0 22:24 05.12.2020
5072 Rain 2 999 100 10000 1.5 80 21:55 05.12.2020
5073 Rain 2 999 100 10000 1.5 80 21:28 05.12.2020
5074 Rain 2 999 93 10000 0.5 0 19:54 05.12.2020
5075 Rain 2 1000 93 10000 1 0 18:46 05.12.2020
5076 Rain 2 999 93 10000 0.5 0 17:39 05.12.2020
5077 Rain 2 1000 93 10000 1 0 16:45 05.12.2020
5078 Clouds 2 1000 93 10000 1 0 16:25 05.12.2020
5079 Clouds 3 1000 93 10000 2.1 90 14:39 05.12.2020
5080 Fog 2 1000 93 10000 1 0 12:36 05.12.2020
5081 Fog 2 1000 100 10000 1.5 90 11:50 05.12.2020
5082 Fog 2 999 82 10000 2.1 80 10:35 05.12.2020
5083 Clouds 1 998 91 10000 1.5 250 08:54 05.12.2020
5084 Clouds 1 997 93 10000 1 0 07:48 05.12.2020
5085 Rain 1 995 93 5000 1 120 05:34 05.12.2020
5086 Snow 1 990 86 10000 1 0 00:55 05.12.2020
5087 Snow 1 990 86 10000 0.5 0 23:36 04.12.2020
5088 Clouds 1 990 86 10000 1 50 21:35 04.12.2020
5089 Clouds 1 990 86 10000 0.5 0 19:35 04.12.2020
5090 Clouds 2 990 86 10000 1 0 18:40 04.12.2020
5091 Rain 3 989 74 10000 1 110 17:47 04.12.2020
5092 Rain 3 989 79 10000 1 0 16:37 04.12.2020
5093 Rain 4 988 69 10000 0.5 0 15:26 04.12.2020
5094 Rain 4 989 68 10000 0.5 0 13:38 04.12.2020
5095 Rain 4 989 74 10000 3.1 300 13:20 04.12.2020
5096 Rain 4 988 74 10000 1.5 0 12:41 04.12.2020
5097 Clouds 3 989 80 10000 0.5 0 10:38 04.12.2020
5098 Rain 2 990 80 10000 1.5 0 09:30 04.12.2020
5099 Snow 1 990 80 10000 0.5 0 06:40 04.12.2020
5100 Snow 1 990 80 10000 1.89 123 05:20 04.12.2020
5101 Clouds 1 992 79 10000 2.6 80 01:54 04.12.2020
5102 Clear 1 995 79 10000 1.5 120 22:51 03.12.2020
5103 Clear 0 997 82 10000 2.1 140 21:56 03.12.2020
5104 Clouds 0 997 86 10000 1 0 20:47 03.12.2020
5105 Clear 1 998 89 10000 2.6 140 19:26 03.12.2020
5106 Clouds 1 1000 74 10000 2.6 140 18:49 03.12.2020
5107 Clouds 1 1000 74 10000 3.1 150 17:22 03.12.2020
5108 Clouds 2 1001 80 10000 2.6 150 16:59 03.12.2020
5109 Clouds 3 1002 69 10000 2.6 170 15:39 03.12.2020
5110 Clouds 3 1002 69 10000 2.6 170 15:21 03.12.2020
5111 Clouds 3 1003 69 10000 2.6 190 14:26 03.12.2020
5112 Clouds 3 1004 69 10000 2.6 190 13:36 03.12.2020
5113 Clouds 2 1005 69 10000 2.1 170 12:26 03.12.2020
5114 Clouds 2 1007 80 10000 2.1 180 11:24 03.12.2020
5115 Clouds 0 1008 94 10000 0.5 0 08:56 03.12.2020
5116 Mist -1 1010 92 5000 1.5 140 05:18 03.12.2020
5117 Mist -1 1011 92 4500 0.5 80 02:27 03.12.2020
5118 Clouds -1 1012 92 4500 1 0 00:48 03.12.2020
5119 Clouds -1 1013 86 10000 1 90 22:47 02.12.2020
5120 Clouds -1 1013 86 10000 1 90 22:26 02.12.2020
5121 Clouds -1 1013 86 10000 1 0 21:18 02.12.2020
5122 Clouds 0 1013 90 10000 2.1 90 20:44 02.12.2020
5123 Clouds 0 1013 89 10000 2.1 90 20:26 02.12.2020
5124 Clouds 0 1013 87 10000 2.1 70 18:37 02.12.2020
5125 Clouds 0 1013 86 10000 2.6 80 17:45 02.12.2020
5126 Clouds 0 1013 84 10000 2.6 70 17:27 02.12.2020
5127 Clouds 0 1013 80 10000 2.6 50 15:23 02.12.2020
5128 Clouds 1 1015 86 10000 2.1 60 12:45 02.12.2020
5129 Clouds 1 1016 85 10000 2.1 90 10:29 02.12.2020
5130 Clouds 1 1016 85 10000 2.6 90 09:32 02.12.2020
5131 Mist 1 1016 100 5000 1.5 50 05:53 02.12.2020
5132 Snow 1 1017 100 400 1.5 100 22:54 01.12.2020
5133 Fog 1 1017 100 400 1 0 22:18 01.12.2020
5134 Fog 1 1016 100 3000 1 120 19:36 01.12.2020
5135 Fog 1 1016 100 1200 1.5 60 18:45 01.12.2020
5136 Clouds 1 1015 93 6000 1.5 70 16:37 01.12.2020
5137 Rain 2 1015 93 3000 0.5 0 14:21 01.12.2020
5138 Rain 1 1015 93 4000 0.5 0 12:29 01.12.2020
5139 Rain 1 1015 100 8000 0.5 0 11:28 01.12.2020
5140 Mist 1 1014 100 5000 0.5 0 10:46 01.12.2020
5141 Rain 1 1014 94 5000 1.5 240 10:25 01.12.2020
5142 Rain 1 1014 93 7000 0.5 0 07:26 01.12.2020
5143 Rain 0 1018 90 8000 3.1 180 02:41 01.12.2020
5144 Rain -1 1019 85 10000 1 180 00:57 01.12.2020
5145 Snow -1 1020 80 10000 1.5 130 23:49 30.11.2020
5146 Clouds -2 1021 86 10000 0.5 0 23:18 30.11.2020
5147 Clouds -2 1021 86 10000 1.5 140 22:36 30.11.2020
5148 Clear -2 1022 86 10000 1 0 22:18 30.11.2020
5149 Clear -2 1023 79 10000 1 0 19:46 30.11.2020
5150 Clear -2 1023 80 10000 0.5 0 18:54 30.11.2020
5151 Clear -1 1023 86 10000 1 0 18:21 30.11.2020
5152 Clear -1 1024 74 10000 1 0 17:45 30.11.2020
5153 Clear 0 1026 78 10000 0.55 269 16:52 30.11.2020
5154 Clear 2 1024 59 10000 1 0 14:47 30.11.2020
5155 Clouds 2 1025 59 10000 1.5 0 13:55 30.11.2020
5156 Clouds 2 1025 64 10000 1.5 190 12:59 30.11.2020
5157 Clouds 1 1026 69 10000 2.6 170 12:25 30.11.2020
5158 Clouds 1 1026 80 10000 2.6 160 11:34 30.11.2020
5159 Clouds -1 1026 86 10000 0.5 280 10:24 30.11.2020
5160 Clouds -3 1025 85 10000 1 0 08:53 30.11.2020
5161 Clouds -3 1025 92 10000 0.5 0 01:28 30.11.2020
5162 Clouds -2 1024 86 10000 1.5 100 23:28 29.11.2020
5163 Clouds -1 1025 93 10000 2.1 90 21:44 29.11.2020
5164 Clouds -1 1025 93 10000 2.1 90 21:26 29.11.2020
5165 Clouds -1 1025 93 10000 2.1 90 21:26 29.11.2020
5166 Clouds 0 1024 89 10000 1 100 19:19 29.11.2020
5167 Clouds 0 1023 85 10000 1.5 80 17:34 29.11.2020
5168 Clouds 3 1023 64 10000 3.6 100 14:46 29.11.2020
5169 Clouds 2 1023 69 10000 5.1 80 12:45 29.11.2020
5170 Clouds 1 1023 69 10000 6.2 80 11:37 29.11.2020
5171 Clouds 0 1022 94 10000 4.6 80 08:54 29.11.2020
5172 Clouds 0 1022 94 10000 5.1 80 08:35 29.11.2020
5173 Clouds 1 1020 90 10000 2.6 60 02:32 29.11.2020
5174 Clouds 1 1020 83 7000 4.6 60 22:59 28.11.2020
5175 Clouds 1 1020 82 7000 4.6 60 22:27 28.11.2020
5176 Clear 1 1019 79 10000 3.1 40 20:24 28.11.2020
5177 Clear 1 1018 77 10000 1 0 19:28 28.11.2020
5178 Clear 1 1018 86 10000 2.1 70 18:58 28.11.2020
5179 Clear 1 1018 86 10000 2.6 30 18:22 28.11.2020
5180 Clear 4 1018 70 10000 4.1 360 16:58 28.11.2020
5181 Clear 6 1018 57 10000 2.6 10 14:59 28.11.2020
5182 Clear 7 1018 55 10000 1.5 0 13:58 28.11.2020
5183 Clear 3 1019 74 10000 1.5 80 11:29 28.11.2020
5184 Clear -1 1019 92 10000 0.5 0 09:37 28.11.2020
5185 Clear -1 1019 92 10000 0.5 300 03:49 28.11.2020
5186 Clear -1 1019 92 10000 0.5 300 03:24 28.11.2020
5187 Clear 0 1019 72 10000 1 0 23:23 27.11.2020
5188 Clear 1 1019 72 10000 1 0 22:54 27.11.2020
5189 Clear 2 1019 86 10000 1.5 90 21:27 27.11.2020
5190 Clear 2 1019 86 10000 1.5 90 20:30 27.11.2020
5191 Clear 2 1019 80 10000 0.5 90 19:25 27.11.2020
5192 Clear 5 1018 70 10000 1.5 360 17:50 27.11.2020
5193 Clear 8 1019 53 10000 1.5 100 14:46 27.11.2020
5194 Clear 8 1019 61 10000 1 0 13:25 27.11.2020
5195 Clear 9 1019 61 10000 1 0 12:47 27.11.2020
5196 Clear 6 1020 52 10000 0.5 0 11:47 27.11.2020
5197 Clear 5 1020 80 10000 0.5 0 10:50 27.11.2020
5198 Clear 2 1020 63 10000 1.5 70 09:57 27.11.2020
5199 Clear 1 997 71 10000 1.2 174 07:29 27.11.2020
5200 Clear 3 999 80 10000 1.42 181 22:28 26.11.2020
5201 Clear 3 1021 71 10000 1.5 110 21:56 26.11.2020
5202 Clear 2 1021 70 10000 1.5 110 21:25 26.11.2020
5203 Clear 3 1021 80 10000 1 0 19:19 26.11.2020
5204 Clear 3 1021 86 10000 0.5 0 18:30 26.11.2020
5205 Clear 7 1021 65 10000 1 70 16:20 26.11.2020
5206 Clear 7 1022 70 10000 1.5 130 13:43 26.11.2020
5207 Clear 7 1022 80 10000 1.5 150 12:44 26.11.2020
5208 Clear 7 1022 80 10000 1.5 150 12:23 26.11.2020
5209 Clear 4 1023 92 10000 1.5 120 10:38 26.11.2020
5210 Clear 3 1023 86 10000 0.5 70 09:49 26.11.2020
5211 Clear 2 1023 86 10000 0.5 70 09:31 26.11.2020
5212 Clear 0 1023 92 10000 1.5 70 08:40 26.11.2020
5213 Clear -2 1022 92 10000 0.5 90 06:56 26.11.2020
5214 Clear -1 1022 92 10000 0.5 110 00:46 26.11.2020
5215 Clear 1 1021 100 10000 1 90 21:36 25.11.2020
5216 Clear 2 1021 86 10000 1.5 90 20:19 25.11.2020
5217 Clear 2 1020 68 10000 1 0 18:58 25.11.2020
5218 Clear 5 1020 70 10000 1.5 100 17:24 25.11.2020
5219 Clear 7 1020 65 10000 1.5 80 15:42 25.11.2020
5220 Clear 7 1020 70 10000 1.5 90 14:46 25.11.2020
5221 Clear 8 1020 70 10000 2.1 130 13:45 25.11.2020
5222 Clear 7 1020 80 10000 2.1 130 12:47 25.11.2020
5223 Clear 3 1021 60 10000 1 0 11:22 25.11.2020
5224 Fog -1 1020 100 3000 0.5 0 09:20 25.11.2020
5225 Fog -2 1020 100 600 1 60 08:50 25.11.2020
5226 Fog -2 1020 92 300 1 80 07:21 25.11.2020
5227 Fog -1 1020 92 7000 1.5 280 03:49 25.11.2020
5228 Fog 0 1021 92 8000 0.5 330 01:48 25.11.2020
5229 Fog 0 1021 100 10000 0.5 50 00:19 25.11.2020
5230 Fog 0 1021 81 10000 1.03 162 23:35 24.11.2020
5231 Clear 1 1021 81 10000 0.5 140 22:39 24.11.2020
5232 Clear 1 1021 81 10000 0.5 140 22:39 24.11.2020
5233 Clear 1 1022 81 10000 0.5 0 21:43 24.11.2020
5234 Clear 1 1022 82 10000 0.5 0 21:23 24.11.2020
5235 Clear 2 1022 93 10000 0.5 0 19:48 24.11.2020
5236 Clear 4 1022 86 10000 2.1 80 17:41 24.11.2020
5237 Clear 5 1022 75 10000 1.5 70 17:22 24.11.2020
5238 Clear 6 1022 75 10000 1.5 70 16:38 24.11.2020
5239 Clouds 7 1023 75 10000 2.1 80 15:56 24.11.2020
5240 Clouds 7 1023 81 10000 1 0 15:20 24.11.2020
5241 Clouds 7 1024 81 10000 1.5 170 14:45 24.11.2020
5242 Clouds 6 1024 81 10000 2.6 130 13:38 24.11.2020
5243 Clouds 6 1025 87 10000 2.1 90 12:39 24.11.2020
5244 Clouds 6 1025 87 10000 2.1 90 12:20 24.11.2020
5245 Clouds 5 1026 93 10000 0.5 0 11:33 24.11.2020
5246 Clouds 4 1026 93 10000 0.5 0 10:25 24.11.2020
5247 Clouds 3 1026 100 10000 0.5 350 09:40 24.11.2020
5248 Fog 3 1026 100 9000 1 0 08:59 24.11.2020
5249 Fog 1 1026 89 2300 1.5 320 06:50 24.11.2020
5250 Fog 3 1029 100 700 1.5 300 01:24 24.11.2020
5251 Clouds 4 1029 100 9000 0.5 0 22:25 23.11.2020
5252 Clouds 5 1029 100 6000 1 0 21:33 23.11.2020
5253 Clouds 5 1029 100 6000 0.5 120 20:36 23.11.2020
5254 Mist 6 1029 93 5000 0.5 0 20:18 23.11.2020
5255 Mist 6 1030 93 5000 0.5 60 17:59 23.11.2020
5256 Clouds 6 1029 100 6000 1 160 17:21 23.11.2020
5257 Mist 6 1029 100 5000 1 0 16:19 23.11.2020
5258 Mist 6 1029 100 2500 1 0 14:46 23.11.2020
5259 Mist 6 1029 100 2500 1 0 14:46 23.11.2020
5260 Mist 6 1029 100 3000 1 0 12:55 23.11.2020
5261 Mist 6 1029 100 3000 1.5 90 12:36 23.11.2020
5262 Drizzle 5 1030 93 3000 1 0 11:46 23.11.2020
5263 Drizzle 5 1029 93 4000 1 0 10:47 23.11.2020
5264 Clouds 5 1029 75 10000 0.5 0 09:31 23.11.2020
5265 Clouds 5 1028 80 10000 1 0 08:40 23.11.2020
5266 Clouds 4 1028 80 10000 0.5 0 07:25 23.11.2020
5267 Clouds 3 1027 74 10000 1 0 00:32 23.11.2020
5268 Clear 3 1027 74 10000 0.5 130 23:35 22.11.2020
5269 Clear 4 1028 69 10000 1.5 300 22:18 22.11.2020
5270 Clear 5 1027 60 10000 1 0 20:53 22.11.2020
5271 Rain 5 1027 69 10000 1 0 19:55 22.11.2020
5272 Clouds 5 1027 65 10000 1 240 18:53 22.11.2020
5273 Clouds 6 1027 56 10000 0.94 186 17:26 22.11.2020
5274 Clear 7 1027 45 10000 0.5 0 15:53 22.11.2020
5275 Clear 7 1028 49 10000 1 0 14:39 22.11.2020
5276 Clear 7 1029 60 10000 1 0 12:50 22.11.2020
5277 Clear 6 1029 74 10000 1 0 12:18 22.11.2020
5278 Clear 4 1029 74 10000 1.5 70 11:21 22.11.2020
5279 Clear 2 1029 56 10000 1.5 150 10:45 22.11.2020
5280 Clear 0 1030 100 10000 1.5 30 09:42 22.11.2020
5281 Clear -1 1030 100 10000 1 0 01:50 22.11.2020
5282 Clear -1 1030 92 10000 0.5 310 23:53 21.11.2020
5283 Clear 0 1031 92 10000 0.5 0 22:25 21.11.2020
5284 Clear -1 1031 80 10000 1 290 21:30 21.11.2020
5285 Clear 0 1031 75 10000 0.5 0 20:49 21.11.2020
5286 Clear 0 1031 86 10000 1 0 19:57 21.11.2020
5287 Clear 0 1031 73 10000 0.5 0 19:37 21.11.2020
5288 Clear 1 1031 80 10000 1 0 18:31 21.11.2020
5289 Clear 3 1032 65 10000 1 0 17:29 21.11.2020
5290 Clear 4 1032 69 10000 0.5 0 16:44 21.11.2020
5291 Clear 5 1032 59 10000 2.1 160 15:23 21.11.2020
5292 Clear 5 1032 59 10000 1.5 140 14:48 21.11.2020
5293 Clear 5 1032 58 10000 1.5 140 14:27 21.11.2020
5294 Clouds 4 1034 60 10000 1 0 12:43 21.11.2020
5295 Fog 3 1034 86 10000 1 0 12:20 21.11.2020
5296 Clouds 2 1035 70 10000 1 0 11:23 21.11.2020
5297 Clouds 0 1035 92 10000 0.5 0 10:27 21.11.2020
5298 Fog -2 1035 92 10000 1.5 310 08:52 21.11.2020
5299 Fog -2 1034 100 8000 0.5 0 07:58 21.11.2020
5300 Mist -3 1035 100 1200 0.5 0 05:40 21.11.2020
5301 Clear -1 1035 92 10000 0.5 0 01:56 21.11.2020
5302 Clouds -1 1035 81 10000 2.1 310 00:21 21.11.2020
5303 Clouds 1 1035 86 10000 0.5 0 22:43 20.11.2020
5304 Clouds 2 1036 86 10000 0.5 0 21:44 20.11.2020
5305 Clouds 2 1036 86 10000 0.5 0 21:44 20.11.2020
5306 Clouds 3 1036 86 10000 0.5 110 21:21 20.11.2020
5307 Clouds 4 1035 80 10000 1 0 19:55 20.11.2020
5308 Clouds 4 1035 80 10000 1 0 18:54 20.11.2020
5309 Clouds 5 1035 80 10000 2.6 330 17:59 20.11.2020
5310 Clouds 5 1034 68 10000 3.6 330 17:29 20.11.2020
5311 Clouds 5 1034 68 10000 3.6 330 16:47 20.11.2020
5312 Clouds 5 1034 64 10000 2.6 350 15:59 20.11.2020
5313 Clouds 6 1034 60 10000 3.1 360 15:34 20.11.2020
5314 Clouds 6 1034 59 10000 2.6 10 13:49 20.11.2020
5315 Clouds 6 1034 60 10000 2.1 350 13:19 20.11.2020
5316 Clouds 6 1034 59 10000 2.1 350 12:40 20.11.2020
5317 Clouds 6 1034 70 10000 1.5 0 11:48 20.11.2020
5318 Clouds 6 1034 75 10000 3.1 330 11:21 20.11.2020
5319 Clouds 3 1033 86 10000 1 0 09:46 20.11.2020
5320 Clouds 2 1032 93 10000 2.6 300 08:28 20.11.2020
5321 Clouds 2 1032 93 10000 1 0 07:35 20.11.2020
5322 Clouds 6 1030 87 10000 4.6 330 03:45 20.11.2020
5323 Clouds 6 1029 93 10000 3.1 260 23:36 19.11.2020
5324 Clouds 6 1029 87 10000 2.6 250 22:29 19.11.2020
5325 Clouds 7 1028 87 10000 2.6 230 21:50 19.11.2020
5326 Clouds 7 1028 81 10000 3.1 250 20:42 19.11.2020
5327 Clouds 7 1028 81 10000 2.6 220 20:19 19.11.2020
5328 Clouds 7 1028 81 10000 3.6 250 19:26 19.11.2020
5329 Clouds 8 1027 70 10000 4.1 230 18:35 19.11.2020
5330 Clouds 9 1026 66 10000 5.7 260 17:18 19.11.2020
5331 Clouds 9 1025 61 10000 8.2 260 16:26 19.11.2020
5332 Clouds 9 1025 61 10000 10.3 270 15:29 19.11.2020
5333 Clouds 9 1024 70 10000 7.2 290 13:49 19.11.2020
5334 Clouds 9 1024 70 10000 7.2 290 13:30 19.11.2020
5335 Clouds 9 1023 87 10000 6.7 300 12:51 19.11.2020
5336 Clouds 9 1023 87 10000 6.7 300 12:28 19.11.2020
5337 Clouds 10 1023 81 10000 8.2 290 11:40 19.11.2020
5338 Clouds 10 1022 81 10000 4.1 250 11:20 19.11.2020
5339 Rain 12 1021 71 10000 3.6 240 10:31 19.11.2020
5340 Clouds 11 1021 71 10000 2.6 240 09:47 19.11.2020
5341 Clouds 11 1021 71 10000 2.6 250 09:27 19.11.2020
5342 Clouds 11 1021 66 10000 3.1 230 08:24 19.11.2020
5343 Clouds 10 1021 76 10000 1 0 07:35 19.11.2020
5344 Clear 7 1022 86 10000 1 0 01:47 19.11.2020
5345 Clear 8 1023 70 10000 2.1 200 00:32 19.11.2020
5346 Clear 8 1023 70 10000 1 0 23:31 18.11.2020
5347 Clear 8 1023 70 10000 1 0 22:59 18.11.2020
5348 Clear 8 1023 70 10000 1 0 22:29 18.11.2020
5349 Clear 8 1023 81 10000 1 0 21:43 18.11.2020
5350 Clear 8 1023 87 10000 1.5 190 21:25 18.11.2020
5351 Clear 7 1023 81 10000 1 0 20:35 18.11.2020
5352 Clear 7 1023 81 10000 1 0 19:42 18.11.2020
5353 Clear 6 1024 87 10000 0.5 0 19:22 18.11.2020
5354 Clear 8 1024 75 10000 1 200 18:40 18.11.2020
5355 Clear 10 1024 66 10000 1.5 200 17:44 18.11.2020
5356 Clear 12 1024 66 10000 1 0 16:35 18.11.2020
5357 Clear 13 1024 66 10000 1.5 90 15:59 18.11.2020
5358 Clear 13 1025 62 10000 2.1 100 14:41 18.11.2020
5359 Clear 13 1025 62 10000 1.5 100 13:55 18.11.2020
5360 Clear 12 1026 66 10000 1 0 13:22 18.11.2020
5361 Clear 11 1026 71 10000 1.5 100 12:43 18.11.2020
5362 Clear 11 1027 76 10000 1.5 110 11:51 18.11.2020
5363 Clear 8 1027 87 10000 1.5 90 10:57 18.11.2020
5364 Clear 7 1027 86 10000 0.5 0 10:27 18.11.2020
5365 Fog 3 1028 73 10000 0.5 80 08:40 18.11.2020
5366 Clear 3 1028 82 10000 0.5 0 06:49 18.11.2020
5367 Clear 4 1028 93 10000 1 200 04:24 18.11.2020
5368 Clear 4 1029 93 10000 0.5 0 00:20 18.11.2020
5369 Clear 5 1029 93 10000 1 340 23:24 17.11.2020
5370 Clear 5 1029 93 10000 0.5 350 22:44 17.11.2020
5371 Clear 6 1029 81 10000 0.5 0 22:25 17.11.2020
5372 Clear 6 1029 81 10000 1 0 21:46 17.11.2020
5373 Clear 6 1029 81 10000 1 0 21:23 17.11.2020
5374 Clear 7 1029 81 10000 1 160 20:43 17.11.2020
5375 Clear 7 1029 81 10000 1 160 20:23 17.11.2020
5376 Clear 8 1029 75 10000 0.5 0 19:24 17.11.2020
5377 Clear 9 1029 70 10000 0.5 0 18:23 17.11.2020
5378 Clear 10 1029 66 10000 1.5 210 17:27 17.11.2020
5379 Clear 12 1029 66 10000 2.1 190 16:35 17.11.2020
5380 Clear 12 1029 62 10000 1.5 200 15:54 17.11.2020
5381 Clear 12 1029 62 10000 1.5 200 15:35 17.11.2020
5382 Clear 12 1029 62 10000 3.1 250 14:58 17.11.2020
5383 Clouds 13 1029 62 10000 2.6 240 14:29 17.11.2020
5384 Clouds 13 1029 58 10000 4.1 250 13:45 17.11.2020
5385 Clouds 13 1029 58 10000 4.1 250 13:21 17.11.2020
5386 Clouds 12 1029 58 10000 3.6 230 12:41 17.11.2020
5387 Clouds 12 1029 62 10000 3.6 240 11:44 17.11.2020
5388 Clouds 11 1029 66 10000 3.1 220 10:57 17.11.2020
5389 Clouds 11 1029 71 10000 2.6 220 10:37 17.11.2020
5390 Clouds 10 1029 76 10000 1.5 210 09:51 17.11.2020
5391 Clouds 9 1029 76 10000 1.5 210 09:30 17.11.2020
5392 Clouds 8 1028 87 10000 1.5 230 08:25 17.11.2020
5393 Clouds 8 1028 81 10000 1.5 200 07:56 17.11.2020
5394 Clouds 7 1027 93 10000 2.1 240 07:26 17.11.2020
5395 Clouds 8 1026 93 10000 1.5 220 04:29 17.11.2020
5396 Clouds 8 1027 87 10000 1.5 210 02:59 17.11.2020
5397 Clouds 9 1026 87 10000 1.5 220 02:28 17.11.2020
5398 Clouds 9 1026 87 10000 1.5 230 00:56 17.11.2020
5399 Clouds 9 1025 81 10000 2.6 200 23:52 16.11.2020
5400 Clouds 9 1025 81 10000 1.5 210 23:30 16.11.2020
5401 Clouds 9 1025 81 10000 1.5 220 22:48 16.11.2020
5402 Clouds 9 1025 81 10000 1.5 220 22:22 16.11.2020
5403 Clouds 9 1025 81 10000 1.5 220 21:56 16.11.2020
5404 Clouds 9 1025 81 10000 1.5 230 21:37 16.11.2020
5405 Clouds 9 1024 81 10000 1.5 220 21:18 16.11.2020
5406 Clouds 10 1024 76 10000 2.1 220 20:26 16.11.2020
5407 Clouds 10 1024 76 10000 2.1 220 19:50 16.11.2020
5408 Clouds 10 1023 76 10000 2.1 210 19:28 16.11.2020
5409 Clouds 10 1023 76 10000 2.1 220 18:50 16.11.2020
5410 Clouds 10 1022 76 10000 2.6 220 18:18 16.11.2020
5411 Clouds 11 1022 76 10000 2.6 220 17:27 16.11.2020
5412 Clouds 11 1021 71 10000 2.1 230 16:57 16.11.2020
5413 Clouds 11 1021 71 10000 3.1 240 16:39 16.11.2020
5414 Clouds 12 1020 71 10000 3.1 220 16:20 16.11.2020
5415 Clouds 12 1020 71 10000 3.1 220 15:43 16.11.2020
5416 Clouds 12 1020 71 10000 3.1 220 15:25 16.11.2020
5417 Clouds 12 1020 71 10000 3.6 230 14:47 16.11.2020
5418 Clouds 11 1020 76 10000 3.6 0 13:44 16.11.2020
5419 Clouds 11 1019 71 10000 5.1 220 12:51 16.11.2020
5420 Clouds 12 1019 71 10000 3.1 220 12:28 16.11.2020
5421 Clouds 12 1019 71 10000 4.1 200 11:39 16.11.2020
5422 Clouds 11 1018 71 10000 4.1 210 11:21 16.11.2020
5423 Clouds 11 1018 71 10000 4.1 200 10:44 16.11.2020
5424 Clouds 11 1018 71 10000 4.1 200 10:25 16.11.2020
5425 Clouds 10 1018 71 10000 3.1 200 09:49 16.11.2020
5426 Clouds 10 1018 76 10000 3.1 200 09:23 16.11.2020
5427 Clouds 10 1017 76 10000 2.1 200 08:41 16.11.2020
5428 Clouds 10 1016 76 10000 2.1 190 07:48 16.11.2020
5429 Clouds 9 1015 76 10000 2.1 210 06:54 16.11.2020
5430 Clouds 9 1015 76 10000 2.1 190 06:35 16.11.2020
5431 Clouds 9 1014 76 10000 3.1 240 05:22 16.11.2020
5432 Clouds 9 1014 93 10000 1.5 170 03:52 16.11.2020
5433 Rain 12 1010 71 10000 3.6 210 01:44 16.11.2020
5434 Clouds 13 1010 76 10000 4.6 190 00:20 16.11.2020
5435 Clouds 12 1011 81 10000 2.6 180 23:28 15.11.2020
5436 Clouds 12 1011 81 10000 2.6 180 22:57 15.11.2020
5437 Clouds 13 1011 71 10000 3.1 220 22:22 15.11.2020
5438 Rain 12 1011 62 10000 2.1 220 21:51 15.11.2020
5439 Rain 11 1011 76 10000 1 0 21:27 15.11.2020
5440 Clear 11 1010 76 10000 1 0 20:51 15.11.2020
5441 Rain 11 1010 76 10000 1 0 20:32 15.11.2020
5442 Rain 11 1010 71 10000 1 0 19:56 15.11.2020
5443 Clear 11 1010 71 10000 0.5 0 19:38 15.11.2020
5444 Clear 12 1010 66 10000 1 0 19:19 15.11.2020
5445 Clear 12 1011 62 10000 2.1 190 18:45 15.11.2020
5446 Clear 13 1011 62 10000 2.1 190 18:24 15.11.2020
5447 Clear 13 1011 62 10000 2.6 180 17:47 15.11.2020
5448 Clear 14 1011 66 10000 2.1 150 17:26 15.11.2020
5449 Clear 14 1011 58 10000 2.1 140 16:58 15.11.2020
5450 Clear 15 1011 55 10000 2.1 170 16:38 15.11.2020
5451 Clear 16 1011 55 10000 3.1 160 16:18 15.11.2020
5452 Clear 16 1012 55 10000 2.6 150 15:42 15.11.2020
5453 Clear 17 1012 55 10000 2.6 150 15:22 15.11.2020
5454 Clear 17 1013 52 10000 3.1 170 14:50 15.11.2020
5455 Clear 17 1013 51 10000 4.6 180 14:25 15.11.2020
5456 Clear 17 1013 51 10000 4.6 180 14:25 15.11.2020
5457 Clear 17 1013 55 10000 4.1 180 13:41 15.11.2020
5458 Clear 16 1014 59 10000 3.1 160 13:18 15.11.2020
5459 Clear 16 1014 62 10000 2.1 120 12:46 15.11.2020
5460 Clear 14 1015 71 10000 1.5 100 12:19 15.11.2020
5461 Clear 13 1015 76 10000 1 0 11:44 15.11.2020
5462 Clear 11 1016 81 10000 1 0 11:18 15.11.2020
5463 Clear 11 1016 81 10000 1 0 11:18 15.11.2020
5464 Clear 11 1016 81 10000 1 0 10:50 15.11.2020
5465 Clear 10 1016 87 10000 1 0 10:30 15.11.2020
5466 Fog 10 1017 87 10000 0.5 0 09:46 15.11.2020
5467 Fog 8 1017 87 10000 0.5 0 09:46 15.11.2020
5468 Fog 9 1017 87 10000 0.5 0 09:24 15.11.2020
5469 Clear 8 1017 100 10000 0.5 0 08:54 15.11.2020
5470 Clear 8 1017 100 10000 0.5 0 08:54 15.11.2020
5471 Clear 6 1017 100 10000 0.5 0 08:32 15.11.2020
5472 Clear 8 1017 100 10000 1 0 07:44 15.11.2020
5473 Clear 8 1017 86 10000 1.5 70 06:25 15.11.2020
5474 Clear 8 1017 86 10000 1 0 04:53 15.11.2020
5475 Clear 7 1019 93 10000 1.5 270 01:37 15.11.2020
5476 Clear 7 1018 87 10000 2.18 190 00:30 15.11.2020
5477 Clear 7 1018 87 10000 1 250 23:49 14.11.2020
5478 Clear 8 1019 87 10000 1.5 230 22:55 14.11.2020
5479 Clear 7 1019 87 10000 2.1 210 22:55 14.11.2020
5480 Clear 8 1019 87 10000 1.5 230 22:37 14.11.2020
5481 Clear 8 1019 87 10000 1 0 22:18 14.11.2020
5482 Clear 9 1018 81 10000 0.5 0 21:39 14.11.2020
5483 Clear 9 1018 81 10000 1 0 21:20 14.11.2020
5484 Clear 9 1018 81 10000 1 0 20:47 14.11.2020
5485 Clear 9 1018 76 10000 0.5 30 20:24 14.11.2020
5486 Clear 10 1018 76 10000 0.5 0 19:36 14.11.2020
5487 Clear 10 1018 76 10000 1 0 18:59 14.11.2020
5488 Clear 11 1018 76 10000 0.5 0 18:39 14.11.2020
5489 Clear 11 1018 71 10000 0.5 0 18:21 14.11.2020
5490 Clear 12 1018 62 10000 1 0 17:45 14.11.2020
5491 Clear 13 1018 62 10000 1 0 17:27 14.11.2020
5492 Clear 14 1019 55 10000 2.6 160 16:52 14.11.2020
5493 Clear 16 1019 55 10000 2.6 160 16:33 14.11.2020
5494 Clear 17 1019 55 10000 2.1 160 15:55 14.11.2020
5495 Clear 17 1019 51 10000 3.1 150 15:32 14.11.2020
5496 Clear 17 1019 51 10000 2.1 170 14:57 14.11.2020
5497 Clear 17 1019 48 10000 2.1 170 14:30 14.11.2020
5498 Clear 17 1019 48 10000 2.6 150 13:53 14.11.2020
5499 Clear 17 1020 51 10000 2.6 150 13:30 14.11.2020
5500 Clear 16 1020 55 10000 2.6 150 12:56 14.11.2020
5501 Clear 16 1020 55 10000 2.6 150 12:35 14.11.2020
5502 Clear 15 1021 58 10000 2.1 180 11:56 14.11.2020
5503 Clear 15 1021 62 10000 1.5 160 11:38 14.11.2020
5504 Clear 14 1021 66 10000 1.5 190 11:18 14.11.2020
5505 Clear 12 1021 71 10000 1 0 10:40 14.11.2020
5506 Clear 12 1021 71 10000 1 0 10:22 14.11.2020
5507 Clear 11 1021 76 10000 1.5 170 09:45 14.11.2020
5508 Clear 11 1021 76 10000 1.5 170 09:27 14.11.2020
5509 Clear 10 1021 81 10000 1 0 08:42 14.11.2020
5510 Clear 9 1021 81 10000 1.5 220 08:23 14.11.2020
5511 Clear 9 1021 87 10000 1 170 07:42 14.11.2020
5512 Clear 9 1021 87 10000 1 170 07:20 14.11.2020
5513 Clouds 9 1021 86 10000 1.82 178 06:28 14.11.2020
5514 Clear 10 1021 76 10000 0.5 0 05:18 14.11.2020
5515 Clear 10 1021 81 10000 0.5 0 03:28 14.11.2020
5516 Clear 12 1022 71 10000 1 0 00:42 14.11.2020
5517 Clear 12 1021 71 10000 0.5 120 23:38 13.11.2020
5518 Clear 12 1021 76 10000 1.5 20 23:20 13.11.2020
5519 Clear 12 1021 66 10000 1 0 22:42 13.11.2020
5520 Clear 12 1021 66 10000 1 0 22:23 13.11.2020
5521 Rain 12 1021 66 10000 1 100 21:51 13.11.2020
5522 Clouds 12 1021 71 10000 0.5 130 21:29 13.11.2020
5523 Clear 12 1021 71 10000 0.5 0 20:56 13.11.2020
5524 Clear 13 1021 66 10000 1 0 20:37 13.11.2020
5525 Clear 13 1021 66 10000 1.5 210 20:19 13.11.2020
5526 Clear 13 1021 71 10000 1.5 190 19:45 13.11.2020
5527 Clear 13 1021 71 10000 1.5 190 19:22 13.11.2020
5528 Clear 13 1020 76 10000 1 0 18:50 13.11.2020
5529 Clear 14 1020 67 10000 1.5 210 17:59 13.11.2020
5530 Clear 14 1020 67 10000 1.5 210 17:39 13.11.2020
5531 Clear 14 1020 67 10000 1.5 190 17:18 13.11.2020
5532 Clear 15 1020 62 10000 3.1 200 16:46 13.11.2020
5533 Clouds 15 1020 62 10000 2.6 190 16:21 13.11.2020
5534 Clouds 15 1020 62 10000 2.6 190 15:41 13.11.2020
5535 Clouds 16 1020 62 10000 2.6 190 15:23 13.11.2020
5536 Clouds 16 1020 59 10000 3.6 210 14:40 13.11.2020
5537 Clouds 16 1020 59 10000 2.1 230 14:19 13.11.2020
5538 Clouds 15 1021 62 10000 2.6 230 13:40 13.11.2020
5539 Clouds 14 1021 62 10000 2.6 230 13:21 13.11.2020
5540 Clear 13 1021 67 10000 1 0 12:45 13.11.2020
5541 Clear 13 1021 67 10000 1 0 12:24 13.11.2020
5542 Clear 12 1021 87 10000 0.5 0 11:48 13.11.2020
5543 Clear 11 1021 87 10000 0.5 0 11:24 13.11.2020
5544 Clear 10 1021 87 10000 1 0 10:54 13.11.2020
5545 Clear 9 1022 87 10000 0.5 0 10:34 13.11.2020
5546 Clear 8 1021 100 10000 0.5 0 09:56 13.11.2020
5547 Clear 8 1021 93 10000 0.5 0 09:34 13.11.2020
5548 Fog 7 1021 100 10000 0.5 0 08:57 13.11.2020
5549 Fog 6 1021 100 10000 0.5 0 08:33 13.11.2020
5550 Fog 6 1021 100 10000 0.5 0 07:57 13.11.2020
5551 Fog 6 1021 100 10000 0.5 0 07:38 13.11.2020
5552 Fog 6 1021 100 10000 0.5 0 07:20 13.11.2020
5553 Fog 6 1021 100 9000 1 330 06:45 13.11.2020
5554 Fog 6 1021 100 4000 0.5 0 05:42 13.11.2020
5555 Fog 6 1021 100 8000 0.5 0 04:57 13.11.2020
5556 Fog 7 1022 100 3500 0.5 0 01:45 13.11.2020
5557 Fog 7 1022 100 10000 0.5 0 00:38 13.11.2020
5558 Clear 7 1022 100 10000 0.5 0 00:18 13.11.2020
5559 Clear 7 1022 100 10000 1.5 290 23:37 12.11.2020
5560 Clear 7 1022 100 10000 1 290 23:19 12.11.2020
5561 Clear 7 1022 100 10000 1 290 22:50 12.11.2020
5562 Clear 7 1022 100 10000 0.5 0 22:30 12.11.2020
5563 Clear 8 1022 100 10000 1 240 21:43 12.11.2020
5564 Clear 9 1022 93 10000 1 0 21:24 12.11.2020
5565 Clear 9 1022 93 10000 1 0 20:58 12.11.2020
5566 Clear 9 1022 93 10000 1.5 260 20:39 12.11.2020
5567 Clear 9 1022 93 10000 1.5 260 20:21 12.11.2020
5568 Clear 9 1022 93 10000 1 240 20:20 12.11.2020
5569 Clear 9 1022 87 10000 1 0 19:45 12.11.2020
5570 Clear 10 1022 87 10000 1 0 19:27 12.11.2020
5571 Clear 10 1022 81 10000 1.5 210 18:49 12.11.2020
5572 Clear 11 1022 81 10000 2.1 210 18:24 12.11.2020
5573 Clouds 11 1022 76 10000 2.1 230 17:46 12.11.2020
5574 Clouds 11 1022 76 10000 2.1 230 17:27 12.11.2020
5575 Clouds 12 1022 76 10000 2.6 230 16:47 12.11.2020
5576 Clouds 12 1022 76 10000 2.6 230 16:27 12.11.2020
5577 Clouds 12 1021 71 10000 3.6 250 15:59 12.11.2020
5578 Rain 12 1021 66 10000 5.7 250 15:41 12.11.2020
5579 Clouds 12 1021 66 10000 7.2 260 15:21 12.11.2020
5580 Clouds 13 1021 62 10000 4.6 260 14:46 12.11.2020
5581 Clouds 13 1021 67 10000 4.6 240 14:25 12.11.2020
5582 Clouds 13 1021 67 10000 4.6 240 13:55 12.11.2020
5583 Clouds 14 1021 62 10000 4.1 230 13:37 12.11.2020
5584 Clouds 14 1021 62 10000 3.6 230 13:18 12.11.2020
5585 Clouds 13 1021 67 10000 2.6 220 12:42 12.11.2020
5586 Clouds 12 1021 71 10000 2.1 200 12:20 12.11.2020
5587 Clear 11 1021 76 10000 1.5 70 11:47 12.11.2020
5588 Clear 11 1021 76 10000 1.5 70 11:28 12.11.2020
5589 Clouds 8 1021 81 10000 1 0 10:43 12.11.2020
5590 Fog 8 1021 93 10000 0.5 0 10:25 12.11.2020
5591 Fog 6 1021 100 10000 1 0 09:49 12.11.2020
5592 Fog 6 1021 100 10000 1 0 09:23 12.11.2020
5593 Fog 6 1021 100 10000 0.5 0 08:57 12.11.2020
5594 Fog 5 1021 100 10000 1 0 08:39 12.11.2020
5595 Fog 5 1021 100 10000 1 0 08:19 12.11.2020
5596 Fog 5 1021 100 10000 0.5 0 07:52 12.11.2020
5597 Fog 5 1021 93 10000 0.5 0 07:25 12.11.2020
5598 Fog 4 1021 100 10000 1.67 192 06:51 12.11.2020
5599 Fog 4 1021 93 8000 0.5 0 05:38 12.11.2020
5600 Clouds 5 1021 100 8000 1 0 03:43 12.11.2020
5601 Clouds 5 1022 100 8000 0.5 0 03:18 12.11.2020
5602 Fog 6 1023 93 4000 2.1 200 00:23 12.11.2020
5603 Fog 7 1023 100 450 2.1 160 23:40 11.11.2020
5604 Fog 7 1023 100 450 2.1 160 23:22 11.11.2020
5605 Fog 7 1023 100 400 1 0 22:43 11.11.2020
5606 Fog 7 1023 93 4000 2.1 60 22:21 11.11.2020
5607 Fog 8 1023 93 4000 2.1 60 21:56 11.11.2020
5608 Mist 8 1023 93 4500 2.1 80 21:38 11.11.2020
5609 Mist 8 1023 100 2500 1 0 21:19 11.11.2020
5610 Fog 8 1023 100 900 0.5 0 20:42 11.11.2020
5611 Mist 8 1023 100 1400 1 0 20:21 11.11.2020
5612 Mist 8 1023 100 1400 1 0 19:55 11.11.2020
5613 Fog 8 1023 100 800 1.5 340 19:36 11.11.2020
5614 Mist 8 1023 100 3600 1.5 350 19:18 11.11.2020
5615 Mist 8 1023 100 5000 2.1 330 18:41 11.11.2020
5616 Clear 8 1023 93 10000 2.6 350 18:19 11.11.2020
5617 Clear 9 1023 87 10000 2.1 350 17:37 11.11.2020
5618 Clouds 9 1023 87 10000 2.1 350 17:19 11.11.2020
5619 Clouds 10 1023 87 10000 2.1 280 16:39 11.11.2020
5620 Clouds 11 1023 87 10000 2.1 280 16:21 11.11.2020
5621 Clouds 11 1024 87 10000 2.1 330 15:41 11.11.2020
5622 Clouds 12 1024 81 10000 1.5 330 15:23 11.11.2020
5623 Clouds 12 1024 81 10000 0.5 0 14:47 11.11.2020
5624 Clouds 12 1024 81 10000 0.5 0 14:28 11.11.2020
5625 Clouds 11 1025 87 8000 1 0 13:49 11.11.2020
5626 Fog 10 1025 93 7000 1.5 80 13:24 11.11.2020
5627 Fog 9 1026 100 4800 0.5 0 12:22 11.11.2020
5628 Fog 9 1026 93 4000 0.5 0 11:58 11.11.2020
5629 Fog 9 1026 93 3200 1 0 11:40 11.11.2020
5630 Mist 8 1026 100 1600 0.5 0 11:20 11.11.2020
5631 Fog 8 1026 100 350 0.5 100 10:38 11.11.2020
5632 Fog 8 1026 100 350 0.5 100 10:19 11.11.2020
5633 Fog 8 1027 100 200 1 0 09:43 11.11.2020
5634 Fog 7 1027 100 200 1 0 09:24 11.11.2020
5635 Fog 7 1027 100 200 1 0 08:45 11.11.2020
5636 Fog 7 1027 100 200 1 0 08:25 11.11.2020
5637 Fog 7 1027 100 450 1 0 07:49 11.11.2020
5638 Fog 7 1027 100 300 0.5 0 06:33 11.11.2020
5639 Fog 7 1027 100 350 0.5 0 05:52 11.11.2020
5640 Fog 6 1027 100 300 0.5 0 02:48 11.11.2020
5641 Fog 7 1027 100 100 1 0 00:58 11.11.2020
5642 Fog 7 1027 100 100 1 0 00:26 11.11.2020
5643 Fog 7 1027 100 150 1 0 23:42 10.11.2020
5644 Fog 7 1027 100 150 1 0 23:23 10.11.2020
5645 Fog 7 1027 100 150 1 0 22:52 10.11.2020
5646 Fog 7 1027 100 200 1 0 22:27 10.11.2020
5647 Fog 7 1027 100 300 1.5 340 21:44 10.11.2020
5648 Fog 7 1027 100 300 1.5 340 21:25 10.11.2020
5649 Fog 7 1027 100 300 1.5 340 21:25 10.11.2020
5650 Fog 7 1027 100 300 1.5 330 20:59 10.11.2020
5651 Fog 7 1027 100 450 1 0 20:41 10.11.2020
5652 Fog 7 1027 100 450 1 0 20:22 10.11.2020
5653 Fog 7 1027 100 900 1.5 320 19:47 10.11.2020
5654 Fog 7 1027 100 900 1.5 320 19:28 10.11.2020
5655 Fog 7 1027 100 5000 1 0 18:58 10.11.2020
5656 Fog 7 1027 93 10000 2.1 350 18:39 10.11.2020
5657 Clear 9 1027 87 10000 2.1 340 18:19 10.11.2020
5658 Clear 9 1026 87 10000 3.1 350 17:43 10.11.2020
5659 Clear 9 1026 76 10000 2.1 20 17:25 10.11.2020
5660 Clouds 10 1026 76 10000 2.1 20 16:46 10.11.2020
5661 Clouds 11 1026 71 10000 1 70 16:24 10.11.2020
5662 Clouds 11 1026 71 10000 1 70 15:57 10.11.2020
5663 Clouds 11 1026 71 10000 1 0 15:38 10.11.2020
5664 Clouds 12 1026 71 10000 1 0 15:20 10.11.2020
5665 Clouds 12 1026 81 10000 1 0 14:41 10.11.2020
5666 Clouds 12 1026 81 10000 1 0 14:22 10.11.2020
5667 Clouds 12 1026 81 10000 1 0 13:41 10.11.2020
5668 Clouds 11 1026 87 10000 0.5 0 13:23 10.11.2020
5669 Clouds 12 1026 87 10000 0.5 0 12:58 10.11.2020
5670 Fog 11 1027 93 500 1 0 12:39 10.11.2020
5671 Fog 11 1027 100 350 1 0 12:20 10.11.2020
5672 Fog 9 1027 93 300 1 0 11:39 10.11.2020
5673 Fog 9 1027 93 300 1 0 11:20 10.11.2020
5674 Fog 8 1026 100 200 0.5 0 10:43 10.11.2020
5675 Fog 8 1026 100 200 0.5 0 10:43 10.11.2020
5676 Fog 7 1026 100 200 1 0 10:24 10.11.2020
5677 Fog 6 1026 100 250 0.5 0 09:51 10.11.2020
5678 Fog 6 1026 100 250 0.5 0 09:27 10.11.2020
5679 Fog 6 1026 100 250 1 0 08:59 10.11.2020
5680 Fog 6 1026 100 250 1 0 08:40 10.11.2020
5681 Fog 6 1026 100 250 0.5 0 08:22 10.11.2020
5682 Fog 5 1026 100 300 1 0 07:39 10.11.2020
5683 Fog 5 1025 100 150 1 0 07:19 10.11.2020
5684 Fog 4 1026 100 100 0.55 171 06:38 10.11.2020
5685 Fog 5 1025 100 100 0.5 0 05:33 10.11.2020
5686 Fog 5 1025 100 100 0.5 0 04:36 10.11.2020
5687 Fog 6 1025 100 200 0.5 0 01:41 10.11.2020
5688 Fog 6 1025 100 200 0.5 230 00:55 10.11.2020
5689 Fog 6 1025 100 2000 0.5 20 23:51 09.11.2020
5690 Clear 6 1025 100 6000 1 360 23:23 09.11.2020
5691 Clear 6 1025 93 8000 1 290 22:42 09.11.2020
5692 Clear 6 1025 93 8000 1 290 22:23 09.11.2020
5693 Clear 7 1025 93 10000 1 300 21:45 09.11.2020
5694 Clear 7 1025 93 10000 1 300 21:45 09.11.2020
5695 Clear 7 1025 93 10000 1 300 21:27 09.11.2020
5696 Clear 7 1025 93 10000 1 0 20:44 09.11.2020
5697 Clear 7 1025 93 10000 1 0 20:22 09.11.2020
5698 Clear 8 1025 100 10000 2.1 270 19:57 09.11.2020
5699 Clear 8 1024 87 10000 1 250 19:39 09.11.2020
5700 Clear 9 1024 87 10000 1 0 19:19 09.11.2020
5701 Clear 10 1024 87 10000 1 0 18:41 09.11.2020
5702 Clear 11 1024 81 10000 0.5 0 18:20 09.11.2020
5703 Clear 12 1024 76 10000 2.6 340 17:44 09.11.2020
5704 Clear 12 1024 76 10000 2.6 340 17:26 09.11.2020
5705 Clear 13 1023 67 10000 2.1 10 16:44 09.11.2020
5706 Clouds 15 1023 67 10000 1.5 50 16:26 09.11.2020
5707 Clouds 14 1023 63 10000 1.5 70 15:50 09.11.2020
5708 Clouds 15 1023 63 10000 1.5 70 15:30 09.11.2020
5709 Clouds 15 1023 67 10000 2.1 40 14:56 09.11.2020
5710 Clouds 15 1023 67 10000 1 0 14:37 09.11.2020
5711 Clouds 15 1023 67 10000 1 0 14:19 09.11.2020
5712 Clouds 15 1024 63 10000 1 0 13:43 09.11.2020
5713 Clouds 15 1024 59 10000 0.5 0 13:19 09.11.2020
5714 Clear 14 1024 67 10000 0.5 0 12:46 09.11.2020
5715 Clear 14 1024 67 10000 0.5 0 12:21 09.11.2020
5716 Clear 12 1024 81 10000 1 0 11:43 09.11.2020
5717 Clear 12 1024 81 10000 1 0 11:43 09.11.2020
5718 Clear 12 1024 81 10000 1 0 11:25 09.11.2020
5719 Clear 11 1024 87 10000 1.5 80 10:59 09.11.2020
5720 Clear 10 1024 87 10000 0.5 0 10:41 09.11.2020
5721 Clear 9 1024 87 10000 0.63 182 10:22 09.11.2020
5722 Fog 8 1024 93 10000 0.5 0 09:40 09.11.2020
5723 Fog 7 1024 100 9000 0.5 0 09:21 09.11.2020
5724 Fog 5 1024 93 4000 1 0 08:29 09.11.2020
5725 Fog 5 1024 100 8000 0.5 0 07:57 09.11.2020
5726 Fog 5 1024 100 10000 0.5 100 07:38 09.11.2020
5727 Mist 5 1024 100 5000 0.17 176 07:18 09.11.2020
5728 Clear 6 1023 93 10000 1 50 05:54 09.11.2020
5729 Clear 7 1024 93 10000 0.5 190 02:58 09.11.2020
5730 Clear 7 1024 100 10000 1 280 01:42 09.11.2020
5731 Clear 7 1024 93 10000 0.48 210 00:57 09.11.2020
5732 Clear 7 1024 100 10000 0.5 0 23:50 08.11.2020
5733 Clear 8 1024 100 10000 0.5 0 23:28 08.11.2020
5734 Clear 9 1024 87 10000 0.5 0 22:45 08.11.2020
5735 Clear 9 1024 87 10000 0.5 0 22:22 08.11.2020
5736 Clear 9 1024 87 10000 0.5 0 21:54 08.11.2020
5737 Clear 9 1024 87 10000 0.05 178 21:36 08.11.2020
5738 Clear 10 1024 81 10000 0.5 0 21:18 08.11.2020
5739 Clear 10 1024 76 10000 2.6 280 20:39 08.11.2020
5740 Clear 10 1024 81 10000 2.6 250 20:20 08.11.2020
5741 Clear 10 1024 81 10000 2.6 250 19:56 08.11.2020
5742 Clear 10 1024 81 10000 2.6 280 19:37 08.11.2020
5743 Clear 10 1024 76 10000 2.1 300 19:18 08.11.2020
5744 Clear 11 1023 81 10000 2.1 310 18:45 08.11.2020
5745 Clear 11 1024 81 10000 2.6 300 18:21 08.11.2020
5746 Clear 11 1024 81 10000 2.6 300 17:57 08.11.2020
5747 Clear 11 1024 81 10000 1.5 270 17:37 08.11.2020
5748 Clouds 12 1024 76 10000 1 280 17:18 08.11.2020
5749 Clear 13 1024 71 10000 0.5 220 16:46 08.11.2020
5750 Clear 13 1024 71 10000 0.5 220 16:21 08.11.2020
5751 Clear 14 1024 67 10000 0.5 80 15:56 08.11.2020
5752 Clear 15 1023 67 10000 1 50 15:37 08.11.2020
5753 Clear 16 1024 63 10000 1.5 70 15:19 08.11.2020
5754 Clear 16 1024 59 10000 1 0 14:38 08.11.2020
5755 Clear 15 1024 59 10000 1.5 100 14:20 08.11.2020
5756 Clear 15 1024 67 10000 1 0 13:44 08.11.2020
5757 Clear 14 1024 71 10000 1 0 13:21 08.11.2020
5758 Clear 13 1025 71 10000 1 0 12:42 08.11.2020
5759 Clear 14 1025 71 10000 1 0 12:24 08.11.2020
5760 Clear 13 1025 76 10000 1 0 11:57 08.11.2020
5761 Clear 12 1025 76 10000 0.5 0 11:38 08.11.2020
5762 Clear 11 1025 81 10000 0.5 0 11:20 08.11.2020
5763 Clear 11 1025 81 10000 0.5 0 10:49 08.11.2020
5764 Clear 9 1025 93 10000 1 0 10:18 08.11.2020
5765 Clear 8 1025 87 10000 1 0 09:44 08.11.2020
5766 Clear 8 1025 87 10000 1 0 09:24 08.11.2020
5767 Clear 6 1025 100 10000 0.5 0 08:55 08.11.2020
5768 Clear 6 1025 93 10000 0.5 0 08:37 08.11.2020
5769 Clear 6 1025 93 10000 1 170 08:18 08.11.2020
5770 Clear 6 1025 93 10000 1 170 07:51 08.11.2020
5771 Clouds 6 1025 100 10000 0.5 0 07:21 08.11.2020
5772 Clouds 5 1024 93 10000 1 360 05:56 08.11.2020
5773 Clouds 5 1024 93 10000 0.5 0 05:31 08.11.2020
5774 Clouds 5 1024 93 10000 0.91 202 04:18 08.11.2020
5775 Clouds 5 1024 93 10000 0.5 0 01:51 08.11.2020
5776 Clouds 5 1024 93 10000 0.5 180 01:18 08.11.2020
5777 Clouds 5 1024 93 10000 0.5 0 00:27 08.11.2020
5778 Clouds 6 1024 93 10000 0.5 0 23:47 07.11.2020
5779 Clouds 6 1024 93 10000 1.13 151 23:28 07.11.2020
5780 Clouds 6 1024 93 10000 0.5 0 22:44 07.11.2020
5781 Clouds 6 1024 93 10000 0.5 0 22:25 07.11.2020
5782 Clouds 6 1024 93 10000 0.5 100 21:54 07.11.2020
5783 Clouds 6 1024 93 10000 0.5 0 21:36 07.11.2020
5784 Clouds 6 1024 93 10000 1.5 80 21:18 07.11.2020
5785 Clouds 6 1024 100 10000 1 90 20:40 07.11.2020
5786 Clouds 6 1025 87 10000 1.5 90 20:22 07.11.2020
5787 Clouds 6 1025 93 10000 1.5 80 19:44 07.11.2020
5788 Clouds 7 1025 93 10000 1.5 80 19:26 07.11.2020
5789 Clouds 8 1024 87 10000 2.1 90 18:40 07.11.2020
5790 Clouds 8 1024 87 10000 2.1 90 18:40 07.11.2020
5791 Clouds 8 1024 81 10000 2.1 80 18:22 07.11.2020
5792 Clouds 9 1024 71 10000 0.5 20 17:46 07.11.2020
5793 Clouds 10 1024 71 10000 0.5 20 17:28 07.11.2020
5794 Clear 12 1024 71 10000 1.5 80 16:46 07.11.2020
5795 Clear 12 1024 62 10000 1 0 16:25 07.11.2020
5796 Clear 13 1024 62 10000 1 0 15:57 07.11.2020
5797 Clear 13 1024 62 10000 2.1 80 15:39 07.11.2020
5798 Clear 13 1025 62 10000 1.5 90 15:19 07.11.2020
5799 Clear 13 1025 66 10000 1.5 80 14:41 07.11.2020
5800 Clear 13 1025 66 10000 1.5 80 14:41 07.11.2020
5801 Clear 12 1025 66 10000 1.5 80 14:21 07.11.2020
5802 Clear 11 1025 71 10000 2.1 100 13:46 07.11.2020
5803 Clear 11 1025 71 10000 2.1 100 13:25 07.11.2020
5804 Clear 11 1026 76 10000 2.1 90 12:40 07.11.2020
5805 Clear 10 1026 75 10000 1.5 70 12:18 07.11.2020
5806 Clear 10 1026 75 10000 1.5 70 12:18 07.11.2020
5807 Clear 8 1027 81 10000 2.1 90 11:39 07.11.2020
5808 Clear 8 1027 81 10000 2.1 90 11:21 07.11.2020
5809 Clear 4 1027 86 10000 1.5 70 10:45 07.11.2020
5810 Clear 6 1027 86 10000 1.5 70 10:24 07.11.2020
5811 Clear 2 1027 65 10000 0.5 0 09:49 07.11.2020
5812 Clear 3 1027 72 10000 0.5 0 09:26 07.11.2020
5813 Clear 0 1027 72 10000 0.5 0 08:53 07.11.2020
5814 Fog 1 1027 92 10000 0.5 0 08:34 07.11.2020
5815 Fog 1 1027 92 10000 1.5 110 07:49 07.11.2020
5816 Clear 2 1027 79 10000 1.5 70 07:18 07.11.2020
5817 Clear 2 1027 79 10000 1.5 70 06:47 07.11.2020
5818 Clear 2 1027 80 10000 1 0 05:23 07.11.2020
5819 Clear 2 1028 100 10000 0.5 240 03:23 07.11.2020
5820 Clear 3 1029 100 10000 0.5 0 01:28 07.11.2020
5821 Clear 2 1029 82 10000 1.5 90 00:43 07.11.2020
5822 Clear 2 1029 100 10000 1.5 110 23:50 06.11.2020
5823 Clear 3 1029 93 10000 1.5 120 23:21 06.11.2020
5824 Clear 3 1029 93 10000 1 0 22:41 06.11.2020
5825 Clouds 3 1029 93 10000 1.5 120 22:19 06.11.2020
5826 Clouds 4 1029 93 10000 0.5 0 21:46 06.11.2020
5827 Clouds 4 1029 93 10000 0.5 0 21:22 06.11.2020
5828 Clouds 4 1029 93 10000 1.5 160 20:56 06.11.2020
5829 Clouds 4 1030 93 10000 2.1 150 20:38 06.11.2020
5830 Clouds 5 1030 93 10000 2.1 150 20:18 06.11.2020
5831 Clouds 5 1030 87 10000 2.6 160 19:44 06.11.2020
5832 Clouds 5 1030 87 10000 2.6 160 19:26 06.11.2020
5833 Clouds 6 1031 81 10000 2.6 160 18:46 06.11.2020
5834 Clouds 6 1031 81 10000 2.6 150 18:24 06.11.2020
5835 Clouds 6 1031 87 10000 2.6 100 17:51 06.11.2020
5836 Clouds 6 1031 87 10000 2.6 100 17:27 06.11.2020
5837 Clouds 6 1031 87 10000 2.6 100 17:27 06.11.2020
5838 Clouds 7 1031 81 10000 3.6 90 16:50 06.11.2020
5839 Clouds 8 1031 81 10000 3.6 90 16:32 06.11.2020
5840 Clouds 9 1031 75 10000 2.1 100 15:54 06.11.2020
5841 Clouds 9 1031 75 10000 2.1 100 15:33 06.11.2020
5842 Clouds 9 1032 75 10000 1 0 14:54 06.11.2020
5843 Clouds 9 1032 70 10000 1.5 160 14:28 06.11.2020
5844 Clouds 9 1032 70 10000 1.5 160 13:49 06.11.2020
5845 Clouds 9 1032 66 10000 2.1 170 13:25 06.11.2020
5846 Clouds 9 1032 66 10000 2.1 170 12:55 06.11.2020
5847 Clouds 9 1033 70 10000 2.6 160 12:36 06.11.2020
5848 Clear 9 1033 70 10000 2.1 100 12:18 06.11.2020
5849 Clear 9 1033 75 10000 2.6 70 11:36 06.11.2020
5850 Clear 7 1033 81 10000 1.5 90 10:52 06.11.2020
5851 Clear 7 1033 81 10000 1.5 90 10:52 06.11.2020
5852 Clear 6 1033 80 10000 1 0 10:32 06.11.2020
5853 Clear 4 1033 80 10000 0.5 0 09:55 06.11.2020
5854 Clear 4 1033 86 10000 1 250 09:36 06.11.2020
5855 Clear 3 1033 74 10000 0.5 130 09:18 06.11.2020
5856 Clear 2 1033 74 10000 0.5 0 08:46 06.11.2020
5857 Clear 1 1033 81 10000 1 0 08:19 06.11.2020
5858 Clear 1 1033 81 10000 0.5 0 07:42 06.11.2020
5859 Clear 1 1033 82 10000 1 280 07:18 06.11.2020
5860 Clear 1 1033 92 10000 0.5 0 06:40 06.11.2020
5861 Clear 0 1033 81 10000 1 280 05:37 06.11.2020
5862 Clear 2 1034 77 10000 1.5 320 01:59 06.11.2020
5863 Clear 3 1035 76 10000 2.1 30 00:29 06.11.2020
5864 Clear 3 1035 76 10000 2.1 30 23:51 05.11.2020
5865 Clear 3 1035 86 10000 1.5 360 23:24 05.11.2020
5866 Clear 3 1035 80 10000 1 350 22:48 05.11.2020
5867 Clear 4 1035 80 10000 1 0 22:26 05.11.2020
5868 Clear 4 1035 80 10000 1 0 21:57 05.11.2020
5869 Clear 4 1035 80 10000 1.5 40 21:38 05.11.2020
5870 Clear 4 1035 86 10000 1 0 21:19 05.11.2020
5871 Clear 5 1035 81 10000 0.5 0 20:44 05.11.2020
5872 Clear 5 1035 81 10000 0.5 0 20:24 05.11.2020
5873 Clear 5 1035 81 10000 2.1 320 19:57 05.11.2020
5874 Clouds 6 1035 81 10000 2.1 330 19:38 05.11.2020
5875 Clouds 6 1035 75 10000 3.1 340 19:18 05.11.2020
5876 Clouds 7 1035 75 10000 3.1 330 18:41 05.11.2020
5877 Clouds 7 1035 75 10000 2.6 330 18:22 05.11.2020
5878 Clouds 9 1035 70 10000 1.5 340 17:46 05.11.2020
5879 Clouds 9 1035 70 10000 1.5 340 17:25 05.11.2020
5880 Clouds 11 1035 66 10000 2.6 340 16:49 05.11.2020
5881 Clouds 11 1035 66 10000 2.6 340 16:28 05.11.2020
5882 Clouds 11 1035 66 10000 2.6 340 15:55 05.11.2020
5883 Clouds 11 1035 66 10000 3.1 350 15:37 05.11.2020
5884 Clouds 11 1035 71 10000 2.1 350 15:18 05.11.2020
5885 Clouds 11 1035 66 10000 2.6 360 14:44 05.11.2020
5886 Clouds 11 1035 66 10000 2.6 360 14:24 05.11.2020
5887 Clouds 11 1036 66 10000 2.6 20 13:41 05.11.2020
5888 Clouds 11 1036 66 10000 2.1 30 13:20 05.11.2020
5889 Clouds 11 1036 70 10000 2.1 20 12:43 05.11.2020
5890 Clouds 10 1036 70 10000 2.1 20 12:23 05.11.2020
5891 Clouds 9 1037 75 10000 2.1 350 11:44 05.11.2020
5892 Clouds 8 1037 75 10000 2.1 350 11:24 05.11.2020
5893 Clear 8 1037 75 10000 2.1 30 10:52 05.11.2020
5894 Clouds 7 1037 81 10000 1.5 20 10:28 05.11.2020
5895 Clouds 7 1037 81 10000 1.5 20 10:28 05.11.2020
5896 Clear 6 1037 75 10000 2.6 360 09:50 05.11.2020
5897 Clear 6 1037 80 10000 2.1 360 09:50 05.11.2020
5898 Clear 5 1037 80 10000 2.1 360 09:25 05.11.2020
5899 Clear 4 1036 80 10000 2.1 340 08:59 05.11.2020
5900 Clear 4 1036 86 10000 2.6 350 08:41 05.11.2020
5901 Clear 3 1036 86 10000 2.6 350 08:23 05.11.2020
5902 Clear 3 1035 86 10000 3.1 350 07:29 05.11.2020
5903 Clouds 5 1035 86 10000 3.1 350 06:51 05.11.2020
5904 Clouds 5 1035 86 10000 3.1 350 06:32 05.11.2020
5905 Clouds 6 1035 87 10000 3.1 340 03:46 05.11.2020
5906 Clouds 6 1034 87 10000 2.1 20 00:45 05.11.2020
5907 Clouds 7 1034 87 10000 2.1 20 00:25 05.11.2020
5908 Clouds 7 1034 81 10000 2.1 360 23:43 04.11.2020
5909 Clouds 7 1034 81 10000 2.6 20 23:24 04.11.2020
5910 Clouds 7 1034 81 10000 3.1 20 22:44 04.11.2020
5911 Clouds 8 1034 81 10000 3.1 20 22:22 04.11.2020
5912 Clear 8 1034 81 10000 3.1 10 21:47 04.11.2020
5913 Clear 8 1033 81 10000 3.1 10 21:28 04.11.2020
5914 Clear 8 1033 81 10000 3.1 10 20:56 04.11.2020
5915 Clear 8 1032 75 10000 2.1 360 20:36 04.11.2020
5916 Clouds 8 1032 75 10000 2.1 20 20:18 04.11.2020
5917 Clouds 8 1032 75 10000 2.1 20 19:41 04.11.2020
5918 Clouds 8 1032 75 10000 2.1 20 19:23 04.11.2020
5919 Clouds 8 1031 81 10000 2.6 30 18:43 04.11.2020
5920 Clouds 9 1031 81 10000 3.1 60 18:24 04.11.2020
5921 Clouds 9 1031 76 10000 2.1 20 17:54 04.11.2020
5922 Clouds 9 1031 76 10000 2.1 20 17:36 04.11.2020
5923 Clouds 9 1031 76 10000 2.6 20 17:18 04.11.2020
5924 Clouds 9 1031 76 10000 3.1 350 16:37 04.11.2020
5925 Clouds 10 1031 76 10000 3.1 10 16:18 04.11.2020
5926 Clouds 10 1030 81 10000 3.6 360 15:42 04.11.2020
5927 Clouds 10 1030 81 10000 3.6 360 15:23 04.11.2020
5928 Clouds 10 1030 76 10000 4.1 360 14:47 04.11.2020
5929 Rain 10 1030 76 10000 3.1 10 14:26 04.11.2020
5930 Clouds 9 1030 76 10000 3.1 360 13:56 04.11.2020
5931 Clouds 9 1030 76 10000 3.1 360 13:37 04.11.2020
5932 Clouds 9 1030 76 10000 3.1 360 13:18 04.11.2020
5933 Clouds 9 1030 81 10000 3.6 360 12:42 04.11.2020
5934 Clouds 9 1030 81 10000 3.6 360 12:24 04.11.2020
5935 Clouds 9 1030 75 10000 2.6 20 11:46 04.11.2020
5936 Clouds 8 1030 75 10000 2.6 20 11:24 04.11.2020
5937 Clouds 8 1030 75 10000 3.1 360 10:52 04.11.2020
5938 Rain 8 1030 75 10000 2.6 360 10:24 04.11.2020
5939 Clouds 8 1030 75 10000 2.6 360 09:58 04.11.2020
5940 Clouds 8 1029 75 10000 1.5 360 09:40 04.11.2020
5941 Clouds 8 1029 81 10000 1.5 350 09:20 04.11.2020
5942 Rain 7 1029 81 10000 1.5 30 08:41 04.11.2020
5943 Rain 7 1029 81 10000 1 0 08:18 04.11.2020
5944 Rain 7 1029 81 10000 1 0 08:18 04.11.2020
5945 Clouds 7 1029 81 10000 1 0 07:42 04.11.2020
5946 Clouds 7 1029 81 10000 1 0 07:23 04.11.2020
5947 Clouds 7 1028 87 10000 1.5 300 06:41 04.11.2020
5948 Clouds 8 1029 81 10000 2.1 290 05:54 04.11.2020
5949 Clouds 8 1028 81 10000 0.5 0 02:31 04.11.2020
5950 Rain 8 1028 81 10000 4.1 300 01:40 04.11.2020
5951 Clouds 9 1027 76 10000 7.7 270 00:27 04.11.2020
5952 Clouds 9 1027 87 10000 1.5 210 23:34 03.11.2020
5953 Clouds 9 1027 93 10000 1.5 0 22:59 03.11.2020
5954 Clouds 9 1027 93 10000 1.5 0 22:40 03.11.2020
5955 Clouds 9 1027 93 10000 1.5 200 22:20 03.11.2020
5956 Rain 9 1027 93 10000 2.1 240 21:55 03.11.2020
5957 Rain 9 1027 93 10000 2.1 240 21:37 03.11.2020
5958 Rain 9 1026 93 10000 2.1 180 21:18 03.11.2020
5959 Clouds 9 1026 93 10000 1 0 20:42 03.11.2020
5960 Clouds 9 1026 93 10000 1 0 20:21 03.11.2020
5961 Clouds 9 1026 93 10000 1 0 19:43 03.11.2020
5962 Clouds 9 1026 93 10000 1 0 19:20 03.11.2020
5963 Rain 9 1026 93 10000 1.5 200 18:41 03.11.2020
5964 Rain 9 1026 93 10000 1.5 200 18:20 03.11.2020
5965 Clouds 10 1025 93 10000 1 0 17:55 03.11.2020
5966 Rain 10 1025 87 10000 1 0 17:36 03.11.2020
5967 Rain 10 1025 87 9000 1 0 16:55 03.11.2020
5968 Rain 10 1025 87 10000 2.1 250 16:36 03.11.2020
5969 Rain 10 1025 87 10000 2.1 250 16:18 03.11.2020
5970 Rain 10 1025 87 10000 2.6 260 15:41 03.11.2020
5971 Rain 10 1024 87 10000 3.1 280 15:22 03.11.2020
5972 Clouds 11 1024 87 10000 4.6 300 14:46 03.11.2020
5973 Clouds 11 1024 87 10000 4.6 300 14:27 03.11.2020
5974 Clouds 11 1024 87 10000 4.6 300 14:27 03.11.2020
5975 Clouds 12 1024 76 10000 2.6 350 13:46 03.11.2020
5976 Rain 12 1024 76 10000 2.6 350 13:23 03.11.2020
5977 Clouds 12 1024 76 10000 1 0 12:56 03.11.2020
5978 Rain 12 1024 81 10000 1 0 12:36 03.11.2020
5979 Clouds 12 1024 81 10000 1 210 12:18 03.11.2020
5980 Clouds 12 1024 81 10000 1.5 200 11:41 03.11.2020
5981 Clouds 12 1024 87 10000 1 0 11:20 03.11.2020
5982 Clouds 12 1024 87 10000 1 0 10:39 03.11.2020
5983 Clouds 12 1024 87 10000 0.5 0 10:20 03.11.2020
5984 Clouds 12 1024 87 10000 0.5 0 09:51 03.11.2020
5985 Clouds 12 1024 87 10000 1 0 09:33 03.11.2020
5986 Clouds 11 1024 87 10000 0.5 0 08:56 03.11.2020
5987 Clouds 11 1024 81 10000 0.5 0 08:35 03.11.2020
5988 Rain 11 1024 93 10000 1 0 07:49 03.11.2020
5989 Rain 11 1024 81 10000 0.5 0 07:22 03.11.2020
5990 Clouds 11 1024 93 10000 1 0 06:49 03.11.2020
5991 Clouds 11 1023 87 10000 4.1 300 05:38 03.11.2020
5992 Clouds 15 1020 72 10000 4.1 270 02:43 03.11.2020
5993 Clouds 17 1019 72 10000 2.6 210 00:41 03.11.2020
5994 Clear 16 1019 72 10000 2.1 210 23:52 02.11.2020
5995 Clear 16 1019 72 10000 2.1 210 23:33 02.11.2020
5996 Clear 17 1018 68 10000 3.1 210 22:55 02.11.2020
5997 Clear 17 1018 68 10000 3.1 210 22:36 02.11.2020
5998 Clear 17 1018 68 10000 3.6 210 21:59 02.11.2020
5999 Clear 18 1018 68 10000 3.6 200 21:38 02.11.2020
6000 Clear 17 1018 68 10000 3.1 200 21:19 02.11.2020
6001 Clear 18 1017 72 10000 2.6 190 20:41 02.11.2020
6002 Clear 18 1017 72 10000 3.6 190 20:20 02.11.2020
6003 Clear 18 1017 72 10000 3.6 190 19:57 02.11.2020
6004 Clear 19 1017 68 10000 2.1 180 19:38 02.11.2020
6005 Clouds 19 1017 72 10000 2.1 180 19:20 02.11.2020
6006 Clouds 19 1017 72 10000 2.6 190 18:39 02.11.2020
6007 Clouds 19 1017 72 10000 3.1 210 18:20 02.11.2020
6008 Clouds 19 1017 72 10000 3.1 210 17:56 02.11.2020
6009 Clouds 20 1017 64 10000 2.6 210 17:36 02.11.2020
6010 Clouds 20 1017 68 10000 2.1 210 17:18 02.11.2020
6011 Clouds 21 1017 64 10000 4.1 210 16:38 02.11.2020
6012 Clouds 21 1017 64 10000 4.1 210 16:20 02.11.2020
6013 Clouds 21 1017 64 10000 3.6 230 15:39 02.11.2020
6014 Clouds 21 1017 64 10000 3.1 210 15:20 02.11.2020
6015 Clouds 21 1017 64 10000 3.1 220 14:53 02.11.2020
6016 Clouds 21 1017 64 10000 3.6 220 14:20 02.11.2020
6017 Clouds 21 1017 64 10000 3.6 220 13:52 02.11.2020
6018 Clouds 21 1017 64 10000 4.1 220 13:23 02.11.2020
6019 Clouds 20 1018 68 10000 4.1 230 12:55 02.11.2020
6020 Clouds 20 1018 68 10000 3.6 220 12:30 02.11.2020
6021 Clouds 20 1018 68 10000 3.6 210 11:56 02.11.2020
6022 Clouds 20 1018 68 10000 3.6 200 11:37 02.11.2020
6023 Clouds 20 1018 72 10000 3.6 190 11:18 02.11.2020
6024 Clouds 19 1018 77 10000 3.6 170 10:41 02.11.2020
6025 Clouds 18 1018 77 10000 3.6 180 10:18 02.11.2020
6026 Clouds 18 1018 77 10000 3.6 180 09:48 02.11.2020
6027 Clouds 17 1018 77 10000 4.6 200 09:23 02.11.2020
6028 Clouds 17 1018 82 10000 3.1 190 08:40 02.11.2020
6029 Clouds 17 1018 82 10000 2.1 190 08:20 02.11.2020
6030 Clouds 16 1018 82 10000 2.1 190 08:20 02.11.2020
6031 Clouds 16 1018 82 10000 2.6 190 07:49 02.11.2020
6032 Clouds 16 1017 82 10000 4.1 200 06:52 02.11.2020
6033 Clouds 16 1017 82 10000 4.1 200 06:34 02.11.2020
6034 Clouds 16 1017 72 10000 3.6 230 03:23 02.11.2020
6035 Clouds 16 1017 72 10000 4.1 210 01:24 02.11.2020
6036 Clouds 16 1017 72 10000 4.1 210 01:24 02.11.2020
6037 Clouds 16 1017 77 10000 3.6 220 00:35 02.11.2020
6038 Clouds 15 1017 77 10000 2.1 210 23:41 01.11.2020
6039 Clouds 15 1017 77 10000 3.6 220 23:23 01.11.2020
6040 Clouds 15 1017 82 10000 4.1 200 22:46 01.11.2020
6041 Clouds 14 1017 82 10000 4.1 200 22:25 01.11.2020
6042 Clouds 14 1017 82 10000 4.1 200 22:25 01.11.2020
6043 Clouds 14 1017 82 10000 4.6 210 21:58 01.11.2020
6044 Clouds 14 1017 82 10000 5.1 230 21:38 01.11.2020
6045 Clouds 14 1017 82 10000 4.1 220 21:20 01.11.2020
6046 Clouds 14 1017 82 10000 3.6 210 20:42 01.11.2020
6047 Clouds 14 1017 82 10000 3.6 210 20:23 01.11.2020
6048 Clouds 14 1017 93 10000 3.1 190 19:43 01.11.2020
6049 Clouds 14 1017 93 10000 3.1 190 19:25 01.11.2020
6050 Rain 15 1018 87 10000 3.1 200 18:44 01.11.2020
6051 Rain 15 1017 87 10000 4.1 210 18:20 01.11.2020
6052 Rain 15 1017 87 10000 4.1 210 18:20 01.11.2020
6053 Rain 15 1017 87 10000 4.1 210 17:59 01.11.2020
6054 Rain 15 1018 80 10000 4.6 210 17:41 01.11.2020
6055 Rain 15 1018 82 10000 4.6 210 17:22 01.11.2020
6056 Clouds 15 1018 82 10000 3.1 200 16:42 01.11.2020
6057 Clouds 15 1018 82 10000 3.1 200 16:21 01.11.2020
6058 Clouds 15 1018 82 10000 3.1 210 15:54 01.11.2020
6059 Rain 15 1018 82 10000 1.5 180 15:36 01.11.2020
6060 Rain 14 1018 87 10000 2.6 200 15:18 01.11.2020
6061 Rain 14 1018 87 10000 2.1 160 14:44 01.11.2020
6062 Clouds 14 1018 87 10000 2.1 160 14:22 01.11.2020
6063 Clouds 14 1019 93 10000 1 0 13:49 01.11.2020
6064 Clouds 14 1019 93 10000 1 0 13:31 01.11.2020
6065 Clouds 13 1019 93 10000 1.5 100 12:56 01.11.2020
6066 Clouds 13 1019 93 10000 1.5 100 12:37 01.11.2020
6067 Rain 13 1020 93 10000 1.5 120 12:18 01.11.2020
6068 Rain 12 1020 100 10000 1 0 11:44 01.11.2020
6069 Rain 12 1020 100 10000 1.5 0 11:18 01.11.2020
6070 Rain 11 1020 93 10000 2.6 150 10:41 01.11.2020
6071 Rain 11 1020 93 10000 2.6 150 10:22 01.11.2020
6072 Rain 11 1020 87 10000 2.6 90 09:47 01.11.2020
6073 Rain 11 1019 87 6000 2.1 0 08:55 01.11.2020
6074 Rain 11 1019 76 10000 2.6 0 08:36 01.11.2020
6075 Rain 10 1019 93 10000 1 0 07:50 01.11.2020
6076 Clouds 10 1019 93 10000 0.5 0 06:23 01.11.2020
6077 Clear 9 1020 87 10000 1 0 01:59 01.11.2020
6078 Clear 8 1020 87 10000 0.5 0 01:23 01.11.2020
6079 Clear 8 1020 93 10000 1 0 23:42 31.10.2020
6080 Clear 9 1020 93 10000 1 0 23:23 31.10.2020
6081 Clear 9 1020 87 10000 1 210 22:45 31.10.2020
6082 Clear 9 1020 87 10000 1 210 22:45 31.10.2020
6083 Clear 9 1020 87 10000 1 210 22:24 31.10.2020
6084 Clear 9 1020 87 10000 1 0 21:46 31.10.2020
6085 Clear 9 1020 93 10000 0.5 0 21:22 31.10.2020
6086 Clear 9 1020 93 10000 2.1 210 20:43 31.10.2020
6087 Clear 9 1020 93 10000 0.5 0 20:20 31.10.2020
6088 Clear 9 1020 93 10000 0.5 0 19:58 31.10.2020
6089 Clear 10 1020 87 10000 1.5 220 19:37 31.10.2020
6090 Clear 10 1020 81 10000 1 0 19:18 31.10.2020
6091 Clear 11 1020 87 10000 1.5 320 18:42 31.10.2020
6092 Clear 13 1020 67 10000 0.5 140 17:47 31.10.2020
6093 Clear 13 1020 67 10000 0.5 140 17:29 31.10.2020
6094 Clear 16 1020 59 10000 0.5 0 16:59 31.10.2020
6095 Clear 16 1020 55 10000 1 0 16:39 31.10.2020
6096 Clear 17 1020 52 10000 0.5 0 15:57 31.10.2020
6097 Clear 18 1020 55 10000 1 0 15:36 31.10.2020
6098 Clear 18 1020 55 10000 2.1 150 15:18 31.10.2020
6099 Clear 18 1021 59 10000 2.1 190 14:46 31.10.2020
6100 Clear 18 1021 59 10000 2.1 190 14:26 31.10.2020
6101 Clear 17 1022 59 10000 2.1 150 13:49 31.10.2020
6102 Clear 17 1022 59 10000 2.1 150 13:21 31.10.2020
6103 Clear 16 1023 63 10000 3.1 160 12:35 31.10.2020
6104 Clear 15 1024 67 10000 2.1 160 11:48 31.10.2020
6105 Clear 14 1024 67 10000 2.1 160 11:28 31.10.2020
6106 Clear 14 1024 71 10000 2.1 140 10:56 31.10.2020
6107 Clear 13 1025 76 10000 1 0 10:33 31.10.2020
6108 Clouds 11 1025 93 10000 1 0 09:42 31.10.2020
6109 Clouds 10 1025 93 10000 1 0 09:22 31.10.2020
6110 Fog 8 1025 100 10000 0.5 0 08:32 31.10.2020
6111 Fog 7 1025 100 10000 0.5 0 07:58 31.10.2020
6112 Clouds 8 1025 100 10000 0.5 70 07:27 31.10.2020
6113 Clouds 9 1025 93 10000 0.5 0 06:40 31.10.2020
6114 Clouds 10 1026 87 10000 0.5 0 05:20 31.10.2020
6115 Clouds 11 1026 87 10000 1.5 270 03:46 31.10.2020
6116 Clouds 11 1027 81 10000 1.5 250 01:30 31.10.2020
6117 Clouds 12 1026 81 10000 1.5 260 00:47 31.10.2020
6118 Clouds 12 1026 81 10000 2.1 280 23:52 30.10.2020
6119 Clouds 12 1027 81 10000 0.5 0 23:25 30.10.2020
6120 Clouds 12 1027 76 10000 0.5 0 22:48 30.10.2020
6121 Clouds 12 1027 76 10000 0.5 0 22:26 30.10.2020
6122 Clouds 12 1027 76 10000 0.5 0 21:58 30.10.2020
6123 Clouds 12 1027 76 10000 0.5 0 21:58 30.10.2020
6124 Clouds 12 1027 76 10000 0.5 300 21:39 30.10.2020
6125 Clouds 12 1026 76 10000 0.5 0 21:20 30.10.2020
6126 Clouds 12 1026 76 10000 1 0 20:42 30.10.2020
6127 Clouds 13 1026 76 10000 2.1 250 20:24 30.10.2020
6128 Clouds 13 1026 76 10000 2.1 250 19:52 30.10.2020
6129 Clouds 13 1026 71 10000 2.6 250 19:19 30.10.2020
6130 Clouds 13 1026 71 10000 2.6 250 18:52 30.10.2020
6131 Clouds 13 1025 76 10000 2.1 250 18:33 30.10.2020
6132 Clouds 13 1025 71 10000 2.1 250 17:57 30.10.2020
6133 Clouds 13 1025 71 10000 2.6 240 17:39 30.10.2020
6134 Clouds 14 1025 71 10000 4.1 250 17:20 30.10.2020
6135 Clouds 14 1025 71 10000 4.1 250 16:49 30.10.2020
6136 Clouds 14 1025 67 10000 3.6 240 16:24 30.10.2020
6137 Clouds 15 1025 67 10000 3.6 240 15:41 30.10.2020
6138 Clouds 14 1025 67 10000 3.6 240 15:20 30.10.2020
6139 Clouds 15 1024 71 10000 3.6 240 14:46 30.10.2020
6140 Clouds 14 1024 71 10000 3.6 240 14:28 30.10.2020
6141 Clouds 14 1025 71 10000 3.6 240 13:57 30.10.2020
6142 Clouds 14 1025 71 10000 4.6 250 13:39 30.10.2020
6143 Clouds 14 1024 76 10000 2.6 230 13:19 30.10.2020
6144 Clouds 14 1024 76 10000 3.1 0 12:41 30.10.2020
6145 Clouds 14 1024 76 10000 3.1 220 12:21 30.10.2020
6146 Clouds 14 1024 82 10000 2.1 220 11:44 30.10.2020
6147 Clouds 13 1024 82 10000 2.1 210 11:20 30.10.2020
6148 Clouds 13 1024 82 10000 2.1 210 10:50 30.10.2020
6149 Clouds 13 1024 87 10000 1.5 200 10:25 30.10.2020
6150 Clouds 12 1024 87 10000 1.5 170 09:46 30.10.2020
6151 Clouds 12 1024 87 10000 1.5 170 09:24 30.10.2020
6152 Clouds 12 1024 87 10000 1 0 08:55 30.10.2020
6153 Clouds 12 1023 87 10000 2.1 210 08:31 30.10.2020
6154 Clouds 12 1023 87 10000 3.1 200 07:51 30.10.2020
6155 Clouds 12 1023 87 10000 3.1 200 07:33 30.10.2020
6156 Clouds 12 1023 87 10000 3.1 0 06:49 30.10.2020
6157 Clouds 11 1022 87 10000 2.6 220 05:39 30.10.2020
6158 Clouds 11 1022 87 10000 2.6 210 02:41 30.10.2020
6159 Clouds 10 1023 93 10000 2.6 210 00:47 30.10.2020
6160 Rain 10 1023 93 10000 2.6 210 23:58 29.10.2020
6161 Rain 10 1023 93 10000 2.1 210 23:40 29.10.2020
6162 Rain 10 1023 93 10000 2.1 210 23:21 29.10.2020
6163 Rain 10 1023 93 10000 1.5 200 22:43 29.10.2020
6164 Rain 10 1023 93 10000 1.5 200 22:24 29.10.2020
6165 Rain 10 1023 87 10000 2.6 200 21:43 29.10.2020
6166 Rain 10 1023 87 10000 2.6 200 21:22 29.10.2020
6167 Rain 10 1023 87 10000 2.6 200 21:22 29.10.2020
6168 Rain 10 1023 87 10000 2.6 200 20:42 29.10.2020
6169 Rain 10 1023 87 10000 3.1 200 20:21 29.10.2020
6170 Rain 10 1023 87 10000 3.1 200 19:56 29.10.2020
6171 Rain 10 1023 81 10000 2.6 200 19:37 29.10.2020
6172 Rain 11 1023 81 10000 2.6 200 19:18 29.10.2020
6173 Rain 11 1022 76 10000 3.1 220 18:41 29.10.2020
6174 Rain 11 1022 76 10000 3.1 220 18:21 29.10.2020
6175 Rain 11 1022 76 10000 3.1 230 17:42 29.10.2020
6176 Rain 11 1022 76 10000 3.1 230 17:22 29.10.2020
6177 Rain 12 1021 71 10000 3.1 240 16:52 29.10.2020
6178 Rain 12 1021 71 10000 4.6 240 16:23 29.10.2020
6179 Rain 12 1021 71 10000 4.6 240 15:58 29.10.2020
6180 Rain 12 1021 71 10000 5.1 240 15:40 29.10.2020
6181 Rain 12 1021 71 10000 5.1 240 15:21 29.10.2020
6182 Rain 13 1021 66 10000 4.1 240 14:46 29.10.2020
6183 Rain 13 1021 66 10000 4.1 240 14:24 29.10.2020
6184 Clouds 13 1021 66 10000 4.6 250 13:59 29.10.2020
6185 Rain 12 1021 71 10000 4.1 250 13:40 29.10.2020
6186 Rain 12 1021 71 10000 4.1 250 13:21 29.10.2020
6187 Rain 12 1021 76 10000 3.6 250 12:40 29.10.2020
6188 Rain 12 1021 76 10000 3.1 240 12:19 29.10.2020
6189 Rain 11 1020 76 10000 3.6 240 11:47 29.10.2020
6190 Clouds 11 1020 76 10000 3.6 240 11:25 29.10.2020
6191 Clouds 11 1020 81 10000 3.6 240 10:38 29.10.2020
6192 Clouds 11 1019 81 10000 4.1 240 10:20 29.10.2020
6193 Clouds 10 1019 81 10000 4.1 240 09:53 29.10.2020
6194 Clouds 10 1019 87 10000 2.1 220 09:28 29.10.2020
6195 Rain 9 1018 93 8000 2.1 260 08:58 29.10.2020
6196 Rain 9 1018 87 10000 3.1 250 08:38 29.10.2020
6197 Rain 9 1018 87 10000 3.1 250 08:18 29.10.2020
6198 Rain 10 1017 87 10000 2.1 210 07:46 29.10.2020
6199 Rain 10 1016 87 10000 2.6 220 06:58 29.10.2020
6200 Rain 10 1016 87 10000 2.6 220 06:22 29.10.2020
6201 Rain 11 1015 81 10000 2.6 0 04:46 29.10.2020
6202 Rain 12 1015 74 10000 4.76 221 01:37 29.10.2020
6203 Clouds 11 1016 84 10000 0.89 126 00:31 29.10.2020
6204 Clouds 11 1016 87 10000 4.37 218 23:59 28.10.2020
6205 Clouds 10 1016 87 10000 0.45 126 23:22 28.10.2020
6206 Clear 10 1015 81 10000 0.5 0 22:56 28.10.2020
6207 Clear 10 1015 81 10000 0.5 0 22:37 28.10.2020
6208 Clear 10 1015 81 10000 0.5 0 22:19 28.10.2020
6209 Clear 10 1015 81 10000 1 0 21:43 28.10.2020
6210 Clear 10 1015 81 10000 1 0 21:25 28.10.2020
6211 Clear 10 1015 87 10000 0.5 0 20:43 28.10.2020
6212 Clear 10 1015 87 10000 0.5 0 20:23 28.10.2020
6213 Clouds 10 1016 81 10000 0.5 0 19:53 28.10.2020
6214 Clouds 9 1016 93 10000 1 170 19:30 28.10.2020
6215 Clouds 10 1016 87 10000 0.5 150 18:52 28.10.2020
6216 Clouds 11 1015 71 10000 2.1 240 18:22 28.10.2020
6217 Clouds 11 1015 71 10000 2.1 240 17:59 28.10.2020
6218 Clouds 12 1016 66 10000 3.6 240 17:41 28.10.2020
6219 Clouds 13 1015 66 10000 4.1 230 17:21 28.10.2020
6220 Clouds 13 1015 71 10000 3.6 220 16:47 28.10.2020
6221 Clouds 13 1015 76 10000 3.6 230 16:28 28.10.2020
6222 Clouds 13 1015 81 10000 3.1 240 15:42 28.10.2020
6223 Clouds 13 1015 77 10000 0.89 252 15:19 28.10.2020
6224 Clouds 13 1015 87 10000 5.7 250 14:49 28.10.2020
6225 Clouds 13 1015 87 10000 5.7 250 14:31 28.10.2020
6226 Rain 13 1015 81 10000 0.89 286 13:59 28.10.2020
6227 Rain 14 1015 75 10000 0.89 235 12:38 28.10.2020
6228 Rain 14 1015 73 10000 1.34 220 12:20 28.10.2020
6229 Clouds 14 1015 74 10000 1.34 250 11:43 28.10.2020
6230 Rain 14 1014 87 10000 3.1 210 11:22 28.10.2020
6231 Rain 13 1014 87 10000 4.1 210 10:57 28.10.2020
6232 Rain 13 1014 87 10000 4.1 210 10:39 28.10.2020
6233 Clouds 12 1014 87 10000 4.1 210 10:21 28.10.2020
6234 Clouds 11 1013 87 10000 2.6 210 09:38 28.10.2020
6235 Clouds 10 1013 87 10000 2.1 210 09:20 28.10.2020
6236 Clouds 10 1012 87 10000 2.1 200 08:47 28.10.2020
6237 Clouds 10 1012 87 10000 2.1 200 08:25 28.10.2020
6238 Clouds 9 1012 93 10000 1 80 07:48 28.10.2020
6239 Clouds 9 1011 93 10000 1 0 07:30 28.10.2020
6240 Rain 9 1011 81 10000 1 0 06:40 28.10.2020
6241 Rain 9 1011 87 10000 1.5 160 05:49 28.10.2020
6242 Clouds 9 1011 70 10000 1.5 180 04:53 28.10.2020
6243 Clouds 9 1011 70 10000 1.5 180 04:25 28.10.2020
6244 Clouds 9 1011 70 10000 1 160 02:25 28.10.2020
6245 Clouds 8 1011 75 10000 1 0 01:29 28.10.2020
6246 Clear 7 1011 81 10000 1.5 190 23:57 27.10.2020
6247 Clear 8 1012 81 10000 2.1 190 23:38 27.10.2020
6248 Clear 7 1012 81 10000 2.1 190 23:20 27.10.2020
6249 Clear 7 1012 81 10000 1.5 190 22:42 27.10.2020
6250 Clear 7 1012 81 10000 1 0 22:19 27.10.2020
6251 Clear 6 1012 81 10000 1 0 21:55 27.10.2020
6252 Clear 7 1012 75 10000 2.1 190 21:37 27.10.2020
6253 Clear 7 1012 75 10000 2.1 190 21:37 27.10.2020
6254 Clear 7 1012 75 10000 2.1 190 21:37 27.10.2020
6255 Clear 7 1012 75 10000 2.1 190 21:37 27.10.2020
6256 Clear 6 1012 75 10000 2.1 190 21:18 27.10.2020
6257 Clear 7 1012 75 10000 2.1 180 20:43 27.10.2020
6258 Clear 7 1012 75 10000 2.1 180 20:22 27.10.2020
6259 Clear 7 1012 75 10000 2.1 180 19:39 27.10.2020
6260 Clear 8 1012 75 10000 2.1 180 19:21 27.10.2020
6261 Clouds 8 1012 75 10000 2.1 180 18:58 27.10.2020
6262 Clouds 9 1012 70 10000 2.1 200 18:40 27.10.2020
6263 Clouds 9 1011 66 10000 2.6 180 18:20 27.10.2020
6264 Clouds 10 1012 66 10000 2.1 200 17:43 27.10.2020
6265 Clouds 10 1012 71 10000 2.1 200 17:22 27.10.2020
6266 Clouds 11 1012 71 10000 2.1 200 16:57 27.10.2020
6267 Clouds 11 1012 62 10000 3.1 200 16:39 27.10.2020
6268 Clouds 12 1012 62 10000 3.1 190 16:20 27.10.2020
6269 Clouds 12 1012 66 10000 3.1 210 15:40 27.10.2020
6270 Clouds 12 1012 66 10000 2.6 250 15:21 27.10.2020
6271 Clouds 12 1012 62 10000 3.1 230 14:48 27.10.2020
6272 Clouds 12 1012 66 10000 3.1 240 14:29 27.10.2020
6273 Clouds 12 1012 66 10000 3.1 240 13:56 27.10.2020
6274 Clouds 12 1012 66 10000 3.6 250 13:25 27.10.2020
6275 Clouds 11 1012 66 10000 3.6 230 12:43 27.10.2020
6276 Clouds 11 1012 66 10000 3.6 230 12:24 27.10.2020
6277 Clouds 12 1012 66 10000 4.1 0 11:44 27.10.2020
6278 Clouds 12 1012 66 10000 4.1 0 11:26 27.10.2020
6279 Clouds 11 1012 71 10000 3.6 200 10:54 27.10.2020
6280 Clouds 10 1011 76 10000 2.6 200 10:36 27.10.2020
6281 Clouds 10 1011 76 10000 3.1 180 10:18 27.10.2020
6282 Clouds 8 1011 81 10000 2.1 170 09:28 27.10.2020
6283 Clear 7 1011 81 10000 0.5 0 08:56 27.10.2020
6284 Clear 6 1011 93 10000 1.5 210 08:27 27.10.2020
6285 Clear 6 1011 87 10000 1.5 220 07:52 27.10.2020
6286 Clear 6 1011 87 10000 1.5 220 07:33 27.10.2020
6287 Clear 6 1010 93 10000 2.1 80 06:52 27.10.2020
6288 Clear 6 1010 93 10000 1 0 06:19 27.10.2020
6289 Clear 6 1009 86 10000 0.5 0 05:44 27.10.2020
6290 Clear 6 1009 93 10000 2.1 200 04:58 27.10.2020
6291 Clouds 6 1010 87 10000 1.5 190 02:49 27.10.2020
6292 Clear 7 1010 93 10000 2.1 190 01:18 27.10.2020
6293 Clear 7 1010 93 10000 2.1 200 23:59 26.10.2020
6294 Clear 7 1010 93 10000 2.6 200 23:36 26.10.2020
6295 Clear 7 1010 93 10000 2.6 200 23:36 26.10.2020
6296 Clear 7 1010 93 10000 0.5 0 22:57 26.10.2020
6297 Clear 7 1009 87 10000 1 0 22:31 26.10.2020
6298 Clouds 7 1009 87 10000 1 0 21:57 26.10.2020
6299 Clouds 8 1009 87 10000 1.5 200 21:36 26.10.2020
6300 Clouds 8 1009 87 10000 1.5 210 21:18 26.10.2020
6301 Clouds 8 1009 87 10000 1.5 210 20:49 26.10.2020
6302 Clouds 8 1009 87 10000 1 0 20:27 26.10.2020
6303 Clouds 8 1009 81 10000 2.6 190 19:49 26.10.2020
6304 Clouds 8 1009 81 10000 2.6 190 19:29 26.10.2020
6305 Clouds 8 1008 81 10000 2.6 200 18:59 26.10.2020
6306 Clouds 8 1008 87 10000 3.6 200 18:39 26.10.2020
6307 Clouds 8 1007 87 10000 2.1 200 18:20 26.10.2020
6308 Clouds 8 1008 87 10000 3.1 200 17:44 26.10.2020
6309 Clouds 9 1007 93 10000 2.6 200 17:23 26.10.2020
6310 Clouds 9 1007 87 10000 2.6 200 16:45 26.10.2020
6311 Clouds 9 1007 87 10000 2.6 210 16:22 26.10.2020
6312 Rain 9 1007 87 10000 2.6 210 15:56 26.10.2020
6313 Rain 9 1007 87 10000 3.1 210 15:38 26.10.2020
6314 Rain 9 1007 87 10000 3.1 200 15:18 26.10.2020
6315 Rain 9 1007 87 10000 2.1 220 14:44 26.10.2020
6316 Rain 9 1007 87 10000 3.1 210 14:19 26.10.2020
6317 Rain 9 1007 87 10000 3.1 220 13:42 26.10.2020
6318 Rain 9 1007 87 10000 3.1 200 13:22 26.10.2020
6319 Rain 9 1006 93 10000 2.6 220 12:47 26.10.2020
6320 Rain 9 1006 93 10000 2.6 220 12:27 26.10.2020
6321 Rain 9 1007 87 10000 2.1 230 11:55 26.10.2020
6322 Rain 9 1007 87 10000 2.1 230 11:37 26.10.2020
6323 Rain 9 1006 87 10000 2.6 230 11:18 26.10.2020
6324 Rain 9 1006 93 10000 2.6 0 10:42 26.10.2020
6325 Rain 9 1006 93 10000 2.6 0 10:24 26.10.2020
6326 Rain 9 1006 87 10000 4.1 250 09:44 26.10.2020
6327 Rain 9 1006 87 10000 4.1 250 09:23 26.10.2020
6328 Rain 10 1005 87 9000 3.6 270 08:30 26.10.2020
6329 Rain 10 1005 87 9000 3.6 270 07:56 26.10.2020
6330 Rain 10 1004 93 10000 4.1 280 07:38 26.10.2020
6331 Rain 10 1003 93 10000 2.1 330 06:49 26.10.2020
6332 Clouds 11 1004 81 10000 1.5 260 04:47 26.10.2020
6333 Clouds 10 1004 87 10000 1.5 270 04:18 26.10.2020
6334 Clear 11 1004 81 10000 2.6 290 03:20 26.10.2020
6335 Clear 11 1004 81 10000 2.6 290 03:20 26.10.2020
6336 Clear 11 1004 81 10000 2.6 290 03:20 26.10.2020
6337 Clear 11 1004 81 10000 1 0 01:34 26.10.2020
6338 Clear 12 1005 81 10000 3.6 320 00:33 26.10.2020
6339 Clear 12 1005 87 10000 1.5 60 23:43 25.10.2020
6340 Clear 12 1005 76 10000 1 0 23:22 25.10.2020
6341 Clear 12 1006 76 10000 1.5 0 22:42 25.10.2020
6342 Clear 12 1006 76 10000 1 0 22:24 25.10.2020
6343 Clear 12 1006 76 10000 1.5 0 21:48 25.10.2020
6344 Clear 12 1006 76 10000 1.5 0 21:29 25.10.2020
6345 Clear 12 1006 76 10000 1.5 0 21:29 25.10.2020
6346 Clear 12 1006 71 10000 0.5 0 20:58 25.10.2020
6347 Clear 12 1007 71 10000 1.5 180 20:39 25.10.2020
6348 Clear 12 1007 76 10000 1 0 20:19 25.10.2020
6349 Clear 12 1007 81 10000 1 0 19:49 25.10.2020
6350 Clear 12 1007 81 10000 1 0 19:25 25.10.2020
6351 Clear 12 1007 76 10000 0.5 0 18:57 25.10.2020
6352 Clear 12 1007 76 10000 0.5 0 18:57 25.10.2020
6353 Clouds 12 1006 71 10000 1 0 18:38 25.10.2020
6354 Clouds 12 1006 71 10000 1 0 18:38 25.10.2020
6355 Clouds 12 1006 71 10000 1 0 18:38 25.10.2020
6356 Clouds 13 1006 66 10000 2.1 260 18:20 25.10.2020
6357 Clouds 14 1006 62 10000 1 250 17:40 25.10.2020
6358 Clouds 15 1006 55 10000 0.5 0 17:21 25.10.2020
6359 Clouds 16 1006 51 10000 2.1 200 16:59 25.10.2020
6360 Clouds 16 1006 51 10000 2.1 200 16:39 25.10.2020
6361 Clouds 17 1006 51 10000 2.1 200 16:20 25.10.2020
6362 Clouds 18 1007 45 10000 2.6 210 15:47 25.10.2020
6363 Clouds 18 1007 48 10000 4.1 200 15:26 25.10.2020
6364 Clouds 18 1007 48 10000 3.6 210 15:26 25.10.2020
6365 Clouds 18 1008 48 10000 3.6 210 14:49 25.10.2020
6366 Clouds 18 1008 48 10000 3.6 210 14:28 25.10.2020
6367 Clouds 18 1008 48 10000 3.1 200 13:44 25.10.2020
6368 Clouds 18 1008 48 10000 3.1 200 13:23 25.10.2020
6369 Clear 17 1009 55 10000 2.6 0 12:49 25.10.2020
6370 Clear 17 1009 55 10000 2.6 0 12:27 25.10.2020
6371 Clear 16 1009 55 10000 1.5 170 11:58 25.10.2020
6372 Clear 15 1009 71 10000 0.5 0 11:40 25.10.2020
6373 Clear 13 1010 76 10000 1 0 11:19 25.10.2020
6374 Clear 13 1010 81 10000 1.5 70 10:45 25.10.2020
6375 Clear 11 1010 81 10000 1.5 70 10:25 25.10.2020
6376 Clear 10 1010 87 10000 0.5 0 09:50 25.10.2020
6377 Clear 8 1011 100 10000 0.5 0 09:21 25.10.2020
6378 Clear 8 1011 100 10000 0.5 0 09:21 25.10.2020
6379 Clear 8 1011 100 10000 0.5 0 08:58 25.10.2020
6380 Fog 7 1011 93 10000 0.5 0 08:40 25.10.2020
6381 Fog 7 1011 93 10000 0.5 0 08:40 25.10.2020
6382 Fog 7 1011 93 10000 0.5 0 08:22 25.10.2020
6383 Fog 5 1011 100 8000 0.5 0 07:42 25.10.2020
6384 Fog 7 1011 100 10000 0.5 0 06:53 25.10.2020
6385 Fog 7 1012 100 10000 1.5 300 06:27 25.10.2020
6386 Fog 6 1012 100 10000 1 280 05:19 25.10.2020
6387 Fog 6 1012 100 700 1 0 04:50 25.10.2020
6388 Fog 7 1014 100 500 0.5 0 02:30 25.10.2020
6389 Clear 7 1015 100 10000 1 0 00:54 25.10.2020
6390 Clear 7 1015 93 10000 0.5 0 00:29 25.10.2020
6391 Clear 8 1016 100 10000 0.5 0 23:57 24.10.2020
6392 Clear 8 1016 93 10000 1.5 110 23:36 24.10.2020
6393 Clear 8 1016 87 10000 0.5 0 22:59 24.10.2020
6394 Clear 8 1016 93 10000 0.5 0 22:41 24.10.2020
6395 Clear 9 1017 81 10000 1 0 22:22 24.10.2020
6396 Clear 9 1017 81 10000 1 0 21:56 24.10.2020
6397 Clear 9 1017 81 10000 1 0 21:37 24.10.2020
6398 Clear 9 1017 81 10000 1 120 21:19 24.10.2020
6399 Clear 10 1017 76 10000 1 140 20:43 24.10.2020
6400 Clear 11 1017 76 10000 1.5 240 20:20 24.10.2020
6401 Clear 11 1017 71 10000 1.5 240 19:44 24.10.2020
6402 Clear 11 1017 71 10000 1.5 240 19:25 24.10.2020
6403 Clouds 13 1017 67 10000 2.1 230 18:54 24.10.2020
6404 Clouds 13 1017 67 10000 2.1 230 18:31 24.10.2020
6405 Clouds 15 1017 62 10000 3.6 250 17:55 24.10.2020
6406 Clouds 16 1017 62 10000 3.6 250 17:27 24.10.2020
6407 Clouds 16 1017 59 10000 4.1 240 16:58 24.10.2020
6408 Clouds 16 1017 55 10000 3.6 220 16:40 24.10.2020
6409 Clouds 16 1018 59 10000 4.6 230 15:59 24.10.2020
6410 Clouds 16 1018 59 10000 4.1 230 15:38 24.10.2020
6411 Clouds 17 1018 59 10000 4.1 230 15:19 24.10.2020
6412 Clouds 16 1018 59 10000 4.6 240 14:42 24.10.2020
6413 Clouds 17 1018 59 10000 4.6 240 14:22 24.10.2020
6414 Clouds 16 1019 63 10000 3.6 210 13:44 24.10.2020
6415 Clouds 16 1019 63 10000 3.6 210 13:20 24.10.2020
6416 Clouds 16 1019 63 10000 3.6 210 13:20 24.10.2020
6417 Clouds 15 1019 72 10000 3.1 230 12:41 24.10.2020
6418 Clouds 15 1019 72 10000 3.6 260 12:21 24.10.2020
6419 Clouds 15 1019 87 10000 2.1 230 11:51 24.10.2020
6420 Clouds 14 1019 87 10000 2.1 230 11:24 24.10.2020
6421 Clouds 14 1019 87 10000 3.1 220 10:51 24.10.2020
6422 Clouds 13 1018 87 10000 2.6 200 10:32 24.10.2020
6423 Fog 12 1018 93 10000 1 0 09:50 24.10.2020
6424 Fog 12 1018 93 10000 1 0 09:28 24.10.2020
6425 Fog 12 1018 93 10000 1 0 08:58 24.10.2020
6426 Clouds 12 1018 93 10000 0.5 0 08:19 24.10.2020
6427 Clouds 12 1018 93 10000 0.5 0 07:53 24.10.2020
6428 Clouds 12 1018 93 10000 0.5 240 07:25 24.10.2020
6429 Clouds 12 1017 93 10000 2.1 240 06:53 24.10.2020
6430 Clouds 12 1017 100 10000 1.5 240 06:23 24.10.2020
6431 Rain 13 1016 93 10000 2.1 260 03:35 24.10.2020
6432 Clouds 13 1016 93 10000 1.5 240 01:40 24.10.2020
6433 Clouds 13 1016 93 10000 2.1 230 00:41 24.10.2020
6434 Clouds 13 1016 93 10000 2.1 230 00:21 24.10.2020
6435 Clouds 13 1015 93 10000 2.6 230 23:49 23.10.2020
6436 Clouds 13 1015 93 10000 2.6 230 23:26 23.10.2020
6437 Clouds 13 1015 87 10000 2.1 0 22:58 23.10.2020
6438 Clouds 13 1015 87 10000 2.1 240 22:39 23.10.2020
6439 Clouds 13 1015 87 10000 2.1 210 22:20 23.10.2020
6440 Clouds 14 1015 87 10000 1.5 230 21:46 23.10.2020
6441 Clouds 14 1014 100 10000 1 0 21:25 23.10.2020
6442 Clouds 14 1014 93 9000 2.6 230 20:41 23.10.2020
6443 Clouds 14 1014 93 9000 2.6 230 20:23 23.10.2020
6444 Clouds 14 1014 93 10000 3.1 220 19:54 23.10.2020
6445 Clouds 14 1014 93 10000 2.1 220 19:33 23.10.2020
6446 Clouds 14 1013 93 10000 2.1 190 18:57 23.10.2020
6447 Drizzle 14 1013 93 8000 3.1 190 18:38 23.10.2020
6448 Rain 14 1013 87 10000 1 0 18:19 23.10.2020
6449 Rain 15 1013 87 10000 0.5 190 17:42 23.10.2020
6450 Rain 15 1013 87 10000 0.5 190 17:20 23.10.2020
6451 Rain 15 1013 87 10000 1 0 16:44 23.10.2020
6452 Rain 15 1013 87 10000 1 0 16:25 23.10.2020
6453 Rain 16 1013 82 10000 2.1 170 15:45 23.10.2020
6454 Rain 16 1014 82 10000 2.1 190 15:24 23.10.2020
6455 Rain 16 1014 82 10000 2.1 190 14:54 23.10.2020
6456 Rain 16 1014 82 10000 1.5 200 14:35 23.10.2020
6457 Rain 15 1014 87 10000 1.5 190 13:59 23.10.2020
6458 Rain 15 1014 87 10000 1.5 190 13:38 23.10.2020
6459 Rain 15 1015 82 10000 2.1 180 13:19 23.10.2020
6460 Rain 15 1015 82 10000 1.5 200 12:47 23.10.2020
6461 Clouds 15 1015 82 10000 1.5 200 12:27 23.10.2020
6462 Clouds 15 1015 82 10000 1.5 170 11:47 23.10.2020
6463 Clouds 15 1015 82 10000 1.5 170 11:22 23.10.2020
6464 Clouds 15 1015 87 10000 1 0 10:46 23.10.2020
6465 Clouds 14 1015 87 10000 1.5 190 10:25 23.10.2020
6466 Clouds 13 1015 93 10000 2.1 190 09:46 23.10.2020
6467 Clouds 13 1015 100 10000 1 0 09:27 23.10.2020
6468 Clouds 13 1015 93 10000 1.5 130 08:53 23.10.2020
6469 Clouds 13 1015 93 10000 1.5 130 08:33 23.10.2020
6470 Rain 13 1015 93 10000 0.5 0 07:46 23.10.2020
6471 Rain 13 1015 93 10000 1 0 07:23 23.10.2020
6472 Rain 13 1016 100 10000 1.5 180 06:31 23.10.2020
6473 Rain 14 1016 93 10000 1.5 190 05:44 23.10.2020
6474 Rain 14 1017 87 10000 2.1 190 02:54 23.10.2020
6475 Rain 13 1017 93 10000 1 0 02:25 23.10.2020
6476 Rain 14 1017 87 10000 1 0 00:48 23.10.2020
6477 Clouds 14 1017 87 10000 1 80 23:54 22.10.2020
6478 Clouds 14 1017 87 10000 0.5 0 23:31 22.10.2020
6479 Clouds 14 1017 93 10000 1 0 22:56 22.10.2020
6480 Clouds 14 1017 87 10000 1.5 340 22:38 22.10.2020
6481 Rain 14 1017 87 10000 0.5 0 22:19 22.10.2020
6482 Rain 14 1017 87 10000 2.1 260 21:43 22.10.2020
6483 Rain 14 1017 82 10000 1.5 190 21:23 22.10.2020
6484 Rain 15 1017 82 10000 1.5 190 20:57 22.10.2020
6485 Rain 15 1017 77 10000 2.6 190 20:39 22.10.2020
6486 Rain 16 1017 72 10000 3.1 200 20:18 22.10.2020
6487 Rain 17 1017 67 10000 2.1 220 19:41 22.10.2020
6488 Rain 17 1017 63 10000 3.1 190 19:19 22.10.2020
6489 Rain 18 1016 55 10000 1.5 190 18:43 22.10.2020
6490 Rain 19 1016 56 10000 1 0 18:21 22.10.2020
6491 Clear 20 1016 52 10000 1.5 200 17:47 22.10.2020
6492 Clear 20 1016 52 10000 1.5 200 17:26 22.10.2020
6493 Clear 21 1016 46 10000 2.1 190 16:58 22.10.2020
6494 Clear 21 1016 46 10000 2.1 170 16:40 22.10.2020
6495 Clear 21 1016 46 10000 2.1 170 16:22 22.10.2020
6496 Clear 21 1016 49 10000 1.5 130 15:44 22.10.2020
6497 Clear 21 1017 49 10000 1 0 15:25 22.10.2020
6498 Clouds 20 1017 52 10000 1 0 14:49 22.10.2020
6499 Clouds 20 1017 52 10000 1 0 14:49 22.10.2020
6500 Clouds 20 1017 52 10000 1 0 14:25 22.10.2020
6501 Clouds 19 1017 59 10000 1.5 120 13:49 22.10.2020
6502 Clouds 18 1017 59 10000 1.5 120 13:24 22.10.2020
6503 Clouds 18 1017 63 10000 1 0 13:24 22.10.2020
6504 Clouds 18 1017 63 10000 1 0 12:57 22.10.2020
6505 Clouds 17 1018 67 10000 1.5 30 12:27 22.10.2020
6506 Clouds 17 1018 59 10000 1 0 11:50 22.10.2020
6507 Clouds 16 1018 67 10000 1 0 11:21 22.10.2020
6508 Clouds 15 1018 67 10000 1 0 10:52 22.10.2020
6509 Clouds 14 1017 82 10000 1 0 10:30 22.10.2020
6510 Clouds 13 1017 87 10000 0.5 120 09:59 22.10.2020
6511 Clouds 14 1017 81 10000 1 0 09:41 22.10.2020
6512 Clouds 12 1017 87 10000 0.5 0 08:58 22.10.2020
6513 Clouds 12 1016 93 10000 0.5 0 08:39 22.10.2020
6514 Clouds 12 1016 93 10000 1 0 08:19 22.10.2020
6515 Clouds 13 1016 87 10000 1.5 120 07:43 22.10.2020
6516 Clouds 12 1016 81 10000 1.5 280 06:59 22.10.2020
6517 Clouds 12 1016 81 10000 1.5 310 06:37 22.10.2020
6518 Clouds 12 1016 87 10000 0.5 50 05:42 22.10.2020
6519 Clouds 12 1016 87 10000 0.5 0 05:22 22.10.2020
6520 Clouds 13 1015 76 10000 1 0 02:40 22.10.2020
6521 Clouds 14 1015 66 10000 1 0 00:50 22.10.2020
6522 Clouds 13 1015 81 10000 1 0 00:18 22.10.2020
6523 Clouds 13 1014 81 10000 0.5 0 23:38 21.10.2020
6524 Clouds 13 1014 81 10000 1.5 340 22:58 21.10.2020
6525 Clouds 12 1014 87 10000 0.5 0 22:37 21.10.2020
6526 Clouds 13 1013 87 10000 1.5 90 22:19 21.10.2020
6527 Clouds 13 1013 87 10000 1.5 60 21:45 21.10.2020
6528 Clouds 13 1013 81 10000 1.5 40 21:19 21.10.2020
6529 Clouds 13 1013 81 10000 1.5 40 20:57 21.10.2020
6530 Clouds 14 1013 81 10000 0.5 0 20:39 21.10.2020
6531 Clouds 15 1012 67 10000 2.1 100 20:18 21.10.2020
6532 Clouds 14 1012 71 10000 1.5 60 19:40 21.10.2020
6533 Clouds 15 1011 59 10000 0.5 0 19:22 21.10.2020
6534 Clouds 15 1011 55 10000 1 0 18:49 21.10.2020
6535 Clouds 16 1011 55 10000 1 0 18:27 21.10.2020
6536 Clouds 16 1011 52 10000 1 0 17:50 21.10.2020
6537 Clouds 17 1011 63 10000 1 0 17:22 21.10.2020
6538 Clouds 17 1011 63 10000 1 0 16:58 21.10.2020
6539 Clouds 18 1011 63 10000 0.5 0 16:38 21.10.2020
6540 Clouds 18 1011 63 10000 0.5 0 16:19 21.10.2020
6541 Clouds 18 1011 59 10000 0.5 0 15:44 21.10.2020
6542 Clouds 18 1011 72 10000 1 0 15:21 21.10.2020
6543 Clouds 18 1011 72 10000 1 70 14:49 21.10.2020
6544 Rain 18 1011 72 10000 1.5 130 14:28 21.10.2020
6545 Rain 17 1011 63 10000 1 0 13:57 21.10.2020
6546 Clouds 17 1011 63 10000 1 0 13:39 21.10.2020
6547 Clouds 15 1011 76 10000 1 0 13:20 21.10.2020
6548 Clouds 15 1011 76 10000 1.5 90 12:38 21.10.2020
6549 Clouds 15 1011 67 10000 1.5 80 12:20 21.10.2020
6550 Clouds 15 1011 67 10000 1 0 11:46 21.10.2020
6551 Clouds 13 1011 76 10000 1.5 90 11:20 21.10.2020
6552 Clouds 12 1011 81 10000 1.5 0 10:49 21.10.2020
6553 Clouds 11 1011 93 10000 1.5 0 10:27 21.10.2020
6554 Clouds 10 1011 93 10000 0.5 0 09:58 21.10.2020
6555 Clouds 9 1011 93 10000 0.5 0 09:39 21.10.2020
6556 Clouds 9 1010 93 10000 0.5 0 08:59 21.10.2020
6557 Clouds 9 1010 93 10000 0.5 0 08:40 21.10.2020
6558 Clouds 9 1010 93 10000 0.5 0 08:22 21.10.2020
6559 Clouds 9 1010 93 10000 1 80 07:49 21.10.2020
6560 Clouds 9 1010 87 10000 0.5 0 06:59 21.10.2020
6561 Clouds 9 1010 93 10000 0.5 0 06:34 21.10.2020
6562 Clouds 9 1010 93 10000 1 0 05:59 21.10.2020
6563 Clouds 9 1012 93 10000 0.5 0 02:46 21.10.2020
6564 Clouds 9 1013 93 10000 0.5 0 00:25 21.10.2020
6565 Clouds 9 1013 93 10000 1.5 50 23:31 20.10.2020
6566 Clouds 10 1014 100 10000 2.1 0 22:41 20.10.2020
6567 Clouds 11 1014 93 10000 1 0 22:23 20.10.2020
6568 Clouds 11 1014 93 10000 0.5 0 21:47 20.10.2020
6569 Clouds 11 1015 93 10000 0.5 0 21:19 20.10.2020
6570 Clouds 11 1015 87 10000 0.5 0 20:43 20.10.2020
6571 Clouds 12 1014 87 10000 1 0 20:24 20.10.2020
6572 Clouds 12 1014 87 10000 1 0 20:24 20.10.2020
6573 Clouds 12 1015 76 10000 0.5 0 19:55 20.10.2020
6574 Rain 12 1015 76 10000 0.5 0 19:37 20.10.2020
6575 Rain 13 1014 76 10000 0.5 0 19:19 20.10.2020
6576 Clouds 13 1014 76 10000 1 90 18:38 20.10.2020
6577 Clouds 15 1014 67 10000 0.5 0 17:59 20.10.2020
6578 Clouds 15 1014 67 10000 0.5 0 17:40 20.10.2020
6579 Clouds 16 1014 67 10000 1 0 17:22 20.10.2020
6580 Clouds 17 1015 63 10000 1.5 150 16:42 20.10.2020
6581 Clouds 16 1015 59 10000 1 0 16:24 20.10.2020
6582 Clouds 16 1015 63 10000 1.5 150 15:49 20.10.2020
6583 Clouds 16 1015 59 10000 2.1 170 15:30 20.10.2020
6584 Clouds 16 1015 59 10000 2.6 160 14:55 20.10.2020
6585 Clouds 15 1015 59 10000 2.6 160 14:36 20.10.2020
6586 Clouds 15 1015 58 10000 2.1 140 14:18 20.10.2020
6587 Clouds 14 1016 62 10000 1.5 210 13:41 20.10.2020
6588 Clouds 14 1016 62 10000 2.6 180 13:21 20.10.2020
6589 Clouds 13 1016 62 10000 1.5 190 12:54 20.10.2020
6590 Clouds 12 1016 71 10000 1 0 12:31 20.10.2020
6591 Clouds 9 1016 87 10000 0.5 0 11:48 20.10.2020
6592 Clouds 9 1016 87 10000 0.5 0 11:30 20.10.2020
6593 Clouds 8 1017 86 10000 0.5 0 10:53 20.10.2020
6594 Clouds 7 1017 86 10000 0.5 0 10:28 20.10.2020
6595 Clouds 6 1016 86 10000 1 0 09:50 20.10.2020
6596 Mist 4 1016 100 10000 1.5 50 09:20 20.10.2020
6597 Clouds 4 1016 69 10000 1.5 80 08:57 20.10.2020
6598 Clouds 3 1016 100 10000 1.5 80 08:30 20.10.2020
6599 Clouds 3 1017 93 10000 1 0 07:50 20.10.2020
6600 Clouds 3 1017 76 10000 1.5 240 07:25 20.10.2020
6601 Clouds 3 1017 100 10000 1 330 06:25 20.10.2020
6602 Clouds 3 1017 93 10000 0.5 0 05:21 20.10.2020
6603 Clouds 3 1018 80 10000 0.5 0 02:44 20.10.2020
6604 Clouds 4 1018 93 10000 1.5 280 02:18 20.10.2020
6605 Clouds 5 1019 93 10000 0.5 0 00:58 20.10.2020
6606 Clouds 5 1019 86 10000 1.99 158 00:39 20.10.2020
6607 Clouds 5 1019 86 10000 1.99 158 00:19 20.10.2020
6608 Clouds 6 1020 86 10000 0.5 0 23:41 19.10.2020
6609 Clouds 6 1020 93 10000 1 0 23:21 19.10.2020
6610 Clouds 6 1020 93 10000 1.5 70 22:43 19.10.2020
6611 Clouds 6 1020 93 10000 1.5 80 22:21 19.10.2020
6612 Clouds 6 1020 86 10000 1.5 70 21:43 19.10.2020
6613 Clear 6 1020 86 10000 1.5 70 21:22 19.10.2020
6614 Clear 6 1020 87 10000 1.5 80 20:46 19.10.2020
6615 Clouds 7 1020 87 10000 2.1 80 20:27 19.10.2020
6616 Clouds 7 1020 81 10000 1.5 80 19:50 19.10.2020
6617 Clouds 8 1020 81 10000 2.6 80 19:24 19.10.2020
6618 Clouds 9 1020 70 10000 3.1 80 18:55 19.10.2020
6619 Clouds 10 1020 71 10000 3.1 80 18:37 19.10.2020
6620 Clouds 11 1020 71 10000 3.1 80 18:18 19.10.2020
6621 Clouds 12 1021 58 10000 3.1 80 17:44 19.10.2020
6622 Clouds 12 1021 58 10000 2.1 100 17:23 19.10.2020
6623 Clouds 12 1021 54 10000 2.6 90 16:43 19.10.2020
6624 Clouds 12 1021 50 10000 3.1 110 16:25 19.10.2020
6625 Clouds 13 1021 43 10000 1.34 151 15:43 19.10.2020
6626 Clouds 13 1022 42 10000 1.79 132 15:24 19.10.2020
6627 Clouds 12 1022 42 10000 0.89 96 14:51 19.10.2020
6628 Clouds 13 1022 42 10000 1.34 106 14:26 19.10.2020
6629 Clouds 13 1023 39 10000 2.24 115 13:54 19.10.2020
6630 Clouds 13 1023 41 10000 0.89 122 13:34 19.10.2020
6631 Clouds 13 1023 40 10000 0.89 106 12:59 19.10.2020
6632 Clouds 12 1023 43 10000 1.34 84 12:40 19.10.2020
6633 Clouds 13 1023 46 10000 1.79 130 12:22 19.10.2020
6634 Clouds 9 1023 87 10000 0.5 0 11:40 19.10.2020
6635 Clouds 9 1023 87 10000 0.5 0 11:19 19.10.2020
6636 Clouds 8 1024 93 10000 1 0 10:43 19.10.2020
6637 Clouds 7 1024 100 10000 1 0 10:21 19.10.2020
6638 Clouds 7 1023 100 10000 1 70 09:50 19.10.2020
6639 Clouds 6 1023 100 10000 1 70 09:22 19.10.2020
6640 Clouds 6 1023 93 10000 0.5 0 08:49 19.10.2020
6641 Clouds 6 1023 93 10000 0.5 0 08:23 19.10.2020
6642 Clouds 6 1023 93 10000 0.5 0 07:52 19.10.2020
6643 Clouds 6 1023 93 10000 1 0 07:19 19.10.2020
6644 Clouds 6 1023 100 10000 0.5 90 06:19 19.10.2020
6645 Clouds 6 1023 100 10000 0.5 0 04:29 19.10.2020
6646 Clouds 6 1024 100 10000 0.5 0 03:42 19.10.2020
6647 Clouds 5 1024 93 10000 1 0 00:59 19.10.2020
6648 Clouds 5 1024 93 10000 2.1 290 00:25 19.10.2020
6649 Clouds 5 1024 93 10000 1.5 300 23:48 18.10.2020
6650 Clouds 5 1024 93 10000 1.5 300 23:26 18.10.2020
6651 Clouds 6 1023 93 10000 1.5 320 22:53 18.10.2020
6652 Clouds 6 1023 87 10000 1 340 22:23 18.10.2020
6653 Clouds 6 1023 87 10000 1 340 21:59 18.10.2020
6654 Clouds 7 1023 81 10000 1 230 21:37 18.10.2020
6655 Clouds 7 1023 87 10000 1 0 21:18 18.10.2020
6656 Clouds 8 1023 87 10000 1 0 20:42 18.10.2020
6657 Clouds 8 1023 87 10000 1 0 20:21 18.10.2020
6658 Clouds 8 1023 81 10000 0.5 0 19:47 18.10.2020
6659 Clouds 9 1023 81 10000 0.5 0 19:26 18.10.2020
6660 Clouds 9 1022 76 10000 0.5 0 18:50 18.10.2020
6661 Clouds 9 1022 76 10000 0.5 0 18:29 18.10.2020
6662 Clouds 10 1022 76 10000 0.5 230 17:59 18.10.2020
6663 Clouds 10 1022 70 10000 0.5 0 17:40 18.10.2020
6664 Clouds 10 1022 70 10000 0.5 0 17:21 18.10.2020
6665 Clouds 10 1022 76 10000 1 0 16:41 18.10.2020
6666 Clouds 10 1022 70 10000 1 0 16:21 18.10.2020
6667 Clouds 10 1023 76 10000 1.5 330 15:42 18.10.2020
6668 Clouds 10 1023 76 10000 1.5 340 15:19 18.10.2020
6669 Clouds 10 1023 76 10000 1.5 340 14:57 18.10.2020
6670 Clouds 10 1023 70 10000 1 0 14:31 18.10.2020
6671 Clouds 10 1023 71 10000 2.1 30 13:58 18.10.2020
6672 Clouds 10 1023 66 10000 1 0 13:40 18.10.2020
6673 Clouds 10 1023 66 10000 1 0 13:21 18.10.2020
6674 Clouds 9 1023 76 10000 1 0 12:43 18.10.2020
6675 Clouds 9 1023 76 10000 1 0 12:22 18.10.2020
6676 Clouds 9 1023 81 10000 1 0 11:42 18.10.2020
6677 Clouds 8 1023 81 10000 1 0 11:23 18.10.2020
6678 Clouds 8 1023 93 9000 2.1 250 10:45 18.10.2020
6679 Clouds 7 1023 93 9000 2.1 250 10:22 18.10.2020
6680 Clouds 7 1023 93 8000 1 0 09:59 18.10.2020
6681 Clouds 7 1023 87 8000 1 0 09:41 18.10.2020
6682 Clouds 7 1022 93 7000 0.5 0 09:20 18.10.2020
6683 Clouds 7 1022 93 6000 1 0 08:44 18.10.2020
6684 Clouds 7 1022 93 6000 1 0 08:25 18.10.2020
6685 Clouds 7 1021 93 10000 0.5 0 07:48 18.10.2020
6686 Clouds 7 1021 93 9000 2.1 250 05:56 18.10.2020
6687 Clouds 7 1021 93 10000 0.5 0 03:40 18.10.2020
6688 Clouds 7 1021 93 10000 0.5 0 02:52 18.10.2020
6689 Clouds 8 1020 93 10000 0.5 0 01:31 18.10.2020
6690 Clouds 8 1020 93 10000 1.5 260 00:43 18.10.2020
6691 Clouds 8 1020 93 10000 1.5 260 00:20 18.10.2020
6692 Clouds 8 1020 93 10000 0.5 0 23:41 17.10.2020
6693 Clouds 8 1020 93 10000 1 0 23:21 17.10.2020
6694 Clouds 8 1020 93 10000 1 0 22:57 17.10.2020
6695 Clouds 8 1020 93 10000 1.5 310 22:38 17.10.2020
6696 Clouds 8 1020 93 10000 1.5 290 22:18 17.10.2020
6697 Clouds 8 1020 93 10000 2.1 280 21:43 17.10.2020
6698 Clouds 8 1020 93 10000 1 280 21:21 17.10.2020
6699 Clouds 8 1020 87 10000 1 320 20:46 17.10.2020
6700 Clouds 8 1019 100 10000 1 0 20:21 17.10.2020
6701 Rain 8 1019 93 10000 1 0 19:45 17.10.2020
6702 Rain 8 1019 93 10000 1 0 19:24 17.10.2020
6703 Clouds 9 1019 93 10000 2.6 350 18:47 17.10.2020
6704 Clouds 9 1019 87 10000 2.6 340 18:29 17.10.2020
6705 Clouds 9 1019 87 10000 2.6 340 17:59 17.10.2020
6706 Rain 9 1018 81 10000 3.1 360 17:39 17.10.2020
6707 Rain 9 1018 76 10000 2.6 360 17:20 17.10.2020
6708 Clouds 9 1018 76 10000 2.6 10 16:48 17.10.2020
6709 Clouds 10 1018 71 10000 1.5 350 16:22 17.10.2020
6710 Clouds 10 1018 76 10000 2.6 10 16:22 17.10.2020
6711 Clouds 10 1018 71 10000 2.1 350 15:43 17.10.2020
6712 Clouds 10 1018 71 10000 2.1 350 15:23 17.10.2020
6713 Clouds 10 1018 71 10000 2.6 20 14:59 17.10.2020
6714 Clouds 10 1018 71